<?xml version='1.0' encoding='UTF-8'?><gpx version="1.1" creator="JPX - https://github.com/jenetics/jpx" xmlns="http://www.topografix.com/GPX/1/1"><trk><trkseg><trkpt lat="39.07055566460555" lon="9.010574975931942"><ele>28.0</ele><time>2026-03-28T10:01:11.999Z</time></trkpt><trkpt lat="39.070631882500436" lon="9.010594323323819"><ele>27.999999999999996</ele><time>2026-03-28T10:01:12.999Z</time></trkpt><trkpt lat="39.070726388173945" lon="9.01061491131844"><ele>27.999999999999996</ele><time>2026-03-28T10:01:13.999Z</time></trkpt><trkpt lat="39.070827640902706" lon="9.01064115962689"><ele>28.0</ele><time>2026-03-28T10:01:14.999Z</time></trkpt><trkpt lat="39.07094950958655" lon="9.010665753921453"><ele>28.0</ele><time>2026-03-28T10:01:15.999Z</time></trkpt><trkpt lat="39.071079571586615" lon="9.010677855577761"><ele>27.75</ele><time>2026-03-28T10:01:16.999Z</time></trkpt><trkpt lat="39.07121228695192" lon="9.010682859133588"><ele>27.5</ele><time>2026-03-28T10:01:17.999Z</time></trkpt><trkpt lat="39.071355148104836" lon="9.010680291913541"><ele>27.25</ele><time>2026-03-28T10:01:18.999Z</time></trkpt><trkpt lat="39.07150609651886" lon="9.010673552444585"><ele>27.0</ele><time>2026-03-28T10:01:19.999Z</time></trkpt><trkpt lat="39.0716241442753" lon="9.010664047541747"><ele>26.8</ele><time>2026-03-28T10:01:20.999Z</time></trkpt><trkpt lat="39.07171040815986" lon="9.010635074554232"><ele>26.6</ele><time>2026-03-28T10:01:21.999Z</time></trkpt><trkpt lat="39.071767068377405" lon="9.010563645761595"><ele>26.400000000000002</ele><time>2026-03-28T10:01:22.999Z</time></trkpt><trkpt lat="39.07179138690594" lon="9.010474614823659"><ele>26.200000000000003</ele><time>2026-03-28T10:01:23.999Z</time></trkpt><trkpt lat="39.071796796451174" lon="9.010336585663328"><ele>26.0</ele><time>2026-03-28T10:01:24.999Z</time></trkpt><trkpt lat="39.07179057065037" lon="9.0101721300133"><ele>26.333333333333332</ele><time>2026-03-28T10:01:25.999Z</time></trkpt><trkpt lat="39.07178878974081" lon="9.009966379693896"><ele>26.666666666666664</ele><time>2026-03-28T10:01:26.999Z</time></trkpt><trkpt lat="39.07175705930222" lon="9.009766060794693"><ele>27.0</ele><time>2026-03-28T10:01:27.999Z</time></trkpt><trkpt lat="39.071694903945975" lon="9.009562244131935"><ele>27.333333333333336</ele><time>2026-03-28T10:01:28.999Z</time></trkpt><trkpt lat="39.071599741587896" lon="9.009325880854272"><ele>27.666666666666668</ele><time>2026-03-28T10:01:29.999Z</time></trkpt><trkpt lat="39.071494218376785" lon="9.009080535801946"><ele>28.0</ele><time>2026-03-28T10:01:30.999Z</time></trkpt><trkpt lat="39.07139827335502" lon="9.008862831543313"><ele>28.25</ele><time>2026-03-28T10:01:31.999Z</time></trkpt><trkpt lat="39.07130864157649" lon="9.00868335655519"><ele>28.5</ele><time>2026-03-28T10:01:32.999Z</time></trkpt><trkpt lat="39.07122238805161" lon="9.008520990158797"><ele>28.75</ele><time>2026-03-28T10:01:33.998Z</time></trkpt><trkpt lat="39.07116712915837" lon="9.008374161357322"><ele>29.0</ele><time>2026-03-28T10:01:34.998Z</time></trkpt><trkpt lat="39.0710990156885" lon="9.008223210696448"><ele>29.0</ele><time>2026-03-28T10:01:35.998Z</time></trkpt><trkpt lat="39.07101026261758" lon="9.008075394526225"><ele>29.0</ele><time>2026-03-28T10:01:36.998Z</time></trkpt><trkpt lat="39.07091254610406" lon="9.007934441988748"><ele>29.0</ele><time>2026-03-28T10:01:37.998Z</time></trkpt><trkpt lat="39.07083564996036" lon="9.007819024324652"><ele>29.0</ele><time>2026-03-28T10:01:38.998Z</time></trkpt><trkpt lat="39.0707671264208" lon="9.007709074423932"><ele>29.666666666666664</ele><time>2026-03-28T10:01:39.998Z</time></trkpt><trkpt lat="39.070715350916" lon="9.007633009932835"><ele>30.333333333333332</ele><time>2026-03-28T10:01:40.998Z</time></trkpt><trkpt lat="39.07066737565878" lon="9.007575850000565"><ele>31.0</ele><time>2026-03-28T10:01:41.998Z</time></trkpt><trkpt lat="39.07062295446549" lon="9.007512889868982"><ele>31.666666666666664</ele><time>2026-03-28T10:01:42.998Z</time></trkpt><trkpt lat="39.0705660452248" lon="9.007433544677523"><ele>32.333333333333336</ele><time>2026-03-28T10:01:44.998Z</time></trkpt><trkpt lat="39.070501634282465" lon="9.007384873253756"><ele>33.0</ele><time>2026-03-28T10:01:47.998Z</time></trkpt><trkpt lat="39.07041005526116" lon="9.007333254036627"><ele>33.4</ele><time>2026-03-28T10:01:50.998Z</time></trkpt><trkpt lat="39.07035106927088" lon="9.007257031548988"><ele>33.8</ele><time>2026-03-28T10:01:52.998Z</time></trkpt><trkpt lat="39.07034280004825" lon="9.007124775799806"><ele>34.2</ele><time>2026-03-28T10:01:54.998Z</time></trkpt><trkpt lat="39.070387908157684" lon="9.007014241437798"><ele>34.6</ele><time>2026-03-28T10:01:57.998Z</time></trkpt><trkpt lat="39.07048822472567" lon="9.00691723517546"><ele>35.0</ele><time>2026-03-28T10:01:59.998Z</time></trkpt><trkpt lat="39.07055077316149" lon="9.006855975481269"><ele>35.0</ele><time>2026-03-28T10:02:00.998Z</time></trkpt><trkpt lat="39.07060654631074" lon="9.006773158124831"><ele>35.0</ele><time>2026-03-28T10:02:01.998Z</time></trkpt><trkpt lat="39.07065248293494" lon="9.00668557043693"><ele>35.0</ele><time>2026-03-28T10:02:02.998Z</time></trkpt><trkpt lat="39.070701807504975" lon="9.0066054384338"><ele>35.0</ele><time>2026-03-28T10:02:03.998Z</time></trkpt><trkpt lat="39.07076848875111" lon="9.006548800638226"><ele>35.0</ele><time>2026-03-28T10:02:04.998Z</time></trkpt><trkpt lat="39.07084747082932" lon="9.006537928782556"><ele>35.0</ele><time>2026-03-28T10:02:05.998Z</time></trkpt><trkpt lat="39.07093638642177" lon="9.006567004469469"><ele>35.25</ele><time>2026-03-28T10:02:06.998Z</time></trkpt><trkpt lat="39.071012419297745" lon="9.006647558522907"><ele>35.5</ele><time>2026-03-28T10:02:07.998Z</time></trkpt><trkpt lat="39.07107603714212" lon="9.006786652151701"><ele>35.75</ele><time>2026-03-28T10:02:08.998Z</time></trkpt><trkpt lat="39.07115333803375" lon="9.006918574447372"><ele>36.0</ele><time>2026-03-28T10:02:09.998Z</time></trkpt><trkpt lat="39.07126004730247" lon="9.00702060911962"><ele>35.0</ele><time>2026-03-28T10:02:10.997Z</time></trkpt><trkpt lat="39.07138338341672" lon="9.007129544373159"><ele>34.0</ele><time>2026-03-28T10:02:11.997Z</time></trkpt><trkpt lat="39.071523440155296" lon="9.007234375080154"><ele>33.0</ele><time>2026-03-28T10:02:12.997Z</time></trkpt><trkpt lat="39.071664014496065" lon="9.00734171388838"><ele>32.333333333333336</ele><time>2026-03-28T10:02:13.997Z</time></trkpt><trkpt lat="39.071809862008585" lon="9.007455122510319"><ele>31.666666666666668</ele><time>2026-03-28T10:02:14.997Z</time></trkpt><trkpt lat="39.07195491047813" lon="9.007563112572484"><ele>31.0</ele><time>2026-03-28T10:02:15.997Z</time></trkpt><trkpt lat="39.0720830315199" lon="9.007657549086707"><ele>31.0</ele><time>2026-03-28T10:02:16.997Z</time></trkpt><trkpt lat="39.072199737122354" lon="9.007752671710653"><ele>31.0</ele><time>2026-03-28T10:02:17.997Z</time></trkpt><trkpt lat="39.07230745306583" lon="9.00783407060689"><ele>31.0</ele><time>2026-03-28T10:02:18.997Z</time></trkpt><trkpt lat="39.07240337171435" lon="9.007898778249205"><ele>31.0</ele><time>2026-03-28T10:02:19.997Z</time></trkpt><trkpt lat="39.072494227531436" lon="9.007960088853505"><ele>31.25</ele><time>2026-03-28T10:02:20.997Z</time></trkpt><trkpt lat="39.07259351810635" lon="9.008018500975236"><ele>31.5</ele><time>2026-03-28T10:02:21.997Z</time></trkpt><trkpt lat="39.07271354714041" lon="9.008043395746114"><ele>31.75</ele><time>2026-03-28T10:02:22.997Z</time></trkpt><trkpt lat="39.07283957657824" lon="9.008002967473422"><ele>32.0</ele><time>2026-03-28T10:02:23.997Z</time></trkpt><trkpt lat="39.072963657500296" lon="9.007947016827051"><ele>32.0</ele><time>2026-03-28T10:02:24.997Z</time></trkpt><trkpt lat="39.07308777100187" lon="9.007852924040767"><ele>32.0</ele><time>2026-03-28T10:02:25.997Z</time></trkpt><trkpt lat="39.0731868583713" lon="9.007729890972266"><ele>32.0</ele><time>2026-03-28T10:02:26.997Z</time></trkpt><trkpt lat="39.07327498001158" lon="9.007572229003252"><ele>32.0</ele><time>2026-03-28T10:02:27.997Z</time></trkpt><trkpt lat="39.073340350446095" lon="9.007370456655885"><ele>34.0</ele><time>2026-03-28T10:02:28.997Z</time></trkpt><trkpt lat="39.073400199150385" lon="9.007131493293327"><ele>36.0</ele><time>2026-03-28T10:02:29.997Z</time></trkpt><trkpt lat="39.073460883741724" lon="9.006940481193888"><ele>38.0</ele><time>2026-03-28T10:02:31Z</time></trkpt><trkpt lat="39.073517852346455" lon="9.006760140334977"><ele>38.0</ele><time>2026-03-28T10:02:32Z</time></trkpt><trkpt lat="39.07357157269295" lon="9.006579895493516"><ele>38.0</ele><time>2026-03-28T10:02:33Z</time></trkpt><trkpt lat="39.07362538515465" lon="9.006402363886561"><ele>38.0</ele><time>2026-03-28T10:02:34Z</time></trkpt><trkpt lat="39.073682644703624" lon="9.00621901321657"><ele>38.0</ele><time>2026-03-28T10:02:35Z</time></trkpt><trkpt lat="39.07374724556652" lon="9.006023601025433"><ele>38.0</ele><time>2026-03-28T10:02:36Z</time></trkpt><trkpt lat="39.073811027864735" lon="9.005832959213643"><ele>38.0</ele><time>2026-03-28T10:02:37Z</time></trkpt><trkpt lat="39.073873312024546" lon="9.005632745958687"><ele>39.33333333333333</ele><time>2026-03-28T10:02:38Z</time></trkpt><trkpt lat="39.07392708483588" lon="9.005439651203064"><ele>40.666666666666664</ele><time>2026-03-28T10:02:39Z</time></trkpt><trkpt lat="39.073985861378965" lon="9.005253642342563"><ele>42.0</ele><time>2026-03-28T10:02:40Z</time></trkpt><trkpt lat="39.07404216692504" lon="9.005076263720582"><ele>43.0</ele><time>2026-03-28T10:02:41Z</time></trkpt><trkpt lat="39.07410346687107" lon="9.00490729723832"><ele>44.0</ele><time>2026-03-28T10:02:42Z</time></trkpt><trkpt lat="39.07415359284241" lon="9.004739464254394"><ele>45.0</ele><time>2026-03-28T10:02:43Z</time></trkpt><trkpt lat="39.074208893390974" lon="9.004557245626474"><ele>46.0</ele><time>2026-03-28T10:02:44Z</time></trkpt><trkpt lat="39.074257652089344" lon="9.004390184304766"><ele>46.0</ele><time>2026-03-28T10:02:45Z</time></trkpt><trkpt lat="39.07431443366257" lon="9.004227416087147"><ele>46.0</ele><time>2026-03-28T10:02:46Z</time></trkpt><trkpt lat="39.07436678800651" lon="9.00405958912324"><ele>46.0</ele><time>2026-03-28T10:02:47Z</time></trkpt><trkpt lat="39.074420792008546" lon="9.003896496589407"><ele>46.0</ele><time>2026-03-28T10:02:48Z</time></trkpt><trkpt lat="39.07447461267577" lon="9.003730460398812"><ele>45.75</ele><time>2026-03-28T10:02:49Z</time></trkpt><trkpt lat="39.074525258683394" lon="9.00356641816713"><ele>45.5</ele><time>2026-03-28T10:02:50Z</time></trkpt><trkpt lat="39.074577549750764" lon="9.003407748890366"><ele>45.25</ele><time>2026-03-28T10:02:51Z</time></trkpt><trkpt lat="39.074628759949874" lon="9.003250126079893"><ele>45.0</ele><time>2026-03-28T10:02:52Z</time></trkpt><trkpt lat="39.074677989388015" lon="9.003090171763663"><ele>45.5</ele><time>2026-03-28T10:02:53Z</time></trkpt><trkpt lat="39.0747285099721" lon="9.00292943395019"><ele>46.0</ele><time>2026-03-28T10:02:54Z</time></trkpt><trkpt lat="39.074776468277264" lon="9.002772701295081"><ele>46.5</ele><time>2026-03-28T10:02:55Z</time></trkpt><trkpt lat="39.07482562123516" lon="9.002600720312799"><ele>47.0</ele><time>2026-03-28T10:02:56Z</time></trkpt><trkpt lat="39.074877082827896" lon="9.002431616687169"><ele>48.0</ele><time>2026-03-28T10:02:57Z</time></trkpt><trkpt lat="39.07492810143017" lon="9.002259956225561"><ele>49.0</ele><time>2026-03-28T10:02:58Z</time></trkpt><trkpt lat="39.07496601061643" lon="9.002073421716569"><ele>50.0</ele><time>2026-03-28T10:02:59Z</time></trkpt><trkpt lat="39.07498186858817" lon="9.001889566669359"><ele>51.0</ele><time>2026-03-28T10:03:00Z</time></trkpt><trkpt lat="39.07497432132774" lon="9.001700600658152"><ele>51.0</ele><time>2026-03-28T10:03:01Z</time></trkpt><trkpt lat="39.07494720869786" lon="9.001512541575057"><ele>51.0</ele><time>2026-03-28T10:03:01.999Z</time></trkpt><trkpt lat="39.074911617399565" lon="9.0013338994405"><ele>51.0</ele><time>2026-03-28T10:03:02.999Z</time></trkpt><trkpt lat="39.07487256005487" lon="9.001159870649833"><ele>51.0</ele><time>2026-03-28T10:03:03.999Z</time></trkpt><trkpt lat="39.0748275711076" lon="9.000973061808162"><ele>52.33333333333333</ele><time>2026-03-28T10:03:04.999Z</time></trkpt><trkpt lat="39.0747873191798" lon="9.000784494765607"><ele>53.666666666666664</ele><time>2026-03-28T10:03:05.999Z</time></trkpt><trkpt lat="39.07475148919974" lon="9.000595652642623"><ele>55.0</ele><time>2026-03-28T10:03:06.999Z</time></trkpt><trkpt lat="39.074714803430865" lon="9.00040665154535"><ele>55.0</ele><time>2026-03-28T10:03:07.999Z</time></trkpt><trkpt lat="39.0746718789612" lon="9.000217375239442"><ele>55.0</ele><time>2026-03-28T10:03:08.999Z</time></trkpt><trkpt lat="39.07463715608562" lon="9.000030834208998"><ele>55.0</ele><time>2026-03-28T10:03:09.999Z</time></trkpt><trkpt lat="39.07460336548967" lon="8.999843516996055"><ele>55.0</ele><time>2026-03-28T10:03:10.999Z</time></trkpt><trkpt lat="39.074566349493104" lon="8.999659544346747"><ele>55.0</ele><time>2026-03-28T10:03:11.999Z</time></trkpt><trkpt lat="39.07454273974605" lon="8.99946710258946"><ele>55.0</ele><time>2026-03-28T10:03:12.999Z</time></trkpt><trkpt lat="39.074507808364004" lon="8.99927941418956"><ele>55.0</ele><time>2026-03-28T10:03:13.999Z</time></trkpt><trkpt lat="39.0744732156081" lon="8.999093545241582"><ele>56.0</ele><time>2026-03-28T10:03:14.999Z</time></trkpt><trkpt lat="39.07442947745567" lon="8.998919527063784"><ele>57.0</ele><time>2026-03-28T10:03:15.999Z</time></trkpt><trkpt lat="39.07439949042732" lon="8.998743028693665"><ele>58.0</ele><time>2026-03-28T10:03:16.999Z</time></trkpt><trkpt lat="39.07437229080144" lon="8.9985600990541"><ele>59.0</ele><time>2026-03-28T10:03:17.999Z</time></trkpt><trkpt lat="39.07433571572863" lon="8.998387677251865"><ele>59.75</ele><time>2026-03-28T10:03:18.999Z</time></trkpt><trkpt lat="39.07430598614193" lon="8.99821144291828"><ele>60.5</ele><time>2026-03-28T10:03:19.999Z</time></trkpt><trkpt lat="39.07427484233706" lon="8.99804613781584"><ele>61.25</ele><time>2026-03-28T10:03:20.999Z</time></trkpt><trkpt lat="39.074252843643926" lon="8.997899971751822"><ele>62.0</ele><time>2026-03-28T10:03:21.999Z</time></trkpt><trkpt lat="39.07423395928601" lon="8.997731940171255"><ele>62.0</ele><time>2026-03-28T10:03:22.999Z</time></trkpt><trkpt lat="39.07421668117118" lon="8.997560297589663"><ele>62.0</ele><time>2026-03-28T10:03:23.999Z</time></trkpt><trkpt lat="39.07420106891461" lon="8.997386644066324"><ele>62.0</ele><time>2026-03-28T10:03:24.999Z</time></trkpt><trkpt lat="39.07419871565328" lon="8.9972154071001"><ele>62.0</ele><time>2026-03-28T10:03:25.999Z</time></trkpt><trkpt lat="39.074204128686105" lon="8.9970454685951"><ele>63.0</ele><time>2026-03-28T10:03:26.999Z</time></trkpt><trkpt lat="39.074211368818226" lon="8.996876773084306"><ele>64.0</ele><time>2026-03-28T10:03:27.999Z</time></trkpt><trkpt lat="39.074214646404236" lon="8.996712588770613"><ele>65.0</ele><time>2026-03-28T10:03:28.999Z</time></trkpt><trkpt lat="39.074221623342574" lon="8.996554658098226"><ele>66.0</ele><time>2026-03-28T10:03:29.999Z</time></trkpt><trkpt lat="39.07422767206669" lon="8.996391846471345"><ele>66.5</ele><time>2026-03-28T10:03:30.999Z</time></trkpt><trkpt lat="39.07423699886346" lon="8.996220300007135"><ele>67.0</ele><time>2026-03-28T10:03:31.999Z</time></trkpt><trkpt lat="39.074248943931316" lon="8.99605826725593"><ele>67.5</ele><time>2026-03-28T10:03:32.999Z</time></trkpt><trkpt lat="39.07426425035795" lon="8.995889880301501"><ele>68.0</ele><time>2026-03-28T10:03:33.999Z</time></trkpt><trkpt lat="39.074275106811236" lon="8.995717924237798"><ele>69.0</ele><time>2026-03-28T10:03:34.999Z</time></trkpt><trkpt lat="39.0742847315224" lon="8.99554317767359"><ele>70.0</ele><time>2026-03-28T10:03:35.999Z</time></trkpt><trkpt lat="39.07429070111908" lon="8.995360890841292"><ele>71.0</ele><time>2026-03-28T10:03:36.999Z</time></trkpt><trkpt lat="39.07430599971816" lon="8.995173942765899"><ele>72.0</ele><time>2026-03-28T10:03:37.999Z</time></trkpt><trkpt lat="39.07432103926444" lon="8.994985236342272"><ele>73.33333333333333</ele><time>2026-03-28T10:03:38.999Z</time></trkpt><trkpt lat="39.07433291220242" lon="8.994795439080566"><ele>74.66666666666666</ele><time>2026-03-28T10:03:39.998Z</time></trkpt><trkpt lat="39.07433883751378" lon="8.994601174162662"><ele>76.0</ele><time>2026-03-28T10:03:40.998Z</time></trkpt><trkpt lat="39.07435153653434" lon="8.994403829804433"><ele>76.0</ele><time>2026-03-28T10:03:41.998Z</time></trkpt><trkpt lat="39.07436036580264" lon="8.99420731211402"><ele>76.0</ele><time>2026-03-28T10:03:42.998Z</time></trkpt><trkpt lat="39.07436857376241" lon="8.994020643206513"><ele>76.0</ele><time>2026-03-28T10:03:43.998Z</time></trkpt><trkpt lat="39.074393732590615" lon="8.993832177244018"><ele>76.0</ele><time>2026-03-28T10:03:44.998Z</time></trkpt><trkpt lat="39.07440599416136" lon="8.993637807820136"><ele>76.25</ele><time>2026-03-28T10:03:45.998Z</time></trkpt><trkpt lat="39.07441884626059" lon="8.993456422196944"><ele>76.5</ele><time>2026-03-28T10:03:46.998Z</time></trkpt><trkpt lat="39.074432309329445" lon="8.99329863421046"><ele>76.75</ele><time>2026-03-28T10:03:47.998Z</time></trkpt><trkpt lat="39.07444244975148" lon="8.99312609154594"><ele>77.0</ele><time>2026-03-28T10:03:48.998Z</time></trkpt><trkpt lat="39.07443879192417" lon="8.992947787091284"><ele>77.5</ele><time>2026-03-28T10:03:49.998Z</time></trkpt><trkpt lat="39.0744435880404" lon="8.992766392376975"><ele>78.0</ele><time>2026-03-28T10:03:50.998Z</time></trkpt><trkpt lat="39.074429572363975" lon="8.992598744912687"><ele>78.5</ele><time>2026-03-28T10:03:51.998Z</time></trkpt><trkpt lat="39.074383763198654" lon="8.992441262737193"><ele>79.0</ele><time>2026-03-28T10:03:52.998Z</time></trkpt><trkpt lat="39.07432308428752" lon="8.992293977562346"><ele>79.0</ele><time>2026-03-28T10:03:53.998Z</time></trkpt><trkpt lat="39.07424619193293" lon="8.992149012734467"><ele>79.0</ele><time>2026-03-28T10:03:54.998Z</time></trkpt><trkpt lat="39.07415384427927" lon="8.992014977287626"><ele>79.0</ele><time>2026-03-28T10:03:55.998Z</time></trkpt><trkpt lat="39.074041379368644" lon="8.991885498166704"><ele>79.0</ele><time>2026-03-28T10:03:56.998Z</time></trkpt><trkpt lat="39.07391440593048" lon="8.991754672600512"><ele>80.0</ele><time>2026-03-28T10:03:57.998Z</time></trkpt><trkpt lat="39.073782170611736" lon="8.991639004733775"><ele>81.0</ele><time>2026-03-28T10:03:58.998Z</time></trkpt><trkpt lat="39.07364591688949" lon="8.991526997364947"><ele>82.0</ele><time>2026-03-28T10:03:59.998Z</time></trkpt><trkpt lat="39.07351940444189" lon="8.99140318180998"><ele>82.0</ele><time>2026-03-28T10:04:00.998Z</time></trkpt><trkpt lat="39.073383950635375" lon="8.991269014695211"><ele>82.0</ele><time>2026-03-28T10:04:01.998Z</time></trkpt><trkpt lat="39.07323863121445" lon="8.991155380958629"><ele>82.0</ele><time>2026-03-28T10:04:02.998Z</time></trkpt><trkpt lat="39.073126468687484" lon="8.991088258372317"><ele>82.5</ele><time>2026-03-28T10:04:03.998Z</time></trkpt><trkpt lat="39.073029700715495" lon="8.991023088811458"><ele>83.0</ele><time>2026-03-28T10:04:04.998Z</time></trkpt><trkpt lat="39.07291002952593" lon="8.991002374147326"><ele>83.5</ele><time>2026-03-28T10:04:05.998Z</time></trkpt><trkpt lat="39.072741430382095" lon="8.9909278015961"><ele>84.0</ele><time>2026-03-28T10:04:06.998Z</time></trkpt><trkpt lat="39.072611117318644" lon="8.990870785671842"><ele>84.25</ele><time>2026-03-28T10:04:07.998Z</time></trkpt><trkpt lat="39.07248670153322" lon="8.9908191780913"><ele>84.5</ele><time>2026-03-28T10:04:08.998Z</time></trkpt><trkpt lat="39.07236087460441" lon="8.990764020180437"><ele>84.75</ele><time>2026-03-28T10:04:09.998Z</time></trkpt><trkpt lat="39.07224102419703" lon="8.990677759358837"><ele>85.0</ele><time>2026-03-28T10:04:10.998Z</time></trkpt><trkpt lat="39.07211945789977" lon="8.990592592196533"><ele>85.0</ele><time>2026-03-28T10:04:11.998Z</time></trkpt><trkpt lat="39.07202681796596" lon="8.990422290950258"><ele>85.0</ele><time>2026-03-28T10:04:12.998Z</time></trkpt><trkpt lat="39.07192148057468" lon="8.990265696931903"><ele>85.0</ele><time>2026-03-28T10:04:13.998Z</time></trkpt><trkpt lat="39.07184972485161" lon="8.990115196706395"><ele>85.0</ele><time>2026-03-28T10:04:14.998Z</time></trkpt><trkpt lat="39.07175988398504" lon="8.989994443266458"><ele>85.0</ele><time>2026-03-28T10:04:15.998Z</time></trkpt><trkpt lat="39.071668609714415" lon="8.98986171964259"><ele>85.0</ele><time>2026-03-28T10:04:16.998Z</time></trkpt><trkpt lat="39.07156916010672" lon="8.989717115928253"><ele>85.0</ele><time>2026-03-28T10:04:17.997Z</time></trkpt><trkpt lat="39.07143379796966" lon="8.989520723478043"><ele>85.0</ele><time>2026-03-28T10:04:18.997Z</time></trkpt><trkpt lat="39.07133932116806" lon="8.989367165480619"><ele>85.0</ele><time>2026-03-28T10:04:19.997Z</time></trkpt><trkpt lat="39.071223598780875" lon="8.989256743127052"><ele>85.0</ele><time>2026-03-28T10:04:20.997Z</time></trkpt><trkpt lat="39.07112695898907" lon="8.98909463059097"><ele>85.75</ele><time>2026-03-28T10:04:21.997Z</time></trkpt><trkpt lat="39.07104854446764" lon="8.988973075758194"><ele>86.5</ele><time>2026-03-28T10:04:22.997Z</time></trkpt><trkpt lat="39.070953889155675" lon="8.988859162598168"><ele>87.25</ele><time>2026-03-28T10:04:23.997Z</time></trkpt><trkpt lat="39.07087103962085" lon="8.988728394100729"><ele>88.0</ele><time>2026-03-28T10:04:24.997Z</time></trkpt><trkpt lat="39.07078349428442" lon="8.988596859124971"><ele>89.5</ele><time>2026-03-28T10:04:25.997Z</time></trkpt><trkpt lat="39.0706946806659" lon="8.988464792855318"><ele>91.0</ele><time>2026-03-28T10:04:26.997Z</time></trkpt><trkpt lat="39.070607590528354" lon="8.988326430630655"><ele>92.5</ele><time>2026-03-28T10:04:27.997Z</time></trkpt><trkpt lat="39.07050889697392" lon="8.988188669040676"><ele>94.0</ele><time>2026-03-28T10:04:28.997Z</time></trkpt><trkpt lat="39.07040400800607" lon="8.988036804520283"><ele>95.0</ele><time>2026-03-28T10:04:29.997Z</time></trkpt><trkpt lat="39.07029468622828" lon="8.987883711351154"><ele>96.0</ele><time>2026-03-28T10:04:30.997Z</time></trkpt><trkpt lat="39.070191250402466" lon="8.987734174114074"><ele>97.0</ele><time>2026-03-28T10:04:31.997Z</time></trkpt><trkpt lat="39.07009893871032" lon="8.987603556148857"><ele>96.0</ele><time>2026-03-28T10:04:32.997Z</time></trkpt><trkpt lat="39.07000876177151" lon="8.987475925060515"><ele>95.0</ele><time>2026-03-28T10:04:33.997Z</time></trkpt><trkpt lat="39.069911593022276" lon="8.98734075445902"><ele>94.0</ele><time>2026-03-28T10:04:34.997Z</time></trkpt><trkpt lat="39.069818448662865" lon="8.987205920233114"><ele>93.0</ele><time>2026-03-28T10:04:35.997Z</time></trkpt><trkpt lat="39.069710247147334" lon="8.98707685293887"><ele>93.0</ele><time>2026-03-28T10:04:37Z</time></trkpt><trkpt lat="39.06958918295276" lon="8.986956552123807"><ele>93.0</ele><time>2026-03-28T10:04:38Z</time></trkpt><trkpt lat="39.06945780644176" lon="8.98684198274347"><ele>93.0</ele><time>2026-03-28T10:04:39Z</time></trkpt><trkpt lat="39.069325822299014" lon="8.986686191685239"><ele>90.66666666666667</ele><time>2026-03-28T10:04:40Z</time></trkpt><trkpt lat="39.06918164385617" lon="8.986545217211951"><ele>88.33333333333334</ele><time>2026-03-28T10:04:41Z</time></trkpt><trkpt lat="39.069035678022324" lon="8.986402495060183"><ele>86.0</ele><time>2026-03-28T10:04:42Z</time></trkpt><trkpt lat="39.06889227473298" lon="8.986262278511841"><ele>84.66666666666667</ele><time>2026-03-28T10:04:43Z</time></trkpt><trkpt lat="39.06875873863749" lon="8.986131709881903"><ele>83.33333333333333</ele><time>2026-03-28T10:04:44Z</time></trkpt><trkpt lat="39.068633084185684" lon="8.986008847748165"><ele>82.0</ele><time>2026-03-28T10:04:45Z</time></trkpt><trkpt lat="39.068520319919756" lon="8.98589750680558"><ele>81.75</ele><time>2026-03-28T10:04:46Z</time></trkpt><trkpt lat="39.06840896144038" lon="8.985783492961785"><ele>81.5</ele><time>2026-03-28T10:04:47Z</time></trkpt><trkpt lat="39.06829209396355" lon="8.985660575282335"><ele>81.25</ele><time>2026-03-28T10:04:48Z</time></trkpt><trkpt lat="39.06818805788907" lon="8.98551810154946"><ele>81.0</ele><time>2026-03-28T10:04:49Z</time></trkpt><trkpt lat="39.06810774032144" lon="8.985350208256406"><ele>81.0</ele><time>2026-03-28T10:04:50Z</time></trkpt><trkpt lat="39.06803492288681" lon="8.985160202258335"><ele>81.0</ele><time>2026-03-28T10:04:51Z</time></trkpt><trkpt lat="39.06796387879796" lon="8.98497243566959"><ele>81.0</ele><time>2026-03-28T10:04:52Z</time></trkpt><trkpt lat="39.0678969093874" lon="8.984792701442993"><ele>81.0</ele><time>2026-03-28T10:04:53Z</time></trkpt><trkpt lat="39.06781811593729" lon="8.984627639718829"><ele>81.0</ele><time>2026-03-28T10:04:54Z</time></trkpt><trkpt lat="39.06777016488539" lon="8.984445403066355"><ele>81.0</ele><time>2026-03-28T10:04:55Z</time></trkpt><trkpt lat="39.06769521886538" lon="8.984280896354058"><ele>81.0</ele><time>2026-03-28T10:04:56Z</time></trkpt><trkpt lat="39.06763666502959" lon="8.98411185039767"><ele>82.0</ele><time>2026-03-28T10:04:57Z</time></trkpt><trkpt lat="39.06757221431856" lon="8.983940107808357"><ele>83.0</ele><time>2026-03-28T10:04:58Z</time></trkpt><trkpt lat="39.06750780263441" lon="8.983763804314544"><ele>84.0</ele><time>2026-03-28T10:04:59Z</time></trkpt><trkpt lat="39.06744742870489" lon="8.98359266764108"><ele>85.0</ele><time>2026-03-28T10:05:00Z</time></trkpt><trkpt lat="39.067406397264236" lon="8.983423945567099"><ele>86.0</ele><time>2026-03-28T10:05:01Z</time></trkpt><trkpt lat="39.0673551206282" lon="8.983271079829054"><ele>87.0</ele><time>2026-03-28T10:05:02Z</time></trkpt><trkpt lat="39.0672875583988" lon="8.983117558186363"><ele>88.0</ele><time>2026-03-28T10:05:03Z</time></trkpt><trkpt lat="39.067234803757145" lon="8.982961897507437"><ele>89.0</ele><time>2026-03-28T10:05:04Z</time></trkpt><trkpt lat="39.067178663263974" lon="8.98279811398248"><ele>89.0</ele><time>2026-03-28T10:05:05Z</time></trkpt><trkpt lat="39.06711696893046" lon="8.982625638776717"><ele>89.0</ele><time>2026-03-28T10:05:06Z</time></trkpt><trkpt lat="39.06705932123442" lon="8.982452223064627"><ele>89.0</ele><time>2026-03-28T10:05:07Z</time></trkpt><trkpt lat="39.06699890117638" lon="8.982307414596704"><ele>89.0</ele><time>2026-03-28T10:05:07.999Z</time></trkpt><trkpt lat="39.06694575337777" lon="8.982146537278034"><ele>89.25</ele><time>2026-03-28T10:05:08.999Z</time></trkpt><trkpt lat="39.066886872350366" lon="8.981985579472127"><ele>89.5</ele><time>2026-03-28T10:05:09.999Z</time></trkpt><trkpt lat="39.06682738493007" lon="8.981816496286894"><ele>89.75</ele><time>2026-03-28T10:05:10.999Z</time></trkpt><trkpt lat="39.066767508306384" lon="8.981646792378006"><ele>90.0</ele><time>2026-03-28T10:05:11.999Z</time></trkpt><trkpt lat="39.06671090284008" lon="8.981475280359614"><ele>89.66666666666667</ele><time>2026-03-28T10:05:12.999Z</time></trkpt><trkpt lat="39.06664912524351" lon="8.981302986741824"><ele>89.33333333333334</ele><time>2026-03-28T10:05:13.999Z</time></trkpt><trkpt lat="39.06658112548758" lon="8.981118510206448"><ele>89.0</ele><time>2026-03-28T10:05:14.999Z</time></trkpt><trkpt lat="39.066512656285745" lon="8.98093408164823"><ele>88.66666666666667</ele><time>2026-03-28T10:05:15.999Z</time></trkpt><trkpt lat="39.06644294244679" lon="8.980744274829743"><ele>88.33333333333333</ele><time>2026-03-28T10:05:16.999Z</time></trkpt><trkpt lat="39.066391451257445" lon="8.980549776113982"><ele>88.0</ele><time>2026-03-28T10:05:17.999Z</time></trkpt><trkpt lat="39.06631313633765" lon="8.980369047116637"><ele>88.0</ele><time>2026-03-28T10:05:18.999Z</time></trkpt><trkpt lat="39.06622241688644" lon="8.980191293897843"><ele>88.0</ele><time>2026-03-28T10:05:19.999Z</time></trkpt><trkpt lat="39.06612131186146" lon="8.980027429674006"><ele>88.0</ele><time>2026-03-28T10:05:20.999Z</time></trkpt><trkpt lat="39.066028663768826" lon="8.979837005022684"><ele>88.66666666666666</ele><time>2026-03-28T10:05:21.999Z</time></trkpt><trkpt lat="39.065909509859154" lon="8.979610768870275"><ele>89.33333333333333</ele><time>2026-03-28T10:05:22.999Z</time></trkpt><trkpt lat="39.06578245332163" lon="8.97937038696752"><ele>90.0</ele><time>2026-03-28T10:05:23.999Z</time></trkpt><trkpt lat="39.065685121994115" lon="8.979186243050952"><ele>88.0</ele><time>2026-03-28T10:05:24.999Z</time></trkpt><trkpt lat="39.065612693067045" lon="8.97904921267804"><ele>86.0</ele><time>2026-03-28T10:05:25.999Z</time></trkpt><trkpt lat="39.065532340830295" lon="8.978897373966918"><ele>84.0</ele><time>2026-03-28T10:05:26.999Z</time></trkpt><trkpt lat="39.06542537411608" lon="8.97869600704978"><ele>84.0</ele><time>2026-03-28T10:05:27.999Z</time></trkpt><trkpt lat="39.065333818741" lon="8.978523652269295"><ele>84.0</ele><time>2026-03-28T10:05:28.999Z</time></trkpt><trkpt lat="39.06525458105553" lon="8.978374485785837"><ele>84.0</ele><time>2026-03-28T10:05:29.999Z</time></trkpt><trkpt lat="39.0651829910121" lon="8.978239716132475"><ele>84.0</ele><time>2026-03-28T10:05:30.999Z</time></trkpt><trkpt lat="39.065102759314115" lon="8.978088519029642"><ele>84.33333333333333</ele><time>2026-03-28T10:05:31.999Z</time></trkpt><trkpt lat="39.0649965071712" lon="8.977887820541907"><ele>84.66666666666666</ele><time>2026-03-28T10:05:32.999Z</time></trkpt><trkpt lat="39.06487766833876" lon="8.977662992721944"><ele>85.0</ele><time>2026-03-28T10:05:33.999Z</time></trkpt><trkpt lat="39.0647835919757" lon="8.977484550788668"><ele>84.25</ele><time>2026-03-28T10:05:34.999Z</time></trkpt><trkpt lat="39.064700291132525" lon="8.97732766886065"><ele>83.5</ele><time>2026-03-28T10:05:35.999Z</time></trkpt><trkpt lat="39.06462433239708" lon="8.97718514942841"><ele>82.75</ele><time>2026-03-28T10:05:36.999Z</time></trkpt><trkpt lat="39.06454749310301" lon="8.977040977784332"><ele>82.0</ele><time>2026-03-28T10:05:37.999Z</time></trkpt><trkpt lat="39.06446697161772" lon="8.976889897349576"><ele>82.0</ele><time>2026-03-28T10:05:38.999Z</time></trkpt><trkpt lat="39.064368782484365" lon="8.976705667559344"><ele>82.0</ele><time>2026-03-28T10:05:39.999Z</time></trkpt><trkpt lat="39.06425497944846" lon="8.976492141802401"><ele>82.0</ele><time>2026-03-28T10:05:40.999Z</time></trkpt><trkpt lat="39.06414494829981" lon="8.976322946377314"><ele>81.0</ele><time>2026-03-28T10:05:41.999Z</time></trkpt><trkpt lat="39.06405451474026" lon="8.976159705980566"><ele>80.0</ele><time>2026-03-28T10:05:42.999Z</time></trkpt><trkpt lat="39.063968809964464" lon="8.975998528550887"><ele>79.0</ele><time>2026-03-28T10:05:43.999Z</time></trkpt><trkpt lat="39.06389493477013" lon="8.975836530852233"><ele>79.0</ele><time>2026-03-28T10:05:44.999Z</time></trkpt><trkpt lat="39.063828988292386" lon="8.975676376622976"><ele>79.0</ele><time>2026-03-28T10:05:45.998Z</time></trkpt><trkpt lat="39.06375898830416" lon="8.975507397243035"><ele>79.0</ele><time>2026-03-28T10:05:46.998Z</time></trkpt><trkpt lat="39.063707705754375" lon="8.975328259475992"><ele>79.0</ele><time>2026-03-28T10:05:47.998Z</time></trkpt><trkpt lat="39.063678546821585" lon="8.975149938329714"><ele>79.75</ele><time>2026-03-28T10:05:48.998Z</time></trkpt><trkpt lat="39.063657334582885" lon="8.974974741639757"><ele>80.5</ele><time>2026-03-28T10:05:49.998Z</time></trkpt><trkpt lat="39.06363908736838" lon="8.974786670785317"><ele>81.25</ele><time>2026-03-28T10:05:50.998Z</time></trkpt><trkpt lat="39.06360787007744" lon="8.9745966977674"><ele>82.0</ele><time>2026-03-28T10:05:51.998Z</time></trkpt><trkpt lat="39.06357415924752" lon="8.974410810928608"><ele>82.0</ele><time>2026-03-28T10:05:52.998Z</time></trkpt><trkpt lat="39.06353630642598" lon="8.974218426652305"><ele>82.0</ele><time>2026-03-28T10:05:53.998Z</time></trkpt><trkpt lat="39.06348467239966" lon="8.974028044377164"><ele>82.0</ele><time>2026-03-28T10:05:54.998Z</time></trkpt><trkpt lat="39.06342606504032" lon="8.973849453724206"><ele>81.66666666666666</ele><time>2026-03-28T10:05:55.998Z</time></trkpt><trkpt lat="39.06333792713754" lon="8.97367532841678"><ele>81.33333333333333</ele><time>2026-03-28T10:05:56.998Z</time></trkpt><trkpt lat="39.063247341229875" lon="8.973509014383836"><ele>81.0</ele><time>2026-03-28T10:05:57.998Z</time></trkpt><trkpt lat="39.063169999315726" lon="8.973359752229056"><ele>78.75</ele><time>2026-03-28T10:05:58.998Z</time></trkpt><trkpt lat="39.063094389017664" lon="8.973207983197428"><ele>76.5</ele><time>2026-03-28T10:05:59.998Z</time></trkpt><trkpt lat="39.063016317316304" lon="8.973040776575278"><ele>74.25</ele><time>2026-03-28T10:06:00.998Z</time></trkpt><trkpt lat="39.06293883140482" lon="8.972877413420667"><ele>72.0</ele><time>2026-03-28T10:06:01.998Z</time></trkpt><trkpt lat="39.06286452745562" lon="8.972725414052235"><ele>72.0</ele><time>2026-03-28T10:06:02.998Z</time></trkpt><trkpt lat="39.06280013564136" lon="8.972578866545636"><ele>72.0</ele><time>2026-03-28T10:06:03.998Z</time></trkpt><trkpt lat="39.06273551828115" lon="8.97243577402331"><ele>72.0</ele><time>2026-03-28T10:06:04.998Z</time></trkpt><trkpt lat="39.06266789175483" lon="8.97229126962927"><ele>72.0</ele><time>2026-03-28T10:06:05.998Z</time></trkpt><trkpt lat="39.06259915937825" lon="8.972143096407628"><ele>71.0</ele><time>2026-03-28T10:06:06.998Z</time></trkpt><trkpt lat="39.062530691602035" lon="8.972001466030628"><ele>70.0</ele><time>2026-03-28T10:06:07.998Z</time></trkpt><trkpt lat="39.06246494515227" lon="8.971870224861336"><ele>69.0</ele><time>2026-03-28T10:06:08.998Z</time></trkpt><trkpt lat="39.06240120086074" lon="8.971734950965022"><ele>68.0</ele><time>2026-03-28T10:06:09.998Z</time></trkpt><trkpt lat="39.06233342258301" lon="8.971593730132696"><ele>65.5</ele><time>2026-03-28T10:06:10.998Z</time></trkpt><trkpt lat="39.06226425793143" lon="8.971446197756611"><ele>63.0</ele><time>2026-03-28T10:06:11.998Z</time></trkpt><trkpt lat="39.06219134052719" lon="8.971293873212328"><ele>60.5</ele><time>2026-03-28T10:06:12.998Z</time></trkpt><trkpt lat="39.06212081337292" lon="8.971143963922872"><ele>58.0</ele><time>2026-03-28T10:06:13.998Z</time></trkpt><trkpt lat="39.062045838247855" lon="8.970991651235002"><ele>58.0</ele><time>2026-03-28T10:06:14.998Z</time></trkpt><trkpt lat="39.06197023238368" lon="8.970839871585422"><ele>58.0</ele><time>2026-03-28T10:06:15.998Z</time></trkpt><trkpt lat="39.061897883166296" lon="8.970683796439797"><ele>58.0</ele><time>2026-03-28T10:06:16.998Z</time></trkpt><trkpt lat="39.06183045249017" lon="8.970526453969024"><ele>58.0</ele><time>2026-03-28T10:06:17.998Z</time></trkpt><trkpt lat="39.0617608414718" lon="8.970378282194124"><ele>58.0</ele><time>2026-03-28T10:06:18.998Z</time></trkpt><trkpt lat="39.061714196262564" lon="8.97021225558072"><ele>58.0</ele><time>2026-03-28T10:06:19.998Z</time></trkpt><trkpt lat="39.06164535106959" lon="8.970065025861507"><ele>58.0</ele><time>2026-03-28T10:06:20.998Z</time></trkpt><trkpt lat="39.06157435547788" lon="8.969913197144143"><ele>58.0</ele><time>2026-03-28T10:06:21.998Z</time></trkpt><trkpt lat="39.0615084257307" lon="8.96977220219502"><ele>58.25</ele><time>2026-03-28T10:06:22.998Z</time></trkpt><trkpt lat="39.06144167941854" lon="8.969629460967228"><ele>58.5</ele><time>2026-03-28T10:06:23.997Z</time></trkpt><trkpt lat="39.06137513403353" lon="8.96948714938839"><ele>58.75</ele><time>2026-03-28T10:06:24.997Z</time></trkpt><trkpt lat="39.061308288807545" lon="8.969344544054218"><ele>59.0</ele><time>2026-03-28T10:06:25.997Z</time></trkpt><trkpt lat="39.061236942814524" lon="8.969192666535587"><ele>59.5</ele><time>2026-03-28T10:06:26.997Z</time></trkpt><trkpt lat="39.06116457471046" lon="8.96903809509216"><ele>60.0</ele><time>2026-03-28T10:06:27.997Z</time></trkpt><trkpt lat="39.061090507571635" lon="8.968882923348632"><ele>60.5</ele><time>2026-03-28T10:06:28.997Z</time></trkpt><trkpt lat="39.06100909632675" lon="8.968743741426167"><ele>61.0</ele><time>2026-03-28T10:06:29.997Z</time></trkpt><trkpt lat="39.06095379796141" lon="8.968584245595627"><ele>61.0</ele><time>2026-03-28T10:06:30.997Z</time></trkpt><trkpt lat="39.060877351422576" lon="8.968445245701883"><ele>61.0</ele><time>2026-03-28T10:06:31.997Z</time></trkpt><trkpt lat="39.0607719240574" lon="8.968330820462771"><ele>61.0</ele><time>2026-03-28T10:06:32.997Z</time></trkpt><trkpt lat="39.0606538991468" lon="8.968225956886837"><ele>61.0</ele><time>2026-03-28T10:06:33.997Z</time></trkpt><trkpt lat="39.06052000355118" lon="8.96812075219984"><ele>64.33333333333333</ele><time>2026-03-28T10:06:34.997Z</time></trkpt><trkpt lat="39.06036021857616" lon="8.968084926878925"><ele>67.66666666666667</ele><time>2026-03-28T10:06:35.997Z</time></trkpt><trkpt lat="39.06019815180577" lon="8.968052619579135"><ele>71.0</ele><time>2026-03-28T10:06:36.997Z</time></trkpt><trkpt lat="39.06003943206365" lon="8.968001460327452"><ele>70.33333333333334</ele><time>2026-03-28T10:06:37.997Z</time></trkpt><trkpt lat="39.059880952046434" lon="8.967965218807416"><ele>69.66666666666667</ele><time>2026-03-28T10:06:38.997Z</time></trkpt><trkpt lat="39.05972228067516" lon="8.9679290102818"><ele>69.0</ele><time>2026-03-28T10:06:39.997Z</time></trkpt><trkpt lat="39.05956292391" lon="8.967892342344365"><ele>69.0</ele><time>2026-03-28T10:06:40.997Z</time></trkpt><trkpt lat="39.059408601335875" lon="8.96785633249766"><ele>69.0</ele><time>2026-03-28T10:06:41.997Z</time></trkpt><trkpt lat="39.05925842915615" lon="8.967822040532562"><ele>69.0</ele><time>2026-03-28T10:06:43Z</time></trkpt><trkpt lat="39.059111136811794" lon="8.967791598961863"><ele>68.5</ele><time>2026-03-28T10:06:44Z</time></trkpt><trkpt lat="39.058965382851476" lon="8.967761475343181"><ele>68.0</ele><time>2026-03-28T10:06:45Z</time></trkpt><trkpt lat="39.05882179095554" lon="8.967749654694398"><ele>67.5</ele><time>2026-03-28T10:06:46Z</time></trkpt><trkpt lat="39.05868907843542" lon="8.967697150307108"><ele>67.0</ele><time>2026-03-28T10:06:47Z</time></trkpt><trkpt lat="39.05854950728861" lon="8.967654358521997"><ele>67.0</ele><time>2026-03-28T10:06:48Z</time></trkpt><trkpt lat="39.05841115160693" lon="8.96762280861857"><ele>67.0</ele><time>2026-03-28T10:06:49Z</time></trkpt><trkpt lat="39.058273112123565" lon="8.96759291968354"><ele>67.0</ele><time>2026-03-28T10:06:50Z</time></trkpt><trkpt lat="39.05813158001745" lon="8.9675709654294"><ele>67.0</ele><time>2026-03-28T10:06:51Z</time></trkpt><trkpt lat="39.05798869700608" lon="8.967569303075832"><ele>66.5</ele><time>2026-03-28T10:06:52Z</time></trkpt><trkpt lat="39.05784677914838" lon="8.967549824578333"><ele>66.0</ele><time>2026-03-28T10:06:53Z</time></trkpt><trkpt lat="39.057703764803094" lon="8.967543004185474"><ele>65.5</ele><time>2026-03-28T10:06:54Z</time></trkpt><trkpt lat="39.057553693480365" lon="8.967542757363566"><ele>65.0</ele><time>2026-03-28T10:06:55Z</time></trkpt><trkpt lat="39.057403624366" lon="8.967547570095293"><ele>64.5</ele><time>2026-03-28T10:06:56Z</time></trkpt><trkpt lat="39.057268588668414" lon="8.96753312664674"><ele>64.0</ele><time>2026-03-28T10:06:57Z</time></trkpt><trkpt lat="39.05714370551852" lon="8.967533126639712"><ele>63.5</ele><time>2026-03-28T10:06:58Z</time></trkpt><trkpt lat="39.05700627271019" lon="8.967533126638322"><ele>63.0</ele><time>2026-03-28T10:06:59Z</time></trkpt><trkpt lat="39.05686310667918" lon="8.967533126635931"><ele>63.0</ele><time>2026-03-28T10:07:00Z</time></trkpt><trkpt lat="39.05672140162749" lon="8.967533126636992"><ele>63.0</ele><time>2026-03-28T10:07:01Z</time></trkpt><trkpt lat="39.056581137156904" lon="8.96755150475854"><ele>63.0</ele><time>2026-03-28T10:07:02Z</time></trkpt><trkpt lat="39.05643015136455" lon="8.967546351022595"><ele>63.0</ele><time>2026-03-28T10:07:03Z</time></trkpt><trkpt lat="39.056279441405415" lon="8.967544732689177"><ele>63.0</ele><time>2026-03-28T10:07:04Z</time></trkpt><trkpt lat="39.05611881088451" lon="8.967547323810559"><ele>63.0</ele><time>2026-03-28T10:07:05Z</time></trkpt><trkpt lat="39.05595412576259" lon="8.967549132135817"><ele>63.0</ele><time>2026-03-28T10:07:06Z</time></trkpt><trkpt lat="39.055793648946015" lon="8.967547307902041"><ele>62.0</ele><time>2026-03-28T10:07:07Z</time></trkpt><trkpt lat="39.055646845560425" lon="8.967545890619991"><ele>61.0</ele><time>2026-03-28T10:07:08Z</time></trkpt><trkpt lat="39.05550537348256" lon="8.967546263120292"><ele>60.0</ele><time>2026-03-28T10:07:09Z</time></trkpt><trkpt lat="39.05535035752087" lon="8.967549695667575"><ele>59.0</ele><time>2026-03-28T10:07:10Z</time></trkpt><trkpt lat="39.05520334914974" lon="8.967552354071904"><ele>59.0</ele><time>2026-03-28T10:07:11Z</time></trkpt><trkpt lat="39.05506755046365" lon="8.967549350688678"><ele>59.0</ele><time>2026-03-28T10:07:12Z</time></trkpt><trkpt lat="39.05492329344128" lon="8.967546634842986"><ele>59.0</ele><time>2026-03-28T10:07:12.999Z</time></trkpt><trkpt lat="39.05478449077309" lon="8.967548486381881"><ele>59.0</ele><time>2026-03-28T10:07:13.999Z</time></trkpt><trkpt lat="39.05464412021619" lon="8.9675487792972"><ele>58.5</ele><time>2026-03-28T10:07:14.999Z</time></trkpt><trkpt lat="39.05450489596051" lon="8.967551102493333"><ele>58.0</ele><time>2026-03-28T10:07:15.999Z</time></trkpt><trkpt lat="39.054356799922246" lon="8.967552871759251"><ele>57.5</ele><time>2026-03-28T10:07:16.999Z</time></trkpt><trkpt lat="39.054210864286205" lon="8.967557026460417"><ele>57.0</ele><time>2026-03-28T10:07:17.999Z</time></trkpt><trkpt lat="39.05407520503777" lon="8.967559151254433"><ele>56.5</ele><time>2026-03-28T10:07:18.999Z</time></trkpt><trkpt lat="39.05395283674081" lon="8.967538582450306"><ele>56.0</ele><time>2026-03-28T10:07:19.999Z</time></trkpt><trkpt lat="39.05383686652446" lon="8.967550796749066"><ele>55.5</ele><time>2026-03-28T10:07:20.999Z</time></trkpt><trkpt lat="39.05371757260874" lon="8.967526588172804"><ele>55.0</ele><time>2026-03-28T10:07:21.999Z</time></trkpt><trkpt lat="39.053601914624146" lon="8.967490224110394"><ele>56.0</ele><time>2026-03-28T10:07:22.999Z</time></trkpt><trkpt lat="39.053497622631355" lon="8.967444999881454"><ele>57.0</ele><time>2026-03-28T10:07:23.999Z</time></trkpt><trkpt lat="39.053398897207636" lon="8.967396191159791"><ele>58.0</ele><time>2026-03-28T10:07:24.999Z</time></trkpt><trkpt lat="39.053317056722115" lon="8.967344928054121"><ele>59.0</ele><time>2026-03-28T10:07:25.999Z</time></trkpt><trkpt lat="39.05324993066861" lon="8.967305952609896"><ele>60.0</ele><time>2026-03-28T10:07:26.999Z</time></trkpt><trkpt lat="39.05313664408757" lon="8.967255935983683"><ele>60.0</ele><time>2026-03-28T10:07:28.999Z</time></trkpt><trkpt lat="39.05306780818302" lon="8.967237488528745"><ele>60.0</ele><time>2026-03-28T10:07:29.999Z</time></trkpt><trkpt lat="39.05298638144659" lon="8.967251704454338"><ele>60.0</ele><time>2026-03-28T10:07:30.999Z</time></trkpt><trkpt lat="39.05292747244398" lon="8.9673730014437"><ele>60.0</ele><time>2026-03-28T10:07:31.999Z</time></trkpt><trkpt lat="39.05288154140587" lon="8.967501541038839"><ele>60.0</ele><time>2026-03-28T10:07:32.999Z</time></trkpt><trkpt lat="39.052830756419546" lon="8.967631055899123"><ele>60.0</ele><time>2026-03-28T10:07:33.999Z</time></trkpt><trkpt lat="39.052776240406104" lon="8.967757818614277"><ele>60.0</ele><time>2026-03-28T10:07:34.999Z</time></trkpt><trkpt lat="39.05272307368107" lon="8.967908921922668"><ele>60.0</ele><time>2026-03-28T10:07:35.999Z</time></trkpt><trkpt lat="39.05267467413121" lon="8.96808188314348"><ele>60.0</ele><time>2026-03-28T10:07:36.999Z</time></trkpt><trkpt lat="39.05261037046067" lon="8.968265085898794"><ele>60.0</ele><time>2026-03-28T10:07:37.999Z</time></trkpt><trkpt lat="39.052539405324445" lon="8.968456315230721"><ele>60.0</ele><time>2026-03-28T10:07:38.999Z</time></trkpt><trkpt lat="39.05243193860051" lon="8.968631590792294"><ele>60.0</ele><time>2026-03-28T10:07:39.999Z</time></trkpt><trkpt lat="39.05231285600406" lon="8.968810649933195"><ele>60.0</ele><time>2026-03-28T10:07:40.999Z</time></trkpt><trkpt lat="39.05220135802385" lon="8.96899861942358"><ele>60.0</ele><time>2026-03-28T10:07:41.999Z</time></trkpt><trkpt lat="39.05206026613297" lon="8.969178835381658"><ele>60.0</ele><time>2026-03-28T10:07:42.999Z</time></trkpt><trkpt lat="39.05191700668906" lon="8.969385903003417"><ele>60.66666666666667</ele><time>2026-03-28T10:07:43.999Z</time></trkpt><trkpt lat="39.05176999623986" lon="8.96959651978491"><ele>61.333333333333336</ele><time>2026-03-28T10:07:44.999Z</time></trkpt><trkpt lat="39.05164011646893" lon="8.969780377770915"><ele>62.0</ele><time>2026-03-28T10:07:45.999Z</time></trkpt><trkpt lat="39.051524728838274" lon="8.969946797665502"><ele>59.333333333333336</ele><time>2026-03-28T10:07:46.999Z</time></trkpt><trkpt lat="39.05141712337575" lon="8.97010634422655"><ele>56.66666666666667</ele><time>2026-03-28T10:07:47.999Z</time></trkpt><trkpt lat="39.05131400287727" lon="8.970253858284652"><ele>54.0</ele><time>2026-03-28T10:07:48.999Z</time></trkpt><trkpt lat="39.051203764183505" lon="8.970409179459622"><ele>54.0</ele><time>2026-03-28T10:07:49.999Z</time></trkpt><trkpt lat="39.05109048832487" lon="8.970566472506764"><ele>54.0</ele><time>2026-03-28T10:07:50.998Z</time></trkpt><trkpt lat="39.05096616536119" lon="8.9707414569875"><ele>54.0</ele><time>2026-03-28T10:07:51.998Z</time></trkpt><trkpt lat="39.05084057197747" lon="8.970914464010546"><ele>55.33333333333333</ele><time>2026-03-28T10:07:52.998Z</time></trkpt><trkpt lat="39.050727317749114" lon="8.971072862307693"><ele>56.666666666666664</ele><time>2026-03-28T10:07:53.998Z</time></trkpt><trkpt lat="39.05062183884645" lon="8.971224961011282"><ele>58.0</ele><time>2026-03-28T10:07:54.998Z</time></trkpt><trkpt lat="39.050522517882804" lon="8.971373731186965"><ele>58.0</ele><time>2026-03-28T10:07:55.998Z</time></trkpt><trkpt lat="39.050411100455484" lon="8.971500310902684"><ele>58.0</ele><time>2026-03-28T10:07:56.998Z</time></trkpt><trkpt lat="39.05031340281674" lon="8.971636891881708"><ele>58.0</ele><time>2026-03-28T10:07:57.998Z</time></trkpt><trkpt lat="39.050238079101845" lon="8.971778506467142"><ele>58.0</ele><time>2026-03-28T10:07:58.998Z</time></trkpt><trkpt lat="39.0501702117469" lon="8.97190513401126"><ele>57.33333333333333</ele><time>2026-03-28T10:07:59.998Z</time></trkpt><trkpt lat="39.050124419622406" lon="8.972024392490884"><ele>56.666666666666664</ele><time>2026-03-28T10:08:00.998Z</time></trkpt><trkpt lat="39.05008424504435" lon="8.972132205587508"><ele>56.0</ele><time>2026-03-28T10:08:01.998Z</time></trkpt><trkpt lat="39.05004632825829" lon="8.972224911950384"><ele>55.33333333333333</ele><time>2026-03-28T10:08:02.998Z</time></trkpt><trkpt lat="39.05001681224728" lon="8.97230176703946"><ele>54.666666666666664</ele><time>2026-03-28T10:08:03.998Z</time></trkpt><trkpt lat="39.04995679213589" lon="8.97238241514304"><ele>54.0</ele><time>2026-03-28T10:08:05.998Z</time></trkpt><trkpt lat="39.049865900975334" lon="8.972204471345188"><ele>55.6</ele><time>2026-03-28T10:08:07.998Z</time></trkpt><trkpt lat="39.049803347212155" lon="8.972116677281985"><ele>57.2</ele><time>2026-03-28T10:08:08.998Z</time></trkpt><trkpt lat="39.049734291945654" lon="8.972019245825116"><ele>58.800000000000004</ele><time>2026-03-28T10:08:09.998Z</time></trkpt><trkpt lat="39.04965992186951" lon="8.971914369234037"><ele>60.400000000000006</ele><time>2026-03-28T10:08:10.998Z</time></trkpt><trkpt lat="39.04956836579083" lon="8.971782910626448"><ele>62.0</ele><time>2026-03-28T10:08:11.998Z</time></trkpt><trkpt lat="39.04945259016317" lon="8.971616677157485"><ele>63.333333333333336</ele><time>2026-03-28T10:08:12.998Z</time></trkpt><trkpt lat="39.049353444309645" lon="8.971474321211163"><ele>64.66666666666667</ele><time>2026-03-28T10:08:13.998Z</time></trkpt><trkpt lat="39.04924119183189" lon="8.971313146393355"><ele>66.0</ele><time>2026-03-28T10:08:14.998Z</time></trkpt><trkpt lat="39.049122111885026" lon="8.971139783427093"><ele>67.0</ele><time>2026-03-28T10:08:15.998Z</time></trkpt><trkpt lat="39.049014322941716" lon="8.970979299469013"><ele>68.0</ele><time>2026-03-28T10:08:16.998Z</time></trkpt><trkpt lat="39.048914087145825" lon="8.970828222265503"><ele>69.0</ele><time>2026-03-28T10:08:17.998Z</time></trkpt><trkpt lat="39.04883397250364" lon="8.970699072758347"><ele>70.0</ele><time>2026-03-28T10:08:18.998Z</time></trkpt><trkpt lat="39.048787534755704" lon="8.97057347436798"><ele>71.0</ele><time>2026-03-28T10:08:19.998Z</time></trkpt><trkpt lat="39.048748761243665" lon="8.970426319849151"><ele>72.0</ele><time>2026-03-28T10:08:20.998Z</time></trkpt><trkpt lat="39.0487053900877" lon="8.970266196914896"><ele>73.0</ele><time>2026-03-28T10:08:21.998Z</time></trkpt><trkpt lat="39.0486609523889" lon="8.9700945599008"><ele>74.0</ele><time>2026-03-28T10:08:22.998Z</time></trkpt><trkpt lat="39.04861446186176" lon="8.969914520214349"><ele>75.66666666666667</ele><time>2026-03-28T10:08:23.998Z</time></trkpt><trkpt lat="39.04856105232763" lon="8.969707685044929"><ele>77.33333333333333</ele><time>2026-03-28T10:08:24.998Z</time></trkpt><trkpt lat="39.04851385026752" lon="8.96952488927128"><ele>79.0</ele><time>2026-03-28T10:08:25.998Z</time></trkpt><trkpt lat="39.04846918604136" lon="8.969351921537719"><ele>80.33333333333333</ele><time>2026-03-28T10:08:26.998Z</time></trkpt><trkpt lat="39.04841432062976" lon="8.96913944863771"><ele>81.66666666666667</ele><time>2026-03-28T10:08:27.998Z</time></trkpt><trkpt lat="39.04834556585361" lon="8.968873187199897"><ele>83.0</ele><time>2026-03-28T10:08:28.997Z</time></trkpt><trkpt lat="39.0482722565082" lon="8.968589048636996"><ele>85.0</ele><time>2026-03-28T10:08:29.997Z</time></trkpt><trkpt lat="39.048199874553696" lon="8.968306987602197"><ele>87.0</ele><time>2026-03-28T10:08:30.997Z</time></trkpt><trkpt lat="39.04813987950738" lon="8.968073195956752"><ele>89.0</ele><time>2026-03-28T10:08:31.997Z</time></trkpt><trkpt lat="39.04808102728128" lon="8.967843858475185"><ele>89.0</ele><time>2026-03-28T10:08:32.997Z</time></trkpt><trkpt lat="39.04802732613069" lon="8.967633966096278"><ele>89.0</ele><time>2026-03-28T10:08:33.997Z</time></trkpt><trkpt lat="39.04797495273566" lon="8.967427976200469"><ele>89.0</ele><time>2026-03-28T10:08:34.997Z</time></trkpt><trkpt lat="39.04792334852288" lon="8.967225011616337"><ele>91.0</ele><time>2026-03-28T10:08:35.997Z</time></trkpt><trkpt lat="39.04787126462881" lon="8.967020160796741"><ele>93.0</ele><time>2026-03-28T10:08:36.997Z</time></trkpt><trkpt lat="39.04781703172948" lon="8.966806531142145"><ele>95.0</ele><time>2026-03-28T10:08:37.997Z</time></trkpt><trkpt lat="39.04776224007506" lon="8.966597849226982"><ele>96.5</ele><time>2026-03-28T10:08:38.997Z</time></trkpt><trkpt lat="39.047716641573075" lon="8.966424180310797"><ele>98.0</ele><time>2026-03-28T10:08:39.997Z</time></trkpt><trkpt lat="39.04767742671471" lon="8.966274824503515"><ele>99.5</ele><time>2026-03-28T10:08:40.997Z</time></trkpt><trkpt lat="39.04764257671473" lon="8.9661420965343"><ele>101.0</ele><time>2026-03-28T10:08:41.997Z</time></trkpt><trkpt lat="39.047602416330626" lon="8.965993266842885"><ele>102.33333333333333</ele><time>2026-03-28T10:08:42.997Z</time></trkpt><trkpt lat="39.04755406113392" lon="8.965812217372228"><ele>103.66666666666666</ele><time>2026-03-28T10:08:43.997Z</time></trkpt><trkpt lat="39.04750339860911" lon="8.965618145741427"><ele>105.0</ele><time>2026-03-28T10:08:44.997Z</time></trkpt><trkpt lat="39.04744931562911" lon="8.965410648024612"><ele>105.0</ele><time>2026-03-28T10:08:45.997Z</time></trkpt><trkpt lat="39.04739463344639" lon="8.965200851622136"><ele>105.0</ele><time>2026-03-28T10:08:46.997Z</time></trkpt><trkpt lat="39.04734416142978" lon="8.965007207939946"><ele>105.0</ele><time>2026-03-28T10:08:47.997Z</time></trkpt><trkpt lat="39.04729718536877" lon="8.964826718374804"><ele>107.0</ele><time>2026-03-28T10:08:49Z</time></trkpt><trkpt lat="39.04725470260085" lon="8.964659562880222"><ele>109.0</ele><time>2026-03-28T10:08:50Z</time></trkpt><trkpt lat="39.04721110453549" lon="8.964488019025266"><ele>111.0</ele><time>2026-03-28T10:08:51Z</time></trkpt><trkpt lat="39.04716772054613" lon="8.96431731749784"><ele>113.0</ele><time>2026-03-28T10:08:52Z</time></trkpt><trkpt lat="39.04712256158471" lon="8.964140412609208"><ele>114.75</ele><time>2026-03-28T10:08:53Z</time></trkpt><trkpt lat="39.04708088570576" lon="8.96397762432277"><ele>116.5</ele><time>2026-03-28T10:08:54Z</time></trkpt><trkpt lat="39.04703510253325" lon="8.963805340560537"><ele>118.25</ele><time>2026-03-28T10:08:55Z</time></trkpt><trkpt lat="39.04698932471692" lon="8.96364242653016"><ele>120.0</ele><time>2026-03-28T10:08:56Z</time></trkpt><trkpt lat="39.04694072556667" lon="8.96346800309918"><ele>122.0</ele><time>2026-03-28T10:08:57Z</time></trkpt><trkpt lat="39.04689494639419" lon="8.963292852668634"><ele>124.0</ele><time>2026-03-28T10:08:58Z</time></trkpt><trkpt lat="39.04685085242822" lon="8.963116730007766"><ele>126.0</ele><time>2026-03-28T10:08:59Z</time></trkpt><trkpt lat="39.04680598736464" lon="8.962937527442502"><ele>128.0</ele><time>2026-03-28T10:09:00Z</time></trkpt><trkpt lat="39.04676183622735" lon="8.962763854226212"><ele>128.0</ele><time>2026-03-28T10:09:01Z</time></trkpt><trkpt lat="39.04672002100671" lon="8.96260183081095"><ele>128.0</ele><time>2026-03-28T10:09:02Z</time></trkpt><trkpt lat="39.04667513905585" lon="8.962429935080829"><ele>128.0</ele><time>2026-03-28T10:09:03Z</time></trkpt><trkpt lat="39.04664152154024" lon="8.962306408313925"><ele>128.0</ele><time>2026-03-28T10:09:04Z</time></trkpt><trkpt lat="39.04660958938677" lon="8.962208997768021"><ele>127.80000000000001</ele><time>2026-03-28T10:09:05Z</time></trkpt><trkpt lat="39.04660214055597" lon="8.962117491394574"><ele>127.60000000000001</ele><time>2026-03-28T10:09:06Z</time></trkpt><trkpt lat="39.04666851283213" lon="8.962024189866508"><ele>127.39999999999999</ele><time>2026-03-28T10:09:07Z</time></trkpt><trkpt lat="39.046713784300785" lon="8.961931720735823"><ele>127.19999999999999</ele><time>2026-03-28T10:09:08Z</time></trkpt><trkpt lat="39.04664806295925" lon="8.96178543006946"><ele>127.0</ele><time>2026-03-28T10:09:09Z</time></trkpt><trkpt lat="39.04663540448618" lon="8.96169348554184"><ele>128.66666666666669</ele><time>2026-03-28T10:09:10Z</time></trkpt><trkpt lat="39.046626203246994" lon="8.961593119456243"><ele>130.33333333333334</ele><time>2026-03-28T10:09:11Z</time></trkpt><trkpt lat="39.046620415883744" lon="8.961500638270449"><ele>132.0</ele><time>2026-03-28T10:09:12Z</time></trkpt><trkpt lat="39.046630172562125" lon="8.961412364044653"><ele>133.66666666666666</ele><time>2026-03-28T10:09:13Z</time></trkpt><trkpt lat="39.046630129398345" lon="8.96130886470615"><ele>135.33333333333331</ele><time>2026-03-28T10:09:14Z</time></trkpt><trkpt lat="39.046627478599675" lon="8.96121179253011"><ele>137.0</ele><time>2026-03-28T10:09:15Z</time></trkpt><trkpt lat="39.04662695532204" lon="8.961110820607297"><ele>137.0</ele><time>2026-03-28T10:09:16Z</time></trkpt><trkpt lat="39.046624415520775" lon="8.961026882817816"><ele>137.0</ele><time>2026-03-28T10:09:17Z</time></trkpt><trkpt lat="39.04662763924806" lon="8.960897133449656"><ele>137.0</ele><time>2026-03-28T10:09:18.999Z</time></trkpt><trkpt lat="39.04661231305248" lon="8.96079729945154"><ele>137.0</ele><time>2026-03-28T10:09:19.999Z</time></trkpt><trkpt lat="39.04659167971572" lon="8.960717254531927"><ele>137.0</ele><time>2026-03-28T10:09:20.999Z</time></trkpt><trkpt lat="39.0465761786567" lon="8.960623436744715"><ele>137.0</ele><time>2026-03-28T10:09:22.999Z</time></trkpt><trkpt lat="39.04649006756074" lon="8.960593849450559"><ele>138.83333333333331</ele><time>2026-03-28T10:09:24.999Z</time></trkpt><trkpt lat="39.04642422487454" lon="8.960581404307915"><ele>140.66666666666666</ele><time>2026-03-28T10:09:25.999Z</time></trkpt><trkpt lat="39.04634410518969" lon="8.960571018010752"><ele>142.5</ele><time>2026-03-28T10:09:26.999Z</time></trkpt><trkpt lat="39.04626781524844" lon="8.960539061333527"><ele>144.33333333333334</ele><time>2026-03-28T10:09:27.999Z</time></trkpt><trkpt lat="39.046195700096" lon="8.960503430934414"><ele>146.16666666666669</ele><time>2026-03-28T10:09:28.999Z</time></trkpt><trkpt lat="39.04614030976857" lon="8.960438336859577"><ele>148.0</ele><time>2026-03-28T10:09:30.999Z</time></trkpt><trkpt lat="39.04608691811328" lon="8.960364315877262"><ele>148.0</ele><time>2026-03-28T10:09:32.999Z</time></trkpt><trkpt lat="39.04602957199415" lon="8.96027093068838"><ele>148.0</ele><time>2026-03-28T10:09:34.999Z</time></trkpt><trkpt lat="39.04600239473379" lon="8.960168637410957"><ele>148.0</ele><time>2026-03-28T10:09:36.999Z</time></trkpt><trkpt lat="39.04599539803348" lon="8.960074825675989"><ele>148.0</ele><time>2026-03-28T10:09:38.999Z</time></trkpt><trkpt lat="39.04595043671869" lon="8.959947389952461"><ele>148.0</ele><time>2026-03-28T10:09:40.999Z</time></trkpt><trkpt lat="39.04589930259678" lon="8.959861175107612"><ele>148.0</ele><time>2026-03-28T10:09:42.999Z</time></trkpt><trkpt lat="39.045880091444495" lon="8.959773635786393"><ele>147.83333333333334</ele><time>2026-03-28T10:09:44.999Z</time></trkpt><trkpt lat="39.04578910352766" lon="8.95975415015907"><ele>147.66666666666669</ele><time>2026-03-28T10:09:47.999Z</time></trkpt><trkpt lat="39.04572220998455" lon="8.959801433873007"><ele>147.5</ele><time>2026-03-28T10:09:49.999Z</time></trkpt><trkpt lat="39.045652206375365" lon="8.959797566572504"><ele>147.33333333333334</ele><time>2026-03-28T10:09:51.999Z</time></trkpt><trkpt lat="39.04558655569472" lon="8.959722340123657"><ele>147.16666666666666</ele><time>2026-03-28T10:09:54.999Z</time></trkpt><trkpt lat="39.04558512816385" lon="8.95963391960553"><ele>147.0</ele><time>2026-03-28T10:09:58.998Z</time></trkpt><trkpt lat="39.045582615796505" lon="8.959506017448426"><ele>147.0</ele><time>2026-03-28T10:10:02.998Z</time></trkpt><trkpt lat="39.045552003152835" lon="8.959394599391894"><ele>147.0</ele><time>2026-03-28T10:10:05.998Z</time></trkpt><trkpt lat="39.045484742505835" lon="8.95927705609542"><ele>147.0</ele><time>2026-03-28T10:10:07.998Z</time></trkpt><trkpt lat="39.04547121342045" lon="8.959175842193481"><ele>147.0</ele><time>2026-03-28T10:10:10.998Z</time></trkpt><trkpt lat="39.045437861623256" lon="8.95907357567624"><ele>147.0</ele><time>2026-03-28T10:10:11.998Z</time></trkpt><trkpt lat="39.04539223792987" lon="8.958985776943502"><ele>150.0</ele><time>2026-03-28T10:10:13.998Z</time></trkpt><trkpt lat="39.045374030478015" lon="8.958873211946523"><ele>153.0</ele><time>2026-03-28T10:10:15.998Z</time></trkpt><trkpt lat="39.045307284370644" lon="8.958600788664087"><ele>156.0</ele><time>2026-03-28T10:10:18.998Z</time></trkpt><trkpt lat="39.04523691362943" lon="8.958480128018364"><ele>159.0</ele><time>2026-03-28T10:10:20.998Z</time></trkpt><trkpt lat="39.04518442879339" lon="8.958407267198606"><ele>159.0</ele><time>2026-03-28T10:10:22.998Z</time></trkpt><trkpt lat="39.045154533850976" lon="8.958321270358617"><ele>159.0</ele><time>2026-03-28T10:10:24.998Z</time></trkpt><trkpt lat="39.04509369405303" lon="8.958247842593321"><ele>159.0</ele><time>2026-03-28T10:10:26.998Z</time></trkpt><trkpt lat="39.044998508080624" lon="8.95816222154826"><ele>159.0</ele><time>2026-03-28T10:10:28.998Z</time></trkpt><trkpt lat="39.04494362074954" lon="8.95811813407068"><ele>159.0</ele><time>2026-03-28T10:10:29.998Z</time></trkpt><trkpt lat="39.04487914260057" lon="8.95807656158797"><ele>159.0</ele><time>2026-03-28T10:10:30.998Z</time></trkpt><trkpt lat="39.0447952519334" lon="8.958030404550238"><ele>159.0</ele><time>2026-03-28T10:10:32.998Z</time></trkpt><trkpt lat="39.04472506000983" lon="8.957937999262082"><ele>159.0</ele><time>2026-03-28T10:10:35.998Z</time></trkpt><trkpt lat="39.044663510264535" lon="8.957913418862626"><ele>159.0</ele><time>2026-03-28T10:10:38.997Z</time></trkpt><trkpt lat="39.044625004849145" lon="8.957791367246259"><ele>159.0</ele><time>2026-03-28T10:10:42.997Z</time></trkpt><trkpt lat="39.04455002938029" lon="8.957754770627792"><ele>159.0</ele><time>2026-03-28T10:10:45.997Z</time></trkpt><trkpt lat="39.04449686793603" lon="8.957696524193034"><ele>159.0</ele><time>2026-03-28T10:10:46.997Z</time></trkpt><trkpt lat="39.04443175494553" lon="8.957648032966484"><ele>159.0</ele><time>2026-03-28T10:10:47.997Z</time></trkpt><trkpt lat="39.04431918003847" lon="8.957586659760011"><ele>159.0</ele><time>2026-03-28T10:10:49.997Z</time></trkpt><trkpt lat="39.04425241559609" lon="8.957518751948713"><ele>159.0</ele><time>2026-03-28T10:10:50.997Z</time></trkpt><trkpt lat="39.044174885505534" lon="8.95746248950377"><ele>159.0</ele><time>2026-03-28T10:10:52.997Z</time></trkpt><trkpt lat="39.04412151453943" lon="8.957373701928041"><ele>159.0</ele><time>2026-03-28T10:10:55Z</time></trkpt><trkpt lat="39.04403567652682" lon="8.957315827283471"><ele>161.5</ele><time>2026-03-28T10:10:57Z</time></trkpt><trkpt lat="39.04393642815851" lon="8.95725618334409"><ele>164.0</ele><time>2026-03-28T10:10:59Z</time></trkpt><trkpt lat="39.04386956051911" lon="8.957229001305311"><ele>166.5</ele><time>2026-03-28T10:11:01Z</time></trkpt><trkpt lat="39.04381539609232" lon="8.957184523985365"><ele>169.0</ele><time>2026-03-28T10:11:04Z</time></trkpt><trkpt lat="39.043706846864744" lon="8.957118889510758"><ele>171.5</ele><time>2026-03-28T10:12:16.998Z</time></trkpt><trkpt lat="39.04365021740533" lon="8.957057591506983"><ele>174.0</ele><time>2026-03-28T10:12:17.998Z</time></trkpt><trkpt lat="39.0435552222912" lon="8.957036049611743"><ele>174.0</ele><time>2026-03-28T10:12:19.998Z</time></trkpt><trkpt lat="39.0434928636673" lon="8.957065310564872"><ele>174.0</ele><time>2026-03-28T10:12:20.998Z</time></trkpt><trkpt lat="39.04342676166753" lon="8.957071086668188"><ele>174.0</ele><time>2026-03-28T10:12:21.998Z</time></trkpt><trkpt lat="39.043296328240615" lon="8.957035115344034"><ele>174.0</ele><time>2026-03-28T10:12:23.998Z</time></trkpt><trkpt lat="39.043223171858926" lon="8.956997756272434"><ele>174.0</ele><time>2026-03-28T10:12:24.998Z</time></trkpt><trkpt lat="39.04314096311796" lon="8.95694386866687"><ele>174.0</ele><time>2026-03-28T10:12:25.998Z</time></trkpt><trkpt lat="39.04304279207951" lon="8.956889078330763"><ele>173.0</ele><time>2026-03-28T10:12:26.998Z</time></trkpt><trkpt lat="39.0429496626499" lon="8.956835142992926"><ele>172.0</ele><time>2026-03-28T10:12:27.998Z</time></trkpt><trkpt lat="39.04285923937782" lon="8.956795169209558"><ele>171.0</ele><time>2026-03-28T10:12:28.998Z</time></trkpt><trkpt lat="39.04276021612148" lon="8.956766736237768"><ele>170.0</ele><time>2026-03-28T10:12:29.998Z</time></trkpt><trkpt lat="39.042680490036986" lon="8.956740863217222"><ele>169.0</ele><time>2026-03-28T10:12:30.998Z</time></trkpt><trkpt lat="39.04261182042249" lon="8.956707835804073"><ele>169.0</ele><time>2026-03-28T10:12:31.998Z</time></trkpt><trkpt lat="39.042550064190685" lon="8.956672296591375"><ele>169.0</ele><time>2026-03-28T10:12:32.998Z</time></trkpt><trkpt lat="39.042456592673915" lon="8.956619522096904"><ele>169.0</ele><time>2026-03-28T10:12:34.998Z</time></trkpt><trkpt lat="39.04240510406637" lon="8.956529050223999"><ele>169.0</ele><time>2026-03-28T10:12:36.998Z</time></trkpt><trkpt lat="39.04232278239103" lon="8.956388605826685"><ele>169.0</ele><time>2026-03-28T10:12:38.998Z</time></trkpt><trkpt lat="39.04227037361896" lon="8.956325096435338"><ele>169.0</ele><time>2026-03-28T10:12:39.998Z</time></trkpt><trkpt lat="39.04224341934822" lon="8.956248448988887"><ele>169.0</ele><time>2026-03-28T10:12:40.998Z</time></trkpt><trkpt lat="39.042194393452085" lon="8.956116408180534"><ele>169.0</ele><time>2026-03-28T10:12:42.998Z</time></trkpt><trkpt lat="39.042147360096344" lon="8.955997457002324"><ele>169.0</ele><time>2026-03-28T10:12:44.998Z</time></trkpt><trkpt lat="39.04207420014959" lon="8.955866092847428"><ele>169.0</ele><time>2026-03-28T10:12:46.997Z</time></trkpt><trkpt lat="39.042008312757375" lon="8.955823182194022"><ele>168.39999999999998</ele><time>2026-03-28T10:12:47.997Z</time></trkpt><trkpt lat="39.041941810850055" lon="8.955792922157169"><ele>167.8</ele><time>2026-03-28T10:12:48.997Z</time></trkpt><trkpt lat="39.04182186578696" lon="8.955711576986852"><ele>167.2</ele><time>2026-03-28T10:12:50.997Z</time></trkpt><trkpt lat="39.0417589238748" lon="8.955649792742566"><ele>166.60000000000002</ele><time>2026-03-28T10:12:51.997Z</time></trkpt><trkpt lat="39.04165615378459" lon="8.955565408905906"><ele>166.0</ele><time>2026-03-28T10:12:53.997Z</time></trkpt><trkpt lat="39.04159710430106" lon="8.955521396526219"><ele>166.0</ele><time>2026-03-28T10:12:54.997Z</time></trkpt><trkpt lat="39.04152195695726" lon="8.955440118278691"><ele>166.0</ele><time>2026-03-28T10:12:56.997Z</time></trkpt><trkpt lat="39.041507444067676" lon="8.955323507140863"><ele>166.0</ele><time>2026-03-28T10:12:58.997Z</time></trkpt><trkpt lat="39.041514813787174" lon="8.955193015870707"><ele>166.0</ele><time>2026-03-28T10:13:01Z</time></trkpt><trkpt lat="39.04152020813034" lon="8.955101375106516"><ele>166.0</ele><time>2026-03-28T10:13:04Z</time></trkpt><trkpt lat="39.04150547802932" lon="8.954973431683058"><ele>167.8</ele><time>2026-03-28T10:13:06Z</time></trkpt><trkpt lat="39.04144810222612" lon="8.954885549566233"><ele>169.60000000000002</ele><time>2026-03-28T10:13:09Z</time></trkpt><trkpt lat="39.04139272688019" lon="8.954824035877689"><ele>171.4</ele><time>2026-03-28T10:13:11Z</time></trkpt><trkpt lat="39.04131984451858" lon="8.954739734572764"><ele>173.2</ele><time>2026-03-28T10:13:14Z</time></trkpt><trkpt lat="39.04124203688974" lon="8.95469414164961"><ele>175.0</ele><time>2026-03-28T10:13:15Z</time></trkpt><trkpt lat="39.04116854901396" lon="8.954591393834992"><ele>175.0</ele><time>2026-03-28T10:13:18Z</time></trkpt><trkpt lat="39.04107646106022" lon="8.954519081175492"><ele>175.0</ele><time>2026-03-28T10:13:20Z</time></trkpt><trkpt lat="39.04103601333906" lon="8.954446082529149"><ele>175.0</ele><time>2026-03-28T10:13:22Z</time></trkpt><trkpt lat="39.04099974778395" lon="8.954337803633258"><ele>175.0</ele><time>2026-03-28T10:13:24Z</time></trkpt><trkpt lat="39.04090821635181" lon="8.954194942924712"><ele>175.0</ele><time>2026-03-28T10:13:27Z</time></trkpt><trkpt lat="39.04085069598179" lon="8.954114268966993"><ele>176.6</ele><time>2026-03-28T10:13:29Z</time></trkpt><trkpt lat="39.04078728489339" lon="8.95405774140679"><ele>178.2</ele><time>2026-03-28T10:13:31Z</time></trkpt><trkpt lat="39.04073020094768" lon="8.953983271887774"><ele>179.8</ele><time>2026-03-28T10:13:33.999Z</time></trkpt><trkpt lat="39.040665300019626" lon="8.95390443124798"><ele>181.4</ele><time>2026-03-28T10:13:35.999Z</time></trkpt><trkpt lat="39.04057841092311" lon="8.953828669378835"><ele>183.0</ele><time>2026-03-28T10:13:37.999Z</time></trkpt><trkpt lat="39.0404919059018" lon="8.953752672210296"><ele>183.0</ele><time>2026-03-28T10:13:40.999Z</time></trkpt><trkpt lat="39.040407931274174" lon="8.95373487079634"><ele>183.0</ele><time>2026-03-28T10:13:42.999Z</time></trkpt><trkpt lat="39.04031036657407" lon="8.953679996310793"><ele>183.0</ele><time>2026-03-28T10:13:44.999Z</time></trkpt><trkpt lat="39.04023427684054" lon="8.953663791324553"><ele>183.0</ele><time>2026-03-28T10:13:46.999Z</time></trkpt><trkpt lat="39.04016848384714" lon="8.953650827217356"><ele>183.0</ele><time>2026-03-28T10:13:47.999Z</time></trkpt><trkpt lat="39.04010760415281" lon="8.95367431016758"><ele>183.0</ele><time>2026-03-28T10:13:48.999Z</time></trkpt><trkpt lat="39.040036393292304" lon="8.953724424694267"><ele>183.0</ele><time>2026-03-28T10:13:49.999Z</time></trkpt><trkpt lat="39.0399765470144" lon="8.95376768819986"><ele>183.0</ele><time>2026-03-28T10:13:50.999Z</time></trkpt><trkpt lat="39.03985929436783" lon="8.953832485897625"><ele>183.0</ele><time>2026-03-28T10:13:52.999Z</time></trkpt><trkpt lat="39.03978841742357" lon="8.953886649425023"><ele>183.0</ele><time>2026-03-28T10:13:53.999Z</time></trkpt><trkpt lat="39.039724829756345" lon="8.953944365090631"><ele>183.0</ele><time>2026-03-28T10:13:54.999Z</time></trkpt><trkpt lat="39.039663421180705" lon="8.95398573402326"><ele>183.0</ele><time>2026-03-28T10:13:55.999Z</time></trkpt><trkpt lat="39.03957919220182" lon="8.95403415916391"><ele>183.5</ele><time>2026-03-28T10:13:56.999Z</time></trkpt><trkpt lat="39.03949110069274" lon="8.9540935504596"><ele>184.0</ele><time>2026-03-28T10:13:57.999Z</time></trkpt><trkpt lat="39.03940438286977" lon="8.954153405543096"><ele>184.5</ele><time>2026-03-28T10:13:58.999Z</time></trkpt><trkpt lat="39.03934038461688" lon="8.954205581218273"><ele>185.0</ele><time>2026-03-28T10:13:59.999Z</time></trkpt><trkpt lat="39.03927812120803" lon="8.954261737274102"><ele>185.5</ele><time>2026-03-28T10:14:00.999Z</time></trkpt><trkpt lat="39.039217781795706" lon="8.954335123979611"><ele>186.0</ele><time>2026-03-28T10:14:01.999Z</time></trkpt><trkpt lat="39.03916915597711" lon="8.954413217836462"><ele>183.66666666666666</ele><time>2026-03-28T10:14:02.999Z</time></trkpt><trkpt lat="39.039123743675944" lon="8.95449411544678"><ele>181.33333333333334</ele><time>2026-03-28T10:14:03.999Z</time></trkpt><trkpt lat="39.0390760624795" lon="8.954577203693875"><ele>179.0</ele><time>2026-03-28T10:14:04.999Z</time></trkpt><trkpt lat="39.03902939978495" lon="8.95465063093258"><ele>176.66666666666669</ele><time>2026-03-28T10:14:05.999Z</time></trkpt><trkpt lat="39.03898294803759" lon="8.954722796556933"><ele>174.33333333333334</ele><time>2026-03-28T10:14:06.999Z</time></trkpt><trkpt lat="39.03892272683492" lon="8.95476775828553"><ele>172.0</ele><time>2026-03-28T10:14:08.999Z</time></trkpt><trkpt lat="39.038850539503684" lon="8.954691303464216"><ele>172.00000000000003</ele><time>2026-03-28T10:14:11.998Z</time></trkpt><trkpt lat="39.03879907561996" lon="8.954620488251088"><ele>172.0</ele><time>2026-03-28T10:14:16.998Z</time></trkpt><trkpt lat="39.03875113334929" lon="8.95455396407486"><ele>172.0</ele><time>2026-03-28T10:14:17.998Z</time></trkpt><trkpt lat="39.038698088456506" lon="8.954476630710802"><ele>172.0</ele><time>2026-03-28T10:14:18.998Z</time></trkpt><trkpt lat="39.03864859253216" lon="8.954398026099172"><ele>172.0</ele><time>2026-03-28T10:14:19.998Z</time></trkpt><trkpt lat="39.03861279582377" lon="8.954324927888315"><ele>172.00000000000003</ele><time>2026-03-28T10:14:20.998Z</time></trkpt><trkpt lat="39.038586772195565" lon="8.954238720765158"><ele>172.0</ele><time>2026-03-28T10:14:21.998Z</time></trkpt><trkpt lat="39.03856997174539" lon="8.954155639692834"><ele>172.39999999999998</ele><time>2026-03-28T10:14:22.998Z</time></trkpt><trkpt lat="39.03851232232486" lon="8.954065074776427"><ele>172.79999999999998</ele><time>2026-03-28T10:14:24.998Z</time></trkpt><trkpt lat="39.03842739184518" lon="8.954076222734068"><ele>173.2</ele><time>2026-03-28T10:14:26.998Z</time></trkpt><trkpt lat="39.038316720429755" lon="8.954029759246742"><ele>173.6</ele><time>2026-03-28T10:14:28.998Z</time></trkpt><trkpt lat="39.03826711471341" lon="8.953977145476363"><ele>174.0</ele><time>2026-03-28T10:14:29.998Z</time></trkpt><trkpt lat="39.03818412475078" lon="8.953864989063025"><ele>171.83333333333334</ele><time>2026-03-28T10:14:31.998Z</time></trkpt><trkpt lat="39.03809228021073" lon="8.953792728627564"><ele>169.66666666666666</ele><time>2026-03-28T10:14:33.998Z</time></trkpt><trkpt lat="39.03802235933513" lon="8.953787452587639"><ele>167.5</ele><time>2026-03-28T10:14:34.998Z</time></trkpt><trkpt lat="39.03795740663992" lon="8.953792405075058"><ele>165.33333333333331</ele><time>2026-03-28T10:14:35.998Z</time></trkpt><trkpt lat="39.03789345070093" lon="8.953795980127836"><ele>163.16666666666666</ele><time>2026-03-28T10:14:36.998Z</time></trkpt><trkpt lat="39.03777093614364" lon="8.95376683403634"><ele>161.0</ele><time>2026-03-28T10:14:38.998Z</time></trkpt><trkpt lat="39.03765298950212" lon="8.953755860591901"><ele>161.0</ele><time>2026-03-28T10:14:40.998Z</time></trkpt><trkpt lat="39.03753884492169" lon="8.953688368685421"><ele>161.0</ele><time>2026-03-28T10:14:42.998Z</time></trkpt><trkpt lat="39.03747163368261" lon="8.953590617912392"><ele>161.0</ele><time>2026-03-28T10:14:44.998Z</time></trkpt><trkpt lat="39.03739935860789" lon="8.953502040853103"><ele>161.0</ele><time>2026-03-28T10:14:47.998Z</time></trkpt><trkpt lat="39.03736328815795" lon="8.953420106317575"><ele>161.0</ele><time>2026-03-28T10:14:50.997Z</time></trkpt><trkpt lat="39.037298728254626" lon="8.953418365882111"><ele>157.60000000000002</ele><time>2026-03-28T10:14:52.997Z</time></trkpt><trkpt lat="39.03720950096865" lon="8.953459138834441"><ele>154.20000000000002</ele><time>2026-03-28T10:14:54.997Z</time></trkpt><trkpt lat="39.03710479084686" lon="8.953460817805102"><ele>150.8</ele><time>2026-03-28T10:14:57.997Z</time></trkpt><trkpt lat="39.03699849265369" lon="8.953492717692164"><ele>147.4</ele><time>2026-03-28T10:14:58.997Z</time></trkpt><trkpt lat="39.03690715831751" lon="8.953526157499814"><ele>144.0</ele><time>2026-03-28T10:14:59.997Z</time></trkpt><trkpt lat="39.03683117271242" lon="8.953555842907356"><ele>144.0</ele><time>2026-03-28T10:15:00.997Z</time></trkpt><trkpt lat="39.03675678429566" lon="8.953588456544534"><ele>144.0</ele><time>2026-03-28T10:15:01.997Z</time></trkpt><trkpt lat="39.03666997164857" lon="8.953613319031692"><ele>144.0</ele><time>2026-03-28T10:15:02.997Z</time></trkpt><trkpt lat="39.03657905652936" lon="8.953639194784161"><ele>144.0</ele><time>2026-03-28T10:15:03.997Z</time></trkpt><trkpt lat="39.03649070540577" lon="8.953662384519482"><ele>144.0</ele><time>2026-03-28T10:15:04.997Z</time></trkpt><trkpt lat="39.03639515154853" lon="8.95366889911043"><ele>144.0</ele><time>2026-03-28T10:15:05.997Z</time></trkpt><trkpt lat="39.03628127433524" lon="8.953685617329908"><ele>142.16666666666666</ele><time>2026-03-28T10:15:07Z</time></trkpt><trkpt lat="39.03618281050012" lon="8.953716211361666"><ele>140.33333333333334</ele><time>2026-03-28T10:15:08Z</time></trkpt><trkpt lat="39.03609093928401" lon="8.953715555303193"><ele>138.5</ele><time>2026-03-28T10:15:09Z</time></trkpt><trkpt lat="39.036010741752946" lon="8.953731729591631"><ele>136.66666666666669</ele><time>2026-03-28T10:15:10Z</time></trkpt><trkpt lat="39.03592892308735" lon="8.953759878332107"><ele>134.83333333333334</ele><time>2026-03-28T10:15:11Z</time></trkpt><trkpt lat="39.03583926373978" lon="8.953762947665437"><ele>133.0</ele><time>2026-03-28T10:15:12Z</time></trkpt><trkpt lat="39.035738766779176" lon="8.953757164291789"><ele>132.16666666666669</ele><time>2026-03-28T10:15:13Z</time></trkpt><trkpt lat="39.035651062045176" lon="8.953732765557005"><ele>131.33333333333334</ele><time>2026-03-28T10:15:14Z</time></trkpt><trkpt lat="39.03557711663084" lon="8.953699523781516"><ele>130.5</ele><time>2026-03-28T10:15:15Z</time></trkpt><trkpt lat="39.035514255873565" lon="8.953657474033138"><ele>129.66666666666666</ele><time>2026-03-28T10:15:16Z</time></trkpt><trkpt lat="39.03545858328789" lon="8.953598721891899"><ele>128.83333333333331</ele><time>2026-03-28T10:15:17Z</time></trkpt><trkpt lat="39.035413496846814" lon="8.953532830116757"><ele>128.0</ele><time>2026-03-28T10:15:18Z</time></trkpt><trkpt lat="39.035321687696424" lon="8.95344562043909"><ele>127.60000000000001</ele><time>2026-03-28T10:15:20Z</time></trkpt><trkpt lat="39.03522610455948" lon="8.953364709690472"><ele>127.20000000000002</ele><time>2026-03-28T10:15:22Z</time></trkpt><trkpt lat="39.03515903493675" lon="8.953219794860704"><ele>126.8</ele><time>2026-03-28T10:15:24Z</time></trkpt><trkpt lat="39.03511019562771" lon="8.953140442077638"><ele>126.4</ele><time>2026-03-28T10:15:25Z</time></trkpt><trkpt lat="39.03506130999607" lon="8.953063582029058"><ele>126.0</ele><time>2026-03-28T10:15:26Z</time></trkpt><trkpt lat="39.035018428465186" lon="8.952997209022996"><ele>124.16666666666667</ele><time>2026-03-28T10:15:27Z</time></trkpt><trkpt lat="39.034926810612426" lon="8.952892748184269"><ele>122.33333333333334</ele><time>2026-03-28T10:15:29Z</time></trkpt><trkpt lat="39.0348643935774" lon="8.952873786201597"><ele>120.5</ele><time>2026-03-28T10:15:30Z</time></trkpt><trkpt lat="39.03480140806993" lon="8.952874643598717"><ele>118.66666666666667</ele><time>2026-03-28T10:15:31Z</time></trkpt><trkpt lat="39.03473030434326" lon="8.952891639810126"><ele>116.83333333333334</ele><time>2026-03-28T10:15:32Z</time></trkpt><trkpt lat="39.03464234608154" lon="8.952927878081299"><ele>115.0</ele><time>2026-03-28T10:15:33Z</time></trkpt><trkpt lat="39.034571749829496" lon="8.952976916223214"><ele>115.00000000000001</ele><time>2026-03-28T10:15:34Z</time></trkpt><trkpt lat="39.03447133219997" lon="8.953033166980566"><ele>115.0</ele><time>2026-03-28T10:15:35Z</time></trkpt><trkpt lat="39.03437555955926" lon="8.953069464740365"><ele>115.0</ele><time>2026-03-28T10:15:36Z</time></trkpt><trkpt lat="39.0342928289979" lon="8.953096435294105"><ele>115.0</ele><time>2026-03-28T10:15:37Z</time></trkpt><trkpt lat="39.034227607915334" lon="8.953148004573713"><ele>115.00000000000001</ele><time>2026-03-28T10:15:37.999Z</time></trkpt><trkpt lat="39.03417027409104" lon="8.9532101216772"><ele>115.0</ele><time>2026-03-28T10:15:38.999Z</time></trkpt><trkpt lat="39.034111599652796" lon="8.953291513511408"><ele>114.33333333333334</ele><time>2026-03-28T10:15:39.999Z</time></trkpt><trkpt lat="39.03405846855156" lon="8.953371716966554"><ele>113.66666666666667</ele><time>2026-03-28T10:15:40.999Z</time></trkpt><trkpt lat="39.03399797807619" lon="8.953441511528098"><ele>113.0</ele><time>2026-03-28T10:15:41.999Z</time></trkpt><trkpt lat="39.03392963835944" lon="8.953516891067917"><ele>112.33333333333334</ele><time>2026-03-28T10:15:42.999Z</time></trkpt><trkpt lat="39.03386701405458" lon="8.953577559005002"><ele>111.66666666666667</ele><time>2026-03-28T10:15:43.999Z</time></trkpt><trkpt lat="39.03381522300524" lon="8.953642165233937"><ele>111.0</ele><time>2026-03-28T10:15:44.999Z</time></trkpt><trkpt lat="39.03376884787212" lon="8.953708459405528"><ele>110.4</ele><time>2026-03-28T10:15:45.999Z</time></trkpt><trkpt lat="39.03372486068056" lon="8.953783652848557"><ele>109.8</ele><time>2026-03-28T10:15:46.999Z</time></trkpt><trkpt lat="39.0336801592161" lon="8.953841698248684"><ele>109.20000000000002</ele><time>2026-03-28T10:15:47.999Z</time></trkpt><trkpt lat="39.03357596781145" lon="8.953901484229256"><ele>108.60000000000001</ele><time>2026-03-28T10:15:49.999Z</time></trkpt><trkpt lat="39.03345445701287" lon="8.9539213386542"><ele>108.0</ele><time>2026-03-28T10:15:51.999Z</time></trkpt><trkpt lat="39.03334566827195" lon="8.953958945022293"><ele>108.0</ele><time>2026-03-28T10:15:53.999Z</time></trkpt><trkpt lat="39.033352049699715" lon="8.953819439255016"><ele>108.0</ele><time>2026-03-28T10:15:58.999Z</time></trkpt><trkpt lat="39.0333716611041" lon="8.953729520049194"><ele>108.0</ele><time>2026-03-28T10:15:59.999Z</time></trkpt><trkpt lat="39.03342662359303" lon="8.953607531992784"><ele>108.0</ele><time>2026-03-28T10:16:00.999Z</time></trkpt><trkpt lat="39.03347263249505" lon="8.953349417068763"><ele>108.60000000000001</ele><time>2026-03-28T10:16:01.999Z</time></trkpt><trkpt lat="39.03353016596684" lon="8.953238175235754"><ele>109.20000000000002</ele><time>2026-03-28T10:16:02.999Z</time></trkpt><trkpt lat="39.03357439886656" lon="8.953152827993188"><ele>109.8</ele><time>2026-03-28T10:16:03.999Z</time></trkpt><trkpt lat="39.03353841657017" lon="8.953031589346347"><ele>110.4</ele><time>2026-03-28T10:16:05.999Z</time></trkpt><trkpt lat="39.03355796579976" lon="8.952873579961983"><ele>111.0</ele><time>2026-03-28T10:16:07.999Z</time></trkpt><trkpt lat="39.03356795669119" lon="8.952780919741508"><ele>111.0</ele><time>2026-03-28T10:16:08.999Z</time></trkpt><trkpt lat="39.03355465607487" lon="8.952666494754714"><ele>111.0</ele><time>2026-03-28T10:16:09.999Z</time></trkpt><trkpt lat="39.03353102965626" lon="8.952549632375362"><ele>111.0</ele><time>2026-03-28T10:16:10.999Z</time></trkpt><trkpt lat="39.03346256217647" lon="8.95249695879795"><ele>111.0</ele><time>2026-03-28T10:16:14.999Z</time></trkpt><trkpt lat="39.033371987854366" lon="8.95247603519833"><ele>111.0</ele><time>2026-03-28T10:16:16.999Z</time></trkpt><trkpt lat="39.03328963286048" lon="8.95247679314203"><ele>111.0</ele><time>2026-03-28T10:16:19.998Z</time></trkpt><trkpt lat="39.033189936937404" lon="8.95250138759564"><ele>110.33333333333333</ele><time>2026-03-28T10:16:20.998Z</time></trkpt><trkpt lat="39.03311064523154" lon="8.952494115414368"><ele>109.66666666666666</ele><time>2026-03-28T10:16:21.998Z</time></trkpt><trkpt lat="39.03300585711719" lon="8.952454065773875"><ele>109.0</ele><time>2026-03-28T10:16:22.998Z</time></trkpt><trkpt lat="39.03294340236265" lon="8.952406850481585"><ele>108.33333333333333</ele><time>2026-03-28T10:16:23.998Z</time></trkpt><trkpt lat="39.03289105268372" lon="8.952352668301154"><ele>107.66666666666666</ele><time>2026-03-28T10:16:24.998Z</time></trkpt><trkpt lat="39.03283582493151" lon="8.952302677416258"><ele>107.0</ele><time>2026-03-28T10:16:25.998Z</time></trkpt><trkpt lat="39.032773706532915" lon="8.9522681024892"><ele>106.99999999999999</ele><time>2026-03-28T10:16:26.998Z</time></trkpt><trkpt lat="39.03270189312322" lon="8.952238589120169"><ele>107.0</ele><time>2026-03-28T10:16:27.998Z</time></trkpt><trkpt lat="39.032622225451" lon="8.952234038922565"><ele>107.0</ele><time>2026-03-28T10:16:28.998Z</time></trkpt><trkpt lat="39.0325496417143" lon="8.952223991135153"><ele>107.0</ele><time>2026-03-28T10:16:29.998Z</time></trkpt><trkpt lat="39.032428409724616" lon="8.952193353757915"><ele>106.99999999999999</ele><time>2026-03-28T10:16:31.998Z</time></trkpt><trkpt lat="39.03235145127805" lon="8.952198735088933"><ele>107.0</ele><time>2026-03-28T10:16:32.998Z</time></trkpt><trkpt lat="39.03227771865777" lon="8.95219673261522"><ele>107.99999999999999</ele><time>2026-03-28T10:16:33.998Z</time></trkpt><trkpt lat="39.032214874719635" lon="8.952202113628525"><ele>109.0</ele><time>2026-03-28T10:16:34.998Z</time></trkpt><trkpt lat="39.03213510521201" lon="8.95218353872921"><ele>110.0</ele><time>2026-03-28T10:16:36.998Z</time></trkpt><trkpt lat="39.03204977241067" lon="8.952180446409216"><ele>111.0</ele><time>2026-03-28T10:18:30.998Z</time></trkpt><trkpt lat="39.031973414995335" lon="8.95227094921295"><ele>111.99999999999999</ele><time>2026-03-28T10:18:32.998Z</time></trkpt><trkpt lat="39.03194076997611" lon="8.952346531452939"><ele>113.0</ele><time>2026-03-28T10:18:34.998Z</time></trkpt><trkpt lat="39.03187113695417" lon="8.952384135294276"><ele>112.99999999999999</ele><time>2026-03-28T10:18:36.998Z</time></trkpt><trkpt lat="39.03182021688336" lon="8.95244812232443"><ele>113.0</ele><time>2026-03-28T10:18:38.998Z</time></trkpt><trkpt lat="39.0317709721543" lon="8.952518486118858"><ele>113.0</ele><time>2026-03-28T10:18:40.998Z</time></trkpt><trkpt lat="39.031712813678475" lon="8.952568125539726"><ele>113.0</ele><time>2026-03-28T10:18:42.998Z</time></trkpt><trkpt lat="39.031662141180604" lon="8.952633062470401"><ele>112.99999999999999</ele><time>2026-03-28T10:18:44.998Z</time></trkpt><trkpt lat="39.03158526293553" lon="8.952624492155412"><ele>113.0</ele><time>2026-03-28T10:18:46.998Z</time></trkpt><trkpt lat="39.03148615966325" lon="8.952589188651395"><ele>113.2</ele><time>2026-03-28T10:18:48.998Z</time></trkpt><trkpt lat="39.03141429059708" lon="8.952551846010337"><ele>113.4</ele><time>2026-03-28T10:19:06.997Z</time></trkpt><trkpt lat="39.031317070747654" lon="8.952493700903384"><ele>113.60000000000001</ele><time>2026-03-28T10:19:08.997Z</time></trkpt><trkpt lat="39.03121012017768" lon="8.952494037587721"><ele>113.80000000000001</ele><time>2026-03-28T10:19:10.997Z</time></trkpt><trkpt lat="39.031131746430695" lon="8.952488288739572"><ele>114.0</ele><time>2026-03-28T10:19:16.997Z</time></trkpt><trkpt lat="39.03105684401225" lon="8.9524514502366"><ele>115.0</ele><time>2026-03-28T10:19:21Z</time></trkpt><trkpt lat="39.03098000857189" lon="8.95243739280304"><ele>116.0</ele><time>2026-03-28T10:19:24Z</time></trkpt><trkpt lat="39.03087736555095" lon="8.952441514561874"><ele>117.0</ele><time>2026-03-28T10:19:26Z</time></trkpt><trkpt lat="39.03079369950747" lon="8.952463987107455"><ele>118.0</ele><time>2026-03-28T10:19:28Z</time></trkpt><trkpt lat="39.03072662659268" lon="8.9524716494397"><ele>119.0</ele><time>2026-03-28T10:19:30Z</time></trkpt><trkpt lat="39.03065725581925" lon="8.952494311394236"><ele>120.0</ele><time>2026-03-28T10:19:32Z</time></trkpt><trkpt lat="39.03059437262769" lon="8.95253291917567"><ele>119.33333333333333</ele><time>2026-03-28T10:19:34Z</time></trkpt><trkpt lat="39.03052547059731" lon="8.952541085368555"><ele>118.66666666666666</ele><time>2026-03-28T10:19:37Z</time></trkpt><trkpt lat="39.030464470511774" lon="8.952575717950218"><ele>118.0</ele><time>2026-03-28T10:19:52.999Z</time></trkpt><trkpt lat="39.03041969394067" lon="8.952465870451888"><ele>117.33333333333333</ele><time>2026-03-28T10:20:44.998Z</time></trkpt><trkpt lat="39.03041798362801" lon="8.952381680570301"><ele>116.66666666666666</ele><time>2026-03-28T10:20:45.998Z</time></trkpt><trkpt lat="39.030453718037954" lon="8.952226471884357"><ele>116.0</ele><time>2026-03-28T10:20:47.998Z</time></trkpt><trkpt lat="39.03048436782808" lon="8.95214377240911"><ele>118.66666666666666</ele><time>2026-03-28T10:20:48.998Z</time></trkpt><trkpt lat="39.03051619693756" lon="8.952062422584119"><ele>121.33333333333333</ele><time>2026-03-28T10:20:49.998Z</time></trkpt><trkpt lat="39.03055658067263" lon="8.9519857969075"><ele>124.0</ele><time>2026-03-28T10:20:50.998Z</time></trkpt><trkpt lat="39.03065917920186" lon="8.951878955747993"><ele>126.66666666666666</ele><time>2026-03-28T10:20:52.998Z</time></trkpt><trkpt lat="39.030708480170205" lon="8.951815808146788"><ele>129.33333333333334</ele><time>2026-03-28T10:20:53.998Z</time></trkpt><trkpt lat="39.03078020397072" lon="8.951750865988993"><ele>132.0</ele><time>2026-03-28T10:20:55.998Z</time></trkpt><trkpt lat="39.03083154598501" lon="8.951660418332384"><ele>132.4</ele><time>2026-03-28T10:20:57.998Z</time></trkpt><trkpt lat="39.030871365021774" lon="8.951574017340198"><ele>132.79999999999998</ele><time>2026-03-28T10:20:59.998Z</time></trkpt><trkpt lat="39.03080616132894" lon="8.951457286023063"><ele>133.2</ele><time>2026-03-28T10:21:01.998Z</time></trkpt><trkpt lat="39.03075470567315" lon="8.951392513140101"><ele>133.6</ele><time>2026-03-28T10:21:02.998Z</time></trkpt><trkpt lat="39.030648213840244" lon="8.951316720088789"><ele>134.0</ele><time>2026-03-28T10:21:04.998Z</time></trkpt><trkpt lat="39.03058249506616" lon="8.95127637003072"><ele>137.0</ele><time>2026-03-28T10:21:05.998Z</time></trkpt><trkpt lat="39.03051257098031" lon="8.951252260854188"><ele>140.0</ele><time>2026-03-28T10:21:06.998Z</time></trkpt><trkpt lat="39.03044783573514" lon="8.951242326920356"><ele>143.0</ele><time>2026-03-28T10:21:07.997Z</time></trkpt><trkpt lat="39.03038092976606" lon="8.951226001463716"><ele>146.0</ele><time>2026-03-28T10:21:08.997Z</time></trkpt><trkpt lat="39.03030795269439" lon="8.95119545396406"><ele>149.0</ele><time>2026-03-28T10:21:09.997Z</time></trkpt><trkpt lat="39.030243874853355" lon="8.951174348457503"><ele>152.0</ele><time>2026-03-28T10:21:10.997Z</time></trkpt><trkpt lat="39.03015602060945" lon="8.951135782873827"><ele>155.0</ele><time>2026-03-28T10:21:12.997Z</time></trkpt><trkpt lat="39.030064144305186" lon="8.951082843437478"><ele>155.0</ele><time>2026-03-28T10:21:14.997Z</time></trkpt><trkpt lat="39.02999498519289" lon="8.951055109366362"><ele>155.0</ele><time>2026-03-28T10:21:15.997Z</time></trkpt><trkpt lat="39.029869985504305" lon="8.951011790611018"><ele>155.0</ele><time>2026-03-28T10:21:17.997Z</time></trkpt><trkpt lat="39.02981138704155" lon="8.950977286600901"><ele>155.0</ele><time>2026-03-28T10:21:18.997Z</time></trkpt><trkpt lat="39.029748787418015" lon="8.950940723050298"><ele>155.0</ele><time>2026-03-28T10:21:20.997Z</time></trkpt><trkpt lat="39.02967594200705" lon="8.950891698324952"><ele>155.0</ele><time>2026-03-28T10:21:28Z</time></trkpt><trkpt lat="39.02958775398008" lon="8.950844456483896"><ele>157.83333333333331</ele><time>2026-03-28T10:21:29Z</time></trkpt><trkpt lat="39.0295104950548" lon="8.950808439652516"><ele>160.66666666666666</ele><time>2026-03-28T10:21:30Z</time></trkpt><trkpt lat="39.0294230755995" lon="8.950750254232606"><ele>163.5</ele><time>2026-03-28T10:21:31Z</time></trkpt><trkpt lat="39.02933820796886" lon="8.950688513721177"><ele>166.33333333333334</ele><time>2026-03-28T10:21:32Z</time></trkpt><trkpt lat="39.02926482013264" lon="8.950643758046386"><ele>169.16666666666669</ele><time>2026-03-28T10:21:33Z</time></trkpt><trkpt lat="39.029205500683325" lon="8.950614254399959"><ele>172.0</ele><time>2026-03-28T10:21:34Z</time></trkpt><trkpt lat="39.02911736172949" lon="8.950538201583646"><ele>172.0</ele><time>2026-03-28T10:21:36Z</time></trkpt><trkpt lat="39.029053674552955" lon="8.950440402133621"><ele>172.0</ele><time>2026-03-28T10:21:38Z</time></trkpt><trkpt lat="39.0289836913144" lon="8.950318938415235"><ele>172.0</ele><time>2026-03-28T10:21:40Z</time></trkpt><trkpt lat="39.028949001144944" lon="8.950249091466109"><ele>172.0</ele><time>2026-03-28T10:21:41Z</time></trkpt><trkpt lat="39.02891143163329" lon="8.950160084589589"><ele>172.0</ele><time>2026-03-28T10:21:42Z</time></trkpt><trkpt lat="39.02889506957372" lon="8.950070599329734"><ele>172.0</ele><time>2026-03-28T10:21:43Z</time></trkpt><trkpt lat="39.028873042464156" lon="8.949988435074737"><ele>173.6</ele><time>2026-03-28T10:21:44Z</time></trkpt><trkpt lat="39.02885926180815" lon="8.949823836431724"><ele>175.2</ele><time>2026-03-28T10:21:46Z</time></trkpt><trkpt lat="39.028857858374344" lon="8.949739244133548"><ele>176.8</ele><time>2026-03-28T10:21:47Z</time></trkpt><trkpt lat="39.02884155760395" lon="8.949584898671356"><ele>178.4</ele><time>2026-03-28T10:21:49Z</time></trkpt><trkpt lat="39.02882697008347" lon="8.949500236951144"><ele>180.0</ele><time>2026-03-28T10:21:50Z</time></trkpt><trkpt lat="39.02880632193413" lon="8.94937689769248"><ele>180.0</ele><time>2026-03-28T10:21:52Z</time></trkpt><trkpt lat="39.028773896575466" lon="8.949256624437265"><ele>180.0</ele><time>2026-03-28T10:21:54Z</time></trkpt><trkpt lat="39.02873171442104" lon="8.949114190895271"><ele>180.0</ele><time>2026-03-28T10:21:56Z</time></trkpt><trkpt lat="39.028708821887015" lon="8.948969031351899"><ele>180.0</ele><time>2026-03-28T10:21:57.999Z</time></trkpt><trkpt lat="39.02871952100342" lon="8.948829494328807"><ele>180.0</ele><time>2026-03-28T10:21:59.999Z</time></trkpt><trkpt lat="39.02871484957142" lon="8.948744704787845"><ele>183.33333333333334</ele><time>2026-03-28T10:22:01.999Z</time></trkpt><trkpt lat="39.02865230249382" lon="8.948677298992513"><ele>186.66666666666669</ele><time>2026-03-28T10:23:22.997Z</time></trkpt><trkpt lat="39.02864112935098" lon="8.948582228431004"><ele>190.0</ele><time>2026-03-28T10:23:24.997Z</time></trkpt><trkpt lat="39.028612049061486" lon="8.94848703019499"><ele>193.33333333333334</ele><time>2026-03-28T10:23:26.997Z</time></trkpt><trkpt lat="39.02863219078807" lon="8.94837479125264"><ele>196.66666666666669</ele><time>2026-03-28T10:23:28.997Z</time></trkpt><trkpt lat="39.02864460127697" lon="8.948239051176378"><ele>200.0</ele><time>2026-03-28T10:23:31Z</time></trkpt><trkpt lat="39.02862981071146" lon="8.9481445110503"><ele>203.2</ele><time>2026-03-28T10:23:33Z</time></trkpt><trkpt lat="39.028590484080944" lon="8.947999672139185"><ele>206.4</ele><time>2026-03-28T10:23:35Z</time></trkpt><trkpt lat="39.02855278753501" lon="8.947837765996416"><ele>209.60000000000002</ele><time>2026-03-28T10:23:37Z</time></trkpt><trkpt lat="39.02854413424693" lon="8.947753530978499"><ele>212.8</ele><time>2026-03-28T10:23:38Z</time></trkpt><trkpt lat="39.02854287924381" lon="8.947630369109957"><ele>216.0</ele><time>2026-03-28T10:23:40Z</time></trkpt><trkpt lat="39.028535949651506" lon="8.94753873178257"><ele>214.33333333333334</ele><time>2026-03-28T10:23:42Z</time></trkpt><trkpt lat="39.028493236382616" lon="8.947425725250646"><ele>212.66666666666669</ele><time>2026-03-28T10:23:44Z</time></trkpt><trkpt lat="39.02843340210438" lon="8.947294771383318"><ele>211.0</ele><time>2026-03-28T10:23:46Z</time></trkpt><trkpt lat="39.02839374735867" lon="8.94721937798896"><ele>209.33333333333334</ele><time>2026-03-28T10:23:47Z</time></trkpt><trkpt lat="39.02836378897495" lon="8.947146040788436"><ele>207.66666666666669</ele><time>2026-03-28T10:23:48Z</time></trkpt><trkpt lat="39.028337249886704" lon="8.947062547009324"><ele>206.0</ele><time>2026-03-28T10:23:49Z</time></trkpt><trkpt lat="39.028298911425864" lon="8.946973973503802"><ele>206.00000000000003</ele><time>2026-03-28T10:23:50Z</time></trkpt><trkpt lat="39.02827240707638" lon="8.946897274925908"><ele>206.0</ele><time>2026-03-28T10:23:51Z</time></trkpt><trkpt lat="39.02822269559045" lon="8.946751475887893"><ele>206.0</ele><time>2026-03-28T10:23:53Z</time></trkpt><trkpt lat="39.02818402635833" lon="8.9466757985596"><ele>206.0</ele><time>2026-03-28T10:23:54Z</time></trkpt><trkpt lat="39.02813833722765" lon="8.946615500431049"><ele>206.00000000000003</ele><time>2026-03-28T10:23:55Z</time></trkpt><trkpt lat="39.028071655789084" lon="8.946485529822674"><ele>206.0</ele><time>2026-03-28T10:23:57Z</time></trkpt><trkpt lat="39.02801353330886" lon="8.946427211181845"><ele>210.50000000000003</ele><time>2026-03-28T10:23:58Z</time></trkpt><trkpt lat="39.02796265255272" lon="8.94635650880221"><ele>215.0</ele><time>2026-03-28T10:23:59Z</time></trkpt><trkpt lat="39.02791821000054" lon="8.946281109177368"><ele>219.5</ele><time>2026-03-28T10:24:00Z</time></trkpt><trkpt lat="39.027864073562945" lon="8.94620982222631"><ele>224.0</ele><time>2026-03-28T10:24:01Z</time></trkpt><trkpt lat="39.02782855671975" lon="8.946121122948185"><ele>228.50000000000003</ele><time>2026-03-28T10:24:01.999Z</time></trkpt><trkpt lat="39.02779715477975" lon="8.946050395006322"><ele>233.0</ele><time>2026-03-28T10:24:02.999Z</time></trkpt><trkpt lat="39.027707825454854" lon="8.946014867633995"><ele>233.00000000000003</ele><time>2026-03-28T10:24:04.999Z</time></trkpt><trkpt lat="39.02763143249864" lon="8.945983524894654"><ele>233.0</ele><time>2026-03-28T10:24:06.999Z</time></trkpt><trkpt lat="39.02756757195949" lon="8.945937972460518"><ele>233.0</ele><time>2026-03-28T10:24:09.999Z</time></trkpt><trkpt lat="39.02749536103096" lon="8.945890562483441"><ele>233.0</ele><time>2026-03-28T10:24:12.999Z</time></trkpt><trkpt lat="39.0273919782781" lon="8.945813564005059"><ele>233.00000000000003</ele><time>2026-03-28T10:24:15.999Z</time></trkpt><trkpt lat="39.027328925338914" lon="8.945801592264438"><ele>233.0</ele><time>2026-03-28T10:24:17.999Z</time></trkpt><trkpt lat="39.02725984295696" lon="8.945788223059694"><ele>229.4</ele><time>2026-03-28T10:24:19.999Z</time></trkpt><trkpt lat="39.02719476938109" lon="8.94577581236059"><ele>225.8</ele><time>2026-03-28T10:24:20.999Z</time></trkpt><trkpt lat="39.02716165885434" lon="8.945672082338781"><ele>222.2</ele><time>2026-03-28T10:24:23.999Z</time></trkpt><trkpt lat="39.02713194084936" lon="8.945553579032998"><ele>218.6</ele><time>2026-03-28T10:24:25.999Z</time></trkpt><trkpt lat="39.02708170780348" lon="8.945378844057378"><ele>215.0</ele><time>2026-03-28T10:24:29.999Z</time></trkpt><trkpt lat="39.02703658837342" lon="8.94529573272477"><ele>215.0</ele><time>2026-03-28T10:24:31.999Z</time></trkpt><trkpt lat="39.02694542322767" lon="8.945114670325392"><ele>215.0</ele><time>2026-03-28T10:24:33.999Z</time></trkpt><trkpt lat="39.02690281346447" lon="8.945014537819972"><ele>215.0</ele><time>2026-03-28T10:24:35.999Z</time></trkpt><trkpt lat="39.02685811268822" lon="8.944920135181722"><ele>215.0</ele><time>2026-03-28T10:24:38.999Z</time></trkpt><trkpt lat="39.02681366140963" lon="8.944857103553566"><ele>215.0</ele><time>2026-03-28T10:24:41.998Z</time></trkpt><trkpt lat="39.02674844061753" lon="8.944817625905703"><ele>214.50000000000003</ele><time>2026-03-28T10:24:44.998Z</time></trkpt><trkpt lat="39.026697922181796" lon="8.944902049151967"><ele>214.0</ele><time>2026-03-28T10:24:47.998Z</time></trkpt><trkpt lat="39.02666655752328" lon="8.944997998089857"><ele>213.5</ele><time>2026-03-28T10:24:52.998Z</time></trkpt><trkpt lat="39.02664164214131" lon="8.945092259073013"><ele>213.0</ele><time>2026-03-28T10:24:55.998Z</time></trkpt><trkpt lat="39.0266434728447" lon="8.945176856438849"><ele>212.50000000000003</ele><time>2026-03-28T10:24:57.998Z</time></trkpt><trkpt lat="39.02657633786589" lon="8.945130300042223"><ele>212.0</ele><time>2026-03-28T10:25:00.998Z</time></trkpt><trkpt lat="39.02656478864097" lon="8.945035361063049"><ele>206.83333333333334</ele><time>2026-03-28T10:25:02.998Z</time></trkpt><trkpt lat="39.026520331661025" lon="8.944959230365866"><ele>201.66666666666669</ele><time>2026-03-28T10:25:04.998Z</time></trkpt><trkpt lat="39.02646248635972" lon="8.944898326617098"><ele>196.5</ele><time>2026-03-28T10:25:06.998Z</time></trkpt><trkpt lat="39.02639455233255" lon="8.94484523912994"><ele>191.33333333333334</ele><time>2026-03-28T10:25:08.998Z</time></trkpt><trkpt lat="39.02633433971028" lon="8.944777067765479"><ele>186.16666666666669</ele><time>2026-03-28T10:25:10.998Z</time></trkpt><trkpt lat="39.02625139533787" lon="8.944678483622742"><ele>181.0</ele><time>2026-03-28T10:25:14.998Z</time></trkpt><trkpt lat="39.02618615157009" lon="8.944626106940095"><ele>181.0</ele><time>2026-03-28T10:25:16.998Z</time></trkpt><trkpt lat="39.02610770034546" lon="8.944498617065356"><ele>181.0</ele><time>2026-03-28T10:25:20.998Z</time></trkpt><trkpt lat="39.02603714789443" lon="8.944388099629887"><ele>181.0</ele><time>2026-03-28T10:25:23.997Z</time></trkpt><trkpt lat="39.02595793585998" lon="8.944330277373245"><ele>181.0</ele><time>2026-03-28T10:25:25.997Z</time></trkpt><trkpt lat="39.02590132470214" lon="8.944370370287045"><ele>181.0</ele><time>2026-03-28T10:25:27.997Z</time></trkpt><trkpt lat="39.025886020009" lon="8.944489964559061"><ele>181.0</ele><time>2026-03-28T10:25:30.997Z</time></trkpt><trkpt lat="39.025883937507984" lon="8.944606823696752"><ele>181.0</ele><time>2026-03-28T10:25:32.997Z</time></trkpt><trkpt lat="39.025886284973794" lon="8.944719730758393"><ele>181.0</ele><time>2026-03-28T10:25:34.997Z</time></trkpt><trkpt lat="39.02589265683587" lon="8.944818447054622"><ele>181.0</ele><time>2026-03-28T10:25:37Z</time></trkpt><trkpt lat="39.02581814770219" lon="8.94480265779848"><ele>181.0</ele><time>2026-03-28T10:25:40Z</time></trkpt><trkpt lat="39.02578803581773" lon="8.944685066791868"><ele>181.0</ele><time>2026-03-28T10:25:50Z</time></trkpt><trkpt lat="39.025706983175986" lon="8.944608132958521"><ele>176.16666666666669</ele><time>2026-03-28T10:25:52Z</time></trkpt><trkpt lat="39.02562309098787" lon="8.944621617638722"><ele>171.33333333333334</ele><time>2026-03-28T10:25:54Z</time></trkpt><trkpt lat="39.02555300074015" lon="8.944600954841897"><ele>166.5</ele><time>2026-03-28T10:25:56Z</time></trkpt><trkpt lat="39.02548127608751" lon="8.944620657507487"><ele>161.66666666666666</ele><time>2026-03-28T10:25:58Z</time></trkpt><trkpt lat="39.02539107121297" lon="8.944638737280004"><ele>156.83333333333331</ele><time>2026-03-28T10:26:01Z</time></trkpt><trkpt lat="39.02531349381747" lon="8.944642881994477"><ele>152.0</ele><time>2026-03-28T10:26:03Z</time></trkpt><trkpt lat="39.02521514283797" lon="8.944662917162477"><ele>152.0</ele><time>2026-03-28T10:26:06Z</time></trkpt><trkpt lat="39.02512110363903" lon="8.944679974588857"><ele>152.0</ele><time>2026-03-28T10:26:08Z</time></trkpt><trkpt lat="39.025056197332056" lon="8.9446891050125"><ele>152.0</ele><time>2026-03-28T10:26:09.999Z</time></trkpt><trkpt lat="39.02499012919095" lon="8.944711146035312"><ele>152.0</ele><time>2026-03-28T10:26:11.999Z</time></trkpt><trkpt lat="39.02490848700931" lon="8.944732301197993"><ele>152.0</ele><time>2026-03-28T10:26:14.999Z</time></trkpt><trkpt lat="39.02483799111906" lon="8.944732908296992"><ele>152.0</ele><time>2026-03-28T10:26:16.999Z</time></trkpt><trkpt lat="39.0247605862741" lon="8.944704331362438"><ele>148.7142857142857</ele><time>2026-03-28T10:26:18.999Z</time></trkpt><trkpt lat="39.024687315032" lon="8.944664184634194"><ele>145.42857142857144</ele><time>2026-03-28T10:26:21.999Z</time></trkpt><trkpt lat="39.02464638330754" lon="8.944602347317934"><ele>142.14285714285714</ele><time>2026-03-28T10:26:23.999Z</time></trkpt><trkpt lat="39.02463618032274" lon="8.944512830124419"><ele>138.85714285714283</ele><time>2026-03-28T10:26:25.999Z</time></trkpt><trkpt lat="39.02464098563696" lon="8.944425601987527"><ele>135.57142857142856</ele><time>2026-03-28T10:26:27.999Z</time></trkpt><trkpt lat="39.024636788921725" lon="8.944338795913286"><ele>132.28571428571428</ele><time>2026-03-28T10:26:29.999Z</time></trkpt><trkpt lat="39.02457580968376" lon="8.944387480964805"><ele>129.0</ele><time>2026-03-28T10:26:33.999Z</time></trkpt><trkpt lat="39.02455169578794" lon="8.94449923486855"><ele>129.0</ele><time>2026-03-28T10:26:35.999Z</time></trkpt><trkpt lat="39.02452153829035" lon="8.94458637724613"><ele>129.0</ele><time>2026-03-28T10:26:37.999Z</time></trkpt><trkpt lat="39.02448758795964" lon="8.94469250185379"><ele>129.0</ele><time>2026-03-28T10:26:39.999Z</time></trkpt><trkpt lat="39.02444995225941" lon="8.944811482265232"><ele>129.0</ele><time>2026-03-28T10:26:41.999Z</time></trkpt><trkpt lat="39.02440522039618" lon="8.944917549718587"><ele>129.0</ele><time>2026-03-28T10:26:43.999Z</time></trkpt><trkpt lat="39.024332912270374" lon="8.945014182958996"><ele>129.0</ele><time>2026-03-28T10:26:45.999Z</time></trkpt><trkpt lat="39.02423815207358" lon="8.945020531147733"><ele>129.0</ele><time>2026-03-28T10:26:47.999Z</time></trkpt><trkpt lat="39.024172654075485" lon="8.945021095673761"><ele>129.0</ele><time>2026-03-28T10:26:50.998Z</time></trkpt><trkpt lat="39.02406573765098" lon="8.945044970718719"><ele>129.0</ele><time>2026-03-28T10:26:53.998Z</time></trkpt><trkpt lat="39.0240022200069" lon="8.94508281208182"><ele>129.0</ele><time>2026-03-28T10:26:56.998Z</time></trkpt><trkpt lat="39.02389978062885" lon="8.945162719843708"><ele>127.85714285714283</ele><time>2026-03-28T10:28:05Z</time></trkpt><trkpt lat="39.02386393050387" lon="8.945081833945746"><ele>126.71428571428571</ele><time>2026-03-28T10:28:08Z</time></trkpt><trkpt lat="39.023830736822326" lon="8.945004552496027"><ele>125.57142857142856</ele><time>2026-03-28T10:28:11Z</time></trkpt><trkpt lat="39.02379455621635" lon="8.94490732086396"><ele>124.42857142857142</ele><time>2026-03-28T10:28:14Z</time></trkpt><trkpt lat="39.023743330453534" lon="8.944831822561412"><ele>123.28571428571428</ele><time>2026-03-28T10:28:16.999Z</time></trkpt><trkpt lat="39.02370408892634" lon="8.944768459170941"><ele>122.14285714285714</ele><time>2026-03-28T10:28:18.999Z</time></trkpt><trkpt lat="39.023652809160836" lon="8.944682964003857"><ele>121.0</ele><time>2026-03-28T10:28:21.999Z</time></trkpt><trkpt lat="39.02358415192072" lon="8.944647060568688"><ele>119.57142857142857</ele><time>2026-03-28T10:28:57.998Z</time></trkpt><trkpt lat="39.02355165774909" lon="8.944561689089042"><ele>118.14285714285714</ele><time>2026-03-28T10:29:00.998Z</time></trkpt><trkpt lat="39.02355763039726" lon="8.944470945356418"><ele>116.71428571428571</ele><time>2026-03-28T10:29:02.998Z</time></trkpt><trkpt lat="39.02355699596825" lon="8.944369608055835"><ele>115.28571428571428</ele><time>2026-03-28T10:29:04.998Z</time></trkpt><trkpt lat="39.02356558322301" lon="8.944252576454064"><ele>113.85714285714286</ele><time>2026-03-28T10:29:07.998Z</time></trkpt><trkpt lat="39.02358523938291" lon="8.944173398317444"><ele>112.42857142857142</ele><time>2026-03-28T10:29:09.998Z</time></trkpt><trkpt lat="39.02361224429215" lon="8.944095732844906"><ele>111.0</ele><time>2026-03-28T10:29:12.998Z</time></trkpt><trkpt lat="39.02362543135405" lon="8.944005194462665"><ele>110.0</ele><time>2026-03-28T10:29:14.998Z</time></trkpt><trkpt lat="39.02365668242561" lon="8.943922008228606"><ele>109.0</ele><time>2026-03-28T10:29:15.998Z</time></trkpt><trkpt lat="39.02371262422466" lon="8.943808533215483"><ele>108.0</ele><time>2026-03-28T10:29:17.998Z</time></trkpt><trkpt lat="39.02376537416643" lon="8.943702467970922"><ele>107.0</ele><time>2026-03-28T10:29:19.998Z</time></trkpt><trkpt lat="39.02382837001419" lon="8.943637824749462"><ele>106.0</ele><time>2026-03-28T10:29:25.998Z</time></trkpt><trkpt lat="39.02387689948668" lon="8.94353322428891"><ele>105.0</ele><time>2026-03-28T10:29:27.998Z</time></trkpt><trkpt lat="39.02390949095911" lon="8.943386037440606"><ele>105.16666666666667</ele><time>2026-03-28T10:29:29.998Z</time></trkpt><trkpt lat="39.023930945977355" lon="8.94327678766006"><ele>105.33333333333334</ele><time>2026-03-28T10:29:31.998Z</time></trkpt><trkpt lat="39.02391377976238" lon="8.943176747243784"><ele>105.5</ele><time>2026-03-28T10:29:34.998Z</time></trkpt><trkpt lat="39.02388928692883" lon="8.943085135915421"><ele>105.66666666666667</ele><time>2026-03-28T10:29:37.997Z</time></trkpt><trkpt lat="39.02384258660746" lon="8.943011008356903"><ele>105.83333333333334</ele><time>2026-03-28T10:29:39.997Z</time></trkpt><trkpt lat="39.02380014567394" lon="8.942924577574535"><ele>106.0</ele><time>2026-03-28T10:29:41.997Z</time></trkpt><trkpt lat="39.02377955484014" lon="8.942820871886441"><ele>106.00000000000001</ele><time>2026-03-28T10:29:43.997Z</time></trkpt><trkpt lat="39.023771124995434" lon="8.94270219791002"><ele>106.0</ele><time>2026-03-28T10:29:46.997Z</time></trkpt><trkpt lat="39.02379289511146" lon="8.942595544272823"><ele>106.0</ele><time>2026-03-28T10:29:49Z</time></trkpt><trkpt lat="39.0238493938871" lon="8.942519751430096"><ele>106.0</ele><time>2026-03-28T10:29:53Z</time></trkpt><trkpt lat="39.02395061673517" lon="8.94252400759384"><ele>106.00000000000001</ele><time>2026-03-28T10:29:57Z</time></trkpt><trkpt lat="39.0240308620777" lon="8.942494648783555"><ele>106.0</ele><time>2026-03-28T10:31:19.998Z</time></trkpt><trkpt lat="39.02403063176227" lon="8.942403622415675"><ele>106.66666666666667</ele><time>2026-03-28T10:31:59Z</time></trkpt><trkpt lat="39.0239679264601" lon="8.942371706844103"><ele>107.33333333333334</ele><time>2026-03-28T10:32:04Z</time></trkpt><trkpt lat="39.02391120707986" lon="8.942332160055477"><ele>108.0</ele><time>2026-03-28T10:32:11Z</time></trkpt><trkpt lat="39.02385514058747" lon="8.942264048098085"><ele>108.66666666666666</ele><time>2026-03-28T10:32:18Z</time></trkpt><trkpt lat="39.023821981595965" lon="8.942182852069841"><ele>109.33333333333333</ele><time>2026-03-28T10:32:21Z</time></trkpt><trkpt lat="39.02377747824455" lon="8.942117118339587"><ele>110.0</ele><time>2026-03-28T10:32:27Z</time></trkpt><trkpt lat="39.0236638419148" lon="8.942057454271012"><ele>110.0</ele><time>2026-03-28T10:32:28.999Z</time></trkpt><trkpt lat="39.0235274399728" lon="8.941990355879511"><ele>110.0</ele><time>2026-03-28T10:32:30.999Z</time></trkpt><trkpt lat="39.02339049806653" lon="8.941921200739682"><ele>110.0</ele><time>2026-03-28T10:32:32.999Z</time></trkpt><trkpt lat="39.023313317547874" lon="8.941857068694693"><ele>110.0</ele><time>2026-03-28T10:32:34.999Z</time></trkpt><trkpt lat="39.023228255759925" lon="8.94178507410159"><ele>112.33333333333333</ele><time>2026-03-28T10:32:36.999Z</time></trkpt><trkpt lat="39.023148030979975" lon="8.941700475886963"><ele>114.66666666666666</ele><time>2026-03-28T10:32:38.999Z</time></trkpt><trkpt lat="39.023070547198614" lon="8.941667424439194"><ele>117.0</ele><time>2026-03-28T10:32:39.999Z</time></trkpt><trkpt lat="39.02296944539272" lon="8.941630231041296"><ele>119.33333333333334</ele><time>2026-03-28T10:32:41.999Z</time></trkpt><trkpt lat="39.02291116784853" lon="8.941594325308852"><ele>121.66666666666667</ele><time>2026-03-28T10:32:42.999Z</time></trkpt><trkpt lat="39.02285876003891" lon="8.941534947157752"><ele>124.0</ele><time>2026-03-28T10:32:43.999Z</time></trkpt><trkpt lat="39.022874748633505" lon="8.941451369004369"><ele>124.0</ele><time>2026-03-28T10:32:46.999Z</time></trkpt><trkpt lat="39.0229499357271" lon="8.941406068443133"><ele>124.0</ele><time>2026-03-28T10:32:49.999Z</time></trkpt><trkpt lat="39.02301910006869" lon="8.941353077310204"><ele>124.0</ele><time>2026-03-28T10:32:52.999Z</time></trkpt><trkpt lat="39.02299299202337" lon="8.941244228049538"><ele>124.0</ele><time>2026-03-28T10:32:55.999Z</time></trkpt></trkseg><trkseg><trkpt lat="39.02278241247274" lon="8.94113465653349"><ele>124.0</ele><time>2026-03-28T10:50:57.804Z</time></trkpt><trkpt lat="39.02285338200604" lon="8.941154087765744"><ele>124.00000000000001</ele><time>2026-03-28T10:51:00.999Z</time></trkpt><trkpt lat="39.0229123752014" lon="8.941205246253485"><ele>124.0</ele><time>2026-03-28T10:51:02.999Z</time></trkpt><trkpt lat="39.02290350020341" lon="8.941090160560965"><ele>124.0</ele><time>2026-03-28T10:53:28.999Z</time></trkpt><trkpt lat="39.022939833416366" lon="8.941163697883978"><ele>124.00000000000001</ele><time>2026-03-28T10:54:02.998Z</time></trkpt><trkpt lat="39.0229854600422" lon="8.941231281163066"><ele>124.0</ele><time>2026-03-28T10:54:06.998Z</time></trkpt><trkpt lat="39.02305293515302" lon="8.94124478772209"><ele>124.0</ele><time>2026-03-28T10:54:20.998Z</time></trkpt><trkpt lat="39.022974350295414" lon="8.94118246262314"><ele>124.00000000000001</ele><time>2026-03-28T10:54:50Z</time></trkpt><trkpt lat="39.02291856893173" lon="8.941132432809933"><ele>124.0</ele><time>2026-03-28T10:54:51Z</time></trkpt><trkpt lat="39.022856412782815" lon="8.941095536815386"><ele>124.0</ele><time>2026-03-28T10:54:52Z</time></trkpt><trkpt lat="39.022798353122845" lon="8.941039431672072"><ele>124.0</ele><time>2026-03-28T10:54:53Z</time></trkpt><trkpt lat="39.022745578228125" lon="8.940987416208296"><ele>124.00000000000001</ele><time>2026-03-28T10:54:54Z</time></trkpt><trkpt lat="39.02266151710322" lon="8.940924092701815"><ele>124.0</ele><time>2026-03-28T10:54:56Z</time></trkpt><trkpt lat="39.02256977288608" lon="8.940826823402354"><ele>124.50000000000001</ele><time>2026-03-28T10:54:58Z</time></trkpt><trkpt lat="39.022508718978926" lon="8.940787963194623"><ele>125.0</ele><time>2026-03-28T10:54:59Z</time></trkpt><trkpt lat="39.02243283437501" lon="8.940697842256952"><ele>125.5</ele><time>2026-03-28T10:55:01Z</time></trkpt><trkpt lat="39.02234907941221" lon="8.940621716257716"><ele>126.0</ele><time>2026-03-28T10:55:03Z</time></trkpt><trkpt lat="39.02225867332963" lon="8.940621298191093"><ele>126.50000000000001</ele><time>2026-03-28T10:55:06Z</time></trkpt><trkpt lat="39.02219182027536" lon="8.94059962256193"><ele>127.0</ele><time>2026-03-28T10:55:08Z</time></trkpt><trkpt lat="39.02211513258526" lon="8.940563851013339"><ele>125.28571428571429</ele><time>2026-03-28T10:55:10Z</time></trkpt><trkpt lat="39.02203455931577" lon="8.940519909223719"><ele>123.57142857142856</ele><time>2026-03-28T10:55:12Z</time></trkpt><trkpt lat="39.02197264677954" lon="8.940565293780853"><ele>121.85714285714285</ele><time>2026-03-28T10:55:15Z</time></trkpt><trkpt lat="39.02191862554974" lon="8.940613838457237"><ele>120.14285714285714</ele><time>2026-03-28T10:55:17Z</time></trkpt><trkpt lat="39.021880262280725" lon="8.940684632364258"><ele>118.42857142857142</ele><time>2026-03-28T10:55:19.999Z</time></trkpt><trkpt lat="39.021827125047245" lon="8.940743656437888"><ele>116.7142857142857</ele><time>2026-03-28T10:55:20.999Z</time></trkpt><trkpt lat="39.02176059699108" lon="8.940803481198456"><ele>114.99999999999999</ele><time>2026-03-28T10:55:22.999Z</time></trkpt><trkpt lat="39.02169304366481" lon="8.940883517051942"><ele>111.66666666666667</ele><time>2026-03-28T10:55:25.999Z</time></trkpt><trkpt lat="39.021445643316916" lon="8.941084765385124"><ele>108.33333333333334</ele><time>2026-03-28T10:55:26.999Z</time></trkpt><trkpt lat="39.02139092448594" lon="8.941184392321551"><ele>105.0</ele><time>2026-03-28T10:55:27.999Z</time></trkpt><trkpt lat="39.021335747056746" lon="8.941286967776014"><ele>105.0</ele><time>2026-03-28T10:55:28.999Z</time></trkpt><trkpt lat="39.02128308884437" lon="8.941389493697484"><ele>105.0</ele><time>2026-03-28T10:55:29.999Z</time></trkpt><trkpt lat="39.02123833675692" lon="8.941494937718904"><ele>105.0</ele><time>2026-03-28T10:55:30.999Z</time></trkpt><trkpt lat="39.021226452069826" lon="8.941640291537132"><ele>105.0</ele><time>2026-03-28T10:55:31.999Z</time></trkpt><trkpt lat="39.021214975436706" lon="8.941812385633922"><ele>105.0</ele><time>2026-03-28T10:55:32.999Z</time></trkpt><trkpt lat="39.0211886681813" lon="8.941939469505316"><ele>104.6</ele><time>2026-03-28T10:55:33.999Z</time></trkpt><trkpt lat="39.02115679625532" lon="8.942069660236285"><ele>104.2</ele><time>2026-03-28T10:55:34.999Z</time></trkpt><trkpt lat="39.021117228452056" lon="8.942191167016734"><ele>103.80000000000001</ele><time>2026-03-28T10:55:35.999Z</time></trkpt><trkpt lat="39.02104971607163" lon="8.942298833705248"><ele>103.4</ele><time>2026-03-28T10:55:36.999Z</time></trkpt><trkpt lat="39.02099005678544" lon="8.942392515032374"><ele>103.0</ele><time>2026-03-28T10:55:37.999Z</time></trkpt><trkpt lat="39.02095744074462" lon="8.942478700993048"><ele>102.66666666666667</ele><time>2026-03-28T10:55:38.999Z</time></trkpt><trkpt lat="39.02091327916958" lon="8.942566494263039"><ele>102.33333333333334</ele><time>2026-03-28T10:55:39.999Z</time></trkpt><trkpt lat="39.02089144428592" lon="8.942653090953385"><ele>102.0</ele><time>2026-03-28T10:55:40.999Z</time></trkpt><trkpt lat="39.02088488086022" lon="8.942756540741954"><ele>101.66666666666666</ele><time>2026-03-28T10:55:41.999Z</time></trkpt><trkpt lat="39.02086562004843" lon="8.94286153274174"><ele>101.33333333333333</ele><time>2026-03-28T10:55:42.999Z</time></trkpt><trkpt lat="39.02087181243916" lon="8.94296100919584"><ele>101.0</ele><time>2026-03-28T10:55:43.999Z</time></trkpt><trkpt lat="39.0208576923647" lon="8.943089847862076"><ele>101.0</ele><time>2026-03-28T10:55:44.999Z</time></trkpt><trkpt lat="39.020831105656384" lon="8.94319852212025"><ele>101.0</ele><time>2026-03-28T10:55:45.999Z</time></trkpt><trkpt lat="39.020800031465726" lon="8.94329635974701"><ele>101.0</ele><time>2026-03-28T10:55:46.999Z</time></trkpt><trkpt lat="39.02073963730802" lon="8.94340284787454"><ele>101.0</ele><time>2026-03-28T10:55:47.999Z</time></trkpt><trkpt lat="39.02068559693955" lon="8.943520406474146"><ele>101.0</ele><time>2026-03-28T10:55:48.999Z</time></trkpt><trkpt lat="39.02062693856624" lon="8.943657390084464"><ele>100.66666666666666</ele><time>2026-03-28T10:55:49.999Z</time></trkpt><trkpt lat="39.020584771201385" lon="8.943765235820967"><ele>100.33333333333333</ele><time>2026-03-28T10:55:50.999Z</time></trkpt><trkpt lat="39.02053498991308" lon="8.943874558927716"><ele>100.0</ele><time>2026-03-28T10:55:51.999Z</time></trkpt><trkpt lat="39.020491828780116" lon="8.943969941016285"><ele>99.66666666666666</ele><time>2026-03-28T10:55:52.999Z</time></trkpt><trkpt lat="39.02046140807868" lon="8.94406767859677"><ele>99.33333333333333</ele><time>2026-03-28T10:55:53.999Z</time></trkpt><trkpt lat="39.02044154415951" lon="8.94416393222477"><ele>99.0</ele><time>2026-03-28T10:55:54.999Z</time></trkpt><trkpt lat="39.020422552511" lon="8.944274412863788"><ele>98.66666666666667</ele><time>2026-03-28T10:55:55.999Z</time></trkpt><trkpt lat="39.02041271113539" lon="8.9443989573545"><ele>98.33333333333334</ele><time>2026-03-28T10:55:56.998Z</time></trkpt><trkpt lat="39.02040824081995" lon="8.944512398441542"><ele>98.0</ele><time>2026-03-28T10:55:57.998Z</time></trkpt><trkpt lat="39.0204077354309" lon="8.944607560808215"><ele>97.66666666666667</ele><time>2026-03-28T10:55:58.998Z</time></trkpt><trkpt lat="39.02040693507808" lon="8.94470269419509"><ele>97.33333333333334</ele><time>2026-03-28T10:55:59.998Z</time></trkpt><trkpt lat="39.02040989916032" lon="8.944804110204737"><ele>97.0</ele><time>2026-03-28T10:56:00.998Z</time></trkpt><trkpt lat="39.0204051012273" lon="8.944915063115198"><ele>97.0</ele><time>2026-03-28T10:56:01.998Z</time></trkpt><trkpt lat="39.020404894713586" lon="8.945045635710837"><ele>97.0</ele><time>2026-03-28T10:56:02.998Z</time></trkpt><trkpt lat="39.02040429785699" lon="8.945177186317169"><ele>97.0</ele><time>2026-03-28T10:56:03.998Z</time></trkpt><trkpt lat="39.02040781822331" lon="8.94530266163631"><ele>97.0</ele><time>2026-03-28T10:56:04.998Z</time></trkpt><trkpt lat="39.02040309559244" lon="8.945417121672937"><ele>97.0</ele><time>2026-03-28T10:56:05.998Z</time></trkpt><trkpt lat="39.020390769953565" lon="8.945532675362568"><ele>95.6</ele><time>2026-03-28T10:56:06.998Z</time></trkpt><trkpt lat="39.02037850012011" lon="8.945656572339677"><ele>94.19999999999999</ele><time>2026-03-28T10:56:07.998Z</time></trkpt><trkpt lat="39.02037505968102" lon="8.945782072213813"><ele>92.8</ele><time>2026-03-28T10:56:08.998Z</time></trkpt><trkpt lat="39.02037160990431" lon="8.945895128154307"><ele>91.4</ele><time>2026-03-28T10:56:09.998Z</time></trkpt><trkpt lat="39.02036228403639" lon="8.945978579920144"><ele>90.0</ele><time>2026-03-28T10:56:10.998Z</time></trkpt><trkpt lat="39.020323469847504" lon="8.946142526631434"><ele>89.16666666666667</ele><time>2026-03-28T10:56:12.998Z</time></trkpt><trkpt lat="39.020279635759486" lon="8.946239806724543"><ele>88.33333333333333</ele><time>2026-03-28T10:56:13.998Z</time></trkpt><trkpt lat="39.02023218813898" lon="8.946329705375694"><ele>87.5</ele><time>2026-03-28T10:56:14.998Z</time></trkpt><trkpt lat="39.02018887359485" lon="8.946416189625142"><ele>86.66666666666666</ele><time>2026-03-28T10:56:15.998Z</time></trkpt><trkpt lat="39.02012860555129" lon="8.946504471020035"><ele>85.83333333333333</ele><time>2026-03-28T10:56:16.998Z</time></trkpt><trkpt lat="39.02006714960567" lon="8.946597428654663"><ele>85.0</ele><time>2026-03-28T10:56:17.998Z</time></trkpt><trkpt lat="39.02001138377037" lon="8.946688832831693"><ele>84.2</ele><time>2026-03-28T10:56:18.998Z</time></trkpt><trkpt lat="39.01994215774812" lon="8.94676668973777"><ele>83.4</ele><time>2026-03-28T10:56:19.998Z</time></trkpt><trkpt lat="39.019861965648296" lon="8.946836419988298"><ele>82.6</ele><time>2026-03-28T10:56:20.998Z</time></trkpt><trkpt lat="39.01978731843367" lon="8.946925296858407"><ele>81.8</ele><time>2026-03-28T10:56:21.998Z</time></trkpt><trkpt lat="39.0197114946512" lon="8.947041153377036"><ele>81.0</ele><time>2026-03-28T10:56:22.998Z</time></trkpt><trkpt lat="39.019650078533765" lon="8.947175601167105"><ele>81.0</ele><time>2026-03-28T10:56:23.998Z</time></trkpt><trkpt lat="39.01961386066639" lon="8.947298733086903"><ele>81.0</ele><time>2026-03-28T10:56:24.998Z</time></trkpt><trkpt lat="39.01958070855488" lon="8.947404467874065"><ele>81.0</ele><time>2026-03-28T10:56:25.998Z</time></trkpt><trkpt lat="39.01954964891523" lon="8.947491153543817"><ele>81.0</ele><time>2026-03-28T10:56:26.998Z</time></trkpt><trkpt lat="39.0195116915882" lon="8.947583821555002"><ele>81.0</ele><time>2026-03-28T10:56:27.998Z</time></trkpt><trkpt lat="39.01946081343895" lon="8.947649513778627"><ele>81.0</ele><time>2026-03-28T10:56:28.998Z</time></trkpt><trkpt lat="39.01941062083382" lon="8.947730977765296"><ele>80.66666666666667</ele><time>2026-03-28T10:56:29.998Z</time></trkpt><trkpt lat="39.01935597809522" lon="8.947812454568325"><ele>80.33333333333333</ele><time>2026-03-28T10:56:30.998Z</time></trkpt><trkpt lat="39.01929564200263" lon="8.94788355734697"><ele>80.0</ele><time>2026-03-28T10:56:31.998Z</time></trkpt><trkpt lat="39.01922612224392" lon="8.947954519667078"><ele>79.66666666666666</ele><time>2026-03-28T10:56:32.998Z</time></trkpt><trkpt lat="39.01916538841268" lon="8.948021163953593"><ele>79.33333333333333</ele><time>2026-03-28T10:56:33.998Z</time></trkpt><trkpt lat="39.01911405861771" lon="8.948090117699726"><ele>79.0</ele><time>2026-03-28T10:56:34.997Z</time></trkpt><trkpt lat="39.01905809178917" lon="8.948153908898183"><ele>78.5</ele><time>2026-03-28T10:56:35.997Z</time></trkpt><trkpt lat="39.01899699600501" lon="8.948224639023689"><ele>78.0</ele><time>2026-03-28T10:56:36.997Z</time></trkpt><trkpt lat="39.018935301981806" lon="8.94827691359452"><ele>77.5</ele><time>2026-03-28T10:56:37.997Z</time></trkpt><trkpt lat="39.01887945898195" lon="8.94833583184455"><ele>77.0</ele><time>2026-03-28T10:56:38.997Z</time></trkpt><trkpt lat="39.01883063306406" lon="8.948394200205076"><ele>76.5</ele><time>2026-03-28T10:56:39.997Z</time></trkpt><trkpt lat="39.01876654862056" lon="8.948452315693602"><ele>76.0</ele><time>2026-03-28T10:56:40.997Z</time></trkpt><trkpt lat="39.018696736503635" lon="8.948498393672564"><ele>75.39999999999999</ele><time>2026-03-28T10:56:41.997Z</time></trkpt><trkpt lat="39.01862809750226" lon="8.948533811236727"><ele>74.8</ele><time>2026-03-28T10:56:42.997Z</time></trkpt><trkpt lat="39.018559073133844" lon="8.948573733062577"><ele>74.19999999999999</ele><time>2026-03-28T10:56:43.997Z</time></trkpt><trkpt lat="39.01849363304472" lon="8.948611533202532"><ele>73.6</ele><time>2026-03-28T10:56:44.997Z</time></trkpt><trkpt lat="39.01840269925429" lon="8.94869004616927"><ele>73.0</ele><time>2026-03-28T10:56:47Z</time></trkpt><trkpt lat="39.0183254803114" lon="8.948832768158667"><ele>72.6</ele><time>2026-03-28T10:56:49Z</time></trkpt><trkpt lat="39.0182794738553" lon="8.94893065979247"><ele>72.19999999999999</ele><time>2026-03-28T10:56:50Z</time></trkpt><trkpt lat="39.018226463014" lon="8.949035035559218"><ele>71.8</ele><time>2026-03-28T10:56:51Z</time></trkpt><trkpt lat="39.01818377761805" lon="8.949164450551216"><ele>71.39999999999999</ele><time>2026-03-28T10:56:52Z</time></trkpt><trkpt lat="39.018140183523144" lon="8.949279603057342"><ele>71.0</ele><time>2026-03-28T10:56:53Z</time></trkpt><trkpt lat="39.01810444374915" lon="8.949427085838614"><ele>71.0</ele><time>2026-03-28T10:56:54Z</time></trkpt><trkpt lat="39.018085553853325" lon="8.949574992783326"><ele>71.0</ele><time>2026-03-28T10:56:55Z</time></trkpt><trkpt lat="39.01806460606177" lon="8.949703116212001"><ele>71.0</ele><time>2026-03-28T10:56:56Z</time></trkpt><trkpt lat="39.01803690824145" lon="8.949818710054963"><ele>71.0</ele><time>2026-03-28T10:56:57Z</time></trkpt><trkpt lat="39.01801996373716" lon="8.949940379713045"><ele>71.0</ele><time>2026-03-28T10:56:58Z</time></trkpt><trkpt lat="39.01800938102848" lon="8.950098820348671"><ele>70.5</ele><time>2026-03-28T10:56:59Z</time></trkpt><trkpt lat="39.017997431372365" lon="8.950222693982239"><ele>70.0</ele><time>2026-03-28T10:57:00Z</time></trkpt><trkpt lat="39.01799249365027" lon="8.950339889523338"><ele>69.5</ele><time>2026-03-28T10:57:01Z</time></trkpt><trkpt lat="39.01799002703529" lon="8.95044001847136"><ele>69.0</ele><time>2026-03-28T10:57:02Z</time></trkpt><trkpt lat="39.01797223963574" lon="8.950529150477575"><ele>68.5</ele><time>2026-03-28T10:57:03Z</time></trkpt><trkpt lat="39.017939461371306" lon="8.950621056308988"><ele>68.0</ele><time>2026-03-28T10:57:04Z</time></trkpt><trkpt lat="39.01790875030335" lon="8.950700569425345"><ele>68.0</ele><time>2026-03-28T10:57:05Z</time></trkpt><trkpt lat="39.01788098265972" lon="8.950798071063412"><ele>68.0</ele><time>2026-03-28T10:57:06Z</time></trkpt><trkpt lat="39.017852882997055" lon="8.950887183504596"><ele>68.0</ele><time>2026-03-28T10:57:07Z</time></trkpt><trkpt lat="39.01778629536352" lon="8.950976759343472"><ele>68.0</ele><time>2026-03-28T10:57:09Z</time></trkpt><trkpt lat="39.017679819602385" lon="8.950918570253721"><ele>68.0</ele><time>2026-03-28T10:57:11Z</time></trkpt><trkpt lat="39.01760599736764" lon="8.950985519429109"><ele>68.0</ele><time>2026-03-28T10:57:12Z</time></trkpt><trkpt lat="39.017519290077075" lon="8.950951587420477"><ele>68.0</ele><time>2026-03-28T10:57:14Z</time></trkpt><trkpt lat="39.017536256602114" lon="8.950812355540965"><ele>68.0</ele><time>2026-03-28T10:57:16Z</time></trkpt><trkpt lat="39.01752741407511" lon="8.95072597983275"><ele>68.0</ele><time>2026-03-28T10:57:17Z</time></trkpt><trkpt lat="39.0175181691458" lon="8.950629136757664"><ele>68.0</ele><time>2026-03-28T10:57:18Z</time></trkpt><trkpt lat="39.01750896471475" lon="8.950531714551555"><ele>68.0</ele><time>2026-03-28T10:57:19Z</time></trkpt><trkpt lat="39.01749117447209" lon="8.950430448414746"><ele>67.4</ele><time>2026-03-28T10:57:20Z</time></trkpt><trkpt lat="39.017459999263444" lon="8.95032730125312"><ele>66.8</ele><time>2026-03-28T10:57:20.999Z</time></trkpt><trkpt lat="39.01744136839039" lon="8.950222400298506"><ele>66.2</ele><time>2026-03-28T10:57:21.999Z</time></trkpt><trkpt lat="39.01743208455635" lon="8.95011952061317"><ele>65.6</ele><time>2026-03-28T10:57:22.999Z</time></trkpt><trkpt lat="39.01738487062475" lon="8.94995749759756"><ele>65.0</ele><time>2026-03-28T10:57:24.999Z</time></trkpt><trkpt lat="39.01737032058331" lon="8.949850603265226"><ele>65.0</ele><time>2026-03-28T10:57:25.999Z</time></trkpt><trkpt lat="39.01732026659784" lon="8.949737622990702"><ele>65.0</ele><time>2026-03-28T10:57:26.999Z</time></trkpt><trkpt lat="39.017259630932834" lon="8.949623623086655"><ele>65.0</ele><time>2026-03-28T10:57:27.999Z</time></trkpt><trkpt lat="39.01719610575903" lon="8.949513011205068"><ele>65.0</ele><time>2026-03-28T10:57:28.999Z</time></trkpt><trkpt lat="39.017125896992376" lon="8.949422250714514"><ele>65.0</ele><time>2026-03-28T10:57:29.999Z</time></trkpt><trkpt lat="39.017058759073414" lon="8.949330648764578"><ele>65.0</ele><time>2026-03-28T10:57:30.999Z</time></trkpt><trkpt lat="39.01698796012604" lon="8.94926128241619"><ele>65.0</ele><time>2026-03-28T10:57:31.999Z</time></trkpt><trkpt lat="39.016936164645784" lon="8.949163192355657"><ele>65.0</ele><time>2026-03-28T10:57:32.999Z</time></trkpt><trkpt lat="39.01688015883823" lon="8.949073940041982"><ele>65.0</ele><time>2026-03-28T10:57:33.999Z</time></trkpt><trkpt lat="39.01681598422255" lon="8.948971669609202"><ele>65.0</ele><time>2026-03-28T10:57:34.999Z</time></trkpt><trkpt lat="39.016823465850344" lon="8.94887215787878"><ele>65.25</ele><time>2026-03-28T10:57:35.999Z</time></trkpt><trkpt lat="39.01662292686594" lon="8.94889996489391"><ele>65.5</ele><time>2026-03-28T10:57:36.999Z</time></trkpt><trkpt lat="39.0165604382365" lon="8.948824333107218"><ele>65.75</ele><time>2026-03-28T10:57:37.999Z</time></trkpt><trkpt lat="39.01648974583552" lon="8.948721511146967"><ele>66.0</ele><time>2026-03-28T10:57:38.999Z</time></trkpt><trkpt lat="39.01642927813227" lon="8.94860894753324"><ele>66.0</ele><time>2026-03-28T10:57:39.999Z</time></trkpt><trkpt lat="39.01639245567895" lon="8.948494797648696"><ele>66.0</ele><time>2026-03-28T10:57:40.999Z</time></trkpt><trkpt lat="39.016359924020385" lon="8.948367755855587"><ele>66.0</ele><time>2026-03-28T10:57:41.999Z</time></trkpt><trkpt lat="39.01634134542473" lon="8.948226204234427"><ele>66.0</ele><time>2026-03-28T10:57:42.999Z</time></trkpt><trkpt lat="39.01633843882059" lon="8.948101950148525"><ele>66.0</ele><time>2026-03-28T10:57:43.999Z</time></trkpt><trkpt lat="39.01636932884577" lon="8.947989282353856"><ele>66.16666666666667</ele><time>2026-03-28T10:57:44.999Z</time></trkpt><trkpt lat="39.01641538546068" lon="8.947869855141874"><ele>66.33333333333333</ele><time>2026-03-28T10:57:45.999Z</time></trkpt><trkpt lat="39.016453177275615" lon="8.947767874292708"><ele>66.5</ele><time>2026-03-28T10:57:46.999Z</time></trkpt><trkpt lat="39.016478974663166" lon="8.947664322894493"><ele>66.66666666666666</ele><time>2026-03-28T10:57:47.999Z</time></trkpt><trkpt lat="39.01648297953474" lon="8.947571203163122"><ele>66.83333333333333</ele><time>2026-03-28T10:57:48.999Z</time></trkpt><trkpt lat="39.01643690187804" lon="8.947503405212935"><ele>67.0</ele><time>2026-03-28T10:57:50.999Z</time></trkpt><trkpt lat="39.01634599662227" lon="8.947500998918757"><ele>67.6</ele><time>2026-03-28T10:57:52.999Z</time></trkpt><trkpt lat="39.01627873139837" lon="8.947520022617292"><ele>68.2</ele><time>2026-03-28T10:57:56.999Z</time></trkpt><trkpt lat="39.01613209028797" lon="8.947528600775422"><ele>68.8</ele><time>2026-03-28T10:57:59.998Z</time></trkpt><trkpt lat="39.016060331608394" lon="8.947493652114693"><ele>69.4</ele><time>2026-03-28T10:58:00.998Z</time></trkpt><trkpt lat="39.015992435341836" lon="8.947345458169995"><ele>70.0</ele><time>2026-03-28T10:58:02.998Z</time></trkpt><trkpt lat="39.015973412480875" lon="8.947230745056835"><ele>70.0</ele><time>2026-03-28T10:58:03.998Z</time></trkpt><trkpt lat="39.01595384774082" lon="8.94711394903702"><ele>70.0</ele><time>2026-03-28T10:58:04.998Z</time></trkpt><trkpt lat="39.01592526072256" lon="8.947002067713553"><ele>70.0</ele><time>2026-03-28T10:58:05.998Z</time></trkpt><trkpt lat="39.015909549939835" lon="8.94689888832476"><ele>70.0</ele><time>2026-03-28T10:58:06.998Z</time></trkpt><trkpt lat="39.01584684587823" lon="8.946772587227288"><ele>70.0</ele><time>2026-03-28T10:58:08.998Z</time></trkpt><trkpt lat="39.01578094634156" lon="8.9467172975468"><ele>70.33333333333333</ele><time>2026-03-28T10:58:09.998Z</time></trkpt><trkpt lat="39.01570467036313" lon="8.946666064719555"><ele>70.66666666666666</ele><time>2026-03-28T10:58:10.998Z</time></trkpt><trkpt lat="39.01561954346442" lon="8.946619275955813"><ele>71.0</ele><time>2026-03-28T10:58:11.998Z</time></trkpt><trkpt lat="39.01553408036952" lon="8.946555647997362"><ele>71.33333333333333</ele><time>2026-03-28T10:58:12.998Z</time></trkpt><trkpt lat="39.01546169610365" lon="8.946503901258913"><ele>71.66666666666667</ele><time>2026-03-28T10:58:13.998Z</time></trkpt><trkpt lat="39.01539836757884" lon="8.946470565235067"><ele>72.0</ele><time>2026-03-28T10:58:14.998Z</time></trkpt><trkpt lat="39.015346594909026" lon="8.94640821424298"><ele>72.0</ele><time>2026-03-28T10:58:15.998Z</time></trkpt><trkpt lat="39.0152868932825" lon="8.946313362317682"><ele>72.0</ele><time>2026-03-28T10:58:16.998Z</time></trkpt><trkpt lat="39.01522131904541" lon="8.946233507056121"><ele>72.0</ele><time>2026-03-28T10:58:17.998Z</time></trkpt><trkpt lat="39.01515852778391" lon="8.946172592786327"><ele>72.0</ele><time>2026-03-28T10:58:18.998Z</time></trkpt><trkpt lat="39.01512988436254" lon="8.946089426022537"><ele>72.0</ele><time>2026-03-28T10:58:19.998Z</time></trkpt><trkpt lat="39.015123080149834" lon="8.94596820255187"><ele>72.0</ele><time>2026-03-28T10:58:20.998Z</time></trkpt><trkpt lat="39.01510927152736" lon="8.94587496111938"><ele>72.6</ele><time>2026-03-28T10:58:21.998Z</time></trkpt><trkpt lat="39.01507063201833" lon="8.945782087038022"><ele>73.2</ele><time>2026-03-28T10:58:22.998Z</time></trkpt><trkpt lat="39.01503758240725" lon="8.945688823539655"><ele>73.8</ele><time>2026-03-28T10:58:23.998Z</time></trkpt><trkpt lat="39.01502170116594" lon="8.94557862701682"><ele>74.4</ele><time>2026-03-28T10:58:24.998Z</time></trkpt><trkpt lat="39.01502541343917" lon="8.945469399655389"><ele>75.0</ele><time>2026-03-28T10:58:25.998Z</time></trkpt><trkpt lat="39.01506922873888" lon="8.945311383319915"><ele>75.0</ele><time>2026-03-28T10:58:27.998Z</time></trkpt><trkpt lat="39.01510605950516" lon="8.945209513695639"><ele>75.0</ele><time>2026-03-28T10:58:28.998Z</time></trkpt><trkpt lat="39.01510389150327" lon="8.945081893470574"><ele>75.0</ele><time>2026-03-28T10:58:29.998Z</time></trkpt><trkpt lat="39.01507805323273" lon="8.944932317132173"><ele>75.0</ele><time>2026-03-28T10:58:30.998Z</time></trkpt><trkpt lat="39.01506457218062" lon="8.944807687626325"><ele>75.0</ele><time>2026-03-28T10:58:31.998Z</time></trkpt><trkpt lat="39.01506545170416" lon="8.944707760744064"><ele>75.4</ele><time>2026-03-28T10:58:32.998Z</time></trkpt><trkpt lat="39.015079463637136" lon="8.944623331385246"><ele>75.8</ele><time>2026-03-28T10:58:33.998Z</time></trkpt><trkpt lat="39.0151380720424" lon="8.944500089754358"><ele>76.2</ele><time>2026-03-28T10:58:35.998Z</time></trkpt><trkpt lat="39.01508074088855" lon="8.944421215706745"><ele>76.6</ele><time>2026-03-28T10:58:38.997Z</time></trkpt><trkpt lat="39.015019415576035" lon="8.944385226112685"><ele>77.0</ele><time>2026-03-28T10:58:40.997Z</time></trkpt><trkpt lat="39.01483574893738" lon="8.944395741986776"><ele>77.0</ele><time>2026-03-28T10:58:43.997Z</time></trkpt><trkpt lat="39.014751438500475" lon="8.944420214570133"><ele>77.0</ele><time>2026-03-28T10:58:44.997Z</time></trkpt><trkpt lat="39.014699785807586" lon="8.944472469721777"><ele>77.0</ele><time>2026-03-28T10:58:45.997Z</time></trkpt><trkpt lat="39.01463891725348" lon="8.944505876157995"><ele>77.0</ele><time>2026-03-28T10:58:46.997Z</time></trkpt><trkpt lat="39.01458519804035" lon="8.944432885486533"><ele>77.0</ele><time>2026-03-28T10:58:47.997Z</time></trkpt><trkpt lat="39.014543776561055" lon="8.944331099124522"><ele>77.0</ele><time>2026-03-28T10:58:48.997Z</time></trkpt><trkpt lat="39.01450742656744" lon="8.944229649621418"><ele>77.66666666666667</ele><time>2026-03-28T10:58:49.997Z</time></trkpt><trkpt lat="39.01442843534344" lon="8.944169821828691"><ele>78.33333333333334</ele><time>2026-03-28T10:58:50.997Z</time></trkpt><trkpt lat="39.01437058125497" lon="8.944111462573927"><ele>79.0</ele><time>2026-03-28T10:58:51.997Z</time></trkpt><trkpt lat="39.01430015258325" lon="8.943990941847991"><ele>79.66666666666667</ele><time>2026-03-28T10:58:54Z</time></trkpt><trkpt lat="39.0142658538288" lon="8.943920732437336"><ele>80.33333333333333</ele><time>2026-03-28T10:58:55Z</time></trkpt><trkpt lat="39.0141981555825" lon="8.94386890432993"><ele>81.0</ele><time>2026-03-28T10:58:57Z</time></trkpt><trkpt lat="39.01416446796452" lon="8.943760167346989"><ele>80.2</ele><time>2026-03-28T10:59:00Z</time></trkpt><trkpt lat="39.01408150891509" lon="8.943724555796182"><ele>79.39999999999999</ele><time>2026-03-28T10:59:01Z</time></trkpt><trkpt lat="39.01400368438891" lon="8.943684336353163"><ele>78.6</ele><time>2026-03-28T10:59:02Z</time></trkpt><trkpt lat="39.01389941048642" lon="8.943591767614071"><ele>77.8</ele><time>2026-03-28T10:59:03Z</time></trkpt><trkpt lat="39.01380694562138" lon="8.943527111039383"><ele>77.0</ele><time>2026-03-28T10:59:04Z</time></trkpt><trkpt lat="39.013732222433994" lon="8.943488550176799"><ele>77.83333333333334</ele><time>2026-03-28T10:59:06Z</time></trkpt><trkpt lat="39.01365001839834" lon="8.943355199312036"><ele>78.66666666666667</ele><time>2026-03-28T10:59:08Z</time></trkpt><trkpt lat="39.0135858127423" lon="8.943292786257235"><ele>79.5</ele><time>2026-03-28T10:59:09Z</time></trkpt><trkpt lat="39.013508714513506" lon="8.943252773308453"><ele>80.33333333333333</ele><time>2026-03-28T10:59:10Z</time></trkpt><trkpt lat="39.01343833410498" lon="8.943215292107634"><ele>81.16666666666666</ele><time>2026-03-28T10:59:11Z</time></trkpt><trkpt lat="39.01337726515683" lon="8.943166595250664"><ele>82.0</ele><time>2026-03-28T10:59:12Z</time></trkpt><trkpt lat="39.01333267732232" lon="8.943087578835033"><ele>82.19999999999999</ele><time>2026-03-28T10:59:13Z</time></trkpt><trkpt lat="39.01327480218173" lon="8.942987620302253"><ele>82.4</ele><time>2026-03-28T10:59:14Z</time></trkpt><trkpt lat="39.01320026605501" lon="8.942885177986165"><ele>82.6</ele><time>2026-03-28T10:59:15Z</time></trkpt><trkpt lat="39.01314228537226" lon="8.942789742251252"><ele>82.80000000000001</ele><time>2026-03-28T10:59:16Z</time></trkpt><trkpt lat="39.01308531170252" lon="8.942730821529125"><ele>83.0</ele><time>2026-03-28T10:59:17Z</time></trkpt><trkpt lat="39.01301047046762" lon="8.942706455172479"><ele>83.0</ele><time>2026-03-28T10:59:18Z</time></trkpt><trkpt lat="39.012915864879474" lon="8.942702451587792"><ele>83.0</ele><time>2026-03-28T10:59:19Z</time></trkpt><trkpt lat="39.01282518585164" lon="8.942691552971263"><ele>83.0</ele><time>2026-03-28T10:59:20Z</time></trkpt><trkpt lat="39.01273150782219" lon="8.94267283466375"><ele>83.0</ele><time>2026-03-28T10:59:20.999Z</time></trkpt><trkpt lat="39.012648702353495" lon="8.942637014340388"><ele>83.0</ele><time>2026-03-28T10:59:21.999Z</time></trkpt><trkpt lat="39.01256378476949" lon="8.9426007891436"><ele>83.0</ele><time>2026-03-28T10:59:22.999Z</time></trkpt><trkpt lat="39.01249707167834" lon="8.942566390823567"><ele>83.0</ele><time>2026-03-28T10:59:23.999Z</time></trkpt><trkpt lat="39.01243457627288" lon="8.94252421108744"><ele>83.0</ele><time>2026-03-28T10:59:24.999Z</time></trkpt><trkpt lat="39.01235640520605" lon="8.94241372096601"><ele>83.0</ele><time>2026-03-28T10:59:26.999Z</time></trkpt><trkpt lat="39.01229863495869" lon="8.942341968180925"><ele>83.0</ele><time>2026-03-28T10:59:27.999Z</time></trkpt><trkpt lat="39.012248594484454" lon="8.942291553594904"><ele>83.0</ele><time>2026-03-28T10:59:28.999Z</time></trkpt><trkpt lat="39.01220064935151" lon="8.942235455341118"><ele>83.5</ele><time>2026-03-28T10:59:30.999Z</time></trkpt><trkpt lat="39.012132849180205" lon="8.942248092602483"><ele>84.0</ele><time>2026-03-28T11:00:01.998Z</time></trkpt><trkpt lat="39.01216247861692" lon="8.942372659985086"><ele>84.5</ele><time>2026-03-28T11:00:47.997Z</time></trkpt><trkpt lat="39.01218075596119" lon="8.942472065137537"><ele>85.0</ele><time>2026-03-28T11:00:48.997Z</time></trkpt><trkpt lat="39.01213447826363" lon="8.942541328365007"><ele>85.5</ele><time>2026-03-28T11:00:50.997Z</time></trkpt><trkpt lat="39.01205171243589" lon="8.942561325934424"><ele>86.0</ele><time>2026-03-28T11:00:52.997Z</time></trkpt><trkpt lat="39.01194306815743" lon="8.94252646834137"><ele>86.0</ele><time>2026-03-28T11:00:54.997Z</time></trkpt><trkpt lat="39.011811121725316" lon="8.94251288813775"><ele>86.0</ele><time>2026-03-28T11:00:56.997Z</time></trkpt><trkpt lat="39.01171918160729" lon="8.94252084453842"><ele>86.0</ele><time>2026-03-28T11:00:57.997Z</time></trkpt><trkpt lat="39.011637377492065" lon="8.94254334747153"><ele>86.0</ele><time>2026-03-28T11:00:59Z</time></trkpt><trkpt lat="39.011562535497035" lon="8.942560149864416"><ele>86.0</ele><time>2026-03-28T11:01:00Z</time></trkpt><trkpt lat="39.011490920411376" lon="8.942557998434975"><ele>86.66666666666667</ele><time>2026-03-28T11:01:01Z</time></trkpt><trkpt lat="39.01141805224669" lon="8.942573513405193"><ele>87.33333333333334</ele><time>2026-03-28T11:01:02Z</time></trkpt><trkpt lat="39.01132003782823" lon="8.94257118789284"><ele>88.0</ele><time>2026-03-28T11:01:04Z</time></trkpt><trkpt lat="39.01128688500996" lon="8.942444313679022"><ele>88.66666666666667</ele><time>2026-03-28T11:01:06Z</time></trkpt><trkpt lat="39.011237292210275" lon="8.942361419310545"><ele>89.33333333333333</ele><time>2026-03-28T11:01:07Z</time></trkpt><trkpt lat="39.0111681448145" lon="8.942294804875575"><ele>90.0</ele><time>2026-03-28T11:01:08Z</time></trkpt><trkpt lat="39.01106484343562" lon="8.942251584323479"><ele>90.0</ele><time>2026-03-28T11:01:10Z</time></trkpt><trkpt lat="39.01097084191603" lon="8.942237547125494"><ele>90.0</ele><time>2026-03-28T11:01:11Z</time></trkpt><trkpt lat="39.010892550433596" lon="8.942223015620911"><ele>90.0</ele><time>2026-03-28T11:01:12Z</time></trkpt><trkpt lat="39.01078750845581" lon="8.942167284957506"><ele>90.0</ele><time>2026-03-28T11:01:14Z</time></trkpt><trkpt lat="39.010743020196394" lon="8.942102861008912"><ele>90.0</ele><time>2026-03-28T11:01:15Z</time></trkpt><trkpt lat="39.0106878474279" lon="8.94204244058751"><ele>90.0</ele><time>2026-03-28T11:01:16Z</time></trkpt><trkpt lat="39.0106071325309" lon="8.94201082307971"><ele>91.6</ele><time>2026-03-28T11:01:17Z</time></trkpt><trkpt lat="39.010532572290195" lon="8.94196221280784"><ele>93.2</ele><time>2026-03-28T11:01:18Z</time></trkpt><trkpt lat="39.010466860344785" lon="8.941882341306476"><ele>94.80000000000001</ele><time>2026-03-28T11:01:19Z</time></trkpt><trkpt lat="39.01041110306406" lon="8.94178177446817"><ele>96.4</ele><time>2026-03-28T11:01:20Z</time></trkpt><trkpt lat="39.010344741320424" lon="8.941678899487982"><ele>98.0</ele><time>2026-03-28T11:01:21Z</time></trkpt><trkpt lat="39.010303635670866" lon="8.941585527368728"><ele>97.99999999999999</ele><time>2026-03-28T11:01:22Z</time></trkpt><trkpt lat="39.010262856750586" lon="8.941510281827028"><ele>98.0</ele><time>2026-03-28T11:01:23Z</time></trkpt><trkpt lat="39.010227031014786" lon="8.941439706844118"><ele>98.0</ele><time>2026-03-28T11:01:24Z</time></trkpt><trkpt lat="39.01021277877911" lon="8.94133177345817"><ele>98.0</ele><time>2026-03-28T11:01:26Z</time></trkpt><trkpt lat="39.010235480884894" lon="8.941239578299161"><ele>97.99999999999999</ele><time>2026-03-28T11:01:26.999Z</time></trkpt><trkpt lat="39.01023982962276" lon="8.94115150625751"><ele>98.0</ele><time>2026-03-28T11:01:27.999Z</time></trkpt><trkpt lat="39.010226346121485" lon="8.941039660489238"><ele>97.99999999999999</ele><time>2026-03-28T11:01:28.999Z</time></trkpt><trkpt lat="39.01018659595186" lon="8.940939470059492"><ele>98.0</ele><time>2026-03-28T11:01:29.999Z</time></trkpt><trkpt lat="39.01013989312348" lon="8.940839494233643"><ele>98.0</ele><time>2026-03-28T11:01:30.999Z</time></trkpt><trkpt lat="39.01010394393183" lon="8.940763371679484"><ele>98.0</ele><time>2026-03-28T11:01:31.999Z</time></trkpt><trkpt lat="39.010049320334055" lon="8.9406854574418"><ele>97.99999999999999</ele><time>2026-03-28T11:01:34.999Z</time></trkpt><trkpt lat="39.00997922755863" lon="8.940609065567727"><ele>98.0</ele><time>2026-03-28T11:01:36.999Z</time></trkpt><trkpt lat="39.009903662933375" lon="8.94057455821207"><ele>100.49999999999999</ele><time>2026-03-28T11:01:40.999Z</time></trkpt><trkpt lat="39.00981555099162" lon="8.940535437985163"><ele>103.0</ele><time>2026-03-28T11:01:44.999Z</time></trkpt><trkpt lat="39.00981136528309" lon="8.940444715047127"><ele>105.5</ele><time>2026-03-28T11:01:46.999Z</time></trkpt><trkpt lat="39.00974846567826" lon="8.940343274184771"><ele>108.0</ele><time>2026-03-28T11:01:49.999Z</time></trkpt><trkpt lat="39.00971146376579" lon="8.940276899333309"><ele>110.49999999999999</ele><time>2026-03-28T11:01:55.999Z</time></trkpt><trkpt lat="39.0096707818776" lon="8.940193483995461"><ele>113.0</ele><time>2026-03-28T11:02:38.998Z</time></trkpt><trkpt lat="39.00962958621322" lon="8.940060549887779"><ele>111.80000000000001</ele><time>2026-03-28T11:02:40.998Z</time></trkpt><trkpt lat="39.00960238284542" lon="8.93995041744212"><ele>110.60000000000001</ele><time>2026-03-28T11:02:41.998Z</time></trkpt><trkpt lat="39.00955729402017" lon="8.939826834787036"><ele>109.39999999999999</ele><time>2026-03-28T11:02:42.998Z</time></trkpt><trkpt lat="39.00950439369287" lon="8.939705817504281"><ele>108.19999999999999</ele><time>2026-03-28T11:02:43.998Z</time></trkpt><trkpt lat="39.00944948525866" lon="8.939603946765313"><ele>107.0</ele><time>2026-03-28T11:02:44.998Z</time></trkpt><trkpt lat="39.00941029485266" lon="8.939528003106577"><ele>107.0</ele><time>2026-03-28T11:02:45.998Z</time></trkpt><trkpt lat="39.009392378537974" lon="8.939417229734277"><ele>106.99999999999999</ele><time>2026-03-28T11:02:47.997Z</time></trkpt><trkpt lat="39.00930584019489" lon="8.939350275729003"><ele>106.99999999999999</ele><time>2026-03-28T11:02:49.997Z</time></trkpt><trkpt lat="39.00924234340707" lon="8.939344722643693"><ele>107.0</ele><time>2026-03-28T11:02:50.997Z</time></trkpt><trkpt lat="39.00915754808076" lon="8.9391906612445"><ele>107.0</ele><time>2026-03-28T11:02:52.997Z</time></trkpt><trkpt lat="39.00909418541652" lon="8.939098980218073"><ele>107.39999999999999</ele><time>2026-03-28T11:02:53.997Z</time></trkpt><trkpt lat="39.00903106961604" lon="8.9390409118762"><ele>107.79999999999998</ele><time>2026-03-28T11:02:54.997Z</time></trkpt><trkpt lat="39.008958625286496" lon="8.939001699598057"><ele>108.2</ele><time>2026-03-28T11:02:55.997Z</time></trkpt><trkpt lat="39.0088594254074" lon="8.938984431788086"><ele>108.6</ele><time>2026-03-28T11:02:56.997Z</time></trkpt><trkpt lat="39.00873733820675" lon="8.938963254498516"><ele>109.0</ele><time>2026-03-28T11:02:57.997Z</time></trkpt><trkpt lat="39.008615324520605" lon="8.93891158799408"><ele>109.0</ele><time>2026-03-28T11:02:58.997Z</time></trkpt><trkpt lat="39.00849254022379" lon="8.938860542011184"><ele>109.0</ele><time>2026-03-28T11:02:59.997Z</time></trkpt><trkpt lat="39.008359936132756" lon="8.938816503025715"><ele>109.0</ele><time>2026-03-28T11:03:00.997Z</time></trkpt><trkpt lat="39.00826467370818" lon="8.93875889333323"><ele>109.0</ele><time>2026-03-28T11:03:01.997Z</time></trkpt><trkpt lat="39.00817295422769" lon="8.938658771334397"><ele>109.0</ele><time>2026-03-28T11:03:02.997Z</time></trkpt><trkpt lat="39.008085000535814" lon="8.938545724705296"><ele>109.0</ele><time>2026-03-28T11:03:03.997Z</time></trkpt><trkpt lat="39.00799114293788" lon="8.938473570221428"><ele>109.0</ele><time>2026-03-28T11:03:05Z</time></trkpt><trkpt lat="39.007880901445446" lon="8.938416278080616"><ele>109.0</ele><time>2026-03-28T11:03:06Z</time></trkpt><trkpt lat="39.00778539901635" lon="8.938373580678366"><ele>109.00000000000001</ele><time>2026-03-28T11:03:07Z</time></trkpt><trkpt lat="39.00768540304574" lon="8.93833008935412"><ele>109.0</ele><time>2026-03-28T11:03:08Z</time></trkpt><trkpt lat="39.00760965965273" lon="8.938319640499955"><ele>109.0</ele><time>2026-03-28T11:03:09Z</time></trkpt><trkpt lat="39.00753330219758" lon="8.938317602956356"><ele>109.0</ele><time>2026-03-28T11:03:10Z</time></trkpt><trkpt lat="39.007458211731425" lon="8.938290767808123"><ele>109.00000000000001</ele><time>2026-03-28T11:03:11Z</time></trkpt><trkpt lat="39.00740537546301" lon="8.938234993630909"><ele>109.0</ele><time>2026-03-28T11:03:12Z</time></trkpt><trkpt lat="39.007325264701876" lon="8.938163678642521"><ele>110.71428571428572</ele><time>2026-03-28T11:03:14Z</time></trkpt><trkpt lat="39.007237403178834" lon="8.938168260742774"><ele>112.42857142857143</ele><time>2026-03-28T11:03:16Z</time></trkpt><trkpt lat="39.00716386052023" lon="8.93812644844358"><ele>114.14285714285714</ele><time>2026-03-28T11:03:17Z</time></trkpt><trkpt lat="39.00709283260527" lon="8.93808711547111"><ele>115.85714285714286</ele><time>2026-03-28T11:03:18Z</time></trkpt><trkpt lat="39.007027143440084" lon="8.938062665553481"><ele>117.57142857142856</ele><time>2026-03-28T11:03:19Z</time></trkpt><trkpt lat="39.00696078929521" lon="8.93802975012316"><ele>119.28571428571428</ele><time>2026-03-28T11:03:20Z</time></trkpt><trkpt lat="39.006902495917586" lon="8.937995149214965"><ele>121.0</ele><time>2026-03-28T11:03:21Z</time></trkpt><trkpt lat="39.00684273937307" lon="8.93789823925086"><ele>121.0</ele><time>2026-03-28T11:03:23Z</time></trkpt><trkpt lat="39.0068281188361" lon="8.937819376100498"><ele>120.99999999999999</ele><time>2026-03-28T11:03:27Z</time></trkpt><trkpt lat="39.00676638301339" lon="8.937801933186753"><ele>121.0</ele><time>2026-03-28T11:03:28Z</time></trkpt><trkpt lat="39.00671593895034" lon="8.937750903422488"><ele>121.0</ele><time>2026-03-28T11:03:30Z</time></trkpt><trkpt lat="39.00666553040657" lon="8.937694417213217"><ele>120.99999999999999</ele><time>2026-03-28T11:03:35Z</time></trkpt><trkpt lat="39.006626822119905" lon="8.937617155381849"><ele>121.0</ele><time>2026-03-28T11:03:50.999Z</time></trkpt><trkpt lat="39.006598256422365" lon="8.937487071911583"><ele>121.0</ele><time>2026-03-28T11:03:52.999Z</time></trkpt><trkpt lat="39.006546174497096" lon="8.937382767628456"><ele>124.5</ele><time>2026-03-28T11:03:54.999Z</time></trkpt><trkpt lat="39.00651690423695" lon="8.937256690385993"><ele>128.0</ele><time>2026-03-28T11:03:56.999Z</time></trkpt><trkpt lat="39.00650681820548" lon="8.937065221995365"><ele>131.5</ele><time>2026-03-28T11:03:58.999Z</time></trkpt><trkpt lat="39.006497283647775" lon="8.936922283886853"><ele>135.0</ele><time>2026-03-28T11:03:59.999Z</time></trkpt><trkpt lat="39.00648949532087" lon="8.936756249904628"><ele>133.0</ele><time>2026-03-28T11:04:00.999Z</time></trkpt><trkpt lat="39.0065114514925" lon="8.936638530665117"><ele>131.0</ele><time>2026-03-28T11:04:01.999Z</time></trkpt><trkpt lat="39.00652301907758" lon="8.936538246586744"><ele>129.0</ele><time>2026-03-28T11:04:02.999Z</time></trkpt><trkpt lat="39.0065282583663" lon="8.936447159856543"><ele>127.0</ele><time>2026-03-28T11:04:03.999Z</time></trkpt><trkpt lat="39.00652000340883" lon="8.936359561329036"><ele>125.0</ele><time>2026-03-28T11:04:15.999Z</time></trkpt><trkpt lat="39.00654560452335" lon="8.936277872989074"><ele>123.0</ele><time>2026-03-28T11:04:16.999Z</time></trkpt><trkpt lat="39.006572969026294" lon="8.93618880991984"><ele>123.0</ele><time>2026-03-28T11:04:17.999Z</time></trkpt><trkpt lat="39.006605001873226" lon="8.93608857215624"><ele>123.00000000000001</ele><time>2026-03-28T11:04:18.998Z</time></trkpt><trkpt lat="39.0066312549963" lon="8.935985673761905"><ele>123.00000000000001</ele><time>2026-03-28T11:04:19.998Z</time></trkpt><trkpt lat="39.00666310727973" lon="8.935872945288791"><ele>123.0</ele><time>2026-03-28T11:04:20.998Z</time></trkpt><trkpt lat="39.00670056112904" lon="8.93574750713786"><ele>123.0</ele><time>2026-03-28T11:04:21.998Z</time></trkpt><trkpt lat="39.00671310256592" lon="8.935623998470698"><ele>122.00000000000001</ele><time>2026-03-28T11:04:22.998Z</time></trkpt><trkpt lat="39.00672470959208" lon="8.935527367477114"><ele>121.0</ele><time>2026-03-28T11:04:23.998Z</time></trkpt><trkpt lat="39.00673761081594" lon="8.935439008897776"><ele>120.00000000000001</ele><time>2026-03-28T11:04:24.998Z</time></trkpt><trkpt lat="39.00675931915414" lon="8.93533758072973"><ele>119.00000000000001</ele><time>2026-03-28T11:04:25.998Z</time></trkpt><trkpt lat="39.00678444772017" lon="8.935249239482422"><ele>118.0</ele><time>2026-03-28T11:04:26.998Z</time></trkpt><trkpt lat="39.00683573534825" lon="8.935179073793634"><ele>117.00000000000001</ele><time>2026-03-28T11:04:28.998Z</time></trkpt><trkpt lat="39.00682750688892" lon="8.935093440921454"><ele>116.00000000000001</ele><time>2026-03-28T11:04:30.998Z</time></trkpt><trkpt lat="39.00677188438208" lon="8.935038365090495"><ele>115.99999999999999</ele><time>2026-03-28T11:04:33.998Z</time></trkpt><trkpt lat="39.00672464817333" lon="8.934956731302762"><ele>116.0</ele><time>2026-03-28T11:04:34.998Z</time></trkpt><trkpt lat="39.00667374074162" lon="8.934891910465868"><ele>116.0</ele><time>2026-03-28T11:04:37.998Z</time></trkpt><trkpt lat="39.00659887737095" lon="8.934891371316237"><ele>116.0</ele><time>2026-03-28T11:04:38.998Z</time></trkpt><trkpt lat="39.006528871523045" lon="8.934879517525484"><ele>115.99999999999999</ele><time>2026-03-28T11:04:39.998Z</time></trkpt><trkpt lat="39.006392930008985" lon="8.934869733388123"><ele>116.0</ele><time>2026-03-28T11:04:40.998Z</time></trkpt><trkpt lat="39.00632503377901" lon="8.934845672787468"><ele>116.5</ele><time>2026-03-28T11:04:41.998Z</time></trkpt><trkpt lat="39.00621640187114" lon="8.934776657030536"><ele>117.0</ele><time>2026-03-28T11:04:43.998Z</time></trkpt><trkpt lat="39.00609316742928" lon="8.934652810128318"><ele>117.5</ele><time>2026-03-28T11:04:45.998Z</time></trkpt><trkpt lat="39.005990524025584" lon="8.934560475089064"><ele>118.0</ele><time>2026-03-28T11:04:46.998Z</time></trkpt><trkpt lat="39.00587507373483" lon="8.93448503980296"><ele>120.5</ele><time>2026-03-28T11:04:47.998Z</time></trkpt><trkpt lat="39.00578644831962" lon="8.934379172209141"><ele>123.0</ele><time>2026-03-28T11:04:48.998Z</time></trkpt><trkpt lat="39.00570434780316" lon="8.93423960153393"><ele>125.5</ele><time>2026-03-28T11:04:49.998Z</time></trkpt><trkpt lat="39.00559998008672" lon="8.934118803413813"><ele>128.0</ele><time>2026-03-28T11:04:50.998Z</time></trkpt><trkpt lat="39.00546845482943" lon="8.93397388848261"><ele>128.0</ele><time>2026-03-28T11:04:51.998Z</time></trkpt><trkpt lat="39.005377720012454" lon="8.933841177077655"><ele>128.0</ele><time>2026-03-28T11:04:52.998Z</time></trkpt><trkpt lat="39.00528525481694" lon="8.933754294819973"><ele>128.0</ele><time>2026-03-28T11:04:53.998Z</time></trkpt><trkpt lat="39.00519192600435" lon="8.933667866640407"><ele>128.0</ele><time>2026-03-28T11:04:54.998Z</time></trkpt><trkpt lat="39.00510650347856" lon="8.933601377923177"><ele>128.0</ele><time>2026-03-28T11:04:55.998Z</time></trkpt><trkpt lat="39.005029844904556" lon="8.933537258421413"><ele>128.0</ele><time>2026-03-28T11:04:56.998Z</time></trkpt><trkpt lat="39.00490910639585" lon="8.933445284242913"><ele>128.0</ele><time>2026-03-28T11:04:57.998Z</time></trkpt><trkpt lat="39.00481839712359" lon="8.933386449323923"><ele>128.0</ele><time>2026-03-28T11:04:58.997Z</time></trkpt><trkpt lat="39.004696603537056" lon="8.93333099472117"><ele>130.0</ele><time>2026-03-28T11:04:59.997Z</time></trkpt><trkpt lat="39.00458254818623" lon="8.933252779721286"><ele>132.0</ele><time>2026-03-28T11:05:00.997Z</time></trkpt><trkpt lat="39.00449092373551" lon="8.93316154648629"><ele>134.0</ele><time>2026-03-28T11:05:01.997Z</time></trkpt><trkpt lat="39.004392315273144" lon="8.933080466457856"><ele>136.0</ele><time>2026-03-28T11:05:02.997Z</time></trkpt><trkpt lat="39.00427534047604" lon="8.933044872277277"><ele>136.0</ele><time>2026-03-28T11:05:03.997Z</time></trkpt><trkpt lat="39.004202543277046" lon="8.933006517293691"><ele>136.0</ele><time>2026-03-28T11:05:04.997Z</time></trkpt><trkpt lat="39.004084363219235" lon="8.932985307247845"><ele>136.0</ele><time>2026-03-28T11:05:06.997Z</time></trkpt><trkpt lat="39.004016560921094" lon="8.932982609326647"><ele>136.0</ele><time>2026-03-28T11:05:07.997Z</time></trkpt><trkpt lat="39.003902137513386" lon="8.932983883306942"><ele>136.0</ele><time>2026-03-28T11:05:08.997Z</time></trkpt><trkpt lat="39.0038109677746" lon="8.932964550634903"><ele>137.2</ele><time>2026-03-28T11:05:09.997Z</time></trkpt><trkpt lat="39.00374221166222" lon="8.932926438708005"><ele>138.39999999999998</ele><time>2026-03-28T11:05:11Z</time></trkpt><trkpt lat="39.00366631901798" lon="8.932906722427871"><ele>139.6</ele><time>2026-03-28T11:05:12Z</time></trkpt><trkpt lat="39.00352633811739" lon="8.932869445287782"><ele>140.79999999999998</ele><time>2026-03-28T11:05:13Z</time></trkpt><trkpt lat="39.00341051906907" lon="8.932859838718436"><ele>142.0</ele><time>2026-03-28T11:05:14Z</time></trkpt><trkpt lat="39.00331667817235" lon="8.932858021874752"><ele>144.83333333333334</ele><time>2026-03-28T11:05:15Z</time></trkpt><trkpt lat="39.003215275851105" lon="8.932927220853113"><ele>147.66666666666669</ele><time>2026-03-28T11:05:17Z</time></trkpt><trkpt lat="39.00314870622742" lon="8.932965212777297"><ele>150.5</ele><time>2026-03-28T11:05:18Z</time></trkpt><trkpt lat="39.00306385483967" lon="8.932994806359016"><ele>153.33333333333334</ele><time>2026-03-28T11:05:19Z</time></trkpt><trkpt lat="39.00299022071901" lon="8.933007066794078"><ele>156.16666666666666</ele><time>2026-03-28T11:05:20Z</time></trkpt><trkpt lat="39.00292445392133" lon="8.93297565581805"><ele>159.0</ele><time>2026-03-28T11:05:21Z</time></trkpt><trkpt lat="39.00285291379428" lon="8.932919034956633"><ele>159.0</ele><time>2026-03-28T11:05:22Z</time></trkpt><trkpt lat="39.00273638481077" lon="8.932843696957509"><ele>159.0</ele><time>2026-03-28T11:05:23Z</time></trkpt><trkpt lat="39.00264780612548" lon="8.932780233262068"><ele>159.0</ele><time>2026-03-28T11:05:24Z</time></trkpt><trkpt lat="39.00254575250915" lon="8.932718719257485"><ele>159.0</ele><time>2026-03-28T11:05:25Z</time></trkpt><trkpt lat="39.00243627620281" lon="8.932653697851405"><ele>161.25</ele><time>2026-03-28T11:05:26Z</time></trkpt><trkpt lat="39.002311595236456" lon="8.932592221747278"><ele>163.5</ele><time>2026-03-28T11:05:27Z</time></trkpt><trkpt lat="39.002187165800684" lon="8.93255107708792"><ele>165.75</ele><time>2026-03-28T11:05:28Z</time></trkpt><trkpt lat="39.002082425888176" lon="8.932526274235563"><ele>168.0</ele><time>2026-03-28T11:05:29Z</time></trkpt><trkpt lat="39.00199243547202" lon="8.932487270261696"><ele>168.0</ele><time>2026-03-28T11:05:30Z</time></trkpt><trkpt lat="39.001921359221726" lon="8.93243715769057"><ele>168.0</ele><time>2026-03-28T11:05:31Z</time></trkpt><trkpt lat="39.00183207848518" lon="8.932385995493801"><ele>168.0</ele><time>2026-03-28T11:05:33Z</time></trkpt><trkpt lat="39.00172449656669" lon="8.932254096841993"><ele>168.0</ele><time>2026-03-28T11:05:35Z</time></trkpt><trkpt lat="39.00166758889495" lon="8.932206352953457"><ele>168.0</ele><time>2026-03-28T11:05:36Z</time></trkpt><trkpt lat="39.001568681925576" lon="8.93211327190506"><ele>172.25</ele><time>2026-03-28T11:05:37Z</time></trkpt><trkpt lat="39.00145913066303" lon="8.932040743444857"><ele>176.5</ele><time>2026-03-28T11:05:38Z</time></trkpt><trkpt lat="39.00134801261657" lon="8.931995419278326"><ele>180.75</ele><time>2026-03-28T11:05:39Z</time></trkpt><trkpt lat="39.00124078242334" lon="8.931964631465485"><ele>185.0</ele><time>2026-03-28T11:05:40Z</time></trkpt><trkpt lat="39.00112825228157" lon="8.93194823656202"><ele>185.0</ele><time>2026-03-28T11:05:41Z</time></trkpt><trkpt lat="39.00101844517414" lon="8.931926489909271"><ele>185.0</ele><time>2026-03-28T11:05:42Z</time></trkpt><trkpt lat="39.00094110251152" lon="8.931865784773404"><ele>185.0</ele><time>2026-03-28T11:05:43Z</time></trkpt><trkpt lat="39.000844633632155" lon="8.931778125662104"><ele>185.0</ele><time>2026-03-28T11:05:43.999Z</time></trkpt><trkpt lat="39.00075808554937" lon="8.931676319411162"><ele>185.0</ele><time>2026-03-28T11:05:44.999Z</time></trkpt><trkpt lat="39.00070308522099" lon="8.931590476491472"><ele>186.2</ele><time>2026-03-28T11:05:45.999Z</time></trkpt><trkpt lat="39.000616492797846" lon="8.93149421122972"><ele>187.4</ele><time>2026-03-28T11:05:46.999Z</time></trkpt><trkpt lat="39.000502051632544" lon="8.931390243785671"><ele>188.60000000000002</ele><time>2026-03-28T11:05:47.999Z</time></trkpt><trkpt lat="39.000418270531085" lon="8.931314046251757"><ele>189.8</ele><time>2026-03-28T11:05:48.999Z</time></trkpt><trkpt lat="39.00034675687204" lon="8.931263661518617"><ele>191.0</ele><time>2026-03-28T11:05:49.999Z</time></trkpt><trkpt lat="39.00027560998381" lon="8.931223177821245"><ele>191.0</ele><time>2026-03-28T11:05:50.999Z</time></trkpt><trkpt lat="39.00022242260735" lon="8.93114861613846"><ele>191.0</ele><time>2026-03-28T11:05:51.999Z</time></trkpt><trkpt lat="39.00016533049594" lon="8.931045683863333"><ele>191.0</ele><time>2026-03-28T11:05:53.999Z</time></trkpt><trkpt lat="39.000092907851815" lon="8.931017063465436"><ele>191.0</ele><time>2026-03-28T11:06:18.999Z</time></trkpt><trkpt lat="39.000076001669946" lon="8.930883892097906"><ele>191.0</ele><time>2026-03-28T11:06:20.999Z</time></trkpt><trkpt lat="39.00005608377836" lon="8.93079831592338"><ele>191.0</ele><time>2026-03-28T11:06:21.999Z</time></trkpt><trkpt lat="39.00006287900604" lon="8.930710011503265"><ele>189.33333333333331</ele><time>2026-03-28T11:06:22.998Z</time></trkpt><trkpt lat="38.99999660004258" lon="8.930644450332782"><ele>187.66666666666666</ele><time>2026-03-28T11:06:24.998Z</time></trkpt><trkpt lat="38.99993179273006" lon="8.930667221226322"><ele>186.0</ele><time>2026-03-28T11:06:25.998Z</time></trkpt><trkpt lat="38.999853849597706" lon="8.930704069680331"><ele>184.33333333333334</ele><time>2026-03-28T11:06:26.998Z</time></trkpt><trkpt lat="38.999775072850944" lon="8.930734424187003"><ele>182.66666666666669</ele><time>2026-03-28T11:06:27.998Z</time></trkpt><trkpt lat="38.999713586061205" lon="8.930764247145143"><ele>181.0</ele><time>2026-03-28T11:06:28.998Z</time></trkpt><trkpt lat="38.99960375796464" lon="8.930753925295965"><ele>181.0</ele><time>2026-03-28T11:06:30.998Z</time></trkpt><trkpt lat="38.99950882767312" lon="8.930683683983558"><ele>181.0</ele><time>2026-03-28T11:06:32.998Z</time></trkpt><trkpt lat="38.99945039295809" lon="8.930650116415311"><ele>181.0</ele><time>2026-03-28T11:06:33.998Z</time></trkpt><trkpt lat="38.999350026082226" lon="8.930618688055478"><ele>181.0</ele><time>2026-03-28T11:06:35.998Z</time></trkpt><trkpt lat="38.99927172375848" lon="8.930574017136378"><ele>181.0</ele><time>2026-03-28T11:06:38.998Z</time></trkpt><trkpt lat="38.99919374314448" lon="8.930638602299117"><ele>177.85714285714286</ele><time>2026-03-28T11:06:40.998Z</time></trkpt><trkpt lat="38.99912288954383" lon="8.930667459897172"><ele>174.71428571428572</ele><time>2026-03-28T11:06:42.998Z</time></trkpt><trkpt lat="38.99905034551851" lon="8.93069599661834"><ele>171.57142857142856</ele><time>2026-03-28T11:06:43.998Z</time></trkpt><trkpt lat="38.998981510708326" lon="8.93070964115004"><ele>168.42857142857144</ele><time>2026-03-28T11:06:45.998Z</time></trkpt><trkpt lat="38.99897760693713" lon="8.93061930529519"><ele>165.2857142857143</ele><time>2026-03-28T11:06:48.998Z</time></trkpt><trkpt lat="38.99900726514823" lon="8.930531939113227"><ele>162.14285714285714</ele><time>2026-03-28T11:06:52.998Z</time></trkpt><trkpt lat="38.999028733633224" lon="8.930441944792824"><ele>159.0</ele><time>2026-03-28T11:06:55.998Z</time></trkpt><trkpt lat="38.998970185988824" lon="8.930380349816401"><ele>159.0</ele><time>2026-03-28T11:06:58.998Z</time></trkpt><trkpt lat="38.99890086593267" lon="8.93039378800862"><ele>159.0</ele><time>2026-03-28T11:07:01.998Z</time></trkpt><trkpt lat="38.99883309408012" lon="8.930388624032418"><ele>159.0</ele><time>2026-03-28T11:07:03.997Z</time></trkpt><trkpt lat="38.998756694367195" lon="8.930399260327361"><ele>159.0</ele><time>2026-03-28T11:07:06.997Z</time></trkpt><trkpt lat="38.99869072609831" lon="8.93040406565287"><ele>159.0</ele><time>2026-03-28T11:07:09.997Z</time></trkpt><trkpt lat="38.99857956030892" lon="8.930363596549975"><ele>159.0</ele><time>2026-03-28T11:07:11.997Z</time></trkpt><trkpt lat="38.99853478811958" lon="8.930279821048776"><ele>159.0</ele><time>2026-03-28T11:07:13.997Z</time></trkpt><trkpt lat="38.99849271865706" lon="8.930201844528776"><ele>159.0</ele><time>2026-03-28T11:07:17Z</time></trkpt><trkpt lat="38.99844387144196" lon="8.93014984599039"><ele>159.0</ele><time>2026-03-28T11:07:19Z</time></trkpt><trkpt lat="38.99835612312141" lon="8.930198383747596"><ele>159.0</ele><time>2026-03-28T11:07:22Z</time></trkpt><trkpt lat="38.9982771273101" lon="8.930254359638065"><ele>159.0</ele><time>2026-03-28T11:07:24Z</time></trkpt><trkpt lat="38.998181816463216" lon="8.930220191275916"><ele>159.0</ele><time>2026-03-28T11:07:27Z</time></trkpt><trkpt lat="38.998111533596365" lon="8.930178679798532"><ele>153.25</ele><time>2026-03-28T11:07:30Z</time></trkpt><trkpt lat="38.9980431679647" lon="8.930176096707726"><ele>147.5</ele><time>2026-03-28T11:07:32Z</time></trkpt><trkpt lat="38.99789249857759" lon="8.930001730474565"><ele>141.75</ele><time>2026-03-28T11:07:33Z</time></trkpt><trkpt lat="38.99780059594994" lon="8.929950046576845"><ele>136.0</ele><time>2026-03-28T11:07:34Z</time></trkpt><trkpt lat="38.99771500934547" lon="8.929884820650388"><ele>134.85714285714283</ele><time>2026-03-28T11:07:35Z</time></trkpt><trkpt lat="38.99764983663271" lon="8.929820142998448"><ele>133.71428571428572</ele><time>2026-03-28T11:07:36Z</time></trkpt><trkpt lat="38.997591132682196" lon="8.929764730791518"><ele>132.57142857142856</ele><time>2026-03-28T11:07:37Z</time></trkpt><trkpt lat="38.997533890791054" lon="8.929724310171304"><ele>131.42857142857142</ele><time>2026-03-28T11:07:38Z</time></trkpt><trkpt lat="38.9974666148131" lon="8.92968510308249"><ele>130.28571428571428</ele><time>2026-03-28T11:07:39Z</time></trkpt><trkpt lat="38.997408742196086" lon="8.929636493841878"><ele>129.14285714285714</ele><time>2026-03-28T11:07:41Z</time></trkpt><trkpt lat="38.99733102044965" lon="8.929607868549105"><ele>128.0</ele><time>2026-03-28T11:08:41.998Z</time></trkpt><trkpt lat="38.99725251108462" lon="8.929514453709642"><ele>126.60000000000001</ele><time>2026-03-28T11:08:43.998Z</time></trkpt><trkpt lat="38.99713475210923" lon="8.929450597962518"><ele>125.20000000000002</ele><time>2026-03-28T11:08:45.998Z</time></trkpt><trkpt lat="38.99707184071731" lon="8.929394760059578"><ele>123.8</ele><time>2026-03-28T11:08:46.998Z</time></trkpt><trkpt lat="38.99698137893014" lon="8.929286588881629"><ele>122.4</ele><time>2026-03-28T11:08:48.998Z</time></trkpt><trkpt lat="38.99693939423557" lon="8.929222992037536"><ele>121.0</ele><time>2026-03-28T11:08:49.998Z</time></trkpt><trkpt lat="38.99688387101144" lon="8.929160001509642"><ele>121.0</ele><time>2026-03-28T11:08:50.998Z</time></trkpt><trkpt lat="38.99681943962727" lon="8.92906951484584"><ele>121.0</ele><time>2026-03-28T11:08:52.998Z</time></trkpt><trkpt lat="38.99677396973461" lon="8.929002802311086"><ele>121.0</ele><time>2026-03-28T11:08:54.998Z</time></trkpt><trkpt lat="38.99675345390087" lon="8.928902318115943"><ele>121.0</ele><time>2026-03-28T11:08:56.998Z</time></trkpt><trkpt lat="38.996657163138266" lon="8.928789740001667"><ele>121.0</ele><time>2026-03-28T11:08:58.998Z</time></trkpt><trkpt lat="38.99657896422797" lon="8.928702367468896"><ele>120.00000000000001</ele><time>2026-03-28T11:09:00.998Z</time></trkpt><trkpt lat="38.99650987217117" lon="8.928625021229182"><ele>119.0</ele><time>2026-03-28T11:09:02.998Z</time></trkpt><trkpt lat="38.99643443040611" lon="8.9285904041478"><ele>118.0</ele><time>2026-03-28T11:09:04.998Z</time></trkpt><trkpt lat="38.99636602903452" lon="8.928505582012752"><ele>117.0</ele><time>2026-03-28T11:09:06.998Z</time></trkpt><trkpt lat="38.996278434333455" lon="8.92842132022785"><ele>116.00000000000001</ele><time>2026-03-28T11:09:09.998Z</time></trkpt><trkpt lat="38.996231382462355" lon="8.928365607711738"><ele>115.0</ele><time>2026-03-28T11:09:10.998Z</time></trkpt><trkpt lat="38.99616870174971" lon="8.928309018031658"><ele>114.4</ele><time>2026-03-28T11:09:11.998Z</time></trkpt><trkpt lat="38.99608634426512" lon="8.928245714869766"><ele>113.8</ele><time>2026-03-28T11:09:13.997Z</time></trkpt><trkpt lat="38.99600783749424" lon="8.928197476612164"><ele>113.19999999999999</ele><time>2026-03-28T11:09:15.997Z</time></trkpt><trkpt lat="38.99593308223919" lon="8.928146358790542"><ele>112.6</ele><time>2026-03-28T11:09:17.997Z</time></trkpt><trkpt lat="38.99586289953597" lon="8.928175297416685"><ele>112.0</ele><time>2026-03-28T11:09:20.997Z</time></trkpt><trkpt lat="38.99563809193387" lon="8.927998634752639"><ele>111.00000000000001</ele><time>2026-03-28T11:09:21.997Z</time></trkpt><trkpt lat="38.99556380141994" lon="8.9279907830189"><ele>110.0</ele><time>2026-03-28T11:09:23Z</time></trkpt><trkpt lat="38.99544996764319" lon="8.927996201018091"><ele>109.0</ele><time>2026-03-28T11:09:25Z</time></trkpt><trkpt lat="38.995371737227075" lon="8.928000041751185"><ele>108.0</ele><time>2026-03-28T11:09:27Z</time></trkpt><trkpt lat="38.995294782080606" lon="8.927993132100276"><ele>107.00000000000001</ele><time>2026-03-28T11:09:29Z</time></trkpt><trkpt lat="38.995205500960054" lon="8.927962821250023"><ele>106.0</ele><time>2026-03-28T11:09:31Z</time></trkpt><trkpt lat="38.995131871718606" lon="8.927930501413394"><ele>106.00000000000001</ele><time>2026-03-28T11:09:32Z</time></trkpt><trkpt lat="38.99505014172648" lon="8.927894640229162"><ele>106.0</ele><time>2026-03-28T11:09:33Z</time></trkpt><trkpt lat="38.99496496977822" lon="8.927859173850232"><ele>106.0</ele><time>2026-03-28T11:09:34Z</time></trkpt><trkpt lat="38.994894861685225" lon="8.927831669539298"><ele>106.0</ele><time>2026-03-28T11:09:35Z</time></trkpt><trkpt lat="38.99479501817233" lon="8.927791464018826"><ele>106.00000000000001</ele><time>2026-03-28T11:09:37Z</time></trkpt><trkpt lat="38.99473760061645" lon="8.927744276611264"><ele>106.0</ele><time>2026-03-28T11:09:40Z</time></trkpt><trkpt lat="38.99467321274479" lon="8.927714650009944"><ele>105.66666666666667</ele><time>2026-03-28T11:09:59Z</time></trkpt><trkpt lat="38.994621010898264" lon="8.927665488290655"><ele>105.33333333333334</ele><time>2026-03-28T11:10:00.999Z</time></trkpt><trkpt lat="38.99454957179403" lon="8.927650475805438"><ele>105.0</ele><time>2026-03-28T11:10:03.999Z</time></trkpt><trkpt lat="38.994492604393244" lon="8.927579169335136"><ele>104.66666666666666</ele><time>2026-03-28T11:10:05.999Z</time></trkpt><trkpt lat="38.99443278382098" lon="8.927515992242581"><ele>104.33333333333333</ele><time>2026-03-28T11:10:07.999Z</time></trkpt><trkpt lat="38.99436029938509" lon="8.927442644827764"><ele>104.0</ele><time>2026-03-28T11:10:09.999Z</time></trkpt><trkpt lat="38.994292324983824" lon="8.927426068123895"><ele>104.0</ele><time>2026-03-28T11:10:10.999Z</time></trkpt><trkpt lat="38.99420464757241" lon="8.927440233353026"><ele>104.0</ele><time>2026-03-28T11:10:11.999Z</time></trkpt><trkpt lat="38.994101385193694" lon="8.927457796612558"><ele>104.0</ele><time>2026-03-28T11:10:12.999Z</time></trkpt><trkpt lat="38.99397860878452" lon="8.927483003504161"><ele>104.0</ele><time>2026-03-28T11:10:13.999Z</time></trkpt><trkpt lat="38.993864822880035" lon="8.927511393909306"><ele>104.0</ele><time>2026-03-28T11:10:14.999Z</time></trkpt><trkpt lat="38.99375698363352" lon="8.927527619181566"><ele>102.25</ele><time>2026-03-28T11:10:15.999Z</time></trkpt><trkpt lat="38.99363131726707" lon="8.927536417535828"><ele>100.5</ele><time>2026-03-28T11:10:16.999Z</time></trkpt><trkpt lat="38.99349858325488" lon="8.92754707853524"><ele>98.75</ele><time>2026-03-28T11:10:17.999Z</time></trkpt><trkpt lat="38.99334793732746" lon="8.927555803025376"><ele>97.0</ele><time>2026-03-28T11:10:18.999Z</time></trkpt><trkpt lat="38.99325257162916" lon="8.927568518579292"><ele>96.66666666666667</ele><time>2026-03-28T11:10:19.999Z</time></trkpt><trkpt lat="38.99318168994366" lon="8.927571891657514"><ele>96.33333333333334</ele><time>2026-03-28T11:10:20.999Z</time></trkpt><trkpt lat="38.99311839659366" lon="8.927575068278317"><ele>96.0</ele><time>2026-03-28T11:10:21.999Z</time></trkpt><trkpt lat="38.99301635977733" lon="8.927555028726117"><ele>95.66666666666667</ele><time>2026-03-28T11:10:23.999Z</time></trkpt><trkpt lat="38.9929855795502" lon="8.92742335707311"><ele>95.33333333333334</ele><time>2026-03-28T11:10:25.999Z</time></trkpt><trkpt lat="38.99297502381309" lon="8.92732142349626"><ele>95.0</ele><time>2026-03-28T11:10:26.999Z</time></trkpt><trkpt lat="38.99296107865876" lon="8.927213238997261"><ele>94.8</ele><time>2026-03-28T11:10:27.999Z</time></trkpt><trkpt lat="38.99293202571898" lon="8.927106327463317"><ele>94.6</ele><time>2026-03-28T11:10:28.999Z</time></trkpt><trkpt lat="38.992908125574594" lon="8.926984176945446"><ele>94.4</ele><time>2026-03-28T11:10:29.999Z</time></trkpt><trkpt lat="38.99288798167701" lon="8.926863993305199"><ele>94.2</ele><time>2026-03-28T11:10:30.999Z</time></trkpt><trkpt lat="38.99285666694613" lon="8.926733633658325"><ele>94.0</ele><time>2026-03-28T11:10:31.999Z</time></trkpt><trkpt lat="38.99281749672558" lon="8.92655462516892"><ele>94.66666666666666</ele><time>2026-03-28T11:10:32.999Z</time></trkpt><trkpt lat="38.99276852870395" lon="8.92632834119735"><ele>95.33333333333333</ele><time>2026-03-28T11:10:33.999Z</time></trkpt><trkpt lat="38.99273032662617" lon="8.926147923228475"><ele>96.0</ele><time>2026-03-28T11:10:34.999Z</time></trkpt><trkpt lat="38.99270051155377" lon="8.925969565639765"><ele>96.5</ele><time>2026-03-28T11:10:35.999Z</time></trkpt><trkpt lat="38.99267151609464" lon="8.925796260226596"><ele>97.0</ele><time>2026-03-28T11:10:36.999Z</time></trkpt><trkpt lat="38.99264547383236" lon="8.925651374550768"><ele>97.5</ele><time>2026-03-28T11:10:37.999Z</time></trkpt><trkpt lat="38.99261979393009" lon="8.925517874483711"><ele>98.0</ele><time>2026-03-28T11:10:38.998Z</time></trkpt><trkpt lat="38.992588766046296" lon="8.925386723346657"><ele>98.0</ele><time>2026-03-28T11:10:39.998Z</time></trkpt><trkpt lat="38.99256005499023" lon="8.925251291350971"><ele>98.0</ele><time>2026-03-28T11:10:40.998Z</time></trkpt><trkpt lat="38.99252768572022" lon="8.925121481075562"><ele>98.0</ele><time>2026-03-28T11:10:41.998Z</time></trkpt><trkpt lat="38.99249794725428" lon="8.92497476812887"><ele>98.0</ele><time>2026-03-28T11:10:42.998Z</time></trkpt><trkpt lat="38.99247055625924" lon="8.924818033331496"><ele>97.75</ele><time>2026-03-28T11:10:43.998Z</time></trkpt><trkpt lat="38.99244388501173" lon="8.924651508593918"><ele>97.5</ele><time>2026-03-28T11:10:44.998Z</time></trkpt><trkpt lat="38.99242872338924" lon="8.92448637183795"><ele>97.25</ele><time>2026-03-28T11:10:45.998Z</time></trkpt><trkpt lat="38.99242707390884" lon="8.924316583698072"><ele>97.0</ele><time>2026-03-28T11:10:46.998Z</time></trkpt><trkpt lat="38.99244363037148" lon="8.924147693693465"><ele>97.5</ele><time>2026-03-28T11:10:47.998Z</time></trkpt><trkpt lat="38.99247547057792" lon="8.923974723868252"><ele>98.0</ele><time>2026-03-28T11:10:48.998Z</time></trkpt><trkpt lat="38.992521704001064" lon="8.923799291178263"><ele>98.5</ele><time>2026-03-28T11:10:49.998Z</time></trkpt><trkpt lat="38.99257384327247" lon="8.923619196062079"><ele>99.0</ele><time>2026-03-28T11:10:50.998Z</time></trkpt><trkpt lat="38.99261667481227" lon="8.923429913860756"><ele>100.75</ele><time>2026-03-28T11:10:51.998Z</time></trkpt><trkpt lat="38.99265701481998" lon="8.923250865293706"><ele>102.5</ele><time>2026-03-28T11:10:52.998Z</time></trkpt><trkpt lat="38.992696378689736" lon="8.923076314204598"><ele>104.25</ele><time>2026-03-28T11:10:53.998Z</time></trkpt><trkpt lat="38.99273261577283" lon="8.922904883957422"><ele>106.0</ele><time>2026-03-28T11:10:54.998Z</time></trkpt><trkpt lat="38.99276106846289" lon="8.922727344706725"><ele>107.5</ele><time>2026-03-28T11:10:55.998Z</time></trkpt><trkpt lat="38.99277711705408" lon="8.922550829788634"><ele>109.0</ele><time>2026-03-28T11:10:56.998Z</time></trkpt><trkpt lat="38.99276971279023" lon="8.922366123904448"><ele>110.5</ele><time>2026-03-28T11:10:57.998Z</time></trkpt><trkpt lat="38.99274423778681" lon="8.922168525483459"><ele>112.0</ele><time>2026-03-28T11:10:58.998Z</time></trkpt><trkpt lat="38.99271167975362" lon="8.921975050516307"><ele>112.0</ele><time>2026-03-28T11:10:59.998Z</time></trkpt><trkpt lat="38.99266731496835" lon="8.921780556919567"><ele>112.0</ele><time>2026-03-28T11:11:00.998Z</time></trkpt><trkpt lat="38.992629570627855" lon="8.921596374402357"><ele>112.0</ele><time>2026-03-28T11:11:01.998Z</time></trkpt><trkpt lat="38.99261083509945" lon="8.92144500652056"><ele>112.0</ele><time>2026-03-28T11:11:02.998Z</time></trkpt><trkpt lat="38.992604058102195" lon="8.921290324708574"><ele>112.39999999999999</ele><time>2026-03-28T11:11:03.998Z</time></trkpt><trkpt lat="38.99259401764575" lon="8.921127307275546"><ele>112.79999999999998</ele><time>2026-03-28T11:11:04.998Z</time></trkpt><trkpt lat="38.992586599242806" lon="8.920977445123178"><ele>113.2</ele><time>2026-03-28T11:11:05.998Z</time></trkpt><trkpt lat="38.9925794580306" lon="8.920853824167377"><ele>113.6</ele><time>2026-03-28T11:11:06.998Z</time></trkpt><trkpt lat="38.992584124302574" lon="8.920766020160698"><ele>114.0</ele><time>2026-03-28T11:11:07.998Z</time></trkpt><trkpt lat="38.9926033389499" lon="8.920687721305534"><ele>113.0</ele><time>2026-03-28T11:11:08.998Z</time></trkpt><trkpt lat="38.99262665605537" lon="8.920598230994285"><ele>112.0</ele><time>2026-03-28T11:11:10.998Z</time></trkpt><trkpt lat="38.99268350763335" lon="8.920531048307634"><ele>111.0</ele><time>2026-03-28T11:11:12.998Z</time></trkpt><trkpt lat="38.99268733647756" lon="8.920394570793524"><ele>110.0</ele><time>2026-03-28T11:11:14.998Z</time></trkpt><trkpt lat="38.99264037807713" lon="8.920317397222599"><ele>109.0</ele><time>2026-03-28T11:11:15.998Z</time></trkpt><trkpt lat="38.9925404737078" lon="8.920325058074042"><ele>108.0</ele><time>2026-03-28T11:11:16.998Z</time></trkpt><trkpt lat="38.9924784495496" lon="8.920355193337004"><ele>106.80000000000001</ele><time>2026-03-28T11:11:17.997Z</time></trkpt><trkpt lat="38.99239931010458" lon="8.920382759530419"><ele>105.60000000000001</ele><time>2026-03-28T11:11:18.997Z</time></trkpt><trkpt lat="38.992314569795674" lon="8.920423694791394"><ele>104.4</ele><time>2026-03-28T11:11:19.997Z</time></trkpt><trkpt lat="38.99222821889864" lon="8.920480282916103"><ele>103.19999999999999</ele><time>2026-03-28T11:11:20.997Z</time></trkpt><trkpt lat="38.99213195132538" lon="8.92053972761731"><ele>102.0</ele><time>2026-03-28T11:11:21.997Z</time></trkpt><trkpt lat="38.99203895448886" lon="8.920632217600936"><ele>102.0</ele><time>2026-03-28T11:11:22.997Z</time></trkpt><trkpt lat="38.99195837391727" lon="8.920755280268358"><ele>102.0</ele><time>2026-03-28T11:11:23.997Z</time></trkpt><trkpt lat="38.99189872454123" lon="8.920898564262817"><ele>102.0</ele><time>2026-03-28T11:11:24.997Z</time></trkpt><trkpt lat="38.99184880645035" lon="8.92105117882042"><ele>102.0</ele><time>2026-03-28T11:11:25.997Z</time></trkpt><trkpt lat="38.99180146357052" lon="8.921212081398542"><ele>102.25</ele><time>2026-03-28T11:11:26.997Z</time></trkpt><trkpt lat="38.99175524826539" lon="8.921368265012235"><ele>102.5</ele><time>2026-03-28T11:11:27.997Z</time></trkpt><trkpt lat="38.99170906947672" lon="8.921506187361908"><ele>102.75</ele><time>2026-03-28T11:11:29Z</time></trkpt><trkpt lat="38.9916593219616" lon="8.921645657592233"><ele>103.0</ele><time>2026-03-28T11:11:30Z</time></trkpt><trkpt lat="38.99160584749284" lon="8.921789625669458"><ele>101.2</ele><time>2026-03-28T11:11:31Z</time></trkpt><trkpt lat="38.99155945551079" lon="8.921922186561073"><ele>99.4</ele><time>2026-03-28T11:11:32Z</time></trkpt><trkpt lat="38.991515871379654" lon="8.92204081509609"><ele>97.60000000000001</ele><time>2026-03-28T11:11:33Z</time></trkpt><trkpt lat="38.99147133201455" lon="8.922171826962122"><ele>95.80000000000001</ele><time>2026-03-28T11:11:34Z</time></trkpt><trkpt lat="38.99142902802639" lon="8.922300626674849"><ele>94.0</ele><time>2026-03-28T11:11:35Z</time></trkpt><trkpt lat="38.99139243496606" lon="8.92242088068329"><ele>94.0</ele><time>2026-03-28T11:11:36Z</time></trkpt><trkpt lat="38.9913538081839" lon="8.922532070508069"><ele>94.0</ele><time>2026-03-28T11:11:37Z</time></trkpt><trkpt lat="38.991309157933905" lon="8.922651320448205"><ele>94.0</ele><time>2026-03-28T11:11:38Z</time></trkpt><trkpt lat="38.99126096239495" lon="8.922774148975623"><ele>94.0</ele><time>2026-03-28T11:11:39Z</time></trkpt><trkpt lat="38.991210872397545" lon="8.922915955524454"><ele>94.0</ele><time>2026-03-28T11:11:40Z</time></trkpt><trkpt lat="38.9911568830054" lon="8.923072105694208"><ele>94.25</ele><time>2026-03-28T11:11:41Z</time></trkpt><trkpt lat="38.991106187460616" lon="8.923235132440695"><ele>94.5</ele><time>2026-03-28T11:11:42Z</time></trkpt><trkpt lat="38.99105451012838" lon="8.923390394092099"><ele>94.75</ele><time>2026-03-28T11:11:43Z</time></trkpt><trkpt lat="38.99100753359221" lon="8.923536585491734"><ele>95.0</ele><time>2026-03-28T11:11:44Z</time></trkpt><trkpt lat="38.99095317538303" lon="8.92368652811869"><ele>95.0</ele><time>2026-03-28T11:11:45Z</time></trkpt><trkpt lat="38.99089530824072" lon="8.923841218002167"><ele>95.0</ele><time>2026-03-28T11:11:46Z</time></trkpt><trkpt lat="38.9908394021108" lon="8.923996516913213"><ele>95.0</ele><time>2026-03-28T11:11:47Z</time></trkpt><trkpt lat="38.99078412733349" lon="8.924160130795888"><ele>95.0</ele><time>2026-03-28T11:11:48Z</time></trkpt><trkpt lat="38.990732276731386" lon="8.924313996178299"><ele>94.5</ele><time>2026-03-28T11:11:49Z</time></trkpt><trkpt lat="38.990680148390084" lon="8.924468901010032"><ele>94.0</ele><time>2026-03-28T11:11:50Z</time></trkpt><trkpt lat="38.9906267875573" lon="8.92463352653243"><ele>93.5</ele><time>2026-03-28T11:11:51Z</time></trkpt><trkpt lat="38.99057157670246" lon="8.924804400952118"><ele>93.0</ele><time>2026-03-28T11:11:52Z</time></trkpt><trkpt lat="38.990515195716256" lon="8.92496148954043"><ele>92.80000000000001</ele><time>2026-03-28T11:11:53Z</time></trkpt><trkpt lat="38.99046408220496" lon="8.925109003187952"><ele>92.6</ele><time>2026-03-28T11:11:54Z</time></trkpt><trkpt lat="38.99041418923076" lon="8.925257749857522"><ele>92.4</ele><time>2026-03-28T11:11:55Z</time></trkpt><trkpt lat="38.99036611847304" lon="8.925395336809979"><ele>92.19999999999999</ele><time>2026-03-28T11:11:56Z</time></trkpt><trkpt lat="38.990339493308404" lon="8.925492970598532"><ele>92.0</ele><time>2026-03-28T11:11:57Z</time></trkpt><trkpt lat="38.99030647974301" lon="8.925421874283916"><ele>92.0</ele><time>2026-03-28T11:12:01Z</time></trkpt><trkpt lat="38.990272047640914" lon="8.925341643442943"><ele>92.0</ele><time>2026-03-28T11:12:05.999Z</time></trkpt><trkpt lat="38.99022090561315" lon="8.92522192563725"><ele>92.0</ele><time>2026-03-28T11:12:07.999Z</time></trkpt><trkpt lat="38.990180543517106" lon="8.925143762452516"><ele>92.0</ele><time>2026-03-28T11:12:08.999Z</time></trkpt><trkpt lat="38.99014466402758" lon="8.925032982549986"><ele>92.0</ele><time>2026-03-28T11:12:10.999Z</time></trkpt><trkpt lat="38.99011214570641" lon="8.924958624783866"><ele>92.0</ele><time>2026-03-28T11:12:11.999Z</time></trkpt><trkpt lat="38.990073799282555" lon="8.92486530571561"><ele>93.0</ele><time>2026-03-28T11:12:12.999Z</time></trkpt><trkpt lat="38.98999940162066" lon="8.924807865082277"><ele>94.0</ele><time>2026-03-28T11:12:13.999Z</time></trkpt><trkpt lat="38.989927472995134" lon="8.924757986125186"><ele>95.0</ele><time>2026-03-28T11:12:14.999Z</time></trkpt><trkpt lat="38.98984614811441" lon="8.924705940533972"><ele>96.0</ele><time>2026-03-28T11:12:15.999Z</time></trkpt><trkpt lat="38.98977145179763" lon="8.924619754230173"><ele>97.0</ele><time>2026-03-28T11:12:16.999Z</time></trkpt><trkpt lat="38.989726686881376" lon="8.924492617478712"><ele>97.0</ele><time>2026-03-28T11:12:17.999Z</time></trkpt><trkpt lat="38.98964856184155" lon="8.92438731205315"><ele>97.0</ele><time>2026-03-28T11:12:18.999Z</time></trkpt><trkpt lat="38.98956401284033" lon="8.924299694708271"><ele>97.0</ele><time>2026-03-28T11:12:19.999Z</time></trkpt><trkpt lat="38.98949126465327" lon="8.924213205469048"><ele>97.0</ele><time>2026-03-28T11:12:20.999Z</time></trkpt><trkpt lat="38.9894272684525" lon="8.924141341339443"><ele>97.0</ele><time>2026-03-28T11:12:21.999Z</time></trkpt><trkpt lat="38.98937392692271" lon="8.92403241513957"><ele>97.0</ele><time>2026-03-28T11:12:23.999Z</time></trkpt><trkpt lat="38.98942199287713" lon="8.923965623548336"><ele>97.0</ele><time>2026-03-28T11:12:25.999Z</time></trkpt><trkpt lat="38.989459918791546" lon="8.923825684616778"><ele>97.0</ele><time>2026-03-28T11:12:28.999Z</time></trkpt><trkpt lat="38.98942032164736" lon="8.923626441451365"><ele>97.0</ele><time>2026-03-28T11:12:30.999Z</time></trkpt><trkpt lat="38.9893567896057" lon="8.923495432297988"><ele>97.50000000000001</ele><time>2026-03-28T11:12:31.999Z</time></trkpt><trkpt lat="38.98930775475559" lon="8.923396631295104"><ele>98.0</ele><time>2026-03-28T11:12:32.999Z</time></trkpt><trkpt lat="38.98925732560955" lon="8.923287563600176"><ele>98.5</ele><time>2026-03-28T11:12:33.999Z</time></trkpt><trkpt lat="38.989225171230316" lon="8.923214692601862"><ele>99.0</ele><time>2026-03-28T11:12:34.999Z</time></trkpt><trkpt lat="38.98921886730804" lon="8.92312716254913"><ele>99.50000000000001</ele><time>2026-03-28T11:12:38.999Z</time></trkpt><trkpt lat="38.989260331915666" lon="8.923052823373789"><ele>100.0</ele><time>2026-03-28T11:12:40.998Z</time></trkpt><trkpt lat="38.98932349403467" lon="8.92301699600385"><ele>100.0</ele><time>2026-03-28T11:12:41.998Z</time></trkpt><trkpt lat="38.98931935072647" lon="8.922788433715791"><ele>100.0</ele><time>2026-03-28T11:12:44.998Z</time></trkpt><trkpt lat="38.98928272528592" lon="8.922711083431567"><ele>100.0</ele><time>2026-03-28T11:12:45.998Z</time></trkpt><trkpt lat="38.98924977897948" lon="8.922615922311632"><ele>100.0</ele><time>2026-03-28T11:12:46.998Z</time></trkpt><trkpt lat="38.9892260878617" lon="8.92249813847543"><ele>100.0</ele><time>2026-03-28T11:12:47.998Z</time></trkpt><trkpt lat="38.98920753255679" lon="8.922386110709597"><ele>100.83333333333334</ele><time>2026-03-28T11:12:48.998Z</time></trkpt><trkpt lat="38.989191597482446" lon="8.922275499251786"><ele>101.66666666666667</ele><time>2026-03-28T11:12:49.998Z</time></trkpt><trkpt lat="38.98918138630813" lon="8.922176951448447"><ele>102.5</ele><time>2026-03-28T11:12:50.998Z</time></trkpt><trkpt lat="38.98917587321711" lon="8.922088883154204"><ele>103.33333333333334</ele><time>2026-03-28T11:12:51.998Z</time></trkpt><trkpt lat="38.98917409002625" lon="8.921958390576531"><ele>104.16666666666667</ele><time>2026-03-28T11:12:53.998Z</time></trkpt><trkpt lat="38.98917615254677" lon="8.921875898043725"><ele>105.0</ele><time>2026-03-28T11:12:54.998Z</time></trkpt><trkpt lat="38.989216355394845" lon="8.921582615173955"><ele>109.0</ele><time>2026-03-28T11:12:55.998Z</time></trkpt><trkpt lat="38.98914411448313" lon="8.921405156869824"><ele>113.0</ele><time>2026-03-28T11:12:56.998Z</time></trkpt><trkpt lat="38.989059642157585" lon="8.921276634846802"><ele>117.0</ele><time>2026-03-28T11:12:57.998Z</time></trkpt><trkpt lat="38.98890896903697" lon="8.921097913102193"><ele>117.0</ele><time>2026-03-28T11:12:58.998Z</time></trkpt><trkpt lat="38.98877216136946" lon="8.920999158355851"><ele>117.0</ele><time>2026-03-28T11:12:59.998Z</time></trkpt><trkpt lat="38.988705128618754" lon="8.920966686083705"><ele>117.0</ele><time>2026-03-28T11:13:00.998Z</time></trkpt><trkpt lat="38.98773286053259" lon="8.921055984931085"><ele>116.33333333333333</ele><time>2026-03-28T11:13:17.998Z</time></trkpt><trkpt lat="38.98763115020264" lon="8.921023578030688"><ele>115.66666666666666</ele><time>2026-03-28T11:13:19.997Z</time></trkpt><trkpt lat="38.987565309530275" lon="8.921008769376934"><ele>115.0</ele><time>2026-03-28T11:13:20.997Z</time></trkpt><trkpt lat="38.98749298983675" lon="8.920986202687397"><ele>114.33333333333333</ele><time>2026-03-28T11:13:21.997Z</time></trkpt><trkpt lat="38.9874264428618" lon="8.920969912998569"><ele>113.66666666666666</ele><time>2026-03-28T11:13:22.997Z</time></trkpt><trkpt lat="38.98729707320978" lon="8.920962449051949"><ele>113.0</ele><time>2026-03-28T11:13:24.997Z</time></trkpt><trkpt lat="38.987215511883925" lon="8.920897438647906"><ele>113.0</ele><time>2026-03-28T11:13:26.997Z</time></trkpt><trkpt lat="38.98714978090901" lon="8.920786470713706"><ele>113.00000000000001</ele><time>2026-03-28T11:13:28.997Z</time></trkpt><trkpt lat="38.98708655252152" lon="8.920769763393258"><ele>113.00000000000001</ele><time>2026-03-28T11:13:29.997Z</time></trkpt><trkpt lat="38.98702845210255" lon="8.920738397040733"><ele>113.0</ele><time>2026-03-28T11:13:30.997Z</time></trkpt><trkpt lat="38.986953058959216" lon="8.92063684399681"><ele>113.0</ele><time>2026-03-28T11:13:32.997Z</time></trkpt><trkpt lat="38.98690037367082" lon="8.920514426859672"><ele>113.0</ele><time>2026-03-28T11:13:35Z</time></trkpt><trkpt lat="38.98679478318938" lon="8.920482768913535"><ele>113.00000000000001</ele><time>2026-03-28T11:13:37Z</time></trkpt><trkpt lat="38.986690786647955" lon="8.920436403036675"><ele>113.00000000000001</ele><time>2026-03-28T11:13:39Z</time></trkpt><trkpt lat="38.98660603167726" lon="8.920432052267602"><ele>113.0</ele><time>2026-03-28T11:13:41Z</time></trkpt><trkpt lat="38.986577371444625" lon="8.920288790360091"><ele>113.0</ele><time>2026-03-28T11:13:43Z</time></trkpt><trkpt lat="38.986525527293225" lon="8.920217714472459"><ele>113.83333333333333</ele><time>2026-03-28T11:13:44Z</time></trkpt><trkpt lat="38.98645956126619" lon="8.920171502521839"><ele>114.66666666666666</ele><time>2026-03-28T11:13:45Z</time></trkpt><trkpt lat="38.98639784984042" lon="8.92014076613858"><ele>115.5</ele><time>2026-03-28T11:13:46Z</time></trkpt><trkpt lat="38.986311997355486" lon="8.920117688547295"><ele>116.33333333333334</ele><time>2026-03-28T11:13:48Z</time></trkpt><trkpt lat="38.986299088462026" lon="8.920025937109122"><ele>117.16666666666667</ele><time>2026-03-28T11:13:50Z</time></trkpt><trkpt lat="38.98627616839843" lon="8.919948234409528"><ele>118.0</ele><time>2026-03-28T11:13:52Z</time></trkpt><trkpt lat="38.98618397473855" lon="8.919920633599626"><ele>118.80000000000001</ele><time>2026-03-28T11:13:54Z</time></trkpt><trkpt lat="38.98607818894696" lon="8.919956429133945"><ele>119.60000000000001</ele><time>2026-03-28T11:13:56Z</time></trkpt><trkpt lat="38.98602718701032" lon="8.919882247967418"><ele>120.39999999999999</ele><time>2026-03-28T11:13:58Z</time></trkpt><trkpt lat="38.98601071285488" lon="8.919799807534364"><ele>121.19999999999999</ele><time>2026-03-28T11:13:59Z</time></trkpt><trkpt lat="38.986029285540425" lon="8.919674444327791"><ele>122.0</ele><time>2026-03-28T11:14:01Z</time></trkpt><trkpt lat="38.98601092915862" lon="8.919540612428799"><ele>121.99999999999999</ele><time>2026-03-28T11:14:03Z</time></trkpt><trkpt lat="38.98596766117649" lon="8.919459920401293"><ele>122.0</ele><time>2026-03-28T11:14:05Z</time></trkpt><trkpt lat="38.98594991531029" lon="8.91937395188537"><ele>122.0</ele><time>2026-03-28T11:14:07Z</time></trkpt><trkpt lat="38.98589133098255" lon="8.91927732179475"><ele>122.0</ele><time>2026-03-28T11:14:25.999Z</time></trkpt><trkpt lat="38.9858199213847" lon="8.919191789418047"><ele>121.99999999999999</ele><time>2026-03-28T11:14:27.999Z</time></trkpt><trkpt lat="38.98576197611892" lon="8.919099733854551"><ele>122.0</ele><time>2026-03-28T11:14:28.999Z</time></trkpt><trkpt lat="38.9857050390587" lon="8.919006347189695"><ele>123.8</ele><time>2026-03-28T11:14:29.999Z</time></trkpt><trkpt lat="38.985648804657295" lon="8.918902400186175"><ele>125.6</ele><time>2026-03-28T11:14:30.999Z</time></trkpt><trkpt lat="38.9855860546735" lon="8.918816818013315"><ele>127.39999999999999</ele><time>2026-03-28T11:14:31.999Z</time></trkpt><trkpt lat="38.98551691060252" lon="8.918736039135807"><ele>129.2</ele><time>2026-03-28T11:14:32.999Z</time></trkpt><trkpt lat="38.98544247767614" lon="8.91864022504988"><ele>131.0</ele><time>2026-03-28T11:14:33.999Z</time></trkpt><trkpt lat="38.9853597274371" lon="8.918569685758758"><ele>131.0</ele><time>2026-03-28T11:14:34.999Z</time></trkpt><trkpt lat="38.98528870395224" lon="8.918504593960941"><ele>131.0</ele><time>2026-03-28T11:14:35.999Z</time></trkpt><trkpt lat="38.985217341693556" lon="8.918461922887998"><ele>131.0</ele><time>2026-03-28T11:14:36.999Z</time></trkpt><trkpt lat="38.98515067794824" lon="8.918439307815875"><ele>131.0</ele><time>2026-03-28T11:14:37.999Z</time></trkpt><trkpt lat="38.98508103965689" lon="8.91843843738207"><ele>131.0</ele><time>2026-03-28T11:14:38.999Z</time></trkpt><trkpt lat="38.98498216891722" lon="8.918408358578962"><ele>131.0</ele><time>2026-03-28T11:14:40.999Z</time></trkpt><trkpt lat="38.98491015065333" lon="8.918335892173143"><ele>132.5</ele><time>2026-03-28T11:14:42.999Z</time></trkpt><trkpt lat="38.98482665439751" lon="8.918301232064515"><ele>134.0</ele><time>2026-03-28T11:15:04.998Z</time></trkpt><trkpt lat="38.9847751637518" lon="8.918181400546628"><ele>135.5</ele><time>2026-03-28T11:15:23.998Z</time></trkpt><trkpt lat="38.98472549641778" lon="8.91812424447936"><ele>137.0</ele><time>2026-03-28T11:15:24.998Z</time></trkpt><trkpt lat="38.984632384100294" lon="8.918020201795803"><ele>138.5</ele><time>2026-03-28T11:15:26.997Z</time></trkpt><trkpt lat="38.984574325043376" lon="8.917982010180854"><ele>140.0</ele><time>2026-03-28T11:15:27.997Z</time></trkpt><trkpt lat="38.98452637173135" lon="8.917881701446998"><ele>140.0</ele><time>2026-03-28T11:15:29.997Z</time></trkpt><trkpt lat="38.98451198697698" lon="8.917757936633711"><ele>140.0</ele><time>2026-03-28T11:15:31.997Z</time></trkpt><trkpt lat="38.98448218663594" lon="8.917678643332525"><ele>140.0</ele><time>2026-03-28T11:15:33.997Z</time></trkpt><trkpt lat="38.98437658539522" lon="8.917652616264572"><ele>140.0</ele><time>2026-03-28T11:15:35.997Z</time></trkpt><trkpt lat="38.98434096373483" lon="8.917535616592172"><ele>140.0</ele><time>2026-03-28T11:15:37.997Z</time></trkpt><trkpt lat="38.98431713018407" lon="8.917456270568177"><ele>140.0</ele><time>2026-03-28T11:15:38.997Z</time></trkpt><trkpt lat="38.9843257685852" lon="8.917368330736775"><ele>140.83333333333331</ele><time>2026-03-28T11:15:41Z</time></trkpt><trkpt lat="38.98437715764834" lon="8.917309235136466"><ele>141.66666666666666</ele><time>2026-03-28T11:15:43Z</time></trkpt><trkpt lat="38.98443372428046" lon="8.917260173777544"><ele>142.5</ele><time>2026-03-28T11:15:44Z</time></trkpt><trkpt lat="38.98448667936737" lon="8.917150361446888"><ele>143.33333333333334</ele><time>2026-03-28T11:15:46Z</time></trkpt><trkpt lat="38.98448691673547" lon="8.917063380204628"><ele>144.16666666666669</ele><time>2026-03-28T11:15:47Z</time></trkpt><trkpt lat="38.98447761386345" lon="8.916937559070105"><ele>145.0</ele><time>2026-03-28T11:15:49Z</time></trkpt><trkpt lat="38.98448054970671" lon="8.916855597832816"><ele>145.0</ele><time>2026-03-28T11:15:51Z</time></trkpt><trkpt lat="38.98448763428931" lon="8.916751119209207"><ele>145.0</ele><time>2026-03-28T11:15:53Z</time></trkpt><trkpt lat="38.98446285585318" lon="8.916655205715957"><ele>145.0</ele><time>2026-03-28T11:15:56Z</time></trkpt><trkpt lat="38.984416445638196" lon="8.916537655172831"><ele>145.0</ele><time>2026-03-28T11:15:58Z</time></trkpt><trkpt lat="38.984389128602" lon="8.916427515735899"><ele>145.0</ele><time>2026-03-28T11:16:00Z</time></trkpt><trkpt lat="38.98435579508196" lon="8.916346229307804"><ele>145.0</ele><time>2026-03-28T11:16:02Z</time></trkpt><trkpt lat="38.98432069178507" lon="8.916171297712232"><ele>146.83333333333334</ele><time>2026-03-28T11:17:03.998Z</time></trkpt><trkpt lat="38.98427211996047" lon="8.916095400125151"><ele>148.66666666666669</ele><time>2026-03-28T11:17:04.998Z</time></trkpt><trkpt lat="38.98422787990808" lon="8.916036123409198"><ele>150.5</ele><time>2026-03-28T11:17:06.998Z</time></trkpt><trkpt lat="38.984155776965295" lon="8.916017760569344"><ele>152.33333333333334</ele><time>2026-03-28T11:17:07.998Z</time></trkpt><trkpt lat="38.98406267316061" lon="8.916010842332401"><ele>154.16666666666666</ele><time>2026-03-28T11:17:09.998Z</time></trkpt><trkpt lat="38.98398214064483" lon="8.9159580499998"><ele>156.0</ele><time>2026-03-28T11:17:13.998Z</time></trkpt><trkpt lat="38.98391505276899" lon="8.915888940660926"><ele>158.14285714285714</ele><time>2026-03-28T11:17:17.998Z</time></trkpt><trkpt lat="38.983871866121994" lon="8.915804183863596"><ele>160.28571428571428</ele><time>2026-03-28T11:17:19.998Z</time></trkpt><trkpt lat="38.98381485706804" lon="8.915841044568731"><ele>162.42857142857142</ele><time>2026-03-28T11:18:06Z</time></trkpt><trkpt lat="38.983866312679304" lon="8.915896589303337"><ele>164.57142857142856</ele><time>2026-03-28T11:18:12Z</time></trkpt><trkpt lat="38.98381662052297" lon="8.915844121238456"><ele>166.71428571428572</ele><time>2026-03-28T11:21:26.998Z</time></trkpt><trkpt lat="38.98379743556326" lon="8.915762966446033"><ele>168.85714285714283</ele><time>2026-03-28T11:21:54.997Z</time></trkpt><trkpt lat="38.98376229975853" lon="8.915677231681315"><ele>171.0</ele><time>2026-03-28T11:22:15Z</time></trkpt><trkpt lat="38.983733570250784" lon="8.915587703850033"><ele>171.0</ele><time>2026-03-28T11:22:19Z</time></trkpt><trkpt lat="38.98371501900997" lon="8.915476625375806"><ele>171.0</ele><time>2026-03-28T11:22:22Z</time></trkpt><trkpt lat="38.98371258022857" lon="8.915387686019244"><ele>171.0</ele><time>2026-03-28T11:22:24Z</time></trkpt><trkpt lat="38.98366716510939" lon="8.915251021941394"><ele>171.0</ele><time>2026-03-28T11:22:26Z</time></trkpt><trkpt lat="38.98362517649008" lon="8.915120396286003"><ele>171.0</ele><time>2026-03-28T11:22:28Z</time></trkpt><trkpt lat="38.983615392360846" lon="8.914999580866079"><ele>176.16666666666666</ele><time>2026-03-28T11:22:29.999Z</time></trkpt><trkpt lat="38.983612424086665" lon="8.914860245970166"><ele>181.33333333333331</ele><time>2026-03-28T11:22:31.999Z</time></trkpt><trkpt lat="38.983583200361124" lon="8.914776128945055"><ele>186.5</ele><time>2026-03-28T11:22:34.999Z</time></trkpt><trkpt lat="38.983544661578065" lon="8.914677277793663"><ele>191.66666666666666</ele><time>2026-03-28T11:22:37.999Z</time></trkpt><trkpt lat="38.98353592206266" lon="8.914595244561568"><ele>196.83333333333331</ele><time>2026-03-28T11:22:40.999Z</time></trkpt><trkpt lat="38.98350171000649" lon="8.91450656627715"><ele>202.0</ele><time>2026-03-28T11:23:01.999Z</time></trkpt><trkpt lat="38.98347624649284" lon="8.914398450982139"><ele>202.0</ele><time>2026-03-28T11:24:05Z</time></trkpt><trkpt lat="38.9834753553767" lon="8.914307856354974"><ele>202.0</ele><time>2026-03-28T11:24:39.999Z</time></trkpt><trkpt lat="38.98344696448895" lon="8.914226959713321"><ele>202.0</ele><time>2026-03-28T11:25:07.999Z</time></trkpt><trkpt lat="38.983409757594124" lon="8.914141989961513"><ele>202.0</ele><time>2026-03-28T11:25:11.999Z</time></trkpt><trkpt lat="38.98335687435313" lon="8.91407891296652"><ele>202.0</ele><time>2026-03-28T11:25:13.998Z</time></trkpt><trkpt lat="38.98329935987318" lon="8.913990806468238"><ele>202.0</ele><time>2026-03-28T11:25:15.998Z</time></trkpt><trkpt lat="38.983365011425214" lon="8.914029703254824"><ele>202.0</ele><time>2026-03-28T11:26:46.999Z</time></trkpt><trkpt lat="38.983412617305355" lon="8.914109675676889"><ele>201.99999999999997</ele><time>2026-03-28T11:26:52.999Z</time></trkpt><trkpt lat="38.98341467990397" lon="8.91419358389814"><ele>202.0</ele><time>2026-03-28T11:26:56.999Z</time></trkpt><trkpt lat="38.983457846223146" lon="8.914281085352435"><ele>202.0</ele><time>2026-03-28T11:27:01.999Z</time></trkpt><trkpt lat="38.98347991898979" lon="8.914420792191226"><ele>202.0</ele><time>2026-03-28T11:27:34.998Z</time></trkpt><trkpt lat="38.983459403838474" lon="8.914284498999702"><ele>201.99999999999997</ele><time>2026-03-28T11:28:02.997Z</time></trkpt><trkpt lat="38.983437333685174" lon="8.914199774591971"><ele>202.0</ele><time>2026-03-28T11:28:23Z</time></trkpt><trkpt lat="38.98341500161811" lon="8.914114592526358"><ele>203.28571428571428</ele><time>2026-03-28T11:28:50.999Z</time></trkpt><trkpt lat="38.983370783296536" lon="8.914051040877293"><ele>204.57142857142856</ele><time>2026-03-28T11:28:59.999Z</time></trkpt><trkpt lat="38.9833355080404" lon="8.913980288333343"><ele>205.85714285714286</ele><time>2026-03-28T11:29:18.999Z</time></trkpt><trkpt lat="38.98330899679742" lon="8.913904711637706"><ele>207.14285714285714</ele><time>2026-03-28T11:29:51.998Z</time></trkpt><trkpt lat="38.98327511707911" lon="8.91399271898659"><ele>208.42857142857144</ele><time>2026-03-28T11:33:06.999Z</time></trkpt><trkpt lat="38.98331139169276" lon="8.913907605515055"><ele>209.71428571428572</ele><time>2026-03-28T11:34:17.997Z</time></trkpt><trkpt lat="38.98324246045851" lon="8.913908241792518"><ele>211.0</ele><time>2026-03-28T11:40:44.998Z</time></trkpt><trkpt lat="38.9831819083782" lon="8.913846508093142"><ele>211.0</ele><time>2026-03-28T11:40:49.998Z</time></trkpt><trkpt lat="38.983137111052784" lon="8.913771089879356"><ele>211.0</ele><time>2026-03-28T11:40:56Z</time></trkpt><trkpt lat="38.98311042301785" lon="8.913682479138043"><ele>211.0</ele><time>2026-03-28T11:41:00Z</time></trkpt><trkpt lat="38.98310897097168" lon="8.91359846049035"><ele>211.0</ele><time>2026-03-28T11:41:04Z</time></trkpt><trkpt lat="38.98308194057416" lon="8.913511882526208"><ele>211.0</ele><time>2026-03-28T11:41:09Z</time></trkpt><trkpt lat="38.98301855584302" lon="8.913472806695871"><ele>211.0</ele><time>2026-03-28T11:41:13Z</time></trkpt><trkpt lat="38.98295429309931" lon="8.913416883156298"><ele>211.0</ele><time>2026-03-28T11:41:18Z</time></trkpt><trkpt lat="38.9829015931853" lon="8.913361569250348"><ele>210.8</ele><time>2026-03-28T11:41:24Z</time></trkpt><trkpt lat="38.982813973254444" lon="8.913294009394498"><ele>210.60000000000002</ele><time>2026-03-28T11:41:34Z</time></trkpt><trkpt lat="38.98274022623455" lon="8.913236517764467"><ele>210.4</ele><time>2026-03-28T11:41:34.999Z</time></trkpt><trkpt lat="38.98265518398382" lon="8.913172791608376"><ele>210.2</ele><time>2026-03-28T11:41:35.999Z</time></trkpt><trkpt lat="38.982575223836726" lon="8.91312910495773"><ele>210.0</ele><time>2026-03-28T11:41:36.999Z</time></trkpt><trkpt lat="38.98249868018688" lon="8.913093157367856"><ele>210.0</ele><time>2026-03-28T11:41:37.999Z</time></trkpt><trkpt lat="38.98242848030053" lon="8.913039530614569"><ele>210.0</ele><time>2026-03-28T11:41:38.999Z</time></trkpt><trkpt lat="38.982347171666376" lon="8.91299528483988"><ele>210.0</ele><time>2026-03-28T11:41:39.999Z</time></trkpt><trkpt lat="38.98228071013043" lon="8.912956667917564"><ele>210.0</ele><time>2026-03-28T11:41:40.999Z</time></trkpt><trkpt lat="38.982223163321066" lon="8.912914333274232"><ele>210.0</ele><time>2026-03-28T11:41:41.999Z</time></trkpt><trkpt lat="38.982169856697034" lon="8.912853853283414"><ele>210.0</ele><time>2026-03-28T11:41:42.999Z</time></trkpt><trkpt lat="38.98211368872171" lon="8.912770285834839"><ele>210.0</ele><time>2026-03-28T11:41:43.999Z</time></trkpt><trkpt lat="38.98205262045739" lon="8.91268727364854"><ele>210.0</ele><time>2026-03-28T11:41:44.999Z</time></trkpt><trkpt lat="38.98199183282087" lon="8.912645373323622"><ele>210.0</ele><time>2026-03-28T11:41:45.999Z</time></trkpt><trkpt lat="38.981907413666136" lon="8.91261510624445"><ele>210.0</ele><time>2026-03-28T11:41:46.999Z</time></trkpt><trkpt lat="38.98180241434164" lon="8.912564111015763"><ele>210.0</ele><time>2026-03-28T11:41:47.999Z</time></trkpt><trkpt lat="38.98170303441638" lon="8.912519968368178"><ele>209.0</ele><time>2026-03-28T11:41:48.999Z</time></trkpt><trkpt lat="38.98162014105318" lon="8.912479197072033"><ele>208.0</ele><time>2026-03-28T11:41:49.999Z</time></trkpt><trkpt lat="38.981535395356765" lon="8.912445572385732"><ele>207.0</ele><time>2026-03-28T11:41:50.999Z</time></trkpt><trkpt lat="38.9814487892284" lon="8.912371785344094"><ele>206.0</ele><time>2026-03-28T11:41:51.999Z</time></trkpt><trkpt lat="38.98136914254339" lon="8.912261070773388"><ele>205.0</ele><time>2026-03-28T11:41:52.999Z</time></trkpt><trkpt lat="38.98128286883594" lon="8.91210520183907"><ele>205.0</ele><time>2026-03-28T11:41:53.999Z</time></trkpt><trkpt lat="38.9811956293821" lon="8.911978206407694"><ele>205.0</ele><time>2026-03-28T11:41:54.999Z</time></trkpt><trkpt lat="38.981119175230006" lon="8.911876423879256"><ele>205.0</ele><time>2026-03-28T11:41:55.999Z</time></trkpt><trkpt lat="38.981063768753266" lon="8.911774814837097"><ele>205.0</ele><time>2026-03-28T11:41:56.999Z</time></trkpt><trkpt lat="38.98100736472501" lon="8.911680829219337"><ele>205.0</ele><time>2026-03-28T11:41:57.999Z</time></trkpt><trkpt lat="38.980947641012534" lon="8.911606181414607"><ele>205.33333333333331</ele><time>2026-03-28T11:41:58.999Z</time></trkpt><trkpt lat="38.98088523264571" lon="8.91153658485721"><ele>205.66666666666666</ele><time>2026-03-28T11:41:59.999Z</time></trkpt><trkpt lat="38.980830548378634" lon="8.911482245867413"><ele>206.0</ele><time>2026-03-28T11:42:00.999Z</time></trkpt><trkpt lat="38.98076724283968" lon="8.911448856330596"><ele>206.33333333333331</ele><time>2026-03-28T11:42:01.999Z</time></trkpt><trkpt lat="38.98070050282172" lon="8.911418288184446"><ele>206.66666666666666</ele><time>2026-03-28T11:42:02.999Z</time></trkpt><trkpt lat="38.980628947121694" lon="8.911371723110477"><ele>207.0</ele><time>2026-03-28T11:42:03.999Z</time></trkpt><trkpt lat="38.98055257349967" lon="8.911321784191294"><ele>207.0</ele><time>2026-03-28T11:42:04.999Z</time></trkpt><trkpt lat="38.98048146084138" lon="8.911263788962744"><ele>207.0</ele><time>2026-03-28T11:42:05.999Z</time></trkpt><trkpt lat="38.98040625158899" lon="8.911195064204128"><ele>207.0</ele><time>2026-03-28T11:42:06.999Z</time></trkpt><trkpt lat="38.980328368300675" lon="8.911127006632155"><ele>207.0</ele><time>2026-03-28T11:42:07.999Z</time></trkpt><trkpt lat="38.98024810826628" lon="8.911061830412267"><ele>207.0</ele><time>2026-03-28T11:42:08.999Z</time></trkpt><trkpt lat="38.980155810485996" lon="8.911013945447621"><ele>207.0</ele><time>2026-03-28T11:42:09.999Z</time></trkpt><trkpt lat="38.98005833716338" lon="8.910970353156404"><ele>207.0</ele><time>2026-03-28T11:42:10.999Z</time></trkpt><trkpt lat="38.979960668312444" lon="8.910945323123334"><ele>207.0</ele><time>2026-03-28T11:42:11.999Z</time></trkpt><trkpt lat="38.97986406787847" lon="8.910926167704456"><ele>207.0</ele><time>2026-03-28T11:42:12.999Z</time></trkpt><trkpt lat="38.979770751390504" lon="8.910888253807846"><ele>207.0</ele><time>2026-03-28T11:42:13.999Z</time></trkpt><trkpt lat="38.979676720988905" lon="8.910837291352035"><ele>207.42857142857144</ele><time>2026-03-28T11:42:14.998Z</time></trkpt><trkpt lat="38.9795923469348" lon="8.910780023329204"><ele>207.85714285714286</ele><time>2026-03-28T11:42:15.998Z</time></trkpt><trkpt lat="38.979525443133504" lon="8.910732115849259"><ele>208.28571428571428</ele><time>2026-03-28T11:42:16.998Z</time></trkpt><trkpt lat="38.97947735280071" lon="8.910670087920497"><ele>208.71428571428572</ele><time>2026-03-28T11:42:17.998Z</time></trkpt><trkpt lat="38.979456588677955" lon="8.910590235847552"><ele>209.14285714285714</ele><time>2026-03-28T11:42:18.998Z</time></trkpt><trkpt lat="38.979440310524375" lon="8.910505534262176"><ele>209.57142857142858</ele><time>2026-03-28T11:42:19.998Z</time></trkpt><trkpt lat="38.97941452013549" lon="8.910415509337122"><ele>210.0</ele><time>2026-03-28T11:42:20.998Z</time></trkpt><trkpt lat="38.97938411352308" lon="8.910322061262631"><ele>210.0</ele><time>2026-03-28T11:42:21.998Z</time></trkpt><trkpt lat="38.97934422294584" lon="8.91024052218899"><ele>210.0</ele><time>2026-03-28T11:42:22.998Z</time></trkpt><trkpt lat="38.97929605820827" lon="8.910163629266307"><ele>210.0</ele><time>2026-03-28T11:42:23.998Z</time></trkpt><trkpt lat="38.9792155334138" lon="8.910095217738823"><ele>210.0</ele><time>2026-03-28T11:42:24.998Z</time></trkpt><trkpt lat="38.97911429866975" lon="8.910028158753672"><ele>210.0</ele><time>2026-03-28T11:42:25.998Z</time></trkpt><trkpt lat="38.97902792720089" lon="8.909932718823258"><ele>211.0</ele><time>2026-03-28T11:42:26.998Z</time></trkpt><trkpt lat="38.978968057871114" lon="8.90980367600122"><ele>212.0</ele><time>2026-03-28T11:42:27.998Z</time></trkpt><trkpt lat="38.97893629257203" lon="8.909659090307786"><ele>213.0</ele><time>2026-03-28T11:42:28.998Z</time></trkpt><trkpt lat="38.978908031817916" lon="8.909496626809716"><ele>214.0</ele><time>2026-03-28T11:42:29.998Z</time></trkpt><trkpt lat="38.97885207129736" lon="8.909326000412555"><ele>214.79999999999998</ele><time>2026-03-28T11:42:30.998Z</time></trkpt><trkpt lat="38.97879540822928" lon="8.909171904185092"><ele>215.59999999999997</ele><time>2026-03-28T11:42:31.998Z</time></trkpt><trkpt lat="38.978732431427424" lon="8.90905838538114"><ele>216.4</ele><time>2026-03-28T11:42:32.998Z</time></trkpt><trkpt lat="38.97869782141099" lon="8.908940308044873"><ele>217.2</ele><time>2026-03-28T11:42:33.998Z</time></trkpt><trkpt lat="38.97869061945992" lon="8.908817978251337"><ele>218.0</ele><time>2026-03-28T11:42:34.998Z</time></trkpt><trkpt lat="38.97869880404142" lon="8.908666282377611"><ele>218.0</ele><time>2026-03-28T11:42:35.998Z</time></trkpt><trkpt lat="38.97868493887261" lon="8.908530041091911"><ele>218.0</ele><time>2026-03-28T11:42:36.998Z</time></trkpt><trkpt lat="38.978647027614976" lon="8.908385337752708"><ele>218.0</ele><time>2026-03-28T11:42:37.998Z</time></trkpt><trkpt lat="38.978607782004595" lon="8.908221342456988"><ele>218.0</ele><time>2026-03-28T11:42:38.998Z</time></trkpt><trkpt lat="38.978565998468184" lon="8.908095477152152"><ele>218.4</ele><time>2026-03-28T11:42:39.998Z</time></trkpt><trkpt lat="38.97852407773631" lon="8.907976629616439"><ele>218.8</ele><time>2026-03-28T11:42:40.998Z</time></trkpt><trkpt lat="38.978463971292605" lon="8.90787816937789"><ele>219.2</ele><time>2026-03-28T11:42:41.998Z</time></trkpt><trkpt lat="38.97840266231349" lon="8.907774264808014"><ele>219.6</ele><time>2026-03-28T11:42:42.998Z</time></trkpt><trkpt lat="38.97834004226795" lon="8.907669496912883"><ele>220.0</ele><time>2026-03-28T11:42:43.998Z</time></trkpt><trkpt lat="38.97830276781657" lon="8.907561703267508"><ele>220.83333333333331</ele><time>2026-03-28T11:42:44.998Z</time></trkpt><trkpt lat="38.97827746124149" lon="8.907459255633324"><ele>221.66666666666666</ele><time>2026-03-28T11:42:45.998Z</time></trkpt><trkpt lat="38.97823995434854" lon="8.907368482899559"><ele>222.5</ele><time>2026-03-28T11:42:46.998Z</time></trkpt><trkpt lat="38.97818273146399" lon="8.907297922275289"><ele>223.33333333333331</ele><time>2026-03-28T11:42:47.998Z</time></trkpt><trkpt lat="38.97809281691296" lon="8.90725171074513"><ele>224.16666666666666</ele><time>2026-03-28T11:42:48.998Z</time></trkpt><trkpt lat="38.97800151031119" lon="8.90719682774116"><ele>225.0</ele><time>2026-03-28T11:42:49.998Z</time></trkpt><trkpt lat="38.977912597339675" lon="8.907142796477595"><ele>225.0</ele><time>2026-03-28T11:42:50.998Z</time></trkpt><trkpt lat="38.97782365938966" lon="8.907084976822812"><ele>225.0</ele><time>2026-03-28T11:42:51.998Z</time></trkpt><trkpt lat="38.97774102203525" lon="8.907026647560683"><ele>225.0</ele><time>2026-03-28T11:42:52.998Z</time></trkpt><trkpt lat="38.977657242385355" lon="8.906957615600634"><ele>225.0</ele><time>2026-03-28T11:42:53.998Z</time></trkpt><trkpt lat="38.97757173125251" lon="8.906892036534883"><ele>225.0</ele><time>2026-03-28T11:42:54.998Z</time></trkpt><trkpt lat="38.97749506931613" lon="8.906831311157767"><ele>225.33333333333334</ele><time>2026-03-28T11:42:55.997Z</time></trkpt><trkpt lat="38.9774243818785" lon="8.906769512448687"><ele>225.66666666666669</ele><time>2026-03-28T11:42:56.997Z</time></trkpt><trkpt lat="38.97738598938221" lon="8.906693011477488"><ele>226.0</ele><time>2026-03-28T11:42:58Z</time></trkpt><trkpt lat="38.977368165753255" lon="8.906587668724587"><ele>226.33333333333334</ele><time>2026-03-28T11:42:59Z</time></trkpt><trkpt lat="38.97735352140905" lon="8.906467779933374"><ele>226.66666666666669</ele><time>2026-03-28T11:43:00Z</time></trkpt><trkpt lat="38.97732623945699" lon="8.906381073101016"><ele>227.0</ele><time>2026-03-28T11:43:01Z</time></trkpt><trkpt lat="38.97727460009151" lon="8.90628875791104"><ele>227.0</ele><time>2026-03-28T11:43:02Z</time></trkpt><trkpt lat="38.977201334077556" lon="8.906209655540225"><ele>227.0</ele><time>2026-03-28T11:43:03Z</time></trkpt><trkpt lat="38.97712250122023" lon="8.906139331194275"><ele>227.0</ele><time>2026-03-28T11:43:04Z</time></trkpt><trkpt lat="38.977043211216696" lon="8.906073622741133"><ele>227.0</ele><time>2026-03-28T11:43:05Z</time></trkpt><trkpt lat="38.976972283904765" lon="8.906002685066122"><ele>227.0</ele><time>2026-03-28T11:43:06Z</time></trkpt><trkpt lat="38.97692169466334" lon="8.905912079306011"><ele>227.6</ele><time>2026-03-28T11:43:07Z</time></trkpt><trkpt lat="38.976887141183006" lon="8.905804602109166"><ele>228.2</ele><time>2026-03-28T11:43:08Z</time></trkpt><trkpt lat="38.97685671351697" lon="8.90569229977448"><ele>228.8</ele><time>2026-03-28T11:43:09Z</time></trkpt><trkpt lat="38.976837420833625" lon="8.90557400079166"><ele>229.4</ele><time>2026-03-28T11:43:10Z</time></trkpt><trkpt lat="38.976825951011165" lon="8.905464897182506"><ele>230.0</ele><time>2026-03-28T11:43:11Z</time></trkpt><trkpt lat="38.97683023009929" lon="8.905347869365967"><ele>230.0</ele><time>2026-03-28T11:43:12Z</time></trkpt><trkpt lat="38.97682866190483" lon="8.905212425774426"><ele>230.0</ele><time>2026-03-28T11:43:13Z</time></trkpt><trkpt lat="38.97679279579114" lon="8.905115890690137"><ele>230.0</ele><time>2026-03-28T11:43:14Z</time></trkpt><trkpt lat="38.97672681089541" lon="8.905028917910304"><ele>230.0</ele><time>2026-03-28T11:43:15Z</time></trkpt><trkpt lat="38.97663161138697" lon="8.904965526867525"><ele>230.0</ele><time>2026-03-28T11:43:16Z</time></trkpt><trkpt lat="38.97654513032219" lon="8.904887982259611"><ele>232.8</ele><time>2026-03-28T11:43:17Z</time></trkpt><trkpt lat="38.9764670845445" lon="8.904803215427709"><ele>235.6</ele><time>2026-03-28T11:43:18Z</time></trkpt><trkpt lat="38.97639182707954" lon="8.904719711153307"><ele>238.39999999999998</ele><time>2026-03-28T11:43:19Z</time></trkpt><trkpt lat="38.97632568826577" lon="8.90463037657782"><ele>241.2</ele><time>2026-03-28T11:43:20Z</time></trkpt><trkpt lat="38.976240800580825" lon="8.904595558590636"><ele>244.0</ele><time>2026-03-28T11:43:21Z</time></trkpt><trkpt lat="38.97616869003463" lon="8.904584765127886"><ele>243.99999999999997</ele><time>2026-03-28T11:43:22Z</time></trkpt><trkpt lat="38.9761009306835" lon="8.904613901384549"><ele>244.0</ele><time>2026-03-28T11:43:23Z</time></trkpt><trkpt lat="38.97602854581117" lon="8.904608076741592"><ele>244.0</ele><time>2026-03-28T11:43:24Z</time></trkpt><trkpt lat="38.97596176120928" lon="8.9045573730544"><ele>244.0</ele><time>2026-03-28T11:43:25Z</time></trkpt><trkpt lat="38.9759003148923" lon="8.904483149954187"><ele>243.99999999999997</ele><time>2026-03-28T11:43:26Z</time></trkpt><trkpt lat="38.97585104417407" lon="8.904402084300346"><ele>244.0</ele><time>2026-03-28T11:43:27Z</time></trkpt><trkpt lat="38.97578821907615" lon="8.904343443016554"><ele>245.83333333333331</ele><time>2026-03-28T11:43:28Z</time></trkpt><trkpt lat="38.97572072811078" lon="8.904308853177966"><ele>247.66666666666666</ele><time>2026-03-28T11:43:29Z</time></trkpt><trkpt lat="38.97564815792445" lon="8.90427262191976"><ele>249.5</ele><time>2026-03-28T11:43:30Z</time></trkpt><trkpt lat="38.97555172101917" lon="8.90423635323211"><ele>251.33333333333331</ele><time>2026-03-28T11:43:31Z</time></trkpt><trkpt lat="38.97546867225953" lon="8.904231809559958"><ele>253.16666666666666</ele><time>2026-03-28T11:43:32Z</time></trkpt><trkpt lat="38.9753826234301" lon="8.904239683094568"><ele>255.0</ele><time>2026-03-28T11:43:33Z</time></trkpt><trkpt lat="38.975296105193635" lon="8.904249578894595"><ele>256.0</ele><time>2026-03-28T11:43:34Z</time></trkpt><trkpt lat="38.97520933025996" lon="8.9042604241947"><ele>257.0</ele><time>2026-03-28T11:43:35Z</time></trkpt><trkpt lat="38.97512220566813" lon="8.90425857636359"><ele>258.0</ele><time>2026-03-28T11:43:35.999Z</time></trkpt><trkpt lat="38.97502188270242" lon="8.904275667411522"><ele>259.0</ele><time>2026-03-28T11:43:36.999Z</time></trkpt><trkpt lat="38.97493057280574" lon="8.904278805095831"><ele>260.0</ele><time>2026-03-28T11:43:37.999Z</time></trkpt><trkpt lat="38.974840205423" lon="8.90426514545801"><ele>261.0</ele><time>2026-03-28T11:43:38.999Z</time></trkpt><trkpt lat="38.97473075998968" lon="8.904247573560825"><ele>262.0</ele><time>2026-03-28T11:43:39.999Z</time></trkpt><trkpt lat="38.97462768892895" lon="8.904216370936464"><ele>263.0</ele><time>2026-03-28T11:43:40.999Z</time></trkpt><trkpt lat="38.9745339984024" lon="8.904198814874004"><ele>264.0</ele><time>2026-03-28T11:43:41.999Z</time></trkpt><trkpt lat="38.974459182177576" lon="8.904169661096441"><ele>265.0</ele><time>2026-03-28T11:43:42.999Z</time></trkpt><trkpt lat="38.97439568441157" lon="8.904141221608306"><ele>265.0</ele><time>2026-03-28T11:43:43.999Z</time></trkpt><trkpt lat="38.97432940880476" lon="8.904071081948635"><ele>265.0</ele><time>2026-03-28T11:43:44.999Z</time></trkpt><trkpt lat="38.97428734603093" lon="8.903987098974483"><ele>265.0</ele><time>2026-03-28T11:43:45.999Z</time></trkpt><trkpt lat="38.974255785984354" lon="8.903907938337625"><ele>265.0</ele><time>2026-03-28T11:43:46.999Z</time></trkpt><trkpt lat="38.97425464535787" lon="8.903813823534318"><ele>265.0</ele><time>2026-03-28T11:43:47.999Z</time></trkpt><trkpt lat="38.9742700401362" lon="8.903709743559093"><ele>265.0</ele><time>2026-03-28T11:43:48.999Z</time></trkpt><trkpt lat="38.974257749888274" lon="8.903601649935041"><ele>265.0</ele><time>2026-03-28T11:43:49.999Z</time></trkpt><trkpt lat="38.97423197844593" lon="8.903490291486504"><ele>265.0</ele><time>2026-03-28T11:43:50.999Z</time></trkpt><trkpt lat="38.97418432726289" lon="8.90342497668901"><ele>265.0</ele><time>2026-03-28T11:43:51.999Z</time></trkpt><trkpt lat="38.97410101364675" lon="8.903364826804639"><ele>265.0</ele><time>2026-03-28T11:43:52.999Z</time></trkpt><trkpt lat="38.97403354582991" lon="8.903310893445186"><ele>265.0</ele><time>2026-03-28T11:43:53.999Z</time></trkpt><trkpt lat="38.973972665826174" lon="8.903243220283064"><ele>265.0</ele><time>2026-03-28T11:43:54.999Z</time></trkpt><trkpt lat="38.973933411130005" lon="8.903170145721674"><ele>268.3333333333333</ele><time>2026-03-28T11:43:55.999Z</time></trkpt><trkpt lat="38.97388792397002" lon="8.90304275624674"><ele>271.66666666666663</ele><time>2026-03-28T11:43:57.999Z</time></trkpt><trkpt lat="38.97385078427724" lon="8.902956954692241"><ele>275.0</ele><time>2026-03-28T11:43:59.999Z</time></trkpt><trkpt lat="38.973803725728104" lon="8.903036689175067"><ele>278.3333333333333</ele><time>2026-03-28T11:44:01.999Z</time></trkpt><trkpt lat="38.97383211201255" lon="8.90311895808415"><ele>281.6666666666667</ele><time>2026-03-28T11:44:04.999Z</time></trkpt><trkpt lat="38.97384457880473" lon="8.903218380596163"><ele>285.0</ele><time>2026-03-28T11:44:07.999Z</time></trkpt><trkpt lat="38.97381015350678" lon="8.90329556156664"><ele>284.25</ele><time>2026-03-28T11:44:09.999Z</time></trkpt><trkpt lat="38.97372577765537" lon="8.90350871511399"><ele>283.5</ele><time>2026-03-28T11:44:11.999Z</time></trkpt><trkpt lat="38.9736831597939" lon="8.903569203245244"><ele>282.75</ele><time>2026-03-28T11:44:12.999Z</time></trkpt><trkpt lat="38.97367620688221" lon="8.903748445975387"><ele>282.0</ele><time>2026-03-28T11:44:14.998Z</time></trkpt><trkpt lat="38.973716753659154" lon="8.903833287290642"><ele>282.0</ele><time>2026-03-28T11:44:15.998Z</time></trkpt><trkpt lat="38.97374848025379" lon="8.903905501382049"><ele>282.0</ele><time>2026-03-28T11:44:16.998Z</time></trkpt><trkpt lat="38.973666325611255" lon="8.903915758561705"><ele>282.0</ele><time>2026-03-28T11:44:20.998Z</time></trkpt><trkpt lat="38.97357485602061" lon="8.903771527654687"><ele>282.0</ele><time>2026-03-28T11:44:22.998Z</time></trkpt><trkpt lat="38.97352311822132" lon="8.903680493884433"><ele>282.0</ele><time>2026-03-28T11:44:23.998Z</time></trkpt><trkpt lat="38.973486408158635" lon="8.903605659089635"><ele>282.0</ele><time>2026-03-28T11:44:24.998Z</time></trkpt><trkpt lat="38.973492951920456" lon="8.903448729678502"><ele>282.5</ele><time>2026-03-28T11:44:26.998Z</time></trkpt><trkpt lat="38.973530406745724" lon="8.903366194104386"><ele>283.0</ele><time>2026-03-28T11:44:27.998Z</time></trkpt><trkpt lat="38.97357011273521" lon="8.903271305699054"><ele>283.5</ele><time>2026-03-28T11:44:28.998Z</time></trkpt><trkpt lat="38.97359539806074" lon="8.903170847879801"><ele>284.0</ele><time>2026-03-28T11:44:29.998Z</time></trkpt><trkpt lat="38.973560920869815" lon="8.90304553453751"><ele>284.5</ele><time>2026-03-28T11:44:30.998Z</time></trkpt><trkpt lat="38.97352800594847" lon="8.902957315540258"><ele>285.0</ele><time>2026-03-28T11:44:31.998Z</time></trkpt><trkpt lat="38.97348468382784" lon="8.902880267727141"><ele>285.0</ele><time>2026-03-28T11:44:32.998Z</time></trkpt><trkpt lat="38.97344747825948" lon="8.902799627544185"><ele>285.0</ele><time>2026-03-28T11:44:33.998Z</time></trkpt><trkpt lat="38.97338236368878" lon="8.90270123834855"><ele>285.0</ele><time>2026-03-28T11:44:34.998Z</time></trkpt><trkpt lat="38.973333970129886" lon="8.902559603467235"><ele>285.0</ele><time>2026-03-28T11:44:36.998Z</time></trkpt><trkpt lat="38.97327818897763" lon="8.902401884424561"><ele>285.0</ele><time>2026-03-28T11:44:38.998Z</time></trkpt><trkpt lat="38.973248577070265" lon="8.902329792836667"><ele>289.7142857142857</ele><time>2026-03-28T11:44:39.998Z</time></trkpt><trkpt lat="38.973232708356626" lon="8.902247949647151"><ele>294.42857142857144</ele><time>2026-03-28T11:44:40.998Z</time></trkpt><trkpt lat="38.97322194693018" lon="8.902156723035228"><ele>299.1428571428571</ele><time>2026-03-28T11:44:41.998Z</time></trkpt><trkpt lat="38.973213918462115" lon="8.902068981342408"><ele>303.8571428571429</ele><time>2026-03-28T11:44:42.998Z</time></trkpt><trkpt lat="38.9732004056143" lon="8.901980359604545"><ele>308.5714285714286</ele><time>2026-03-28T11:44:43.998Z</time></trkpt><trkpt lat="38.973168877846746" lon="8.90189955254298"><ele>313.2857142857143</ele><time>2026-03-28T11:44:44.998Z</time></trkpt><trkpt lat="38.97312880551125" lon="8.901822204569504"><ele>318.0</ele><time>2026-03-28T11:44:45.998Z</time></trkpt><trkpt lat="38.97308275169077" lon="8.901759500905701"><ele>319.6666666666667</ele><time>2026-03-28T11:44:46.998Z</time></trkpt><trkpt lat="38.973021733244664" lon="8.90170503557352"><ele>321.3333333333333</ele><time>2026-03-28T11:44:47.998Z</time></trkpt><trkpt lat="38.972962056652925" lon="8.901655683931379"><ele>323.0</ele><time>2026-03-28T11:44:48.998Z</time></trkpt><trkpt lat="38.97291773482425" lon="8.901595551461243"><ele>324.66666666666663</ele><time>2026-03-28T11:44:49.998Z</time></trkpt><trkpt lat="38.97286175972266" lon="8.901495483481286"><ele>326.3333333333333</ele><time>2026-03-28T11:44:51.998Z</time></trkpt><trkpt lat="38.97282201638529" lon="8.901421944160772"><ele>328.0</ele><time>2026-03-28T11:45:04Z</time></trkpt><trkpt lat="38.97273331827687" lon="8.901334455662926"><ele>328.0</ele><time>2026-03-28T11:45:06Z</time></trkpt><trkpt lat="38.97264507311629" lon="8.90124137579016"><ele>328.0</ele><time>2026-03-28T11:45:08Z</time></trkpt><trkpt lat="38.97259433931445" lon="8.901107354656835"><ele>328.0</ele><time>2026-03-28T11:45:10Z</time></trkpt><trkpt lat="38.97258560244505" lon="8.90094202969813"><ele>328.0</ele><time>2026-03-28T11:45:12Z</time></trkpt><trkpt lat="38.9725945045048" lon="8.90084623102567"><ele>328.0</ele><time>2026-03-28T11:45:13Z</time></trkpt><trkpt lat="38.97258372210173" lon="8.900753065983912"><ele>327.3333333333333</ele><time>2026-03-28T11:45:14Z</time></trkpt><trkpt lat="38.97256670386851" lon="8.900673369957376"><ele>326.66666666666663</ele><time>2026-03-28T11:45:15Z</time></trkpt><trkpt lat="38.972529965627416" lon="8.900600946946803"><ele>326.0</ele><time>2026-03-28T11:45:16Z</time></trkpt><trkpt lat="38.97249003854056" lon="8.90053759420896"><ele>325.3333333333333</ele><time>2026-03-28T11:45:17Z</time></trkpt><trkpt lat="38.972400034981284" lon="8.900433796313914"><ele>324.6666666666667</ele><time>2026-03-28T11:45:19Z</time></trkpt><trkpt lat="38.97233534585233" lon="8.900415406916181"><ele>324.0</ele><time>2026-03-28T11:45:20Z</time></trkpt><trkpt lat="38.972265825274164" lon="8.900388781980455"><ele>324.0</ele><time>2026-03-28T11:45:21Z</time></trkpt><trkpt lat="38.97219889622186" lon="8.900372728686886"><ele>324.0</ele><time>2026-03-28T11:45:22Z</time></trkpt><trkpt lat="38.97213229784025" lon="8.900327733741584"><ele>324.0</ele><time>2026-03-28T11:45:23Z</time></trkpt><trkpt lat="38.97207201188593" lon="8.90025164616763"><ele>324.0</ele><time>2026-03-28T11:45:24Z</time></trkpt><trkpt lat="38.97200483933668" lon="8.900173989034919"><ele>324.0</ele><time>2026-03-28T11:45:25Z</time></trkpt><trkpt lat="38.97196880407057" lon="8.900072027720835"><ele>324.0</ele><time>2026-03-28T11:45:26Z</time></trkpt><trkpt lat="38.971932519191505" lon="8.899930352519288"><ele>324.4</ele><time>2026-03-28T11:45:27Z</time></trkpt><trkpt lat="38.97188035527693" lon="8.899803029182618"><ele>324.79999999999995</ele><time>2026-03-28T11:45:28Z</time></trkpt><trkpt lat="38.97182931132255" lon="8.89970430102339"><ele>325.20000000000005</ele><time>2026-03-28T11:45:29Z</time></trkpt><trkpt lat="38.97176808737863" lon="8.89960863498316"><ele>325.6</ele><time>2026-03-28T11:45:30Z</time></trkpt><trkpt lat="38.97169979454398" lon="8.899493985173171"><ele>326.0</ele><time>2026-03-28T11:45:31Z</time></trkpt><trkpt lat="38.97162935071417" lon="8.899398735493829"><ele>326.0</ele><time>2026-03-28T11:45:32Z</time></trkpt><trkpt lat="38.97156226992675" lon="8.899338006583394"><ele>326.0</ele><time>2026-03-28T11:45:33Z</time></trkpt><trkpt lat="38.97148412154589" lon="8.899301009770152"><ele>326.0</ele><time>2026-03-28T11:45:34Z</time></trkpt><trkpt lat="38.971426959606525" lon="8.899249904790498"><ele>326.0</ele><time>2026-03-28T11:45:35Z</time></trkpt><trkpt lat="38.971389534909726" lon="8.899178324878104"><ele>326.0</ele><time>2026-03-28T11:45:36Z</time></trkpt><trkpt lat="38.97135324539658" lon="8.89908476859858"><ele>326.0</ele><time>2026-03-28T11:45:37Z</time></trkpt><trkpt lat="38.97132414354296" lon="8.898972550514692"><ele>325.33333333333337</ele><time>2026-03-28T11:45:38Z</time></trkpt><trkpt lat="38.97128332963008" lon="8.898882760926211"><ele>324.6666666666667</ele><time>2026-03-28T11:45:39Z</time></trkpt><trkpt lat="38.971225311080346" lon="8.898806584697535"><ele>324.0</ele><time>2026-03-28T11:45:39.999Z</time></trkpt><trkpt lat="38.971159413967364" lon="8.898729782906816"><ele>323.3333333333333</ele><time>2026-03-28T11:45:40.999Z</time></trkpt><trkpt lat="38.97109224356485" lon="8.898646250876288"><ele>322.66666666666663</ele><time>2026-03-28T11:45:41.999Z</time></trkpt><trkpt lat="38.97103206038439" lon="8.89855380713563"><ele>322.0</ele><time>2026-03-28T11:45:42.999Z</time></trkpt><trkpt lat="38.97097835453397" lon="8.898474242194006"><ele>326.20000000000005</ele><time>2026-03-28T11:45:43.999Z</time></trkpt><trkpt lat="38.97092450589498" lon="8.898410760097606"><ele>330.4</ele><time>2026-03-28T11:45:44.999Z</time></trkpt><trkpt lat="38.970854312915755" lon="8.898331609215656"><ele>334.6</ele><time>2026-03-28T11:45:45.999Z</time></trkpt><trkpt lat="38.97077909464114" lon="8.898252993790855"><ele>338.79999999999995</ele><time>2026-03-28T11:45:46.999Z</time></trkpt><trkpt lat="38.97069687095914" lon="8.898186899084827"><ele>343.0</ele><time>2026-03-28T11:45:47.999Z</time></trkpt><trkpt lat="38.97061263325099" lon="8.898116947476609"><ele>343.0</ele><time>2026-03-28T11:45:48.999Z</time></trkpt><trkpt lat="38.970529530136" lon="8.898067581482023"><ele>343.0</ele><time>2026-03-28T11:45:49.999Z</time></trkpt><trkpt lat="38.970430166349885" lon="8.898007456192216"><ele>343.0</ele><time>2026-03-28T11:45:50.999Z</time></trkpt><trkpt lat="38.970322121623205" lon="8.897940200399422"><ele>343.0</ele><time>2026-03-28T11:45:51.999Z</time></trkpt><trkpt lat="38.970229014631826" lon="8.897867274900412"><ele>343.0</ele><time>2026-03-28T11:45:52.999Z</time></trkpt><trkpt lat="38.97014603073744" lon="8.897786844942917"><ele>343.0</ele><time>2026-03-28T11:45:53.999Z</time></trkpt><trkpt lat="38.97008457693019" lon="8.897692532608904"><ele>343.0</ele><time>2026-03-28T11:45:54.999Z</time></trkpt><trkpt lat="38.97003332977619" lon="8.897582836853482"><ele>343.0</ele><time>2026-03-28T11:45:55.999Z</time></trkpt><trkpt lat="38.96997830874702" lon="8.897453145209198"><ele>343.0</ele><time>2026-03-28T11:45:56.999Z</time></trkpt><trkpt lat="38.969924603492174" lon="8.897333258340081"><ele>343.0</ele><time>2026-03-28T11:45:57.999Z</time></trkpt><trkpt lat="38.96987945917081" lon="8.89722090441686"><ele>344.4</ele><time>2026-03-28T11:45:58.999Z</time></trkpt><trkpt lat="38.96983522398514" lon="8.897083747511207"><ele>345.79999999999995</ele><time>2026-03-28T11:45:59.999Z</time></trkpt><trkpt lat="38.969794453131975" lon="8.896950042009795"><ele>347.2</ele><time>2026-03-28T11:46:00.999Z</time></trkpt><trkpt lat="38.969758013435076" lon="8.896838180064778"><ele>348.6</ele><time>2026-03-28T11:46:01.999Z</time></trkpt><trkpt lat="38.969725846179124" lon="8.89674255659563"><ele>350.0</ele><time>2026-03-28T11:46:02.999Z</time></trkpt><trkpt lat="38.96970700087807" lon="8.896649481475631"><ele>350.0</ele><time>2026-03-28T11:46:03.999Z</time></trkpt><trkpt lat="38.96964587001121" lon="8.896537923809413"><ele>350.0</ele><time>2026-03-28T11:46:05.999Z</time></trkpt><trkpt lat="38.96955842906383" lon="8.896551571560261"><ele>350.0</ele><time>2026-03-28T11:46:08.999Z</time></trkpt><trkpt lat="38.969484309693975" lon="8.896694372223578"><ele>350.0</ele><time>2026-03-28T11:46:10.999Z</time></trkpt><trkpt lat="38.969473851110784" lon="8.896780450199794"><ele>350.0</ele><time>2026-03-28T11:46:11.999Z</time></trkpt><trkpt lat="38.96948145639308" lon="8.896862732693402"><ele>350.0</ele><time>2026-03-28T11:46:12.999Z</time></trkpt><trkpt lat="38.96950061014637" lon="8.89696137438916"><ele>350.0</ele><time>2026-03-28T11:46:13.999Z</time></trkpt><trkpt lat="38.969500780140024" lon="8.897058164095188"><ele>350.0</ele><time>2026-03-28T11:46:14.999Z</time></trkpt><trkpt lat="38.96949635030763" lon="8.897180985176108"><ele>350.0</ele><time>2026-03-28T11:46:15.999Z</time></trkpt><trkpt lat="38.969502371197876" lon="8.89733010891893"><ele>350.0</ele><time>2026-03-28T11:46:16.999Z</time></trkpt><trkpt lat="38.96950919782656" lon="8.897513017137241"><ele>349.75</ele><time>2026-03-28T11:46:17.999Z</time></trkpt><trkpt lat="38.96950263871605" lon="8.89771133464777"><ele>349.5</ele><time>2026-03-28T11:46:18.998Z</time></trkpt><trkpt lat="38.96949988096823" lon="8.897860987516328"><ele>349.25</ele><time>2026-03-28T11:46:19.998Z</time></trkpt><trkpt lat="38.96952395854378" lon="8.897992260292726"><ele>349.0</ele><time>2026-03-28T11:46:20.998Z</time></trkpt><trkpt lat="38.9695743778727" lon="8.898125997132093"><ele>349.0</ele><time>2026-03-28T11:46:21.998Z</time></trkpt><trkpt lat="38.969577974198124" lon="8.898232291093866"><ele>349.0</ele><time>2026-03-28T11:46:22.998Z</time></trkpt><trkpt lat="38.969532854733515" lon="8.898318263529095"><ele>349.0</ele><time>2026-03-28T11:46:23.998Z</time></trkpt><trkpt lat="38.96946275613923" lon="8.89844171781182"><ele>349.0</ele><time>2026-03-28T11:46:24.998Z</time></trkpt><trkpt lat="38.969414773651984" lon="8.898594754949947"><ele>349.0</ele><time>2026-03-28T11:46:25.998Z</time></trkpt><trkpt lat="38.96938322278629" lon="8.898768771280563"><ele>352.0</ele><time>2026-03-28T11:46:26.998Z</time></trkpt><trkpt lat="38.96935458321834" lon="8.89890520397969"><ele>355.0</ele><time>2026-03-28T11:46:27.998Z</time></trkpt><trkpt lat="38.969308364734886" lon="8.899001854353449"><ele>358.0</ele><time>2026-03-28T11:46:28.998Z</time></trkpt><trkpt lat="38.969255036960945" lon="8.89906860794493"><ele>361.0</ele><time>2026-03-28T11:46:29.998Z</time></trkpt><trkpt lat="38.96917921868056" lon="8.899154772620673"><ele>364.0</ele><time>2026-03-28T11:46:31.998Z</time></trkpt><trkpt lat="38.96920815421351" lon="8.899257154941168"><ele>367.79999999999995</ele><time>2026-03-28T11:47:24Z</time></trkpt><trkpt lat="38.969270606325814" lon="8.899306071692195"><ele>371.59999999999997</ele><time>2026-03-28T11:47:26Z</time></trkpt><trkpt lat="38.96938654275698" lon="8.899384258982424"><ele>375.4</ele><time>2026-03-28T11:47:28Z</time></trkpt><trkpt lat="38.9694813555708" lon="8.899410865347138"><ele>379.2</ele><time>2026-03-28T11:47:29Z</time></trkpt><trkpt lat="38.969566115387615" lon="8.89943825052313"><ele>383.0</ele><time>2026-03-28T11:47:30Z</time></trkpt><trkpt lat="38.96965234835463" lon="8.899462627391767"><ele>383.0</ele><time>2026-03-28T11:47:31Z</time></trkpt><trkpt lat="38.96974049335467" lon="8.899480946974153"><ele>383.0</ele><time>2026-03-28T11:47:32Z</time></trkpt><trkpt lat="38.96982667748138" lon="8.899499808757962"><ele>383.0</ele><time>2026-03-28T11:47:33Z</time></trkpt><trkpt lat="38.9699128276465" lon="8.899516656383804"><ele>383.0</ele><time>2026-03-28T11:47:34Z</time></trkpt><trkpt lat="38.96998690478958" lon="8.899542505765071"><ele>383.0</ele><time>2026-03-28T11:47:35Z</time></trkpt><trkpt lat="38.97002122127158" lon="8.899691528919861"><ele>383.0</ele><time>2026-03-28T11:47:37Z</time></trkpt><trkpt lat="38.969947788266076" lon="8.899783142809452"><ele>383.0</ele><time>2026-03-28T11:47:39Z</time></trkpt><trkpt lat="38.969871756721496" lon="8.899815095468647"><ele>383.0</ele><time>2026-03-28T11:47:40Z</time></trkpt><trkpt lat="38.969791223234715" lon="8.899857069153276"><ele>383.0</ele><time>2026-03-28T11:47:41Z</time></trkpt><trkpt lat="38.96971353205471" lon="8.899892710343638"><ele>383.0</ele><time>2026-03-28T11:47:42Z</time></trkpt><trkpt lat="38.96961944609181" lon="8.899923664071176"><ele>383.0</ele><time>2026-03-28T11:47:42.999Z</time></trkpt><trkpt lat="38.969532454751324" lon="8.899939745065579"><ele>383.0</ele><time>2026-03-28T11:47:43.999Z</time></trkpt><trkpt lat="38.969459514151126" lon="8.899934521656911"><ele>383.0</ele><time>2026-03-28T11:47:44.999Z</time></trkpt><trkpt lat="38.9693895930902" lon="8.89991489246122"><ele>383.0</ele><time>2026-03-28T11:47:45.999Z</time></trkpt><trkpt lat="38.96932644396622" lon="8.899956387518406"><ele>383.0</ele><time>2026-03-28T11:47:47.999Z</time></trkpt><trkpt lat="38.96937865493921" lon="8.900079622649423"><ele>383.0</ele><time>2026-03-28T11:47:49.999Z</time></trkpt><trkpt lat="38.96944631261578" lon="8.900128223810624"><ele>383.0</ele><time>2026-03-28T11:47:50.999Z</time></trkpt><trkpt lat="38.969532186925846" lon="8.90018642230341"><ele>386.59999999999997</ele><time>2026-03-28T11:47:51.999Z</time></trkpt><trkpt lat="38.96963046463989" lon="8.900257857116781"><ele>390.2</ele><time>2026-03-28T11:47:52.999Z</time></trkpt><trkpt lat="38.96971135761634" lon="8.90032075474136"><ele>393.8</ele><time>2026-03-28T11:47:53.999Z</time></trkpt><trkpt lat="38.9697778397588" lon="8.900397738406935"><ele>397.4</ele><time>2026-03-28T11:47:54.999Z</time></trkpt><trkpt lat="38.96984857566769" lon="8.900498950073331"><ele>401.0</ele><time>2026-03-28T11:47:55.999Z</time></trkpt><trkpt lat="38.96990685262213" lon="8.900624125158963"><ele>401.0</ele><time>2026-03-28T11:47:56.999Z</time></trkpt><trkpt lat="38.96994946865028" lon="8.900749667979856"><ele>401.0</ele><time>2026-03-28T11:47:57.999Z</time></trkpt><trkpt lat="38.970009125213906" lon="8.900863843471805"><ele>401.0</ele><time>2026-03-28T11:47:58.999Z</time></trkpt><trkpt lat="38.97006954055178" lon="8.900951002053334"><ele>401.0</ele><time>2026-03-28T11:47:59.999Z</time></trkpt><trkpt lat="38.97013041139135" lon="8.90100644450273"><ele>401.0</ele><time>2026-03-28T11:48:00.999Z</time></trkpt><trkpt lat="38.97017568862261" lon="8.901077079400842"><ele>400.99999999999994</ele><time>2026-03-28T11:48:02.999Z</time></trkpt><trkpt lat="38.97009317270354" lon="8.9011059558711"><ele>401.0</ele><time>2026-03-28T11:48:05.999Z</time></trkpt><trkpt lat="38.97002696432745" lon="8.901076231458566"><ele>401.0</ele><time>2026-03-28T11:48:07.999Z</time></trkpt><trkpt lat="38.96995109940863" lon="8.901036537437948"><ele>401.0</ele><time>2026-03-28T11:48:10.999Z</time></trkpt><trkpt lat="38.96988223120335" lon="8.900974783721727"><ele>400.99999999999994</ele><time>2026-03-28T11:48:13.999Z</time></trkpt><trkpt lat="38.969795107339785" lon="8.900884177735701"><ele>401.0</ele><time>2026-03-28T11:48:15.999Z</time></trkpt><trkpt lat="38.96974190771064" lon="8.900811240996822"><ele>400.99999999999994</ele><time>2026-03-28T11:48:16.999Z</time></trkpt><trkpt lat="38.96968183100037" lon="8.900723666568219"><ele>401.0</ele><time>2026-03-28T11:48:17.999Z</time></trkpt><trkpt lat="38.96962080892398" lon="8.900640313109594"><ele>401.0</ele><time>2026-03-28T11:48:18.999Z</time></trkpt><trkpt lat="38.96956019734876" lon="8.900579303071607"><ele>401.0</ele><time>2026-03-28T11:48:19.999Z</time></trkpt><trkpt lat="38.96948570254549" lon="8.900549476762073"><ele>400.99999999999994</ele><time>2026-03-28T11:48:20.999Z</time></trkpt><trkpt lat="38.96940877734949" lon="8.900542968705327"><ele>401.0</ele><time>2026-03-28T11:48:21.998Z</time></trkpt><trkpt lat="38.96934301770915" lon="8.900603185374091"><ele>400.99999999999994</ele><time>2026-03-28T11:48:23.998Z</time></trkpt><trkpt lat="38.96939361254347" lon="8.90071597522189"><ele>401.0</ele><time>2026-03-28T11:48:25.998Z</time></trkpt><trkpt lat="38.969447350813965" lon="8.900771881056837"><ele>401.0</ele><time>2026-03-28T11:48:26.998Z</time></trkpt><trkpt lat="38.9694935648599" lon="8.900847050467776"><ele>401.0</ele><time>2026-03-28T11:48:27.998Z</time></trkpt><trkpt lat="38.969517318384014" lon="8.900933178480523"><ele>400.99999999999994</ele><time>2026-03-28T11:48:28.998Z</time></trkpt><trkpt lat="38.969536768896056" lon="8.901038885925237"><ele>401.0</ele><time>2026-03-28T11:48:29.998Z</time></trkpt><trkpt lat="38.969544250812675" lon="8.901140938426416"><ele>403.8333333333333</ele><time>2026-03-28T11:48:30.998Z</time></trkpt><trkpt lat="38.96954262994725" lon="8.901234671010371"><ele>406.66666666666663</ele><time>2026-03-28T11:48:31.998Z</time></trkpt><trkpt lat="38.9695535570674" lon="8.901319693583421"><ele>409.5</ele><time>2026-03-28T11:48:32.998Z</time></trkpt><trkpt lat="38.96958968792182" lon="8.901397448362921"><ele>412.33333333333337</ele><time>2026-03-28T11:48:33.998Z</time></trkpt><trkpt lat="38.96962253416879" lon="8.901477490697154"><ele>415.1666666666667</ele><time>2026-03-28T11:48:34.998Z</time></trkpt><trkpt lat="38.96968373550019" lon="8.901598772238277"><ele>418.0</ele><time>2026-03-28T11:48:36.998Z</time></trkpt><trkpt lat="38.969728606536066" lon="8.90166425020188"><ele>418.0</ele><time>2026-03-28T11:48:37.998Z</time></trkpt><trkpt lat="38.96976805786479" lon="8.901730525602414"><ele>418.0</ele><time>2026-03-28T11:48:38.998Z</time></trkpt><trkpt lat="38.96980588978442" lon="8.901801822605167"><ele>418.0</ele><time>2026-03-28T11:48:39.998Z</time></trkpt><trkpt lat="38.9697990007865" lon="8.901910781204316"><ele>418.0</ele><time>2026-03-28T11:48:41.998Z</time></trkpt><trkpt lat="38.96972773308396" lon="8.901924460903022"><ele>418.0</ele><time>2026-03-28T11:48:43.998Z</time></trkpt><trkpt lat="38.969668731818594" lon="8.901887309199687"><ele>418.0</ele><time>2026-03-28T11:48:44.998Z</time></trkpt><trkpt lat="38.969600965230285" lon="8.901832172470312"><ele>418.0</ele><time>2026-03-28T11:48:45.998Z</time></trkpt><trkpt lat="38.96953560141369" lon="8.901774901672464"><ele>418.00000000000006</ele><time>2026-03-28T11:48:46.998Z</time></trkpt><trkpt lat="38.969466837160184" lon="8.901704290357282"><ele>418.0</ele><time>2026-03-28T11:48:47.998Z</time></trkpt><trkpt lat="38.96939073360402" lon="8.901631297244904"><ele>418.0</ele><time>2026-03-28T11:48:48.998Z</time></trkpt><trkpt lat="38.969317651595446" lon="8.901581010374851"><ele>418.0</ele><time>2026-03-28T11:48:49.998Z</time></trkpt><trkpt lat="38.969238809571266" lon="8.901548988959368"><ele>418.00000000000006</ele><time>2026-03-28T11:48:50.998Z</time></trkpt><trkpt lat="38.969164773625906" lon="8.901514981828772"><ele>418.0</ele><time>2026-03-28T11:48:51.998Z</time></trkpt><trkpt lat="38.96908913384741" lon="8.901472159157143"><ele>424.5</ele><time>2026-03-28T11:48:52.998Z</time></trkpt><trkpt lat="38.968942141141326" lon="8.901420752933445"><ele>431.0</ele><time>2026-03-28T11:48:54.998Z</time></trkpt><trkpt lat="38.968841277668986" lon="8.901442761345008"><ele>437.5</ele><time>2026-03-28T11:48:55.998Z</time></trkpt><trkpt lat="38.96876561249121" lon="8.901443334024291"><ele>444.0</ele><time>2026-03-28T11:48:56.998Z</time></trkpt><trkpt lat="38.96864393969604" lon="8.901444424549808"><ele>444.0</ele><time>2026-03-28T11:48:58.998Z</time></trkpt><trkpt lat="38.968581725861014" lon="8.901411174010082"><ele>444.0</ele><time>2026-03-28T11:48:59.998Z</time></trkpt><trkpt lat="38.9685157702355" lon="8.901347913466697"><ele>444.0</ele><time>2026-03-28T11:49:00.998Z</time></trkpt><trkpt lat="38.968442793496706" lon="8.901293771293854"><ele>444.0</ele><time>2026-03-28T11:49:01.997Z</time></trkpt><trkpt lat="38.96832575992427" lon="8.901292340356772"><ele>444.0</ele><time>2026-03-28T11:49:03.997Z</time></trkpt><trkpt lat="38.968260558652084" lon="8.90134092159952"><ele>444.0</ele><time>2026-03-28T11:49:04.997Z</time></trkpt><trkpt lat="38.9681904933765" lon="8.901389336560896"><ele>447.1666666666667</ele><time>2026-03-28T11:49:05.997Z</time></trkpt><trkpt lat="38.96812465704246" lon="8.901419396760941"><ele>450.33333333333337</ele><time>2026-03-28T11:49:06.997Z</time></trkpt><trkpt lat="38.968056379046054" lon="8.901431001219978"><ele>453.5</ele><time>2026-03-28T11:49:07.997Z</time></trkpt><trkpt lat="38.967991296709826" lon="8.901418088401423"><ele>456.6666666666667</ele><time>2026-03-28T11:49:08.997Z</time></trkpt><trkpt lat="38.96792205684292" lon="8.901397529889977"><ele>459.83333333333337</ele><time>2026-03-28T11:49:09.997Z</time></trkpt><trkpt lat="38.96783985698809" lon="8.901455499802266"><ele>463.0</ele><time>2026-03-28T11:49:11.997Z</time></trkpt><trkpt lat="38.96783400424259" lon="8.901617842630737"><ele>463.00000000000006</ele><time>2026-03-28T11:49:13.997Z</time></trkpt><trkpt lat="38.967861519693436" lon="8.90169983579763"><ele>463.0</ele><time>2026-03-28T11:49:15Z</time></trkpt><trkpt lat="38.96789936633896" lon="8.901777158195754"><ele>463.0</ele><time>2026-03-28T11:49:16Z</time></trkpt><trkpt lat="38.96794704009951" lon="8.901875613535102"><ele>463.0</ele><time>2026-03-28T11:49:17Z</time></trkpt><trkpt lat="38.968012021540424" lon="8.901966826606788"><ele>463.00000000000006</ele><time>2026-03-28T11:49:18Z</time></trkpt><trkpt lat="38.968066966752644" lon="8.902081586463392"><ele>463.0</ele><time>2026-03-28T11:49:19Z</time></trkpt><trkpt lat="38.9681079350655" lon="8.902210503107085"><ele>465.4</ele><time>2026-03-28T11:49:20Z</time></trkpt><trkpt lat="38.96813251084634" lon="8.902338418420863"><ele>467.79999999999995</ele><time>2026-03-28T11:49:21Z</time></trkpt><trkpt lat="38.9681500870579" lon="8.902465913822173"><ele>470.2</ele><time>2026-03-28T11:49:22Z</time></trkpt><trkpt lat="38.96816174709986" lon="8.902594993862127"><ele>472.6</ele><time>2026-03-28T11:49:23Z</time></trkpt><trkpt lat="38.96816429323321" lon="8.902723099835745"><ele>475.0</ele><time>2026-03-28T11:49:24Z</time></trkpt><trkpt lat="38.968150501953176" lon="8.902847672671262"><ele>476.33333333333337</ele><time>2026-03-28T11:49:25Z</time></trkpt><trkpt lat="38.96812550529364" lon="8.90295694785061"><ele>477.6666666666667</ele><time>2026-03-28T11:49:26Z</time></trkpt><trkpt lat="38.96810685689551" lon="8.903063994764837"><ele>479.0</ele><time>2026-03-28T11:49:27Z</time></trkpt><trkpt lat="38.968098746182264" lon="8.903171519091632"><ele>480.33333333333337</ele><time>2026-03-28T11:49:28Z</time></trkpt><trkpt lat="38.96807699838679" lon="8.903283658519484"><ele>481.6666666666667</ele><time>2026-03-28T11:49:29Z</time></trkpt><trkpt lat="38.968061341600624" lon="8.903384616537254"><ele>483.0</ele><time>2026-03-28T11:49:30Z</time></trkpt><trkpt lat="38.968031062412315" lon="8.903480524432995"><ele>484.0</ele><time>2026-03-28T11:49:31Z</time></trkpt><trkpt lat="38.96799758538215" lon="8.9035841669139"><ele>485.0</ele><time>2026-03-28T11:49:32Z</time></trkpt><trkpt lat="38.96795761973718" lon="8.903673749264923"><ele>486.0</ele><time>2026-03-28T11:49:33Z</time></trkpt><trkpt lat="38.96789644874024" lon="8.90374008734494"><ele>487.0</ele><time>2026-03-28T11:49:34Z</time></trkpt><trkpt lat="38.96785382452714" lon="8.90381586153391"><ele>488.0</ele><time>2026-03-28T11:49:35Z</time></trkpt><trkpt lat="38.96780641526119" lon="8.90388423755652"><ele>489.0</ele><time>2026-03-28T11:49:36Z</time></trkpt><trkpt lat="38.96775993084077" lon="8.903959755345046"><ele>489.0</ele><time>2026-03-28T11:49:37Z</time></trkpt><trkpt lat="38.96772167214423" lon="8.90402776941133"><ele>489.0</ele><time>2026-03-28T11:49:38Z</time></trkpt><trkpt lat="38.967677945942256" lon="8.904166588707444"><ele>489.0</ele><time>2026-03-28T11:49:40Z</time></trkpt><trkpt lat="38.96761544587146" lon="8.904252601092404"><ele>489.0</ele><time>2026-03-28T11:49:42Z</time></trkpt><trkpt lat="38.967511735510904" lon="8.904202676009726"><ele>489.0</ele><time>2026-03-28T11:49:44Z</time></trkpt><trkpt lat="38.967451669029714" lon="8.904137120362675"><ele>491.79999999999995</ele><time>2026-03-28T11:49:45Z</time></trkpt><trkpt lat="38.96739716613904" lon="8.904068973568133"><ele>494.59999999999997</ele><time>2026-03-28T11:49:46Z</time></trkpt><trkpt lat="38.96730599420011" lon="8.903970253320121"><ele>497.4</ele><time>2026-03-28T11:49:47.999Z</time></trkpt><trkpt lat="38.967185606249565" lon="8.903905540327658"><ele>500.2</ele><time>2026-03-28T11:49:49.999Z</time></trkpt><trkpt lat="38.9671176843992" lon="8.903879567731629"><ele>503.0</ele><time>2026-03-28T11:49:50.999Z</time></trkpt><trkpt lat="38.96699604310519" lon="8.903849656861691"><ele>503.0</ele><time>2026-03-28T11:49:52.999Z</time></trkpt><trkpt lat="38.96693218473245" lon="8.903835052883817"><ele>503.00000000000006</ele><time>2026-03-28T11:49:53.999Z</time></trkpt><trkpt lat="38.966866621759564" lon="8.90381721297034"><ele>503.0</ele><time>2026-03-28T11:49:54.999Z</time></trkpt><trkpt lat="38.96680110286152" lon="8.903796855847663"><ele>503.0</ele><time>2026-03-28T11:49:55.999Z</time></trkpt><trkpt lat="38.9667349364615" lon="8.903771681818059"><ele>503.00000000000006</ele><time>2026-03-28T11:49:56.999Z</time></trkpt><trkpt lat="38.966668443877296" lon="8.903734984389367"><ele>503.0</ele><time>2026-03-28T11:49:57.999Z</time></trkpt><trkpt lat="38.966605582373724" lon="8.903682830643696"><ele>503.0</ele><time>2026-03-28T11:49:58.999Z</time></trkpt><trkpt lat="38.9665473889105" lon="8.903624398012933"><ele>504.0</ele><time>2026-03-28T11:49:59.999Z</time></trkpt><trkpt lat="38.96649984122139" lon="8.903567858095979"><ele>504.99999999999994</ele><time>2026-03-28T11:50:00.999Z</time></trkpt><trkpt lat="38.966413238148476" lon="8.903457939156135"><ele>505.99999999999994</ele><time>2026-03-28T11:50:02.999Z</time></trkpt><trkpt lat="38.96630104810981" lon="8.903378423265316"><ele>507.0</ele><time>2026-03-28T11:50:04.999Z</time></trkpt><trkpt lat="38.96623073830924" lon="8.903347289902838"><ele>508.0</ele><time>2026-03-28T11:50:05.999Z</time></trkpt><trkpt lat="38.966154631229095" lon="8.90332260426319"><ele>508.0</ele><time>2026-03-28T11:50:06.999Z</time></trkpt><trkpt lat="38.966068961795116" lon="8.90330577128676"><ele>507.99999999999994</ele><time>2026-03-28T11:50:07.999Z</time></trkpt><trkpt lat="38.96597489392666" lon="8.903280455673139"><ele>507.99999999999994</ele><time>2026-03-28T11:50:08.999Z</time></trkpt><trkpt lat="38.96589046932946" lon="8.903229306417554"><ele>508.0</ele><time>2026-03-28T11:50:09.999Z</time></trkpt><trkpt lat="38.96579929918201" lon="8.903183221868215"><ele>508.0</ele><time>2026-03-28T11:50:10.999Z</time></trkpt><trkpt lat="38.9657151143662" lon="8.903162713105687"><ele>506.6666666666667</ele><time>2026-03-28T11:50:11.999Z</time></trkpt><trkpt lat="38.965641675268074" lon="8.903148281205977"><ele>505.33333333333337</ele><time>2026-03-28T11:50:12.999Z</time></trkpt><trkpt lat="38.96556642514767" lon="8.903134981659937"><ele>504.0</ele><time>2026-03-28T11:50:13.999Z</time></trkpt><trkpt lat="38.96548452106595" lon="8.903126367441411"><ele>502.66666666666663</ele><time>2026-03-28T11:50:14.999Z</time></trkpt><trkpt lat="38.96540089629889" lon="8.903111189786307"><ele>501.3333333333333</ele><time>2026-03-28T11:50:15.999Z</time></trkpt><trkpt lat="38.965328100559425" lon="8.903104407742775"><ele>500.0</ele><time>2026-03-28T11:50:16.999Z</time></trkpt><trkpt lat="38.965233256191084" lon="8.903147178464941"><ele>500.0</ele><time>2026-03-28T11:50:18.999Z</time></trkpt><trkpt lat="38.96519049989103" lon="8.90322638683899"><ele>500.0</ele><time>2026-03-28T11:50:21.999Z</time></trkpt><trkpt lat="38.96515134552656" lon="8.903291811308637"><ele>500.0</ele><time>2026-03-28T11:50:24.999Z</time></trkpt><trkpt lat="38.96520145665241" lon="8.90322829305143"><ele>500.0</ele><time>2026-03-28T11:50:28.998Z</time></trkpt><trkpt lat="38.96517394117958" lon="8.903152841555542"><ele>500.0</ele><time>2026-03-28T11:50:31.998Z</time></trkpt><trkpt lat="38.96510995275763" lon="8.903161352900922"><ele>500.0</ele><time>2026-03-28T11:50:53.998Z</time></trkpt><trkpt lat="38.96507001731223" lon="8.903062643551658"><ele>500.0</ele><time>2026-03-28T11:50:57.998Z</time></trkpt><trkpt lat="38.965096315946155" lon="8.902966798695203"><ele>499.99999999999994</ele><time>2026-03-28T11:51:02.998Z</time></trkpt><trkpt lat="38.965192005489016" lon="8.902946106072108"><ele>500.0</ele><time>2026-03-28T11:51:05.997Z</time></trkpt><trkpt lat="38.965263929973034" lon="8.902889611491743"><ele>500.0</ele><time>2026-03-28T11:51:07.997Z</time></trkpt><trkpt lat="38.965343336322064" lon="8.90284731699533"><ele>500.0</ele><time>2026-03-28T11:51:09.997Z</time></trkpt><trkpt lat="38.96537703566884" lon="8.902760774287586"><ele>499.99999999999994</ele><time>2026-03-28T11:51:12.997Z</time></trkpt><trkpt lat="38.96542636382822" lon="8.902664457852724"><ele>500.0</ele><time>2026-03-28T11:51:14.997Z</time></trkpt><trkpt lat="38.965471365075196" lon="8.902598526206582"><ele>502.3333333333333</ele><time>2026-03-28T11:51:16.997Z</time></trkpt><trkpt lat="38.96551078721221" lon="8.902532754244842"><ele>504.66666666666663</ele><time>2026-03-28T11:51:18.997Z</time></trkpt><trkpt lat="38.96552331177408" lon="8.902446126391661"><ele>507.0</ele><time>2026-03-28T11:51:21Z</time></trkpt><trkpt lat="38.96549353507293" lon="8.902321232916554"><ele>509.33333333333337</ele><time>2026-03-28T11:51:23Z</time></trkpt><trkpt lat="38.96552603631028" lon="8.902202496133157"><ele>511.6666666666667</ele><time>2026-03-28T11:51:25Z</time></trkpt><trkpt lat="38.96552023691638" lon="8.902091095448244"><ele>514.0</ele><time>2026-03-28T11:51:28Z</time></trkpt><trkpt lat="38.96550106398722" lon="8.901994838746129"><ele>514.0</ele><time>2026-03-28T11:51:30Z</time></trkpt><trkpt lat="38.965495201733404" lon="8.901909230802941"><ele>514.0</ele><time>2026-03-28T11:51:32Z</time></trkpt><trkpt lat="38.965500876462066" lon="8.901783932028975"><ele>514.0</ele><time>2026-03-28T11:51:34Z</time></trkpt><trkpt lat="38.96550018561812" lon="8.901651778914188"><ele>514.0</ele><time>2026-03-28T11:51:37Z</time></trkpt><trkpt lat="38.96550072198056" lon="8.901570077405154"><ele>514.0</ele><time>2026-03-28T11:51:39Z</time></trkpt><trkpt lat="38.965502787807466" lon="8.901477681000145"><ele>514.0</ele><time>2026-03-28T11:51:42Z</time></trkpt><trkpt lat="38.96552801409073" lon="8.901374819958344"><ele>514.3333333333334</ele><time>2026-03-28T11:51:45Z</time></trkpt><trkpt lat="38.96556566420453" lon="8.901303275847441"><ele>514.6666666666667</ele><time>2026-03-28T11:51:48Z</time></trkpt><trkpt lat="38.96556709178366" lon="8.901202674374204"><ele>515.0</ele><time>2026-03-28T11:51:51Z</time></trkpt><trkpt lat="38.965538359518256" lon="8.901106718654711"><ele>515.3333333333334</ele><time>2026-03-28T11:51:53.999Z</time></trkpt><trkpt lat="38.96552244121615" lon="8.900994879364976"><ele>515.6666666666666</ele><time>2026-03-28T11:51:56.999Z</time></trkpt><trkpt lat="38.96548804109981" lon="8.900904761612205"><ele>516.0</ele><time>2026-03-28T11:51:59.999Z</time></trkpt><trkpt lat="38.96548696300328" lon="8.900813460186464"><ele>516.0</ele><time>2026-03-28T11:52:01.999Z</time></trkpt><trkpt lat="38.96547092951318" lon="8.9007015006714"><ele>516.0</ele><time>2026-03-28T11:52:04.999Z</time></trkpt><trkpt lat="38.96547128698937" lon="8.900594295060575"><ele>516.0</ele><time>2026-03-28T11:52:06.999Z</time></trkpt><trkpt lat="38.965461392699225" lon="8.900502005122654"><ele>516.0</ele><time>2026-03-28T11:52:09.999Z</time></trkpt><trkpt lat="38.96547533678293" lon="8.90039746161888"><ele>516.0</ele><time>2026-03-28T11:52:11.999Z</time></trkpt><trkpt lat="38.96551501563591" lon="8.90029002526245"><ele>516.0</ele><time>2026-03-28T11:52:14.999Z</time></trkpt><trkpt lat="38.96559818671619" lon="8.900214900777486"><ele>516.0</ele><time>2026-03-28T11:52:16.999Z</time></trkpt><trkpt lat="38.96566626991652" lon="8.900163985798622"><ele>516.0</ele><time>2026-03-28T11:52:19.999Z</time></trkpt><trkpt lat="38.96574737377816" lon="8.900095506997262"><ele>516.0</ele><time>2026-03-28T11:52:21.999Z</time></trkpt><trkpt lat="38.96581405488722" lon="8.900039503530492"><ele>516.0</ele><time>2026-03-28T11:52:23.999Z</time></trkpt><trkpt lat="38.965785250261504" lon="8.899924467611363"><ele>516.0</ele><time>2026-03-28T11:52:27.999Z</time></trkpt><trkpt lat="38.96576820162786" lon="8.89983019759009"><ele>516.0</ele><time>2026-03-28T11:52:29.999Z</time></trkpt><trkpt lat="38.96579300384674" lon="8.89973267310587"><ele>510.1666666666667</ele><time>2026-03-28T11:52:32.999Z</time></trkpt><trkpt lat="38.96586364013084" lon="8.899680281836027"><ele>504.33333333333337</ele><time>2026-03-28T11:52:34.998Z</time></trkpt><trkpt lat="38.965926560087134" lon="8.899659330563422"><ele>498.5</ele><time>2026-03-28T11:52:36.998Z</time></trkpt><trkpt lat="38.96597861202143" lon="8.899565081500754"><ele>492.6666666666667</ele><time>2026-03-28T11:52:39.998Z</time></trkpt><trkpt lat="38.966042340973644" lon="8.899516489991017"><ele>486.83333333333337</ele><time>2026-03-28T11:52:41.998Z</time></trkpt><trkpt lat="38.96611159880797" lon="8.899485045382322"><ele>481.0</ele><time>2026-03-28T11:52:44.998Z</time></trkpt><trkpt lat="38.96619806797443" lon="8.899460260287155"><ele>481.00000000000006</ele><time>2026-03-28T11:52:47.998Z</time></trkpt><trkpt lat="38.96626651095051" lon="8.899429256131812"><ele>481.0</ele><time>2026-03-28T11:52:50.998Z</time></trkpt><trkpt lat="38.96634237615213" lon="8.89939385912976"><ele>481.0</ele><time>2026-03-28T11:53:05.998Z</time></trkpt><trkpt lat="38.96641657278048" lon="8.89937807309614"><ele>481.0</ele><time>2026-03-28T11:54:50.998Z</time></trkpt><trkpt lat="38.96634728560989" lon="8.899406059356624"><ele>481.00000000000006</ele><time>2026-03-28T11:54:53.998Z</time></trkpt><trkpt lat="38.966248716353654" lon="8.89941311441342"><ele>481.0</ele><time>2026-03-28T11:55:28.997Z</time></trkpt><trkpt lat="38.96614668633003" lon="8.89943134610911"><ele>481.00000000000006</ele><time>2026-03-28T11:55:30.997Z</time></trkpt><trkpt lat="38.96607661760138" lon="8.899454399637843"><ele>481.0</ele><time>2026-03-28T11:55:33Z</time></trkpt><trkpt lat="38.966022766843494" lon="8.899553213233657"><ele>481.0</ele><time>2026-03-28T11:55:35Z</time></trkpt><trkpt lat="38.965950814276574" lon="8.899603468036126"><ele>481.0</ele><time>2026-03-28T11:55:37Z</time></trkpt><trkpt lat="38.96587126855195" lon="8.899634078679311"><ele>481.00000000000006</ele><time>2026-03-28T11:55:39Z</time></trkpt><trkpt lat="38.965850033457244" lon="8.899711117625522"><ele>481.0</ele><time>2026-03-28T11:55:42Z</time></trkpt><trkpt lat="38.96586150975732" lon="8.899790882886855"><ele>480.99999999999994</ele><time>2026-03-28T11:55:43Z</time></trkpt><trkpt lat="38.96586211883615" lon="8.899884878000588"><ele>481.0</ele><time>2026-03-28T11:55:59Z</time></trkpt><trkpt lat="38.96577754575737" lon="8.899934387873232"><ele>480.99999999999994</ele><time>2026-03-28T11:56:02Z</time></trkpt><trkpt lat="38.96572564559252" lon="8.899981946640098"><ele>480.99999999999994</ele><time>2026-03-28T11:56:04Z</time></trkpt><trkpt lat="38.965658900877" lon="8.900003517199979"><ele>481.0</ele><time>2026-03-28T11:56:05.999Z</time></trkpt><trkpt lat="38.96558139026143" lon="8.900052063475005"><ele>480.99999999999994</ele><time>2026-03-28T11:56:07.999Z</time></trkpt><trkpt lat="38.9655292880946" lon="8.900100442807448"><ele>480.99999999999994</ele><time>2026-03-28T11:56:09.999Z</time></trkpt><trkpt lat="38.96549109173271" lon="8.900197369084445"><ele>486.83333333333337</ele><time>2026-03-28T11:56:11.999Z</time></trkpt><trkpt lat="38.96551393543847" lon="8.900290707411715"><ele>492.6666666666667</ele><time>2026-03-28T11:56:14.999Z</time></trkpt><trkpt lat="38.96549341204202" lon="8.900377511356343"><ele>498.5</ele><time>2026-03-28T11:56:17.999Z</time></trkpt><trkpt lat="38.96548942869766" lon="8.900476865093351"><ele>504.33333333333337</ele><time>2026-03-28T11:56:20.999Z</time></trkpt><trkpt lat="38.96553319217945" lon="8.900560447814042"><ele>510.1666666666667</ele><time>2026-03-28T11:56:23.999Z</time></trkpt><trkpt lat="38.965549650668905" lon="8.900643727076197"><ele>516.0</ele><time>2026-03-28T11:56:26.999Z</time></trkpt><trkpt lat="38.965567407446535" lon="8.90074595855773"><ele>516.0</ele><time>2026-03-28T11:56:30.999Z</time></trkpt><trkpt lat="38.965586485315775" lon="8.90085608946764"><ele>516.0</ele><time>2026-03-28T11:56:32.999Z</time></trkpt><trkpt lat="38.965588628022225" lon="8.90097350499161"><ele>516.0</ele><time>2026-03-28T11:56:35.999Z</time></trkpt><trkpt lat="38.9655583190106" lon="8.901068054348633"><ele>516.0</ele><time>2026-03-28T11:56:38.999Z</time></trkpt><trkpt lat="38.965549706130616" lon="8.901150009150962"><ele>516.0</ele><time>2026-03-28T11:56:41.999Z</time></trkpt><trkpt lat="38.96553078758282" lon="8.901234687511199"><ele>516.0</ele><time>2026-03-28T11:56:43.998Z</time></trkpt><trkpt lat="38.965536660654884" lon="8.901326420223583"><ele>515.6</ele><time>2026-03-28T11:56:45.998Z</time></trkpt><trkpt lat="38.96551947301099" lon="8.901446704577289"><ele>515.2</ele><time>2026-03-28T11:56:48.998Z</time></trkpt><trkpt lat="38.965528145827506" lon="8.90156383111541"><ele>514.8</ele><time>2026-03-28T11:56:49.998Z</time></trkpt><trkpt lat="38.96553110663703" lon="8.901655886076894"><ele>514.4</ele><time>2026-03-28T11:56:50.998Z</time></trkpt><trkpt lat="38.965563544133566" lon="8.90178270146432"><ele>514.0</ele><time>2026-03-28T11:56:52.998Z</time></trkpt><trkpt lat="38.96555730533132" lon="8.901926494799678"><ele>514.0</ele><time>2026-03-28T11:56:55.998Z</time></trkpt><trkpt lat="38.965563566324086" lon="8.902032461759003"><ele>514.0</ele><time>2026-03-28T11:56:57.998Z</time></trkpt><trkpt lat="38.965579438048366" lon="8.902130039316312"><ele>514.0</ele><time>2026-03-28T11:56:59.998Z</time></trkpt><trkpt lat="38.96556633219343" lon="8.90222906159763"><ele>514.0</ele><time>2026-03-28T11:57:01.998Z</time></trkpt><trkpt lat="38.96553597931729" lon="8.902327852126863"><ele>514.0</ele><time>2026-03-28T11:57:03.998Z</time></trkpt><trkpt lat="38.96550582369677" lon="8.902420559762627"><ele>514.0</ele><time>2026-03-28T11:57:05.998Z</time></trkpt><trkpt lat="38.96547205829736" lon="8.902535600603281"><ele>512.0</ele><time>2026-03-28T11:57:08.998Z</time></trkpt><trkpt lat="38.96542747115465" lon="8.902600177239076"><ele>510.0</ele><time>2026-03-28T11:57:10.998Z</time></trkpt><trkpt lat="38.96536301329361" lon="8.90264464984209"><ele>508.0</ele><time>2026-03-28T11:57:12.998Z</time></trkpt><trkpt lat="38.96528610283804" lon="8.902691437425613"><ele>506.0</ele><time>2026-03-28T11:57:15.998Z</time></trkpt><trkpt lat="38.9652355309896" lon="8.902746263119978"><ele>504.0</ele><time>2026-03-28T11:57:17.998Z</time></trkpt><trkpt lat="38.96520740974557" lon="8.902820583741763"><ele>502.0</ele><time>2026-03-28T11:57:19.998Z</time></trkpt><trkpt lat="38.965222255450975" lon="8.90292655539099"><ele>500.0</ele><time>2026-03-28T11:57:22.997Z</time></trkpt><trkpt lat="38.9652029478952" lon="8.903004574821168"><ele>499.99999999999994</ele><time>2026-03-28T11:57:25.997Z</time></trkpt><trkpt lat="38.965164876709466" lon="8.90308358558731"><ele>500.0</ele><time>2026-03-28T11:57:30.997Z</time></trkpt><trkpt lat="38.96513170380077" lon="8.903177238358047"><ele>500.0</ele><time>2026-03-28T11:57:34.997Z</time></trkpt><trkpt lat="38.96512730163862" lon="8.90326771183594"><ele>500.0</ele><time>2026-03-28T11:57:39Z</time></trkpt><trkpt lat="38.96513410370071" lon="8.903362852068078"><ele>499.99999999999994</ele><time>2026-03-28T11:57:43Z</time></trkpt><trkpt lat="38.965053622473185" lon="8.903482656421785"><ele>500.0</ele><time>2026-03-28T11:58:12.999Z</time></trkpt><trkpt lat="38.96499533728156" lon="8.903559222006077"><ele>499.8333333333333</ele><time>2026-03-28T11:58:15.999Z</time></trkpt><trkpt lat="38.9649388551445" lon="8.903603566944422"><ele>499.66666666666663</ele><time>2026-03-28T11:58:16.999Z</time></trkpt><trkpt lat="38.9648749222507" lon="8.903638645474194"><ele>499.5</ele><time>2026-03-28T11:58:17.999Z</time></trkpt><trkpt lat="38.96481187493228" lon="8.903685864579982"><ele>499.33333333333337</ele><time>2026-03-28T11:58:18.999Z</time></trkpt><trkpt lat="38.96472519296406" lon="8.903771123340848"><ele>499.1666666666667</ele><time>2026-03-28T11:58:20.999Z</time></trkpt><trkpt lat="38.964658957223946" lon="8.903905340821355"><ele>499.0</ele><time>2026-03-28T11:58:22.999Z</time></trkpt><trkpt lat="38.96462620757975" lon="8.903991133781739"><ele>499.0</ele><time>2026-03-28T11:58:23.999Z</time></trkpt><trkpt lat="38.96457886297028" lon="8.904099850911905"><ele>499.0</ele><time>2026-03-28T11:58:24.999Z</time></trkpt><trkpt lat="38.96452905895867" lon="8.904211190998662"><ele>499.0</ele><time>2026-03-28T11:58:25.999Z</time></trkpt><trkpt lat="38.9644808964337" lon="8.904314374574952"><ele>499.0</ele><time>2026-03-28T11:58:26.999Z</time></trkpt><trkpt lat="38.96442332348853" lon="8.904425769673955"><ele>499.0</ele><time>2026-03-28T11:58:27.999Z</time></trkpt><trkpt lat="38.96436666190545" lon="8.904539863078682"><ele>499.00000000000006</ele><time>2026-03-28T11:58:28.999Z</time></trkpt><trkpt lat="38.96431967862012" lon="8.90463720403104"><ele>499.0</ele><time>2026-03-28T11:58:29.999Z</time></trkpt><trkpt lat="38.96427540722294" lon="8.90472497703404"><ele>499.0</ele><time>2026-03-28T11:58:30.999Z</time></trkpt><trkpt lat="38.96423408764536" lon="8.904811689428834"><ele>499.0</ele><time>2026-03-28T11:58:31.999Z</time></trkpt><trkpt lat="38.9641886724602" lon="8.904892366859029"><ele>499.00000000000006</ele><time>2026-03-28T11:58:32.999Z</time></trkpt><trkpt lat="38.96414385624318" lon="8.90496907907477"><ele>499.0</ele><time>2026-03-28T11:58:33.999Z</time></trkpt><trkpt lat="38.964086366575785" lon="8.905035091840293"><ele>499.00000000000006</ele><time>2026-03-28T11:58:34.999Z</time></trkpt><trkpt lat="38.96401537546462" lon="8.905062343987348"><ele>499.0</ele><time>2026-03-28T11:58:35.999Z</time></trkpt><trkpt lat="38.96392338027527" lon="8.905068325751147"><ele>499.0</ele><time>2026-03-28T11:58:36.999Z</time></trkpt><trkpt lat="38.963828571317734" lon="8.905069825593829"><ele>499.0</ele><time>2026-03-28T11:58:37.999Z</time></trkpt><trkpt lat="38.96374376345379" lon="8.905079866115804"><ele>499.00000000000006</ele><time>2026-03-28T11:58:38.999Z</time></trkpt><trkpt lat="38.96367146701713" lon="8.905098828825766"><ele>499.0</ele><time>2026-03-28T11:58:39.999Z</time></trkpt><trkpt lat="38.963609206614834" lon="8.905120671332476"><ele>497.83333333333337</ele><time>2026-03-28T11:58:40.999Z</time></trkpt><trkpt lat="38.96354053155876" lon="8.90513905962604"><ele>496.6666666666667</ele><time>2026-03-28T11:58:42.999Z</time></trkpt><trkpt lat="38.96347528508596" lon="8.905164816917846"><ele>495.5</ele><time>2026-03-28T11:58:44.999Z</time></trkpt><trkpt lat="38.96340668425662" lon="8.905184368806045"><ele>494.33333333333337</ele><time>2026-03-28T11:58:46.999Z</time></trkpt><trkpt lat="38.963327984536896" lon="8.905204127327751"><ele>493.1666666666667</ele><time>2026-03-28T11:58:48.999Z</time></trkpt><trkpt lat="38.96319665025153" lon="8.905235747892458"><ele>492.0</ele><time>2026-03-28T11:58:50.998Z</time></trkpt><trkpt lat="38.96311206317811" lon="8.90527977202765"><ele>492.0</ele><time>2026-03-28T11:58:51.998Z</time></trkpt><trkpt lat="38.963027578914726" lon="8.905319400356134"><ele>492.00000000000006</ele><time>2026-03-28T11:58:52.998Z</time></trkpt><trkpt lat="38.96294262811688" lon="8.90536356922251"><ele>492.00000000000006</ele><time>2026-03-28T11:58:53.998Z</time></trkpt><trkpt lat="38.96285569281093" lon="8.905420376870776"><ele>492.0</ele><time>2026-03-28T11:58:54.998Z</time></trkpt><trkpt lat="38.96276934414012" lon="8.905501439326093"><ele>492.0</ele><time>2026-03-28T11:58:55.998Z</time></trkpt><trkpt lat="38.962669571567886" lon="8.905585126995069"><ele>492.0</ele><time>2026-03-28T11:58:56.998Z</time></trkpt><trkpt lat="38.9625794420773" lon="8.905658278337631"><ele>492.0</ele><time>2026-03-28T11:58:57.998Z</time></trkpt><trkpt lat="38.96251236811059" lon="8.905721698840113"><ele>492.0</ele><time>2026-03-28T11:58:58.998Z</time></trkpt><trkpt lat="38.96246206568957" lon="8.905798857882713"><ele>492.0</ele><time>2026-03-28T11:58:59.998Z</time></trkpt><trkpt lat="38.96241709703565" lon="8.905869307532054"><ele>492.0</ele><time>2026-03-28T11:59:00.998Z</time></trkpt><trkpt lat="38.9623690320928" lon="8.905931785214872"><ele>492.0</ele><time>2026-03-28T11:59:01.998Z</time></trkpt><trkpt lat="38.96231491590647" lon="8.905985765023921"><ele>491.8333333333333</ele><time>2026-03-28T11:59:02.998Z</time></trkpt><trkpt lat="38.96225636290319" lon="8.90602665109609"><ele>491.66666666666663</ele><time>2026-03-28T11:59:03.998Z</time></trkpt><trkpt lat="38.96215349119254" lon="8.90608465558201"><ele>491.5</ele><time>2026-03-28T11:59:05.998Z</time></trkpt><trkpt lat="38.96208722596503" lon="8.90613985931692"><ele>491.3333333333333</ele><time>2026-03-28T11:59:07.998Z</time></trkpt><trkpt lat="38.96202135435809" lon="8.90616962264756"><ele>491.16666666666663</ele><time>2026-03-28T11:59:11.998Z</time></trkpt><trkpt lat="38.96196769607152" lon="8.906295304277828"><ele>491.0</ele><time>2026-03-28T11:59:14.998Z</time></trkpt><trkpt lat="38.96196616917353" lon="8.906388620327785"><ele>490.99999999999994</ele><time>2026-03-28T11:59:15.998Z</time></trkpt><trkpt lat="38.961932724503185" lon="8.906510220541541"><ele>491.0</ele><time>2026-03-28T11:59:16.998Z</time></trkpt><trkpt lat="38.96188800162122" lon="8.906623477212163"><ele>491.0</ele><time>2026-03-28T11:59:17.998Z</time></trkpt><trkpt lat="38.96185663844178" lon="8.906722534671054"><ele>491.0</ele><time>2026-03-28T11:59:18.998Z</time></trkpt><trkpt lat="38.9618347104715" lon="8.906814446104667"><ele>490.99999999999994</ele><time>2026-03-28T11:59:19.998Z</time></trkpt><trkpt lat="38.96181558819735" lon="8.90689300348252"><ele>491.0</ele><time>2026-03-28T11:59:20.998Z</time></trkpt><trkpt lat="38.961794926854076" lon="8.907002675378024"><ele>491.8333333333333</ele><time>2026-03-28T11:59:22.998Z</time></trkpt><trkpt lat="38.96168979629019" lon="8.907009934894441"><ele>492.66666666666663</ele><time>2026-03-28T11:59:26.998Z</time></trkpt><trkpt lat="38.961618920981294" lon="8.907005545214409"><ele>493.5</ele><time>2026-03-28T11:59:28.997Z</time></trkpt><trkpt lat="38.961554636960614" lon="8.907057932091957"><ele>494.33333333333337</ele><time>2026-03-28T11:59:31.997Z</time></trkpt><trkpt lat="38.96144856553322" lon="8.907037773712522"><ele>495.1666666666667</ele><time>2026-03-28T11:59:33.997Z</time></trkpt><trkpt lat="38.961382713263646" lon="8.907011229364905"><ele>496.0</ele><time>2026-03-28T11:59:35.997Z</time></trkpt><trkpt lat="38.96132162423262" lon="8.906983565896107"><ele>496.0</ele><time>2026-03-28T11:59:38.997Z</time></trkpt><trkpt lat="38.96127718899688" lon="8.907052478015475"><ele>496.00000000000006</ele><time>2026-03-28T11:59:41.997Z</time></trkpt><trkpt lat="38.961226003816535" lon="8.907105584810688"><ele>496.0</ele><time>2026-03-28T11:59:44Z</time></trkpt><trkpt lat="38.96115502592754" lon="8.907170363093877"><ele>496.0</ele><time>2026-03-28T11:59:47Z</time></trkpt><trkpt lat="38.9610890947156" lon="8.90721264895507"><ele>496.00000000000006</ele><time>2026-03-28T11:59:50Z</time></trkpt><trkpt lat="38.961024621833765" lon="8.907268213963391"><ele>496.0</ele><time>2026-03-28T11:59:53Z</time></trkpt><trkpt lat="38.96096176758596" lon="8.907287842626436"><ele>496.0</ele><time>2026-03-28T11:59:55Z</time></trkpt><trkpt lat="38.96089756123779" lon="8.907329080089669"><ele>497.20000000000005</ele><time>2026-03-28T11:59:58Z</time></trkpt><trkpt lat="38.960808386192916" lon="8.907321730865004"><ele>498.40000000000003</ele><time>2026-03-28T12:00:00Z</time></trkpt><trkpt lat="38.96069774197827" lon="8.907284700380622"><ele>499.6</ele><time>2026-03-28T12:00:02Z</time></trkpt><trkpt lat="38.96057945814909" lon="8.907277588340095"><ele>500.8</ele><time>2026-03-28T12:00:04Z</time></trkpt><trkpt lat="38.96050616224023" lon="8.907289624412742"><ele>502.0</ele><time>2026-03-28T12:00:06Z</time></trkpt><trkpt lat="38.96044204577571" lon="8.90730257016662"><ele>502.00000000000006</ele><time>2026-03-28T12:00:08Z</time></trkpt><trkpt lat="38.96036997144532" lon="8.907326113703848"><ele>502.0</ele><time>2026-03-28T12:00:11Z</time></trkpt><trkpt lat="38.96028899467105" lon="8.907392766136267"><ele>502.0</ele><time>2026-03-28T12:00:12Z</time></trkpt><trkpt lat="38.960202896847946" lon="8.907423764446037"><ele>502.0</ele><time>2026-03-28T12:00:14Z</time></trkpt><trkpt lat="38.96011754817689" lon="8.907444380562474"><ele>502.00000000000006</ele><time>2026-03-28T12:00:16Z</time></trkpt><trkpt lat="38.96004930922909" lon="8.907458003824948"><ele>502.0</ele><time>2026-03-28T12:00:16.999Z</time></trkpt><trkpt lat="38.959983851737775" lon="8.907483837287746"><ele>501.83333333333337</ele><time>2026-03-28T12:00:18.999Z</time></trkpt><trkpt lat="38.95989111944297" lon="8.90750197174963"><ele>501.6666666666667</ele><time>2026-03-28T12:00:21.999Z</time></trkpt><trkpt lat="38.95981150550219" lon="8.907514264532074"><ele>501.5</ele><time>2026-03-28T12:00:25.999Z</time></trkpt><trkpt lat="38.959740442178415" lon="8.907547625332096"><ele>501.33333333333337</ele><time>2026-03-28T12:00:28.999Z</time></trkpt><trkpt lat="38.959662678439194" lon="8.907606084317903"><ele>501.1666666666667</ele><time>2026-03-28T12:00:31.999Z</time></trkpt><trkpt lat="38.95960730589877" lon="8.907644941342278"><ele>501.0</ele><time>2026-03-28T12:00:33.999Z</time></trkpt><trkpt lat="38.959532177646636" lon="8.907709219087444"><ele>501.0</ele><time>2026-03-28T12:00:36.999Z</time></trkpt><trkpt lat="38.95947490295423" lon="8.90774599124785"><ele>501.0</ele><time>2026-03-28T12:00:38.999Z</time></trkpt><trkpt lat="38.959409080723105" lon="8.907794542008395"><ele>501.0</ele><time>2026-03-28T12:00:40.999Z</time></trkpt><trkpt lat="38.95934663050401" lon="8.907858668492612"><ele>501.0</ele><time>2026-03-28T12:00:43.999Z</time></trkpt><trkpt lat="38.9592781603513" lon="8.907880245567565"><ele>501.0</ele><time>2026-03-28T12:00:45.999Z</time></trkpt><trkpt lat="38.95920401503542" lon="8.907935502409217"><ele>501.0</ele><time>2026-03-28T12:00:48.999Z</time></trkpt><trkpt lat="38.95912051997477" lon="8.907987002369229"><ele>502.8</ele><time>2026-03-28T12:00:50.999Z</time></trkpt><trkpt lat="38.95903944783336" lon="8.90802507325832"><ele>504.6</ele><time>2026-03-28T12:00:52.999Z</time></trkpt><trkpt lat="38.95895945691095" lon="8.908091833858323"><ele>506.4</ele><time>2026-03-28T12:00:54.999Z</time></trkpt><trkpt lat="38.95886145170206" lon="8.908130481811462"><ele>508.2</ele><time>2026-03-28T12:00:57.998Z</time></trkpt><trkpt lat="38.95877385304255" lon="8.908153928864264"><ele>510.0</ele><time>2026-03-28T12:00:59.998Z</time></trkpt><trkpt lat="38.95870334633822" lon="8.908087330749183"><ele>510.0</ele><time>2026-03-28T12:01:01.998Z</time></trkpt><trkpt lat="38.958639196931685" lon="8.908065421575149"><ele>510.0</ele><time>2026-03-28T12:01:05.998Z</time></trkpt><trkpt lat="38.95857676198566" lon="8.908145728738157"><ele>510.0</ele><time>2026-03-28T12:01:07.998Z</time></trkpt><trkpt lat="38.958508923414136" lon="8.908219866363508"><ele>510.0</ele><time>2026-03-28T12:01:10.998Z</time></trkpt><trkpt lat="38.95843910147584" lon="8.908283622609922"><ele>510.0</ele><time>2026-03-28T12:01:13.998Z</time></trkpt><trkpt lat="38.95839420247266" lon="8.908346755994327"><ele>510.0</ele><time>2026-03-28T12:01:16.998Z</time></trkpt><trkpt lat="38.95833345585248" lon="8.908372173158629"><ele>509.8</ele><time>2026-03-28T12:01:20.998Z</time></trkpt><trkpt lat="38.958274021820706" lon="8.908442036572193"><ele>509.6</ele><time>2026-03-28T12:01:23.998Z</time></trkpt><trkpt lat="38.958170195707766" lon="8.90850253651794"><ele>509.4</ele><time>2026-03-28T12:01:25.998Z</time></trkpt><trkpt lat="38.95811321850978" lon="8.908543135839928"><ele>509.2</ele><time>2026-03-28T12:01:26.998Z</time></trkpt><trkpt lat="38.95800894235402" lon="8.908624036489847"><ele>509.0</ele><time>2026-03-28T12:01:28.998Z</time></trkpt><trkpt lat="38.95790574968529" lon="8.9086818354302"><ele>509.0</ele><time>2026-03-28T12:01:30.998Z</time></trkpt><trkpt lat="38.95781173205347" lon="8.908772983707445"><ele>509.0</ele><time>2026-03-28T12:01:32.998Z</time></trkpt><trkpt lat="38.957721456741474" lon="8.908857364528467"><ele>509.0</ele><time>2026-03-28T12:01:34.998Z</time></trkpt><trkpt lat="38.95763142899831" lon="8.908924444076845"><ele>509.0</ele><time>2026-03-28T12:01:36.997Z</time></trkpt><trkpt lat="38.95754320781374" lon="8.908943792992023"><ele>509.0</ele><time>2026-03-28T12:01:38.997Z</time></trkpt><trkpt lat="38.95746839755314" lon="8.908985664147478"><ele>506.3333333333333</ele><time>2026-03-28T12:01:41.997Z</time></trkpt><trkpt lat="38.957390222565124" lon="8.909032470301065"><ele>503.66666666666663</ele><time>2026-03-28T12:01:45.997Z</time></trkpt><trkpt lat="38.95732154794507" lon="8.9090616914575"><ele>501.0</ele><time>2026-03-28T12:01:48.997Z</time></trkpt><trkpt lat="38.957244144635276" lon="8.90910657560115"><ele>498.33333333333337</ele><time>2026-03-28T12:01:52Z</time></trkpt><trkpt lat="38.957170234330746" lon="8.909113027608376"><ele>495.6666666666667</ele><time>2026-03-28T12:01:56Z</time></trkpt><trkpt lat="38.95710541114613" lon="8.909140195581543"><ele>493.0</ele><time>2026-03-28T12:02:02Z</time></trkpt><trkpt lat="38.95702074111115" lon="8.909152895225514"><ele>493.00000000000006</ele><time>2026-03-28T12:02:05Z</time></trkpt><trkpt lat="38.956942666123325" lon="8.909134980253391"><ele>493.0</ele><time>2026-03-28T12:02:08Z</time></trkpt><trkpt lat="38.95686884127541" lon="8.909114435599706"><ele>493.0</ele><time>2026-03-28T12:02:11Z</time></trkpt><trkpt lat="38.95678235104705" lon="8.909090785957773"><ele>493.0</ele><time>2026-03-28T12:02:14Z</time></trkpt><trkpt lat="38.956680125050916" lon="8.909023754103458"><ele>493.00000000000006</ele><time>2026-03-28T12:02:17Z</time></trkpt><trkpt lat="38.95659982268761" lon="8.909009178852195"><ele>493.0</ele><time>2026-03-28T12:02:21Z</time></trkpt><trkpt lat="38.95652096364969" lon="8.909005191153108"><ele>490.00000000000006</ele><time>2026-03-28T12:02:24.999Z</time></trkpt><trkpt lat="38.956445647289286" lon="8.909031592965999"><ele>487.0</ele><time>2026-03-28T12:02:27.999Z</time></trkpt><trkpt lat="38.9563702462683" lon="8.909070144392889"><ele>484.0</ele><time>2026-03-28T12:02:30.999Z</time></trkpt><trkpt lat="38.95630228158846" lon="8.909101082368469"><ele>481.0</ele><time>2026-03-28T12:02:32.999Z</time></trkpt><trkpt lat="38.95621858034798" lon="8.909128994664453"><ele>478.00000000000006</ele><time>2026-03-28T12:02:36.999Z</time></trkpt><trkpt lat="38.956141901043395" lon="8.909139139172828"><ele>475.0</ele><time>2026-03-28T12:02:38.999Z</time></trkpt><trkpt lat="38.95604891685419" lon="8.909167580385374"><ele>475.00000000000006</ele><time>2026-03-28T12:02:40.999Z</time></trkpt><trkpt lat="38.955974279032404" lon="8.909190844223632"><ele>475.0</ele><time>2026-03-28T12:02:43.999Z</time></trkpt><trkpt lat="38.95587846879912" lon="8.909208855685982"><ele>475.0</ele><time>2026-03-28T12:02:45.999Z</time></trkpt><trkpt lat="38.95581452556529" lon="8.909238030370338"><ele>475.0</ele><time>2026-03-28T12:02:48.999Z</time></trkpt><trkpt lat="38.95574702860238" lon="8.909241596952254"><ele>475.00000000000006</ele><time>2026-03-28T12:02:50.999Z</time></trkpt><trkpt lat="38.95566986621963" lon="8.90927441985603"><ele>475.0</ele><time>2026-03-28T12:02:53.999Z</time></trkpt><trkpt lat="38.95560452082756" lon="8.909320394200831"><ele>475.42857142857144</ele><time>2026-03-28T12:02:56.999Z</time></trkpt><trkpt lat="38.95554611807787" lon="8.909393966016044"><ele>475.8571428571429</ele><time>2026-03-28T12:02:59.998Z</time></trkpt><trkpt lat="38.95548666322774" lon="8.909435294118163"><ele>476.28571428571433</ele><time>2026-03-28T12:04:16Z</time></trkpt><trkpt lat="38.955451728198184" lon="8.90951555206151"><ele>476.7142857142858</ele><time>2026-03-28T12:04:20Z</time></trkpt><trkpt lat="38.9554120184967" lon="8.909580216076389"><ele>477.14285714285717</ele><time>2026-03-28T12:04:23Z</time></trkpt><trkpt lat="38.95535390680055" lon="8.909644793604793"><ele>477.57142857142867</ele><time>2026-03-28T12:04:27.999Z</time></trkpt><trkpt lat="38.95529116385078" lon="8.909697299137648"><ele>478.00000000000006</ele><time>2026-03-28T12:04:31.999Z</time></trkpt><trkpt lat="38.955216516859146" lon="8.909692036282083"><ele>478.00000000000006</ele><time>2026-03-28T12:04:34.999Z</time></trkpt><trkpt lat="38.95513976470929" lon="8.909712688870352"><ele>478.0</ele><time>2026-03-28T12:04:37.999Z</time></trkpt><trkpt lat="38.95507560649776" lon="8.909718281987507"><ele>478.00000000000006</ele><time>2026-03-28T12:04:41.999Z</time></trkpt><trkpt lat="38.9550018872371" lon="8.909721081621655"><ele>478.00000000000006</ele><time>2026-03-28T12:04:44.999Z</time></trkpt><trkpt lat="38.95492330761669" lon="8.90973209228951"><ele>478.0</ele><time>2026-03-28T12:04:47.999Z</time></trkpt><trkpt lat="38.954850858977004" lon="8.909751538269374"><ele>478.00000000000006</ele><time>2026-03-28T12:04:50.999Z</time></trkpt><trkpt lat="38.95477980333663" lon="8.90978697855986"><ele>478.00000000000006</ele><time>2026-03-28T12:04:55.999Z</time></trkpt><trkpt lat="38.95470843266212" lon="8.909811079617278"><ele>478.00000000000006</ele><time>2026-03-28T12:04:59.999Z</time></trkpt><trkpt lat="38.95480770874186" lon="8.90979064111595"><ele>478.0</ele><time>2026-03-28T12:12:49Z</time></trkpt><trkpt lat="38.954860543274" lon="8.909737534461325"><ele>478.0</ele><time>2026-03-28T12:12:57.999Z</time></trkpt><trkpt lat="38.954934550739566" lon="8.909717825270082"><ele>478.0</ele><time>2026-03-28T12:13:00.999Z</time></trkpt><trkpt lat="38.955035860605314" lon="8.909713789425334"><ele>478.00000000000006</ele><time>2026-03-28T12:13:04.999Z</time></trkpt><trkpt lat="38.9551068853764" lon="8.909709490720534"><ele>478.0</ele><time>2026-03-28T12:13:06.999Z</time></trkpt><trkpt lat="38.95517643506564" lon="8.909705121070068"><ele>478.00000000000006</ele><time>2026-03-28T12:13:09.999Z</time></trkpt><trkpt lat="38.95525392023037" lon="8.909691275407583"><ele>478.0</ele><time>2026-03-28T12:13:13.999Z</time></trkpt><trkpt lat="38.955332353640735" lon="8.909653868001763"><ele>478.0</ele><time>2026-03-28T12:13:23.999Z</time></trkpt><trkpt lat="38.95538659836433" lon="8.90957964361937"><ele>478.0</ele><time>2026-03-28T12:13:34.998Z</time></trkpt><trkpt lat="38.95543007431664" lon="8.909502822483212"><ele>478.00000000000006</ele><time>2026-03-28T12:13:37.998Z</time></trkpt><trkpt lat="38.95546892044938" lon="8.909433107107112"><ele>478.0</ele><time>2026-03-28T12:13:39.998Z</time></trkpt><trkpt lat="38.95551793491079" lon="8.909370054751472"><ele>478.0</ele><time>2026-03-28T12:13:42.998Z</time></trkpt><trkpt lat="38.95556364213363" lon="8.90931216572602"><ele>477.99999999999994</ele><time>2026-03-28T12:13:45.998Z</time></trkpt><trkpt lat="38.95565263212281" lon="8.909246625391825"><ele>477.99999999999994</ele><time>2026-03-28T12:13:48.998Z</time></trkpt><trkpt lat="38.95573586461136" lon="8.909227647487828"><ele>478.0</ele><time>2026-03-28T12:13:51.998Z</time></trkpt><trkpt lat="38.95585977717488" lon="8.909201967067153"><ele>478.0</ele><time>2026-03-28T12:13:54.998Z</time></trkpt><trkpt lat="38.95593923628704" lon="8.90918870288883"><ele>477.4</ele><time>2026-03-28T12:13:56.998Z</time></trkpt><trkpt lat="38.956066821027214" lon="8.909158664409558"><ele>476.79999999999995</ele><time>2026-03-28T12:13:57.998Z</time></trkpt><trkpt lat="38.95615747582936" lon="8.90913288027145"><ele>476.2</ele><time>2026-03-28T12:13:59.998Z</time></trkpt><trkpt lat="38.95623541034973" lon="8.909106556239738"><ele>475.6</ele><time>2026-03-28T12:14:01.998Z</time></trkpt><trkpt lat="38.95630920047055" lon="8.909077720264644"><ele>475.0</ele><time>2026-03-28T12:14:03.998Z</time></trkpt><trkpt lat="38.956387032732664" lon="8.90902868414764"><ele>475.0</ele><time>2026-03-28T12:14:07.998Z</time></trkpt><trkpt lat="38.95644713325699" lon="8.908998097948679"><ele>475.00000000000006</ele><time>2026-03-28T12:14:34Z</time></trkpt><trkpt lat="38.95651302292397" lon="8.908970935392286"><ele>475.0</ele><time>2026-03-28T12:14:38Z</time></trkpt><trkpt lat="38.9565965163751" lon="8.908963716010696"><ele>475.0</ele><time>2026-03-28T12:14:41Z</time></trkpt><trkpt lat="38.95667479635729" lon="8.908990978073746"><ele>475.00000000000006</ele><time>2026-03-28T12:14:44Z</time></trkpt><trkpt lat="38.95672956726971" lon="8.90903571854937"><ele>475.0</ele><time>2026-03-28T12:14:47Z</time></trkpt><trkpt lat="38.95679941421522" lon="8.909078723910392"><ele>475.0</ele><time>2026-03-28T12:14:51Z</time></trkpt><trkpt lat="38.95686930166081" lon="8.909116293877174"><ele>477.5714285714286</ele><time>2026-03-28T12:15:13.999Z</time></trkpt><trkpt lat="38.95693116683303" lon="8.909139404419113"><ele>480.1428571428572</ele><time>2026-03-28T12:16:30.997Z</time></trkpt><trkpt lat="38.956994599833045" lon="8.909147136530432"><ele>482.7142857142857</ele><time>2026-03-28T12:17:04.999Z</time></trkpt><trkpt lat="38.95706422754369" lon="8.909137820906631"><ele>485.28571428571433</ele><time>2026-03-28T12:17:06.999Z</time></trkpt><trkpt lat="38.95712992553956" lon="8.909109072651443"><ele>487.8571428571429</ele><time>2026-03-28T12:17:08.999Z</time></trkpt><trkpt lat="38.95719576145169" lon="8.909067763153454"><ele>490.42857142857144</ele><time>2026-03-28T12:17:10.999Z</time></trkpt><trkpt lat="38.95726388511477" lon="8.909073169090869"><ele>493.0</ele><time>2026-03-28T12:17:13.999Z</time></trkpt><trkpt lat="38.95732846928428" lon="8.909016230995865"><ele>493.0</ele><time>2026-03-28T12:17:17.999Z</time></trkpt><trkpt lat="38.95740253813546" lon="8.90897635837775"><ele>493.0</ele><time>2026-03-28T12:17:21.999Z</time></trkpt><trkpt lat="38.95748206066292" lon="8.908950522095655"><ele>493.0</ele><time>2026-03-28T12:17:25.999Z</time></trkpt><trkpt lat="38.957543730004616" lon="8.908918676010627"><ele>493.0</ele><time>2026-03-28T12:17:28.999Z</time></trkpt><trkpt lat="38.96361847946803" lon="8.91546647739275"><ele>489.2</ele><time>2026-03-28T12:22:38.997Z</time></trkpt><trkpt lat="38.96369522671646" lon="8.915578563607857"><ele>485.4</ele><time>2026-03-28T12:22:39.997Z</time></trkpt><trkpt lat="38.96376429442798" lon="8.915687562783441"><ele>481.59999999999997</ele><time>2026-03-28T12:22:40.997Z</time></trkpt><trkpt lat="38.96381054578486" lon="8.915788038892305"><ele>477.79999999999995</ele><time>2026-03-28T12:22:41.997Z</time></trkpt><trkpt lat="38.9638597501278" lon="8.915892270221015"><ele>474.0</ele><time>2026-03-28T12:22:42.997Z</time></trkpt><trkpt lat="38.96391574713872" lon="8.915974666165557"><ele>473.0</ele><time>2026-03-28T12:22:43.997Z</time></trkpt><trkpt lat="38.964004633345276" lon="8.916154237257112"><ele>472.0</ele><time>2026-03-28T12:22:45.997Z</time></trkpt><trkpt lat="38.96404516867695" lon="8.916247740609991"><ele>471.0</ele><time>2026-03-28T12:22:46.997Z</time></trkpt><trkpt lat="38.964082841134086" lon="8.916345241184217"><ele>470.0</ele><time>2026-03-28T12:22:47.997Z</time></trkpt><trkpt lat="38.96410025177394" lon="8.916430823209998"><ele>469.0</ele><time>2026-03-28T12:22:48.997Z</time></trkpt><trkpt lat="38.96414087624379" lon="8.916520049260063"><ele>469.0</ele><time>2026-03-28T12:22:50Z</time></trkpt><trkpt lat="38.96419572596185" lon="8.916605284408718"><ele>469.0</ele><time>2026-03-28T12:22:51Z</time></trkpt><trkpt lat="38.96424976366546" lon="8.916675732878268"><ele>469.0</ele><time>2026-03-28T12:22:52Z</time></trkpt><trkpt lat="38.96429871020379" lon="8.916735751142147"><ele>469.0</ele><time>2026-03-28T12:22:53Z</time></trkpt><trkpt lat="38.96433674251179" lon="8.916858310389685"><ele>469.0</ele><time>2026-03-28T12:22:55Z</time></trkpt><trkpt lat="38.9642634651605" lon="8.916996427109575"><ele>469.4</ele><time>2026-03-28T12:22:57Z</time></trkpt><trkpt lat="38.96422235629058" lon="8.917086650270614"><ele>469.79999999999995</ele><time>2026-03-28T12:22:58Z</time></trkpt><trkpt lat="38.964208383242294" lon="8.917197888944315"><ele>470.20000000000005</ele><time>2026-03-28T12:22:59Z</time></trkpt><trkpt lat="38.964224735491634" lon="8.917331753829842"><ele>470.6</ele><time>2026-03-28T12:23:00Z</time></trkpt><trkpt lat="38.964249654046554" lon="8.917462889021245"><ele>471.0</ele><time>2026-03-28T12:23:01Z</time></trkpt><trkpt lat="38.96428224748877" lon="8.917573315977656"><ele>471.0</ele><time>2026-03-28T12:23:02Z</time></trkpt><trkpt lat="38.96432304905412" lon="8.917673661964267"><ele>471.0</ele><time>2026-03-28T12:23:03Z</time></trkpt><trkpt lat="38.964369016032954" lon="8.917763032048647"><ele>471.0</ele><time>2026-03-28T12:23:04Z</time></trkpt><trkpt lat="38.964428138054444" lon="8.917854020863114"><ele>471.0</ele><time>2026-03-28T12:23:05Z</time></trkpt><trkpt lat="38.964562277588385" lon="8.918012361082022"><ele>471.0</ele><time>2026-03-28T12:23:07Z</time></trkpt><trkpt lat="38.96464257617841" lon="8.918082838922762"><ele>471.0</ele><time>2026-03-28T12:23:08Z</time></trkpt><trkpt lat="38.964732036955226" lon="8.918145781647802"><ele>471.0</ele><time>2026-03-28T12:23:09Z</time></trkpt><trkpt lat="38.96480298721789" lon="8.918198527855317"><ele>471.0</ele><time>2026-03-28T12:23:10Z</time></trkpt><trkpt lat="38.96487022915066" lon="8.918249536541463"><ele>471.0</ele><time>2026-03-28T12:23:11Z</time></trkpt><trkpt lat="38.96494350547627" lon="8.918344438222897"><ele>471.0</ele><time>2026-03-28T12:23:13Z</time></trkpt><trkpt lat="38.96491681242158" lon="8.918485438777067"><ele>470.6666666666667</ele><time>2026-03-28T12:23:15Z</time></trkpt><trkpt lat="38.964914651361404" lon="8.918593829739391"><ele>470.33333333333337</ele><time>2026-03-28T12:23:16Z</time></trkpt><trkpt lat="38.96492433000012" lon="8.918691951833456"><ele>470.0</ele><time>2026-03-28T12:23:17Z</time></trkpt><trkpt lat="38.96494691095061" lon="8.918804997478238"><ele>469.6666666666667</ele><time>2026-03-28T12:23:18Z</time></trkpt><trkpt lat="38.96497533083438" lon="8.91892407440418"><ele>469.33333333333337</ele><time>2026-03-28T12:23:19Z</time></trkpt><trkpt lat="38.965009966553275" lon="8.91902932143711"><ele>469.0</ele><time>2026-03-28T12:23:20Z</time></trkpt><trkpt lat="38.965069598472425" lon="8.91913120840941"><ele>469.4</ele><time>2026-03-28T12:23:20.999Z</time></trkpt><trkpt lat="38.96514301482756" lon="8.91924061335559"><ele>469.79999999999995</ele><time>2026-03-28T12:23:21.999Z</time></trkpt><trkpt lat="38.965209094385244" lon="8.91936832351259"><ele>470.20000000000005</ele><time>2026-03-28T12:23:22.999Z</time></trkpt><trkpt lat="38.96528086515779" lon="8.919486155788325"><ele>470.6</ele><time>2026-03-28T12:23:23.999Z</time></trkpt><trkpt lat="38.965336650954185" lon="8.919591476512956"><ele>471.0</ele><time>2026-03-28T12:23:24.999Z</time></trkpt><trkpt lat="38.965386739601385" lon="8.91969395298542"><ele>471.0</ele><time>2026-03-28T12:23:25.999Z</time></trkpt><trkpt lat="38.96547865165727" lon="8.9198524070466"><ele>471.0</ele><time>2026-03-28T12:23:27.999Z</time></trkpt><trkpt lat="38.96545844452493" lon="8.919950324100858"><ele>471.0</ele><time>2026-03-28T12:23:31.999Z</time></trkpt><trkpt lat="38.96533701159429" lon="8.919943465515995"><ele>471.0</ele><time>2026-03-28T12:23:33.999Z</time></trkpt><trkpt lat="38.965258266646984" lon="8.919931964488235"><ele>471.0</ele><time>2026-03-28T12:23:34.999Z</time></trkpt><trkpt lat="38.965182653104364" lon="8.919940087939345"><ele>471.0</ele><time>2026-03-28T12:23:35.999Z</time></trkpt><trkpt lat="38.96510999736658" lon="8.919963432914763"><ele>471.0</ele><time>2026-03-28T12:23:36.999Z</time></trkpt><trkpt lat="38.965037034682524" lon="8.919998934430858"><ele>471.0</ele><time>2026-03-28T12:23:37.999Z</time></trkpt><trkpt lat="38.96495982206169" lon="8.92004670939645"><ele>471.0</ele><time>2026-03-28T12:23:38.999Z</time></trkpt><trkpt lat="38.964869903886076" lon="8.920101052708745"><ele>471.0</ele><time>2026-03-28T12:23:39.999Z</time></trkpt><trkpt lat="38.96477897259459" lon="8.92014696582047"><ele>471.0</ele><time>2026-03-28T12:23:40.999Z</time></trkpt><trkpt lat="38.964689146750345" lon="8.920181796256683"><ele>470.1666666666667</ele><time>2026-03-28T12:23:41.999Z</time></trkpt><trkpt lat="38.96459765712394" lon="8.92021027399013"><ele>469.33333333333337</ele><time>2026-03-28T12:23:42.999Z</time></trkpt><trkpt lat="38.96451259010213" lon="8.920244644852396"><ele>468.5</ele><time>2026-03-28T12:23:43.999Z</time></trkpt><trkpt lat="38.964426888530994" lon="8.920283707911908"><ele>467.6666666666667</ele><time>2026-03-28T12:23:44.999Z</time></trkpt><trkpt lat="38.96435141373047" lon="8.920316216056069"><ele>466.83333333333337</ele><time>2026-03-28T12:23:45.999Z</time></trkpt><trkpt lat="38.96427344160925" lon="8.920337566888879"><ele>466.0</ele><time>2026-03-28T12:23:46.999Z</time></trkpt><trkpt lat="38.96411479043666" lon="8.920377939779742"><ele>465.20000000000005</ele><time>2026-03-28T12:23:48.999Z</time></trkpt><trkpt lat="38.96403676927462" lon="8.920405685711613"><ele>464.40000000000003</ele><time>2026-03-28T12:23:49.999Z</time></trkpt><trkpt lat="38.963965101564035" lon="8.920455209203578"><ele>463.6</ele><time>2026-03-28T12:23:50.999Z</time></trkpt><trkpt lat="38.963886772013744" lon="8.920530988105764"><ele>462.8</ele><time>2026-03-28T12:23:51.999Z</time></trkpt><trkpt lat="38.96380084712668" lon="8.920613203258217"><ele>462.0</ele><time>2026-03-28T12:23:52.999Z</time></trkpt><trkpt lat="38.963720105990724" lon="8.920691167050848"><ele>462.0</ele><time>2026-03-28T12:23:53.999Z</time></trkpt><trkpt lat="38.96363536763701" lon="8.920762968788582"><ele>462.0</ele><time>2026-03-28T12:23:54.999Z</time></trkpt><trkpt lat="38.96356887547485" lon="8.920830823114613"><ele>462.0</ele><time>2026-03-28T12:23:55.999Z</time></trkpt><trkpt lat="38.9635065488066" lon="8.920900638632823"><ele>462.0</ele><time>2026-03-28T12:23:56.999Z</time></trkpt><trkpt lat="38.963444194858766" lon="8.92098167178373"><ele>462.0</ele><time>2026-03-28T12:23:57.999Z</time></trkpt><trkpt lat="38.96337676455224" lon="8.921054046438858"><ele>462.0</ele><time>2026-03-28T12:23:58.999Z</time></trkpt><trkpt lat="38.963301779097804" lon="8.921116273893555"><ele>462.40000000000003</ele><time>2026-03-28T12:23:59.998Z</time></trkpt><trkpt lat="38.96321902324593" lon="8.921170993754696"><ele>462.80000000000007</ele><time>2026-03-28T12:24:00.998Z</time></trkpt><trkpt lat="38.96312981759933" lon="8.921228122510417"><ele>463.2</ele><time>2026-03-28T12:24:01.998Z</time></trkpt><trkpt lat="38.963051221062855" lon="8.921284347394833"><ele>463.6</ele><time>2026-03-28T12:24:02.998Z</time></trkpt><trkpt lat="38.96297169657026" lon="8.92136100909351"><ele>464.0</ele><time>2026-03-28T12:24:03.998Z</time></trkpt><trkpt lat="38.96289499874124" lon="8.921441798546976"><ele>464.0</ele><time>2026-03-28T12:24:04.998Z</time></trkpt><trkpt lat="38.96281736965096" lon="8.92152539443377"><ele>464.0</ele><time>2026-03-28T12:24:05.998Z</time></trkpt><trkpt lat="38.962736156268285" lon="8.92161706239101"><ele>464.0</ele><time>2026-03-28T12:24:06.998Z</time></trkpt><trkpt lat="38.962654333364" lon="8.921700751039982"><ele>464.0</ele><time>2026-03-28T12:24:07.998Z</time></trkpt><trkpt lat="38.962495574464995" lon="8.921843443959638"><ele>463.57142857142867</ele><time>2026-03-28T12:24:09.998Z</time></trkpt><trkpt lat="38.962440490525395" lon="8.921902584364437"><ele>463.14285714285717</ele><time>2026-03-28T12:24:10.998Z</time></trkpt><trkpt lat="38.96240937820208" lon="8.921973830608993"><ele>462.7142857142858</ele><time>2026-03-28T12:24:11.998Z</time></trkpt><trkpt lat="38.96238965573936" lon="8.92206701032566"><ele>462.28571428571433</ele><time>2026-03-28T12:24:12.998Z</time></trkpt><trkpt lat="38.96239124186406" lon="8.922160209108561"><ele>461.8571428571429</ele><time>2026-03-28T12:24:13.998Z</time></trkpt><trkpt lat="38.962413051788026" lon="8.922256165489058"><ele>461.42857142857144</ele><time>2026-03-28T12:24:14.998Z</time></trkpt><trkpt lat="38.96244209855435" lon="8.922359024809436"><ele>461.0</ele><time>2026-03-28T12:24:15.998Z</time></trkpt><trkpt lat="38.96249111739823" lon="8.922460199736392"><ele>461.20000000000005</ele><time>2026-03-28T12:24:16.998Z</time></trkpt><trkpt lat="38.96255633636952" lon="8.922546721305942"><ele>461.40000000000003</ele><time>2026-03-28T12:24:17.998Z</time></trkpt><trkpt lat="38.9626254848588" lon="8.922612942444553"><ele>461.6</ele><time>2026-03-28T12:24:18.998Z</time></trkpt><trkpt lat="38.962704065355624" lon="8.922735508501894"><ele>461.8</ele><time>2026-03-28T12:24:20.998Z</time></trkpt><trkpt lat="38.96271838809621" lon="8.922836535923214"><ele>462.0</ele><time>2026-03-28T12:24:21.998Z</time></trkpt><trkpt lat="38.96273283817732" lon="8.922941449259234"><ele>462.0</ele><time>2026-03-28T12:24:22.998Z</time></trkpt><trkpt lat="38.96275565433094" lon="8.923037855114465"><ele>462.0</ele><time>2026-03-28T12:24:23.998Z</time></trkpt><trkpt lat="38.962777523532765" lon="8.923142218851329"><ele>462.0</ele><time>2026-03-28T12:24:24.998Z</time></trkpt><trkpt lat="38.962791454778326" lon="8.923226372528909"><ele>462.0</ele><time>2026-03-28T12:24:25.998Z</time></trkpt><trkpt lat="38.96281022684437" lon="8.923335688570372"><ele>462.0</ele><time>2026-03-28T12:24:27.998Z</time></trkpt><trkpt lat="38.96287160448713" lon="8.923470080229748"><ele>462.0</ele><time>2026-03-28T12:24:29.998Z</time></trkpt><trkpt lat="38.96291388214709" lon="8.923647346169396"><ele>459.20000000000005</ele><time>2026-03-28T12:24:31.998Z</time></trkpt><trkpt lat="38.962912674680474" lon="8.923734371202043"><ele>456.40000000000003</ele><time>2026-03-28T12:24:32.998Z</time></trkpt><trkpt lat="38.96288309962172" lon="8.92381079853864"><ele>453.59999999999997</ele><time>2026-03-28T12:24:33.998Z</time></trkpt><trkpt lat="38.962788115256615" lon="8.923905555779694"><ele>450.79999999999995</ele><time>2026-03-28T12:24:35.998Z</time></trkpt><trkpt lat="38.96267599578614" lon="8.923943758061482"><ele>448.0</ele><time>2026-03-28T12:24:37.998Z</time></trkpt><trkpt lat="38.962618205747546" lon="8.924088355348417"><ele>448.0</ele><time>2026-03-28T12:24:39.997Z</time></trkpt><trkpt lat="38.96258883512172" lon="8.92416931938417"><ele>448.0</ele><time>2026-03-28T12:24:40.997Z</time></trkpt><trkpt lat="38.96254149206163" lon="8.924245822490027"><ele>448.0</ele><time>2026-03-28T12:24:41.997Z</time></trkpt><trkpt lat="38.96248834670679" lon="8.924318154347732"><ele>448.0</ele><time>2026-03-28T12:24:42.997Z</time></trkpt><trkpt lat="38.96243125126049" lon="8.92438604942218"><ele>448.0</ele><time>2026-03-28T12:24:43.997Z</time></trkpt><trkpt lat="38.96238079127816" lon="8.92444628228269"><ele>448.0</ele><time>2026-03-28T12:24:44.997Z</time></trkpt><trkpt lat="38.96232093451847" lon="8.924511481210244"><ele>448.0</ele><time>2026-03-28T12:24:45.997Z</time></trkpt><trkpt lat="38.962251467925334" lon="8.924576262808213"><ele>447.0</ele><time>2026-03-28T12:24:46.997Z</time></trkpt><trkpt lat="38.96218676182626" lon="8.924630254103677"><ele>445.99999999999994</ele><time>2026-03-28T12:24:47.997Z</time></trkpt><trkpt lat="38.96212257543736" lon="8.924687995440257"><ele>444.99999999999994</ele><time>2026-03-28T12:24:48.997Z</time></trkpt><trkpt lat="38.96205527915722" lon="8.924758686378127"><ele>444.0</ele><time>2026-03-28T12:24:49.997Z</time></trkpt><trkpt lat="38.96198528574133" lon="8.924839097879453"><ele>443.0</ele><time>2026-03-28T12:24:50.997Z</time></trkpt><trkpt lat="38.96181934068319" lon="8.92499950867775"><ele>442.49999999999994</ele><time>2026-03-28T12:24:52.997Z</time></trkpt><trkpt lat="38.96176792120554" lon="8.92507519647644"><ele>442.0</ele><time>2026-03-28T12:24:53.997Z</time></trkpt><trkpt lat="38.96171809693497" lon="8.925127998055586"><ele>441.5</ele><time>2026-03-28T12:24:54.997Z</time></trkpt><trkpt lat="38.96165478328625" lon="8.925171792254982"><ele>441.0</ele><time>2026-03-28T12:24:56Z</time></trkpt><trkpt lat="38.961574621231485" lon="8.92520535926765"><ele>440.49999999999994</ele><time>2026-03-28T12:24:57Z</time></trkpt><trkpt lat="38.96149005049006" lon="8.925260953118707"><ele>440.0</ele><time>2026-03-28T12:24:58Z</time></trkpt><trkpt lat="38.9614220952979" lon="8.925325253708921"><ele>441.3333333333333</ele><time>2026-03-28T12:24:59Z</time></trkpt><trkpt lat="38.96135496503825" lon="8.925379096659965"><ele>442.66666666666663</ele><time>2026-03-28T12:25:00Z</time></trkpt><trkpt lat="38.961268002427964" lon="8.925434114573951"><ele>444.0</ele><time>2026-03-28T12:25:02Z</time></trkpt><trkpt lat="38.96120367521114" lon="8.92545240500908"><ele>445.33333333333337</ele><time>2026-03-28T12:25:03Z</time></trkpt><trkpt lat="38.96113225449069" lon="8.925468285479761"><ele>446.6666666666667</ele><time>2026-03-28T12:25:04Z</time></trkpt><trkpt lat="38.96105269957137" lon="8.925470730453156"><ele>448.0</ele><time>2026-03-28T12:25:05Z</time></trkpt><trkpt lat="38.9609527641002" lon="8.925495001473536"><ele>447.83333333333337</ele><time>2026-03-28T12:25:06Z</time></trkpt><trkpt lat="38.9608577916909" lon="8.925519846521073"><ele>447.6666666666667</ele><time>2026-03-28T12:25:07Z</time></trkpt><trkpt lat="38.96077745516495" lon="8.925528091436014"><ele>447.5</ele><time>2026-03-28T12:25:08Z</time></trkpt><trkpt lat="38.96070218199353" lon="8.925547321434408"><ele>447.33333333333337</ele><time>2026-03-28T12:25:09Z</time></trkpt><trkpt lat="38.96061188840452" lon="8.925601677036056"><ele>447.1666666666667</ele><time>2026-03-28T12:25:10Z</time></trkpt><trkpt lat="38.96054430570091" lon="8.925669705948158"><ele>447.0</ele><time>2026-03-28T12:25:11Z</time></trkpt><trkpt lat="38.960483959366314" lon="8.925710390961797"><ele>447.0</ele><time>2026-03-28T12:25:12Z</time></trkpt><trkpt lat="38.96034678617362" lon="8.925740678548364"><ele>447.00000000000006</ele><time>2026-03-28T12:25:14Z</time></trkpt><trkpt lat="38.96028232430099" lon="8.925736283914869"><ele>447.00000000000006</ele><time>2026-03-28T12:25:15Z</time></trkpt><trkpt lat="38.9601956832037" lon="8.925724412330114"><ele>447.0</ele><time>2026-03-28T12:25:16Z</time></trkpt><trkpt lat="38.96009473905567" lon="8.925714376929585"><ele>447.0</ele><time>2026-03-28T12:25:17Z</time></trkpt><trkpt lat="38.9599925330052" lon="8.925701608564149"><ele>447.6666666666667</ele><time>2026-03-28T12:25:18Z</time></trkpt><trkpt lat="38.95989573094662" lon="8.925720412000038"><ele>448.33333333333337</ele><time>2026-03-28T12:25:19Z</time></trkpt><trkpt lat="38.95980696309764" lon="8.92575260544137"><ele>449.0</ele><time>2026-03-28T12:25:20Z</time></trkpt><trkpt lat="38.95973960344572" lon="8.925767682346338"><ele>449.6666666666667</ele><time>2026-03-28T12:25:21Z</time></trkpt><trkpt lat="38.959674537403316" lon="8.925773276066234"><ele>450.33333333333337</ele><time>2026-03-28T12:25:22Z</time></trkpt><trkpt lat="38.9595951120018" lon="8.925805482434038"><ele>451.0</ele><time>2026-03-28T12:25:23Z</time></trkpt><trkpt lat="38.95954834956069" lon="8.92587321327926"><ele>452.6</ele><time>2026-03-28T12:25:24Z</time></trkpt><trkpt lat="38.959534321676884" lon="8.926023150590586"><ele>454.20000000000005</ele><time>2026-03-28T12:25:26Z</time></trkpt><trkpt lat="38.959527435938426" lon="8.926104098108091"><ele>455.79999999999995</ele><time>2026-03-28T12:25:27Z</time></trkpt><trkpt lat="38.959488503991814" lon="8.926199262212359"><ele>457.4</ele><time>2026-03-28T12:25:28.999Z</time></trkpt><trkpt lat="38.959364890253404" lon="8.926183598912559"><ele>459.0</ele><time>2026-03-28T12:25:31.999Z</time></trkpt><trkpt lat="38.95928247644135" lon="8.926180754702175"><ele>459.6</ele><time>2026-03-28T12:25:32.999Z</time></trkpt><trkpt lat="38.959116049137876" lon="8.926244017122771"><ele>460.2</ele><time>2026-03-28T12:25:34.999Z</time></trkpt><trkpt lat="38.95904080341485" lon="8.926288853351574"><ele>460.80000000000007</ele><time>2026-03-28T12:25:35.999Z</time></trkpt><trkpt lat="38.95897359379781" lon="8.926332651686527"><ele>461.40000000000003</ele><time>2026-03-28T12:25:36.999Z</time></trkpt><trkpt lat="38.958930683386654" lon="8.926396422214685"><ele>462.0</ele><time>2026-03-28T12:25:37.999Z</time></trkpt><trkpt lat="38.95887923465492" lon="8.926480012237919"><ele>462.0</ele><time>2026-03-28T12:25:39.999Z</time></trkpt><trkpt lat="38.95877752185307" lon="8.926457504166168"><ele>462.0</ele><time>2026-03-28T12:25:41.999Z</time></trkpt><trkpt lat="38.95869826075419" lon="8.926429474973272"><ele>462.0</ele><time>2026-03-28T12:25:42.999Z</time></trkpt><trkpt lat="38.958611797006824" lon="8.926400836826692"><ele>462.0</ele><time>2026-03-28T12:25:43.999Z</time></trkpt><trkpt lat="38.958529960653465" lon="8.926399278864693"><ele>462.0</ele><time>2026-03-28T12:25:44.999Z</time></trkpt><trkpt lat="38.95843933949376" lon="8.9264194396278"><ele>462.0</ele><time>2026-03-28T12:25:45.999Z</time></trkpt><trkpt lat="38.95836606659724" lon="8.926444078849025"><ele>463.5</ele><time>2026-03-28T12:25:46.999Z</time></trkpt><trkpt lat="38.95829937850766" lon="8.926433436425315"><ele>465.0</ele><time>2026-03-28T12:25:47.999Z</time></trkpt><trkpt lat="38.95822826874462" lon="8.926399388956249"><ele>466.5</ele><time>2026-03-28T12:25:48.999Z</time></trkpt><trkpt lat="38.9581303754831" lon="8.926348485659572"><ele>468.0</ele><time>2026-03-28T12:25:49.999Z</time></trkpt><trkpt lat="38.95803534656184" lon="8.92631545430036"><ele>469.5</ele><time>2026-03-28T12:25:50.999Z</time></trkpt><trkpt lat="38.957970400945506" lon="8.926291557986216"><ele>471.0</ele><time>2026-03-28T12:25:51.999Z</time></trkpt><trkpt lat="38.9578885693793" lon="8.926159502348094"><ele>471.0</ele><time>2026-03-28T12:25:53.999Z</time></trkpt><trkpt lat="38.95778380129568" lon="8.926002696873415"><ele>471.0</ele><time>2026-03-28T12:25:55.999Z</time></trkpt><trkpt lat="38.95771887737728" lon="8.925909241373864"><ele>471.0</ele><time>2026-03-28T12:25:57.999Z</time></trkpt><trkpt lat="38.957655386136096" lon="8.925850817047168"><ele>471.0</ele><time>2026-03-28T12:26:00.999Z</time></trkpt><trkpt lat="38.95762292406691" lon="8.92576594892949"><ele>471.0</ele><time>2026-03-28T12:26:12.998Z</time></trkpt><trkpt lat="38.957590166399875" lon="8.925653881626765"><ele>472.0</ele><time>2026-03-28T12:26:14.998Z</time></trkpt><trkpt lat="38.95747927462264" lon="8.925465710847948"><ele>473.0</ele><time>2026-03-28T12:26:17.998Z</time></trkpt><trkpt lat="38.95739515533357" lon="8.92537390858207"><ele>474.0</ele><time>2026-03-28T12:26:19.998Z</time></trkpt><trkpt lat="38.95734773077243" lon="8.92525571323732"><ele>475.0</ele><time>2026-03-28T12:26:21.998Z</time></trkpt><trkpt lat="38.957272574847174" lon="8.925222306675341"><ele>475.0</ele><time>2026-03-28T12:26:23.998Z</time></trkpt><trkpt lat="38.9571920640415" lon="8.925281521177912"><ele>475.0</ele><time>2026-03-28T12:26:25.998Z</time></trkpt><trkpt lat="38.95717452308333" lon="8.92536262861344"><ele>475.0</ele><time>2026-03-28T12:26:26.998Z</time></trkpt><trkpt lat="38.957163940859786" lon="8.925496065870263"><ele>475.0</ele><time>2026-03-28T12:26:28.998Z</time></trkpt><trkpt lat="38.95712333248539" lon="8.925605147486479"><ele>475.0</ele><time>2026-03-28T12:26:30.998Z</time></trkpt><trkpt lat="38.957032464470025" lon="8.925657963438876"><ele>475.0</ele><time>2026-03-28T12:26:32.998Z</time></trkpt><trkpt lat="38.95695014072097" lon="8.92564382563923"><ele>475.0</ele><time>2026-03-28T12:26:34.998Z</time></trkpt><trkpt lat="38.95690843162225" lon="8.92555717078155"><ele>475.0</ele><time>2026-03-28T12:26:37.998Z</time></trkpt><trkpt lat="38.95691826747707" lon="8.92531227761557"><ele>475.0</ele><time>2026-03-28T12:26:40.998Z</time></trkpt><trkpt lat="38.95690363622772" lon="8.925233442059284"><ele>475.0</ele><time>2026-03-28T12:26:41.998Z</time></trkpt><trkpt lat="38.95688164808424" lon="8.925127441847067"><ele>474.50000000000006</ele><time>2026-03-28T12:26:42.998Z</time></trkpt><trkpt lat="38.95686948430367" lon="8.92501479665918"><ele>474.0</ele><time>2026-03-28T12:26:43.998Z</time></trkpt><trkpt lat="38.95685395822107" lon="8.924898762698092"><ele>473.5</ele><time>2026-03-28T12:26:44.998Z</time></trkpt><trkpt lat="38.95681631263574" lon="8.924775300903246"><ele>473.0</ele><time>2026-03-28T12:26:45.998Z</time></trkpt><trkpt lat="38.95679357571429" lon="8.924672441341123"><ele>472.50000000000006</ele><time>2026-03-28T12:26:46.998Z</time></trkpt><trkpt lat="38.95678337178111" lon="8.924573291479335"><ele>472.0</ele><time>2026-03-28T12:26:47.998Z</time></trkpt><trkpt lat="38.95677716199498" lon="8.924487583463197"><ele>472.0</ele><time>2026-03-28T12:26:48.998Z</time></trkpt><trkpt lat="38.95673749138058" lon="8.924376174048286"><ele>472.00000000000006</ele><time>2026-03-28T12:26:50.997Z</time></trkpt><trkpt lat="38.956673042924834" lon="8.924282436877919"><ele>472.00000000000006</ele><time>2026-03-28T12:26:52.997Z</time></trkpt><trkpt lat="38.95662405596859" lon="8.924168914362347"><ele>472.0</ele><time>2026-03-28T12:26:54.997Z</time></trkpt><trkpt lat="38.95665876413464" lon="8.924045958866122"><ele>472.0</ele><time>2026-03-28T12:26:56.997Z</time></trkpt><trkpt lat="38.95668811917446" lon="8.9239704746782"><ele>470.75</ele><time>2026-03-28T12:26:57.997Z</time></trkpt><trkpt lat="38.95675983865127" lon="8.923839803370669"><ele>469.5</ele><time>2026-03-28T12:26:59.997Z</time></trkpt><trkpt lat="38.95686380713072" lon="8.923653223464973"><ele>468.25</ele><time>2026-03-28T12:27:03Z</time></trkpt><trkpt lat="38.956946896292735" lon="8.923578531989413"><ele>467.0</ele><time>2026-03-28T12:27:05Z</time></trkpt><trkpt lat="38.956890052186054" lon="8.923508774568326"><ele>466.99999999999994</ele><time>2026-03-28T12:27:08Z</time></trkpt><trkpt lat="38.95682105610609" lon="8.923459358656519"><ele>467.0</ele><time>2026-03-28T12:27:09Z</time></trkpt><trkpt lat="38.95674915763667" lon="8.923463237577222"><ele>467.0</ele><time>2026-03-28T12:27:10Z</time></trkpt><trkpt lat="38.95661294724554" lon="8.923492146546014"><ele>467.0</ele><time>2026-03-28T12:27:12Z</time></trkpt><trkpt lat="38.956537831020256" lon="8.923494519010086"><ele>466.99999999999994</ele><time>2026-03-28T12:27:13Z</time></trkpt><trkpt lat="38.95646952226852" lon="8.923500934890917"><ele>467.0</ele><time>2026-03-28T12:27:14Z</time></trkpt><trkpt lat="38.9564064806324" lon="8.92350641439366"><ele>463.75</ele><time>2026-03-28T12:27:15Z</time></trkpt><trkpt lat="38.956322862955254" lon="8.923468900876626"><ele>460.5</ele><time>2026-03-28T12:27:17Z</time></trkpt><trkpt lat="38.95625586553159" lon="8.923339161259388"><ele>457.25</ele><time>2026-03-28T12:27:19Z</time></trkpt><trkpt lat="38.95627576953738" lon="8.923222756043122"><ele>454.0</ele><time>2026-03-28T12:27:21Z</time></trkpt><trkpt lat="38.9564347009437" lon="8.923047292917309"><ele>454.28571428571433</ele><time>2026-03-28T12:27:24Z</time></trkpt><trkpt lat="38.956498347032266" lon="8.922995046090724"><ele>454.5714285714286</ele><time>2026-03-28T12:27:25Z</time></trkpt><trkpt lat="38.95655459644679" lon="8.922945146966065"><ele>454.8571428571429</ele><time>2026-03-28T12:27:26Z</time></trkpt><trkpt lat="38.956616657889384" lon="8.922906212249325"><ele>455.1428571428571</ele><time>2026-03-28T12:27:27Z</time></trkpt><trkpt lat="38.956676596037894" lon="8.922862682140982"><ele>455.4285714285714</ele><time>2026-03-28T12:27:28Z</time></trkpt><trkpt lat="38.95672648848581" lon="8.922808397983077"><ele>455.71428571428567</ele><time>2026-03-28T12:27:29Z</time></trkpt><trkpt lat="38.956767715629454" lon="8.922691977117855"><ele>456.0</ele><time>2026-03-28T12:27:31Z</time></trkpt><trkpt lat="38.95681578193905" lon="8.922562468836514"><ele>452.0</ele><time>2026-03-28T12:27:33Z</time></trkpt><trkpt lat="38.956821875723946" lon="8.922474396414865"><ele>448.0</ele><time>2026-03-28T12:27:35.999Z</time></trkpt><trkpt lat="38.95675439097609" lon="8.922407668362755"><ele>444.0</ele><time>2026-03-28T12:27:38.999Z</time></trkpt><trkpt lat="38.95667617683312" lon="8.922424537307315"><ele>440.0</ele><time>2026-03-28T12:27:40.999Z</time></trkpt><trkpt lat="38.9565674039031" lon="8.922436720167335"><ele>436.0</ele><time>2026-03-28T12:27:42.999Z</time></trkpt><trkpt lat="38.95636496943239" lon="8.922397663422428"><ele>434.1666666666667</ele><time>2026-03-28T12:27:46.999Z</time></trkpt><trkpt lat="38.95626921375089" lon="8.922379265637417"><ele>432.33333333333337</ele><time>2026-03-28T12:27:48.999Z</time></trkpt><trkpt lat="38.95620038462297" lon="8.922363528988196"><ele>430.5</ele><time>2026-03-28T12:27:50.999Z</time></trkpt><trkpt lat="38.95610245316806" lon="8.922353521060733"><ele>428.66666666666663</ele><time>2026-03-28T12:27:53.999Z</time></trkpt><trkpt lat="38.956057692887505" lon="8.922266293924952"><ele>426.8333333333333</ele><time>2026-03-28T12:27:56.999Z</time></trkpt><trkpt lat="38.95609547552621" lon="8.922180440877488"><ele>425.0</ele><time>2026-03-28T12:27:58.999Z</time></trkpt><trkpt lat="38.95614591237665" lon="8.922086397039813"><ele>424.99999999999994</ele><time>2026-03-28T12:28:00.999Z</time></trkpt><trkpt lat="38.956133616920454" lon="8.921980973077188"><ele>425.0</ele><time>2026-03-28T12:28:02.999Z</time></trkpt><trkpt lat="38.956032221419136" lon="8.921958776163011"><ele>425.0</ele><time>2026-03-28T12:28:04.999Z</time></trkpt><trkpt lat="38.95590493974832" lon="8.921992217573127"><ele>425.0</ele><time>2026-03-28T12:28:06.999Z</time></trkpt><trkpt lat="38.955840162286414" lon="8.922007892760066"><ele>424.99999999999994</ele><time>2026-03-28T12:28:07.999Z</time></trkpt><trkpt lat="38.95577883640492" lon="8.922035172378127"><ele>425.0</ele><time>2026-03-28T12:28:08.999Z</time></trkpt><trkpt lat="38.955669675725645" lon="8.922100413182232"><ele>423.16666666666663</ele><time>2026-03-28T12:28:10.999Z</time></trkpt><trkpt lat="38.95556868050476" lon="8.922161921474242"><ele>421.3333333333333</ele><time>2026-03-28T12:28:12.999Z</time></trkpt><trkpt lat="38.95547209869417" lon="8.922131212708885"><ele>419.5</ele><time>2026-03-28T12:28:15.998Z</time></trkpt><trkpt lat="38.9554228248011" lon="8.922069450978368"><ele>417.66666666666663</ele><time>2026-03-28T12:28:17.998Z</time></trkpt><trkpt lat="38.95537173123078" lon="8.92199987789959"><ele>415.8333333333333</ele><time>2026-03-28T12:28:19.998Z</time></trkpt><trkpt lat="38.955388686788474" lon="8.921918565659153"><ele>414.0</ele><time>2026-03-28T12:28:21.998Z</time></trkpt><trkpt lat="38.95543767611872" lon="8.921811442806725"><ele>414.0</ele><time>2026-03-28T12:28:22.998Z</time></trkpt><trkpt lat="38.95548347637294" lon="8.921752854323048"><ele>414.0</ele><time>2026-03-28T12:28:23.998Z</time></trkpt><trkpt lat="38.9555602435614" lon="8.921704349459354"><ele>414.0</ele><time>2026-03-28T12:28:25.998Z</time></trkpt><trkpt lat="38.95563731033894" lon="8.921546689520506"><ele>414.0</ele><time>2026-03-28T12:28:31.998Z</time></trkpt><trkpt lat="38.955587458228464" lon="8.921495027263472"><ele>414.0</ele><time>2026-03-28T12:28:33.998Z</time></trkpt><trkpt lat="38.95557980336001" lon="8.92139847795523"><ele>414.0</ele><time>2026-03-28T12:28:34.998Z</time></trkpt><trkpt lat="38.95551709189655" lon="8.921380256373919"><ele>411.3333333333333</ele><time>2026-03-28T12:28:35.998Z</time></trkpt><trkpt lat="38.95542010617572" lon="8.921362302296012"><ele>408.66666666666663</ele><time>2026-03-28T12:28:37.998Z</time></trkpt><trkpt lat="38.955356692690295" lon="8.921357226373095"><ele>406.0</ele><time>2026-03-28T12:28:40.998Z</time></trkpt><trkpt lat="38.95528764329918" lon="8.921295364598402"><ele>403.3333333333333</ele><time>2026-03-28T12:28:43.998Z</time></trkpt><trkpt lat="38.95521553212733" lon="8.92118401151435"><ele>400.66666666666663</ele><time>2026-03-28T12:28:45.998Z</time></trkpt><trkpt lat="38.95523898295347" lon="8.921093387224666"><ele>398.0</ele><time>2026-03-28T12:28:47.998Z</time></trkpt><trkpt lat="38.95544366835584" lon="8.921053430009334"><ele>397.99999999999994</ele><time>2026-03-28T12:28:51.998Z</time></trkpt><trkpt lat="38.955509108733104" lon="8.921058553196879"><ele>398.0</ele><time>2026-03-28T12:28:52.998Z</time></trkpt><trkpt lat="38.955593825431045" lon="8.921048787627106"><ele>398.0</ele><time>2026-03-28T12:28:54.997Z</time></trkpt><trkpt lat="38.95564427709288" lon="8.920961585910893"><ele>398.0</ele><time>2026-03-28T12:28:57.997Z</time></trkpt><trkpt lat="38.95561786600073" lon="8.920879969446444"><ele>397.99999999999994</ele><time>2026-03-28T12:28:59.997Z</time></trkpt><trkpt lat="38.95550952778675" lon="8.920828569176939"><ele>398.0</ele><time>2026-03-28T12:29:01.997Z</time></trkpt><trkpt lat="38.95544865376952" lon="8.920802076430201"><ele>394.0</ele><time>2026-03-28T12:29:02.997Z</time></trkpt><trkpt lat="38.955380453559904" lon="8.92072854837877"><ele>390.0</ele><time>2026-03-28T12:29:04.997Z</time></trkpt><trkpt lat="38.95546335366067" lon="8.920665780565711"><ele>386.0</ele><time>2026-03-28T12:29:09Z</time></trkpt><trkpt lat="38.95561079682138" lon="8.920639273386694"><ele>382.0</ele><time>2026-03-28T12:29:14Z</time></trkpt><trkpt lat="38.95577411085572" lon="8.920673793864607"><ele>384.8</ele><time>2026-03-28T12:29:16Z</time></trkpt><trkpt lat="38.955881199893035" lon="8.920699651782389"><ele>387.6</ele><time>2026-03-28T12:29:18Z</time></trkpt><trkpt lat="38.955959687366665" lon="8.920662360527293"><ele>390.40000000000003</ele><time>2026-03-28T12:29:20Z</time></trkpt><trkpt lat="38.95599607712604" lon="8.92057175455202"><ele>393.20000000000005</ele><time>2026-03-28T12:29:22Z</time></trkpt><trkpt lat="38.956026867375925" lon="8.920443180922883"><ele>396.0</ele><time>2026-03-28T12:29:24Z</time></trkpt><trkpt lat="38.95606687515297" lon="8.920326062950528"><ele>396.0</ele><time>2026-03-28T12:29:25Z</time></trkpt><trkpt lat="38.95609458065287" lon="8.920170500013043"><ele>396.0</ele><time>2026-03-28T12:29:27Z</time></trkpt><trkpt lat="38.95605900267004" lon="8.920028495883965"><ele>396.0</ele><time>2026-03-28T12:29:29Z</time></trkpt><trkpt lat="38.956026391981105" lon="8.919953350855835"><ele>396.0</ele><time>2026-03-28T12:29:32Z</time></trkpt><trkpt lat="38.95618499675343" lon="8.919858308506596"><ele>393.5</ele><time>2026-03-28T12:29:35Z</time></trkpt><trkpt lat="38.95626137719168" lon="8.919778382150358"><ele>391.0</ele><time>2026-03-28T12:29:36Z</time></trkpt><trkpt lat="38.95631761477836" lon="8.919705684420977"><ele>388.5</ele><time>2026-03-28T12:29:37Z</time></trkpt><trkpt lat="38.956376083234524" lon="8.919643991521335"><ele>386.0</ele><time>2026-03-28T12:29:37.999Z</time></trkpt><trkpt lat="38.956440545887325" lon="8.919585178547306"><ele>383.5</ele><time>2026-03-28T12:29:38.999Z</time></trkpt><trkpt lat="38.95650487892842" lon="8.919534543084858"><ele>381.0</ele><time>2026-03-28T12:29:39.999Z</time></trkpt><trkpt lat="38.95656699974425" lon="8.919492964904629"><ele>381.0</ele><time>2026-03-28T12:29:40.999Z</time></trkpt><trkpt lat="38.956623513203176" lon="8.919453805170757"><ele>381.0</ele><time>2026-03-28T12:29:41.999Z</time></trkpt><trkpt lat="38.95672498785715" lon="8.91942400648502"><ele>381.0</ele><time>2026-03-28T12:29:43.999Z</time></trkpt><trkpt lat="38.956837265879095" lon="8.919460484639623"><ele>381.0</ele><time>2026-03-28T12:29:45.999Z</time></trkpt><trkpt lat="38.956937985709686" lon="8.919457963718866"><ele>381.0</ele><time>2026-03-28T12:29:47.999Z</time></trkpt><trkpt lat="38.95703295847547" lon="8.919437272753422"><ele>381.75</ele><time>2026-03-28T12:29:49.999Z</time></trkpt><trkpt lat="38.95710560942944" lon="8.919430266729186"><ele>382.5</ele><time>2026-03-28T12:29:52.999Z</time></trkpt><trkpt lat="38.95733351480496" lon="8.919472357625233"><ele>383.25</ele><time>2026-03-28T12:29:54.999Z</time></trkpt><trkpt lat="38.957399467837504" lon="8.919479894254243"><ele>384.0</ele><time>2026-03-28T12:29:55.999Z</time></trkpt><trkpt lat="38.95750262931333" lon="8.919470426230813"><ele>383.5</ele><time>2026-03-28T12:29:57.999Z</time></trkpt><trkpt lat="38.957592548013366" lon="8.919442549571755"><ele>383.0</ele><time>2026-03-28T12:29:59.999Z</time></trkpt><trkpt lat="38.95768918654622" lon="8.919394309192427"><ele>382.5</ele><time>2026-03-28T12:30:01.999Z</time></trkpt><trkpt lat="38.95775208870337" lon="8.91937478154529"><ele>382.0</ele><time>2026-03-28T12:30:02.999Z</time></trkpt><trkpt lat="38.95782149516721" lon="8.919351746827227"><ele>381.5</ele><time>2026-03-28T12:30:03.999Z</time></trkpt><trkpt lat="38.95792402460028" lon="8.919392733831794"><ele>381.0</ele><time>2026-03-28T12:30:05.999Z</time></trkpt><trkpt lat="38.95802561255897" lon="8.919478771629183"><ele>381.0</ele><time>2026-03-28T12:30:07.999Z</time></trkpt><trkpt lat="38.958096247442136" lon="8.919478470103341"><ele>381.0</ele><time>2026-03-28T12:30:08.999Z</time></trkpt><trkpt lat="38.95821652379338" lon="8.919488640321513"><ele>381.0</ele><time>2026-03-28T12:30:10.999Z</time></trkpt><trkpt lat="38.95829123972942" lon="8.919513641171548"><ele>381.0</ele><time>2026-03-28T12:30:12.999Z</time></trkpt><trkpt lat="38.9583742305129" lon="8.919550820875287"><ele>381.0</ele><time>2026-03-28T12:30:14.999Z</time></trkpt><trkpt lat="38.95837062459843" lon="8.91942171010654"><ele>381.0</ele><time>2026-03-28T12:30:21.998Z</time></trkpt><trkpt lat="38.95831426714468" lon="8.919341479929885"><ele>381.0</ele><time>2026-03-28T12:30:23.998Z</time></trkpt><trkpt lat="38.95828982507257" lon="8.919216165647008"><ele>381.0</ele><time>2026-03-28T12:30:25.998Z</time></trkpt><trkpt lat="38.95825812104857" lon="8.919128961650529"><ele>381.0</ele><time>2026-03-28T12:30:26.998Z</time></trkpt><trkpt lat="38.95821523647829" lon="8.919068654486507"><ele>381.0</ele><time>2026-03-28T12:30:27.998Z</time></trkpt><trkpt lat="38.95810980827348" lon="8.919008079267284"><ele>381.0</ele><time>2026-03-28T12:30:29.998Z</time></trkpt><trkpt lat="38.95800871807134" lon="8.918909181173031"><ele>379.8</ele><time>2026-03-28T12:30:31.998Z</time></trkpt><trkpt lat="38.957949986020935" lon="8.918872573078291"><ele>378.6</ele><time>2026-03-28T12:30:32.998Z</time></trkpt><trkpt lat="38.9578855363273" lon="8.91884715476363"><ele>377.4</ele><time>2026-03-28T12:30:33.998Z</time></trkpt><trkpt lat="38.95782210391976" lon="8.918817416325782"><ele>376.2</ele><time>2026-03-28T12:30:34.998Z</time></trkpt><trkpt lat="38.95775626412641" lon="8.918806850587481"><ele>375.0</ele><time>2026-03-28T12:30:35.998Z</time></trkpt><trkpt lat="38.95764468813604" lon="8.91860166081816"><ele>375.0</ele><time>2026-03-28T12:30:39.998Z</time></trkpt><trkpt lat="38.95761531040552" lon="8.918522779520908"><ele>375.0</ele><time>2026-03-28T12:30:40.998Z</time></trkpt><trkpt lat="38.95758370990939" lon="8.918445500886692"><ele>375.0</ele><time>2026-03-28T12:30:41.998Z</time></trkpt><trkpt lat="38.95750817979667" lon="8.918337560143545"><ele>375.0</ele><time>2026-03-28T12:30:43.998Z</time></trkpt><trkpt lat="38.95746477106147" lon="8.918233938140748"><ele>375.0</ele><time>2026-03-28T12:30:45.998Z</time></trkpt><trkpt lat="38.95739001264704" lon="8.918137864061336"><ele>375.0</ele><time>2026-03-28T12:30:48.998Z</time></trkpt><trkpt lat="38.95734110239439" lon="8.918058638770766"><ele>370.8</ele><time>2026-03-28T12:30:50.998Z</time></trkpt><trkpt lat="38.95730225968152" lon="8.91797851563994"><ele>366.6</ele><time>2026-03-28T12:30:52.998Z</time></trkpt><trkpt lat="38.957317078723975" lon="8.917864190062385"><ele>362.4</ele><time>2026-03-28T12:30:54.998Z</time></trkpt><trkpt lat="38.95737930310011" lon="8.91779768603519"><ele>358.2</ele><time>2026-03-28T12:30:56.997Z</time></trkpt><trkpt lat="38.95747371188333" lon="8.917661585887352"><ele>354.0</ele><time>2026-03-28T12:30:59.997Z</time></trkpt><trkpt lat="38.95751764715851" lon="8.917602664433096"><ele>357.4</ele><time>2026-03-28T12:31:01.997Z</time></trkpt><trkpt lat="38.957594793417805" lon="8.917521221561607"><ele>360.79999999999995</ele><time>2026-03-28T12:31:05.997Z</time></trkpt><trkpt lat="38.95761217546627" lon="8.917439952406081"><ele>364.20000000000005</ele><time>2026-03-28T12:31:08.997Z</time></trkpt><trkpt lat="38.95767165065611" lon="8.917399941242751"><ele>367.6</ele><time>2026-03-28T12:31:50.999Z</time></trkpt><trkpt lat="38.9578209451863" lon="8.917242516338819"><ele>371.0</ele><time>2026-03-28T12:31:53.999Z</time></trkpt><trkpt lat="38.95787083169379" lon="8.917178576468737"><ele>371.0</ele><time>2026-03-28T12:31:54.999Z</time></trkpt><trkpt lat="38.95791737692893" lon="8.917113175768474"><ele>371.0</ele><time>2026-03-28T12:31:55.999Z</time></trkpt><trkpt lat="38.95798843535545" lon="8.916994988170687"><ele>371.0</ele><time>2026-03-28T12:31:57.999Z</time></trkpt><trkpt lat="38.95800517927819" lon="8.916855582324198"><ele>371.0</ele><time>2026-03-28T12:31:59.999Z</time></trkpt><trkpt lat="38.95798675840308" lon="8.916700160160028"><ele>371.0</ele><time>2026-03-28T12:32:01.999Z</time></trkpt><trkpt lat="38.95792575871547" lon="8.916569183972774"><ele>368.0</ele><time>2026-03-28T12:32:03.999Z</time></trkpt><trkpt lat="38.95787709525182" lon="8.916446966303164"><ele>365.0</ele><time>2026-03-28T12:32:05.999Z</time></trkpt><trkpt lat="38.957818319792445" lon="8.916322311914639"><ele>362.0</ele><time>2026-03-28T12:32:07.999Z</time></trkpt><trkpt lat="38.95780119643564" lon="8.916168970459239"><ele>359.0</ele><time>2026-03-28T12:32:09.999Z</time></trkpt><trkpt lat="38.95785210153116" lon="8.916027935057313"><ele>359.0</ele><time>2026-03-28T12:32:11.999Z</time></trkpt><trkpt lat="38.957878605942895" lon="8.91587018372075"><ele>359.0</ele><time>2026-03-28T12:32:15.999Z</time></trkpt><trkpt lat="38.95777612028688" lon="8.91595327114242"><ele>359.0</ele><time>2026-03-28T12:32:20.999Z</time></trkpt><trkpt lat="38.95771474146171" lon="8.916084139971595"><ele>359.0</ele><time>2026-03-28T12:32:24.999Z</time></trkpt><trkpt lat="38.957687830920236" lon="8.916212900381652"><ele>359.0</ele><time>2026-03-28T12:32:25.999Z</time></trkpt><trkpt lat="38.95767164349369" lon="8.916333240925118"><ele>359.0</ele><time>2026-03-28T12:32:26.998Z</time></trkpt><trkpt lat="38.957661682876434" lon="8.916418029308083"><ele>359.0</ele><time>2026-03-28T12:32:27.998Z</time></trkpt><trkpt lat="38.95767627015597" lon="8.916528318538353"><ele>359.0</ele><time>2026-03-28T12:32:29.998Z</time></trkpt><trkpt lat="38.95764778135404" lon="8.916651813361128"><ele>359.0</ele><time>2026-03-28T12:32:31.998Z</time></trkpt><trkpt lat="38.95759608849016" lon="8.916725202340666"><ele>359.0</ele><time>2026-03-28T12:32:34.998Z</time></trkpt><trkpt lat="38.95747162837158" lon="8.916562434495706"><ele>360.83333333333337</ele><time>2026-03-28T12:32:41.998Z</time></trkpt><trkpt lat="38.95744296328151" lon="8.916485657762006"><ele>362.6666666666667</ele><time>2026-03-28T12:32:42.998Z</time></trkpt><trkpt lat="38.95741052775708" lon="8.916362563810539"><ele>364.5</ele><time>2026-03-28T12:32:44.998Z</time></trkpt><trkpt lat="38.95743939501943" lon="8.91625400002063"><ele>366.3333333333333</ele><time>2026-03-28T12:32:46.998Z</time></trkpt><trkpt lat="38.95747318344499" lon="8.916145372406383"><ele>368.16666666666663</ele><time>2026-03-28T12:32:47.998Z</time></trkpt><trkpt lat="38.9575093100438" lon="8.916045734568655"><ele>370.0</ele><time>2026-03-28T12:32:48.998Z</time></trkpt><trkpt lat="38.95753370356307" lon="8.915958904560949"><ele>370.0</ele><time>2026-03-28T12:32:49.998Z</time></trkpt><trkpt lat="38.957559790148004" lon="8.915878772457418"><ele>370.0</ele><time>2026-03-28T12:32:50.998Z</time></trkpt><trkpt lat="38.95752313340301" lon="8.915812607274153"><ele>370.0</ele><time>2026-03-28T12:32:53.998Z</time></trkpt><trkpt lat="38.95750221915645" lon="8.915909419731767"><ele>370.0</ele><time>2026-03-28T12:32:55.998Z</time></trkpt><trkpt lat="38.95733726423455" lon="8.916035580898546"><ele>370.0</ele><time>2026-03-28T12:33:01.998Z</time></trkpt><trkpt lat="38.957263936239826" lon="8.916153292229826"><ele>370.0</ele><time>2026-03-28T12:33:03.998Z</time></trkpt><trkpt lat="38.95719517081941" lon="8.916252981694004"><ele>370.0</ele><time>2026-03-28T12:33:04.998Z</time></trkpt><trkpt lat="38.957118389785514" lon="8.916355713119962"><ele>370.0</ele><time>2026-03-28T12:33:05.997Z</time></trkpt><trkpt lat="38.957072389035986" lon="8.916448084992785"><ele>370.0</ele><time>2026-03-28T12:33:06.997Z</time></trkpt><trkpt lat="38.95700635798191" lon="8.916510686405555"><ele>370.0</ele><time>2026-03-28T12:33:07.997Z</time></trkpt><trkpt lat="38.956923640700644" lon="8.91659171613275"><ele>370.0</ele><time>2026-03-28T12:33:09.997Z</time></trkpt><trkpt lat="38.956868338315644" lon="8.91663209146182"><ele>370.0</ele><time>2026-03-28T12:33:10.997Z</time></trkpt><trkpt lat="38.956810397395635" lon="8.916682686545693"><ele>370.0</ele><time>2026-03-28T12:33:11.997Z</time></trkpt><trkpt lat="38.95672907878778" lon="8.916696653310304"><ele>370.0</ele><time>2026-03-28T12:33:12.997Z</time></trkpt><trkpt lat="38.9566442966541" lon="8.916715961763252"><ele>370.0</ele><time>2026-03-28T12:33:13.997Z</time></trkpt><trkpt lat="38.95656043891283" lon="8.91669824593622"><ele>370.0</ele><time>2026-03-28T12:33:15.997Z</time></trkpt><trkpt lat="38.95649703700296" lon="8.916673075893202"><ele>391.0</ele><time>2026-03-28T12:33:17.997Z</time></trkpt></trkseg></trk></gpx>